<?xml version="1.0" encoding="UTF-8"?><gpx version="1.0" creator="dbj" xmlns="http://www.topografix.com/GPX/1/0"><time>2020-02-09T08:00:03Z</time><bounds minlat="43.82894604" minlon="11.18601398" maxlat="43.85097904" maxlon="11.22437099"/><wpt lat="43.832556037" lon="11.186030991"><name>Start Lat:43.8326, Lon:11.186</name><sym>Start</sym><ele>44</ele></wpt><trk><trkseg><trkpt lat="43.832556037" lon="11.186030991"><ele>44</ele><time>2020-02-09T08:00:03Z</time></trkpt>
<trkpt lat="43.832579004" lon="11.186049012"><ele>44</ele><time>2020-02-09T08:00:04Z</time></trkpt>
<trkpt lat="43.832602976" lon="11.186068961"><ele>44</ele><time>2020-02-09T08:00:05Z</time></trkpt>
<trkpt lat="43.832627032" lon="11.186088994"><ele>45</ele><time>2020-02-09T08:00:06Z</time></trkpt>
<trkpt lat="43.83265201" lon="11.186110033"><ele>45</ele><time>2020-02-09T08:00:07Z</time></trkpt>
<trkpt lat="43.832677994" lon="11.186132999"><ele>45</ele><time>2020-02-09T08:00:08Z</time></trkpt>
<trkpt lat="43.832703978" lon="11.186155966"><ele>45</ele><time>2020-02-09T08:00:09Z</time></trkpt>
<trkpt lat="43.832729962" lon="11.186180022"><ele>45</ele><time>2020-02-09T08:00:10Z</time></trkpt>
<trkpt lat="43.832757035" lon="11.186205"><ele>45</ele><time>2020-02-09T08:00:11Z</time></trkpt>
<trkpt lat="43.832785031" lon="11.186230984"><ele>45</ele><time>2020-02-09T08:00:12Z</time></trkpt>
<trkpt lat="43.832813026" lon="11.186256967"><ele>45</ele><time>2020-02-09T08:00:13Z</time></trkpt>
<trkpt lat="43.832841022" lon="11.186284963"><ele>45</ele><time>2020-02-09T08:00:14Z</time></trkpt>
<trkpt lat="43.832869017" lon="11.186312959"><ele>45</ele><time>2020-02-09T08:00:15Z</time></trkpt>
<trkpt lat="43.832897013" lon="11.186341038"><ele>45</ele><time>2020-02-09T08:00:16Z</time></trkpt>
<trkpt lat="43.832926014" lon="11.186370039"><ele>45</ele><time>2020-02-09T08:00:17Z</time></trkpt>
<trkpt lat="43.832955016" lon="11.186399963"><ele>45</ele><time>2020-02-09T08:00:18Z</time></trkpt>
<trkpt lat="43.832983011" lon="11.18642997"><ele>45</ele><time>2020-02-09T08:00:19Z</time></trkpt>
<trkpt lat="43.833012013" lon="11.186460983"><ele>45</ele><time>2020-02-09T08:00:20Z</time></trkpt>
<trkpt lat="43.833041014" lon="11.186491996"><ele>45</ele><time>2020-02-09T08:00:21Z</time></trkpt>
<trkpt lat="43.833070016" lon="11.186524015"><ele>45</ele><time>2020-02-09T08:00:22Z</time></trkpt>
<trkpt lat="43.833098011" lon="11.186556034"><ele>45</ele><time>2020-02-09T08:00:23Z</time></trkpt>
<trkpt lat="43.833126007" lon="11.186587969"><ele>45</ele><time>2020-02-09T08:00:24Z</time></trkpt>
<trkpt lat="43.833155008" lon="11.186619988"><ele>45</ele><time>2020-02-09T08:00:25Z</time></trkpt>
<trkpt lat="43.833181998" lon="11.186653012"><ele>45</ele><time>2020-02-09T08:00:26Z</time></trkpt>
<trkpt lat="43.833209993" lon="11.186686037"><ele>45</ele><time>2020-02-09T08:00:27Z</time></trkpt>
<trkpt lat="43.833236983" lon="11.186718978"><ele>45</ele><time>2020-02-09T08:00:28Z</time></trkpt>
<trkpt lat="43.833263973" lon="11.186752003"><ele>45</ele><time>2020-02-09T08:00:29Z</time></trkpt>
<trkpt lat="43.83329004" lon="11.186786033"><ele>45</ele><time>2020-02-09T08:00:30Z</time></trkpt>
<trkpt lat="43.833316024" lon="11.186818974"><ele>45</ele><time>2020-02-09T08:00:31Z</time></trkpt>
<trkpt lat="43.833341002" lon="11.186851999"><ele>45</ele><time>2020-02-09T08:00:32Z</time></trkpt>
<trkpt lat="43.833365981" lon="11.186885023"><ele>45</ele><time>2020-02-09T08:00:33Z</time></trkpt>
<trkpt lat="43.833390037" lon="11.18691897"><ele>45</ele><time>2020-02-09T08:00:34Z</time></trkpt>
<trkpt lat="43.833413003" lon="11.186951995"><ele>45</ele><time>2020-02-09T08:00:35Z</time></trkpt>
<trkpt lat="43.833435969" lon="11.18698502"><ele>45</ele><time>2020-02-09T08:00:36Z</time></trkpt>
<trkpt lat="43.833458014" lon="11.18701796"><ele>45</ele><time>2020-02-09T08:00:37Z</time></trkpt>
<trkpt lat="43.833479974" lon="11.187050985"><ele>46</ele><time>2020-02-09T08:00:38Z</time></trkpt>
<trkpt lat="43.833501013" lon="11.187085016"><ele>46</ele><time>2020-02-09T08:00:39Z</time></trkpt>
<trkpt lat="43.833521968" lon="11.187118962"><ele>46</ele><time>2020-02-09T08:00:40Z</time></trkpt>
<trkpt lat="43.833542001" lon="11.187153999"><ele>46</ele><time>2020-02-09T08:00:41Z</time></trkpt>
<trkpt lat="43.833563039" lon="11.187189035"><ele>46</ele><time>2020-02-09T08:00:42Z</time></trkpt>
<trkpt lat="43.833582988" lon="11.187224993"><ele>46</ele><time>2020-02-09T08:00:43Z</time></trkpt>
<trkpt lat="43.833603021" lon="11.187262041"><ele>46</ele><time>2020-02-09T08:00:44Z</time></trkpt>
<trkpt lat="43.83362297" lon="11.187300012"><ele>46</ele><time>2020-02-09T08:00:45Z</time></trkpt>
<trkpt lat="43.833641997" lon="11.187337982"><ele>46</ele><time>2020-02-09T08:00:46Z</time></trkpt>
<trkpt lat="43.833662029" lon="11.187376035"><ele>47</ele><time>2020-02-09T08:00:47Z</time></trkpt>
<trkpt lat="43.833680972" lon="11.187415011"><ele>47</ele><time>2020-02-09T08:00:48Z</time></trkpt>
<trkpt lat="43.833698994" lon="11.187454993"><ele>47</ele><time>2020-02-09T08:00:49Z</time></trkpt>
<trkpt lat="43.833717015" lon="11.187493969"><ele>47</ele><time>2020-02-09T08:00:50Z</time></trkpt>
<trkpt lat="43.833735036" lon="11.187533028"><ele>47</ele><time>2020-02-09T08:00:51Z</time></trkpt>
<trkpt lat="43.833751967" lon="11.18757301"><ele>47</ele><time>2020-02-09T08:00:52Z</time></trkpt>
<trkpt lat="43.833769988" lon="11.18761098"><ele>47</ele><time>2020-02-09T08:00:53Z</time></trkpt>
<trkpt lat="43.833787004" lon="11.187649034"><ele>48</ele><time>2020-02-09T08:00:54Z</time></trkpt>
<trkpt lat="43.83380603" lon="11.187685998"><ele>48</ele><time>2020-02-09T08:00:55Z</time></trkpt>
<trkpt lat="43.833825979" lon="11.18772204"><ele>48</ele><time>2020-02-09T08:00:56Z</time></trkpt>
<trkpt lat="43.833893035" lon="11.187818013"><ele>48</ele><time>2020-02-09T08:00:59Z</time></trkpt>
<trkpt lat="43.833918013" lon="11.187846009"><ele>49</ele><time>2020-02-09T08:01:00Z</time></trkpt>
<trkpt lat="43.833945002" lon="11.187872998"><ele>49</ele><time>2020-02-09T08:01:01Z</time></trkpt>
<trkpt lat="43.834027983" lon="11.187949022"><ele>49</ele><time>2020-02-09T08:01:04Z</time></trkpt>
<trkpt lat="43.834054973" lon="11.187975006"><ele>49</ele><time>2020-02-09T08:01:05Z</time></trkpt>
<trkpt lat="43.834081963" lon="11.188001996"><ele>49</ele><time>2020-02-09T08:01:06Z</time></trkpt>
<trkpt lat="43.834107025" lon="11.188028986"><ele>50</ele><time>2020-02-09T08:01:07Z</time></trkpt>
<trkpt lat="43.834132003" lon="11.188056981"><ele>50</ele><time>2020-02-09T08:01:08Z</time></trkpt>
<trkpt lat="43.834155975" lon="11.188085983"><ele>50</ele><time>2020-02-09T08:01:09Z</time></trkpt>
<trkpt lat="43.834180031" lon="11.18811599"><ele>50</ele><time>2020-02-09T08:01:10Z</time></trkpt>
<trkpt lat="43.834202997" lon="11.188145997"><ele>50</ele><time>2020-02-09T08:01:11Z</time></trkpt>
<trkpt lat="43.834225042" lon="11.18817701"><ele>50</ele><time>2020-02-09T08:01:12Z</time></trkpt>
<trkpt lat="43.834247002" lon="11.188209029"><ele>50</ele><time>2020-02-09T08:01:13Z</time></trkpt>
<trkpt lat="43.834268963" lon="11.188240964"><ele>50</ele><time>2020-02-09T08:01:14Z</time></trkpt>
<trkpt lat="43.834290002" lon="11.188273989"><ele>50</ele><time>2020-02-09T08:01:15Z</time></trkpt>
<trkpt lat="43.83431104" lon="11.188307013"><ele>50</ele><time>2020-02-09T08:01:16Z</time></trkpt>
<trkpt lat="43.834331995" lon="11.188340038"><ele>50</ele><time>2020-02-09T08:01:17Z</time></trkpt>
<trkpt lat="43.834353033" lon="11.188373985"><ele>50</ele><time>2020-02-09T08:01:18Z</time></trkpt>
<trkpt lat="43.834373988" lon="11.188408015"><ele>50</ele><time>2020-02-09T08:01:19Z</time></trkpt>
<trkpt lat="43.834395027" lon="11.188442968"><ele>50</ele><time>2020-02-09T08:01:20Z</time></trkpt>
<trkpt lat="43.834414976" lon="11.188478004"><ele>50</ele><time>2020-02-09T08:01:21Z</time></trkpt>
<trkpt lat="43.834436014" lon="11.188513041"><ele>50</ele><time>2020-02-09T08:01:22Z</time></trkpt>
<trkpt lat="43.834456969" lon="11.188547993"><ele>50</ele><time>2020-02-09T08:01:23Z</time></trkpt>
<trkpt lat="43.834478008" lon="11.188583029"><ele>50</ele><time>2020-02-09T08:01:24Z</time></trkpt>
<trkpt lat="43.834499968" lon="11.188617982"><ele>50</ele><time>2020-02-09T08:01:25Z</time></trkpt>
<trkpt lat="43.834521007" lon="11.188653018"><ele>50</ele><time>2020-02-09T08:01:26Z</time></trkpt>
<trkpt lat="43.834542967" lon="11.188688977"><ele>51</ele><time>2020-02-09T08:01:27Z</time></trkpt>
<trkpt lat="43.834564006" lon="11.188724013"><ele>51</ele><time>2020-02-09T08:01:28Z</time></trkpt>
<trkpt lat="43.834585967" lon="11.188758966"><ele>51</ele><time>2020-02-09T08:01:29Z</time></trkpt>
<trkpt lat="43.834608011" lon="11.188794002"><ele>51</ele><time>2020-02-09T08:01:30Z</time></trkpt>
<trkpt lat="43.834628966" lon="11.188828032"><ele>51</ele><time>2020-02-09T08:01:31Z</time></trkpt>
<trkpt lat="43.83465101" lon="11.188861979"><ele>51</ele><time>2020-02-09T08:01:32Z</time></trkpt>
<trkpt lat="43.834673977" lon="11.18889601"><ele>51</ele><time>2020-02-09T08:01:33Z</time></trkpt>
<trkpt lat="43.834696021" lon="11.18893004"><ele>51</ele><time>2020-02-09T08:01:34Z</time></trkpt>
<trkpt lat="43.834717982" lon="11.188962981"><ele>51</ele><time>2020-02-09T08:01:35Z</time></trkpt>
<trkpt lat="43.834740026" lon="11.188995"><ele>51</ele><time>2020-02-09T08:01:36Z</time></trkpt>
<trkpt lat="43.834762992" lon="11.189027019"><ele>51</ele><time>2020-02-09T08:01:37Z</time></trkpt>
<trkpt lat="43.834785037" lon="11.189059038"><ele>50</ele><time>2020-02-09T08:01:38Z</time></trkpt>
<trkpt lat="43.834808003" lon="11.189088961"><ele>50</ele><time>2020-02-09T08:01:39Z</time></trkpt>
<trkpt lat="43.834829964" lon="11.189119974"><ele>50</ele><time>2020-02-09T08:01:40Z</time></trkpt>
<trkpt lat="43.834852008" lon="11.189149981"><ele>50</ele><time>2020-02-09T08:01:41Z</time></trkpt>
<trkpt lat="43.834872963" lon="11.189178983"><ele>50</ele><time>2020-02-09T08:01:42Z</time></trkpt>
<trkpt lat="43.834894001" lon="11.18920899"><ele>50</ele><time>2020-02-09T08:01:43Z</time></trkpt>
<trkpt lat="43.834914034" lon="11.189237991"><ele>50</ele><time>2020-02-09T08:01:44Z</time></trkpt>
<trkpt lat="43.834931972" lon="11.189266993"><ele>50</ele><time>2020-02-09T08:01:45Z</time></trkpt>
<trkpt lat="43.834949993" lon="11.189297"><ele>50</ele><time>2020-02-09T08:01:46Z</time></trkpt>
<trkpt lat="43.834967008" lon="11.189328013"><ele>50</ele><time>2020-02-09T08:01:47Z</time></trkpt>
<trkpt lat="43.834985029" lon="11.18936196"><ele>50</ele><time>2020-02-09T08:01:48Z</time></trkpt>
<trkpt lat="43.835003972" lon="11.189400014"><ele>50</ele><time>2020-02-09T08:01:49Z</time></trkpt>
<trkpt lat="43.835026016" lon="11.189443013"><ele>50</ele><time>2020-02-09T08:01:50Z</time></trkpt>
<trkpt lat="43.835048983" lon="11.189490035"><ele>51</ele><time>2020-02-09T08:01:51Z</time></trkpt>
<trkpt lat="43.835073961" lon="11.189536974"><ele>51</ele><time>2020-02-09T08:01:52Z</time></trkpt>
<trkpt lat="43.835099023" lon="11.189581985"><ele>51</ele><time>2020-02-09T08:01:53Z</time></trkpt>
<trkpt lat="43.835124001" lon="11.189623978"><ele>51</ele><time>2020-02-09T08:01:54Z</time></trkpt>
<trkpt lat="43.835148979" lon="11.189661026"><ele>51</ele><time>2020-02-09T08:01:55Z</time></trkpt>
<trkpt lat="43.835173035" lon="11.189694973"><ele>51</ele><time>2020-02-09T08:01:56Z</time></trkpt>
<trkpt lat="43.835237995" lon="11.189778959"><ele>51</ele><time>2020-02-09T08:01:59Z</time></trkpt>
<trkpt lat="43.835258028" lon="11.189803015"><ele>51</ele><time>2020-02-09T08:02:00Z</time></trkpt>
<trkpt lat="43.835278982" lon="11.189824976"><ele>51</ele><time>2020-02-09T08:02:01Z</time></trkpt>
<trkpt lat="43.835301027" lon="11.189846015"><ele>51</ele><time>2020-02-09T08:02:02Z</time></trkpt>
<trkpt lat="43.835323993" lon="11.189865964"><ele>51</ele><time>2020-02-09T08:02:03Z</time></trkpt>
<trkpt lat="43.835347965" lon="11.189885996"><ele>51</ele><time>2020-02-09T08:02:04Z</time></trkpt>
<trkpt lat="43.835373027" lon="11.189905023"><ele>51</ele><time>2020-02-09T08:02:05Z</time></trkpt>
<trkpt lat="43.835398005" lon="11.189924972"><ele>51</ele><time>2020-02-09T08:02:06Z</time></trkpt>
<trkpt lat="43.835423989" lon="11.189946011"><ele>52</ele><time>2020-02-09T08:02:07Z</time></trkpt>
<trkpt lat="43.835449973" lon="11.189966965"><ele>52</ele><time>2020-02-09T08:02:08Z</time></trkpt>
<trkpt lat="43.835476041" lon="11.18998901"><ele>52</ele><time>2020-02-09T08:02:09Z</time></trkpt>
<trkpt lat="43.835503031" lon="11.190012982"><ele>52</ele><time>2020-02-09T08:02:10Z</time></trkpt>
<trkpt lat="43.835529014" lon="11.190037038"><ele>52</ele><time>2020-02-09T08:02:11Z</time></trkpt>
<trkpt lat="43.835554998" lon="11.190062016"><ele>52</ele><time>2020-02-09T08:02:12Z</time></trkpt>
<trkpt lat="43.835580982" lon="11.190088"><ele>52</ele><time>2020-02-09T08:02:13Z</time></trkpt>
<trkpt lat="43.835606966" lon="11.19011499"><ele>52</ele><time>2020-02-09T08:02:14Z</time></trkpt>
<trkpt lat="43.835632028" lon="11.19014198"><ele>52</ele><time>2020-02-09T08:02:15Z</time></trkpt>
<trkpt lat="43.835656" lon="11.190169975"><ele>52</ele><time>2020-02-09T08:02:16Z</time></trkpt>
<trkpt lat="43.835679973" lon="11.190197971"><ele>52</ele><time>2020-02-09T08:02:17Z</time></trkpt>
<trkpt lat="43.835702017" lon="11.190226972"><ele>52</ele><time>2020-02-09T08:02:18Z</time></trkpt>
<trkpt lat="43.83572096" lon="11.190257985"><ele>53</ele><time>2020-02-09T08:02:19Z</time></trkpt>
<trkpt lat="43.835737975" lon="11.19029101"><ele>53</ele><time>2020-02-09T08:02:20Z</time></trkpt>
<trkpt lat="43.835749961" lon="11.190325962"><ele>53</ele><time>2020-02-09T08:02:21Z</time></trkpt>
<trkpt lat="43.835757002" lon="11.190364016"><ele>53</ele><time>2020-02-09T08:02:22Z</time></trkpt>
<trkpt lat="43.835759014" lon="11.190401986"><ele>53</ele><time>2020-02-09T08:02:23Z</time></trkpt>
<trkpt lat="43.835752979" lon="11.190439034"><ele>53</ele><time>2020-02-09T08:02:24Z</time></trkpt>
<trkpt lat="43.835739987" lon="11.190473987"><ele>53</ele><time>2020-02-09T08:02:25Z</time></trkpt>
<trkpt lat="43.83572096" lon="11.190507011"><ele>53</ele><time>2020-02-09T08:02:26Z</time></trkpt>
<trkpt lat="43.835698999" lon="11.19053903"><ele>53</ele><time>2020-02-09T08:02:27Z</time></trkpt>
<trkpt lat="43.835676033" lon="11.190570965"><ele>53</ele><time>2020-02-09T08:02:28Z</time></trkpt>
<trkpt lat="43.835656" lon="11.190602984"><ele>53</ele><time>2020-02-09T08:02:29Z</time></trkpt>
<trkpt lat="43.835635968" lon="11.190635003"><ele>54</ele><time>2020-02-09T08:02:30Z</time></trkpt>
<trkpt lat="43.83561803" lon="11.190668028"><ele>54</ele><time>2020-02-09T08:02:31Z</time></trkpt>
<trkpt lat="43.835601015" lon="11.190701975"><ele>54</ele><time>2020-02-09T08:02:32Z</time></trkpt>
<trkpt lat="43.835584" lon="11.190736005"><ele>54</ele><time>2020-02-09T08:02:33Z</time></trkpt>
<trkpt lat="43.83556799" lon="11.190771041"><ele>54</ele><time>2020-02-09T08:02:34Z</time></trkpt>
<trkpt lat="43.835550975" lon="11.190805994"><ele>54</ele><time>2020-02-09T08:02:35Z</time></trkpt>
<trkpt lat="43.83553396" lon="11.190842958"><ele>54</ele><time>2020-02-09T08:02:36Z</time></trkpt>
<trkpt lat="43.835517028" lon="11.190880006"><ele>54</ele><time>2020-02-09T08:02:37Z</time></trkpt>
<trkpt lat="43.835500013" lon="11.190918982"><ele>54</ele><time>2020-02-09T08:02:38Z</time></trkpt>
<trkpt lat="43.835481992" lon="11.190958042"><ele>54</ele><time>2020-02-09T08:02:39Z</time></trkpt>
<trkpt lat="43.835462965" lon="11.190999029"><ele>55</ele><time>2020-02-09T08:02:40Z</time></trkpt>
<trkpt lat="43.835443016" lon="11.191041023"><ele>55</ele><time>2020-02-09T08:02:41Z</time></trkpt>
<trkpt lat="43.835422983" lon="11.191083016"><ele>55</ele><time>2020-02-09T08:02:42Z</time></trkpt>
<trkpt lat="43.835403034" lon="11.191124003"><ele>55</ele><time>2020-02-09T08:02:43Z</time></trkpt>
<trkpt lat="43.835381996" lon="11.191161973"><ele>55</ele><time>2020-02-09T08:02:44Z</time></trkpt>
<trkpt lat="43.835361041" lon="11.191198016"><ele>55</ele><time>2020-02-09T08:02:45Z</time></trkpt>
<trkpt lat="43.835341008" lon="11.19123104"><ele>55</ele><time>2020-02-09T08:02:46Z</time></trkpt>
<trkpt lat="43.835320976" lon="11.19126197"><ele>55</ele><time>2020-02-09T08:02:47Z</time></trkpt>
<trkpt lat="43.835302033" lon="11.191292983"><ele>55</ele><time>2020-02-09T08:02:48Z</time></trkpt>
<trkpt lat="43.835284011" lon="11.19132299"><ele>55</ele><time>2020-02-09T08:02:49Z</time></trkpt>
<trkpt lat="43.835266996" lon="11.191354003"><ele>55</ele><time>2020-02-09T08:02:50Z</time></trkpt>
<trkpt lat="43.835249981" lon="11.191386022"><ele>56</ele><time>2020-02-09T08:02:51Z</time></trkpt>
<trkpt lat="43.835202036" lon="11.191487024"><ele>56</ele><time>2020-02-09T08:02:54Z</time></trkpt>
<trkpt lat="43.835186027" lon="11.191521976"><ele>56</ele><time>2020-02-09T08:02:55Z</time></trkpt>
<trkpt lat="43.835169012" lon="11.191557012"><ele>56</ele><time>2020-02-09T08:02:56Z</time></trkpt>
<trkpt lat="43.835151996" lon="11.191590037"><ele>56</ele><time>2020-02-09T08:02:57Z</time></trkpt>
<trkpt lat="43.835133975" lon="11.191622978"><ele>56</ele><time>2020-02-09T08:02:58Z</time></trkpt>
<trkpt lat="43.835116038" lon="11.191654997"><ele>56</ele><time>2020-02-09T08:02:59Z</time></trkpt>
<trkpt lat="43.835098017" lon="11.191688022"><ele>56</ele><time>2020-02-09T08:03:00Z</time></trkpt>
<trkpt lat="43.83507899" lon="11.191720041"><ele>56</ele><time>2020-02-09T08:03:01Z</time></trkpt>
<trkpt lat="43.835059963" lon="11.191751976"><ele>56</ele><time>2020-02-09T08:03:02Z</time></trkpt>
<trkpt lat="43.835042026" lon="11.191783994"><ele>56</ele><time>2020-02-09T08:03:03Z</time></trkpt>
<trkpt lat="43.835022999" lon="11.191817019"><ele>56</ele><time>2020-02-09T08:03:04Z</time></trkpt>
<trkpt lat="43.835004978" lon="11.191850966"><ele>56</ele><time>2020-02-09T08:03:05Z</time></trkpt>
<trkpt lat="43.834987041" lon="11.191884996"><ele>56</ele><time>2020-02-09T08:03:06Z</time></trkpt>
<trkpt lat="43.83496902" lon="11.191920033"><ele>56</ele><time>2020-02-09T08:03:07Z</time></trkpt>
<trkpt lat="43.834950998" lon="11.191954985"><ele>56</ele><time>2020-02-09T08:03:08Z</time></trkpt>
<trkpt lat="43.834931972" lon="11.191989016"><ele>56</ele><time>2020-02-09T08:03:09Z</time></trkpt>
<trkpt lat="43.834913028" lon="11.192023968"><ele>56</ele><time>2020-02-09T08:03:10Z</time></trkpt>
<trkpt lat="43.834892996" lon="11.192057999"><ele>56</ele><time>2020-02-09T08:03:11Z</time></trkpt>
<trkpt lat="43.834872041" lon="11.192091024"><ele>56</ele><time>2020-02-09T08:03:12Z</time></trkpt>
<trkpt lat="43.834851002" lon="11.192123964"><ele>56</ele><time>2020-02-09T08:03:13Z</time></trkpt>
<trkpt lat="43.834829042" lon="11.192156989"><ele>56</ele><time>2020-02-09T08:03:14Z</time></trkpt>
<trkpt lat="43.834805992" lon="11.192189008"><ele>56</ele><time>2020-02-09T08:03:15Z</time></trkpt>
<trkpt lat="43.834784031" lon="11.192221027"><ele>56</ele><time>2020-02-09T08:03:16Z</time></trkpt>
<trkpt lat="43.834761987" lon="11.192252962"><ele>56</ele><time>2020-02-09T08:03:17Z</time></trkpt>
<trkpt lat="43.834740026" lon="11.192283975"><ele>56</ele><time>2020-02-09T08:03:18Z</time></trkpt>
<trkpt lat="43.834717982" lon="11.192315994"><ele>56</ele><time>2020-02-09T08:03:19Z</time></trkpt>
<trkpt lat="43.834697027" lon="11.192348013"><ele>56</ele><time>2020-02-09T08:03:20Z</time></trkpt>
<trkpt lat="43.834676994" lon="11.192380032"><ele>56</ele><time>2020-02-09T08:03:21Z</time></trkpt>
<trkpt lat="43.834657967" lon="11.192412972"><ele>56</ele><time>2020-02-09T08:03:22Z</time></trkpt>
<trkpt lat="43.834639024" lon="11.192445997"><ele>56</ele><time>2020-02-09T08:03:23Z</time></trkpt>
<trkpt lat="43.834619997" lon="11.192480028"><ele>56</ele><time>2020-02-09T08:03:24Z</time></trkpt>
<trkpt lat="43.834601976" lon="11.19251498"><ele>56</ele><time>2020-02-09T08:03:25Z</time></trkpt>
<trkpt lat="43.834584961" lon="11.192551022"><ele>56</ele><time>2020-02-09T08:03:26Z</time></trkpt>
<trkpt lat="43.834568029" lon="11.192588992"><ele>56</ele><time>2020-02-09T08:03:27Z</time></trkpt>
<trkpt lat="43.834551014" lon="11.192626962"><ele>56</ele><time>2020-02-09T08:03:28Z</time></trkpt>
<trkpt lat="43.834533999" lon="11.192667028"><ele>56</ele><time>2020-02-09T08:03:29Z</time></trkpt>
<trkpt lat="43.834516983" lon="11.19270701"><ele>56</ele><time>2020-02-09T08:03:30Z</time></trkpt>
<trkpt lat="43.834500974" lon="11.192746991"><ele>56</ele><time>2020-02-09T08:03:31Z</time></trkpt>
<trkpt lat="43.834483959" lon="11.192785967"><ele>56</ele><time>2020-02-09T08:03:32Z</time></trkpt>
<trkpt lat="43.834466022" lon="11.192825027"><ele>56</ele><time>2020-02-09T08:03:33Z</time></trkpt>
<trkpt lat="43.834448" lon="11.192862997"><ele>56</ele><time>2020-02-09T08:03:34Z</time></trkpt>
<trkpt lat="43.834428973" lon="11.192899039"><ele>56</ele><time>2020-02-09T08:03:35Z</time></trkpt>
<trkpt lat="43.834409025" lon="11.192932986"><ele>56</ele><time>2020-02-09T08:03:36Z</time></trkpt>
<trkpt lat="43.834389998" lon="11.192965005"><ele>56</ele><time>2020-02-09T08:03:37Z</time></trkpt>
<trkpt lat="43.834371977" lon="11.192996018"><ele>56</ele><time>2020-02-09T08:03:38Z</time></trkpt>
<trkpt lat="43.834357979" lon="11.193026025"><ele>56</ele><time>2020-02-09T08:03:39Z</time></trkpt>
<trkpt lat="43.834346998" lon="11.193056032"><ele>56</ele><time>2020-02-09T08:03:40Z</time></trkpt>
<trkpt lat="43.834341969" lon="11.193085033"><ele>56</ele><time>2020-02-09T08:03:41Z</time></trkpt>
<trkpt lat="43.834342975" lon="11.193115963"><ele>56</ele><time>2020-02-09T08:03:42Z</time></trkpt>
<trkpt lat="43.834352028" lon="11.193147982"><ele>56</ele><time>2020-02-09T08:03:43Z</time></trkpt>
<trkpt lat="43.834368037" lon="11.19318"><ele>57</ele><time>2020-02-09T08:03:44Z</time></trkpt>
<trkpt lat="43.834388992" lon="11.193212019"><ele>57</ele><time>2020-02-09T08:03:45Z</time></trkpt>
<trkpt lat="43.834414976" lon="11.193243032"><ele>57</ele><time>2020-02-09T08:03:46Z</time></trkpt>
<trkpt lat="43.834442971" lon="11.193273962"><ele>57</ele><time>2020-02-09T08:03:47Z</time></trkpt>
<trkpt lat="43.834473984" lon="11.193303969"><ele>57</ele><time>2020-02-09T08:03:48Z</time></trkpt>
<trkpt lat="43.834504997" lon="11.193330958"><ele>57</ele><time>2020-02-09T08:03:49Z</time></trkpt>
<trkpt lat="43.83453601" lon="11.193357026"><ele>57</ele><time>2020-02-09T08:03:50Z</time></trkpt>
<trkpt lat="43.834565012" lon="11.193378987"><ele>58</ele><time>2020-02-09T08:03:51Z</time></trkpt>
<trkpt lat="43.834593007" lon="11.193400025"><ele>58</ele><time>2020-02-09T08:03:52Z</time></trkpt>
<trkpt lat="43.834619997" lon="11.193418968"><ele>58</ele><time>2020-02-09T08:03:53Z</time></trkpt>
<trkpt lat="43.834645981" lon="11.193437995"><ele>58</ele><time>2020-02-09T08:03:54Z</time></trkpt>
<trkpt lat="43.834670959" lon="11.193457022"><ele>58</ele><time>2020-02-09T08:03:55Z</time></trkpt>
<trkpt lat="43.834696021" lon="11.193475965"><ele>58</ele><time>2020-02-09T08:03:56Z</time></trkpt>
<trkpt lat="43.834745977" lon="11.193520976"><ele>58</ele><time>2020-02-09T08:03:58Z</time></trkpt>
<trkpt lat="43.834771039" lon="11.19354696"><ele>59</ele><time>2020-02-09T08:03:59Z</time></trkpt>
<trkpt lat="43.834797023" lon="11.193575962"><ele>59</ele><time>2020-02-09T08:04:00Z</time></trkpt>
<trkpt lat="43.834823007" lon="11.193605969"><ele>59</ele><time>2020-02-09T08:04:01Z</time></trkpt>
<trkpt lat="43.834849996" lon="11.193637988"><ele>59</ele><time>2020-02-09T08:04:02Z</time></trkpt>
<trkpt lat="43.834876986" lon="11.193670006"><ele>59</ele><time>2020-02-09T08:04:03Z</time></trkpt>
<trkpt lat="43.834903976" lon="11.19370102"><ele>59</ele><time>2020-02-09T08:04:04Z</time></trkpt>
<trkpt lat="43.83492996" lon="11.193731027"><ele>59</ele><time>2020-02-09T08:04:05Z</time></trkpt>
<trkpt lat="43.834957033" lon="11.193760028"><ele>59</ele><time>2020-02-09T08:04:06Z</time></trkpt>
<trkpt lat="43.834984023" lon="11.193786012"><ele>60</ele><time>2020-02-09T08:04:07Z</time></trkpt>
<trkpt lat="43.835011013" lon="11.19381099"><ele>60</ele><time>2020-02-09T08:04:08Z</time></trkpt>
<trkpt lat="43.835036997" lon="11.193834962"><ele>60</ele><time>2020-02-09T08:04:09Z</time></trkpt>
<trkpt lat="43.835062981" lon="11.193858013"><ele>60</ele><time>2020-02-09T08:04:10Z</time></trkpt>
<trkpt lat="43.835087959" lon="11.193880979"><ele>60</ele><time>2020-02-09T08:04:11Z</time></trkpt>
<trkpt lat="43.835113021" lon="11.193905035"><ele>60</ele><time>2020-02-09T08:04:12Z</time></trkpt>
<trkpt lat="43.835137999" lon="11.193931019"><ele>60</ele><time>2020-02-09T08:04:13Z</time></trkpt>
<trkpt lat="43.835207988" lon="11.194017017"><ele>60</ele><time>2020-02-09T08:04:16Z</time></trkpt>
<trkpt lat="43.835231038" lon="11.194047024"><ele>60</ele><time>2020-02-09T08:04:17Z</time></trkpt>
<trkpt lat="43.835254004" lon="11.194077032"><ele>60</ele><time>2020-02-09T08:04:18Z</time></trkpt>
<trkpt lat="43.835277976" lon="11.194106033"><ele>60</ele><time>2020-02-09T08:04:19Z</time></trkpt>
<trkpt lat="43.835302033" lon="11.194133023"><ele>60</ele><time>2020-02-09T08:04:20Z</time></trkpt>
<trkpt lat="43.835326005" lon="11.194156995"><ele>60</ele><time>2020-02-09T08:04:21Z</time></trkpt>
<trkpt lat="43.835351989" lon="11.194179961"><ele>60</ele><time>2020-02-09T08:04:22Z</time></trkpt>
<trkpt lat="43.835377973" lon="11.194199994"><ele>61</ele><time>2020-02-09T08:04:23Z</time></trkpt>
<trkpt lat="43.83540404" lon="11.194219021"><ele>61</ele><time>2020-02-09T08:04:24Z</time></trkpt>
<trkpt lat="43.835485009" lon="11.194275012"><ele>61</ele><time>2020-02-09T08:04:27Z</time></trkpt>
<trkpt lat="43.835511999" lon="11.194295967"><ele>61</ele><time>2020-02-09T08:04:28Z</time></trkpt>
<trkpt lat="43.835537983" lon="11.194319017"><ele>61</ele><time>2020-02-09T08:04:29Z</time></trkpt>
<trkpt lat="43.835562961" lon="11.194346007"><ele>61</ele><time>2020-02-09T08:04:30Z</time></trkpt>
<trkpt lat="43.835588023" lon="11.194375008"><ele>61</ele><time>2020-02-09T08:04:31Z</time></trkpt>
<trkpt lat="43.835613001" lon="11.194406021"><ele>61</ele><time>2020-02-09T08:04:32Z</time></trkpt>
<trkpt lat="43.835636973" lon="11.19443804"><ele>61</ele><time>2020-02-09T08:04:33Z</time></trkpt>
<trkpt lat="43.835661029" lon="11.194469975"><ele>61</ele><time>2020-02-09T08:04:34Z</time></trkpt>
<trkpt lat="43.835685002" lon="11.194500988"><ele>61</ele><time>2020-02-09T08:04:35Z</time></trkpt>
<trkpt lat="43.835707968" lon="11.194530996"><ele>61</ele><time>2020-02-09T08:04:36Z</time></trkpt>
<trkpt lat="43.835732024" lon="11.194558991"><ele>61</ele><time>2020-02-09T08:04:37Z</time></trkpt>
<trkpt lat="43.835755996" lon="11.194583969"><ele>61</ele><time>2020-02-09T08:04:38Z</time></trkpt>
<trkpt lat="43.835779969" lon="11.194607019"><ele>62</ele><time>2020-02-09T08:04:39Z</time></trkpt>
<trkpt lat="43.835805031" lon="11.194627974"><ele>62</ele><time>2020-02-09T08:04:40Z</time></trkpt>
<trkpt lat="43.835829003" lon="11.194647001"><ele>62</ele><time>2020-02-09T08:04:41Z</time></trkpt>
<trkpt lat="43.835853981" lon="11.194666028"><ele>62</ele><time>2020-02-09T08:04:42Z</time></trkpt>
<trkpt lat="43.835878037" lon="11.194683965"><ele>62</ele><time>2020-02-09T08:04:43Z</time></trkpt>
<trkpt lat="43.835903015" lon="11.194702992"><ele>62</ele><time>2020-02-09T08:04:44Z</time></trkpt>
<trkpt lat="43.835926987" lon="11.194723025"><ele>62</ele><time>2020-02-09T08:04:45Z</time></trkpt>
<trkpt lat="43.835951965" lon="11.194742974"><ele>62</ele><time>2020-02-09T08:04:46Z</time></trkpt>
<trkpt lat="43.835976021" lon="11.194765018"><ele>62</ele><time>2020-02-09T08:04:47Z</time></trkpt>
<trkpt lat="43.836000999" lon="11.194788991"><ele>62</ele><time>2020-02-09T08:04:48Z</time></trkpt>
<trkpt lat="43.836024972" lon="11.194812963"><ele>62</ele><time>2020-02-09T08:04:49Z</time></trkpt>
<trkpt lat="43.836050034" lon="11.194838025"><ele>62</ele><time>2020-02-09T08:04:50Z</time></trkpt>
<trkpt lat="43.836074006" lon="11.194863003"><ele>62</ele><time>2020-02-09T08:04:51Z</time></trkpt>
<trkpt lat="43.836098984" lon="11.194889992"><ele>62</ele><time>2020-02-09T08:04:52Z</time></trkpt>
<trkpt lat="43.83612304" lon="11.194916982"><ele>62</ele><time>2020-02-09T08:04:53Z</time></trkpt>
<trkpt lat="43.836148018" lon="11.194943972"><ele>62</ele><time>2020-02-09T08:04:54Z</time></trkpt>
<trkpt lat="43.836172996" lon="11.194970962"><ele>62</ele><time>2020-02-09T08:04:55Z</time></trkpt>
<trkpt lat="43.836197974" lon="11.194999041"><ele>62</ele><time>2020-02-09T08:04:56Z</time></trkpt>
<trkpt lat="43.836223036" lon="11.195026031"><ele>62</ele><time>2020-02-09T08:04:57Z</time></trkpt>
<trkpt lat="43.836248014" lon="11.195054026"><ele>62</ele><time>2020-02-09T08:04:58Z</time></trkpt>
<trkpt lat="43.836272992" lon="11.195081016"><ele>62</ele><time>2020-02-09T08:04:59Z</time></trkpt>
<trkpt lat="43.83629797" lon="11.195107"><ele>62</ele><time>2020-02-09T08:05:00Z</time></trkpt>
<trkpt lat="43.836324038" lon="11.195132984"><ele>62</ele><time>2020-02-09T08:05:01Z</time></trkpt>
<trkpt lat="43.836349016" lon="11.195158968"><ele>62</ele><time>2020-02-09T08:05:02Z</time></trkpt>
<trkpt lat="43.836375" lon="11.19518403"><ele>62</ele><time>2020-02-09T08:05:03Z</time></trkpt>
<trkpt lat="43.836400984" lon="11.195208002"><ele>62</ele><time>2020-02-09T08:05:04Z</time></trkpt>
<trkpt lat="43.836426968" lon="11.195231974"><ele>62</ele><time>2020-02-09T08:05:05Z</time></trkpt>
<trkpt lat="43.836454041" lon="11.19525603"><ele>62</ele><time>2020-02-09T08:05:06Z</time></trkpt>
<trkpt lat="43.836480025" lon="11.195278997"><ele>62</ele><time>2020-02-09T08:05:07Z</time></trkpt>
<trkpt lat="43.836506009" lon="11.195301963"><ele>62</ele><time>2020-02-09T08:05:08Z</time></trkpt>
<trkpt lat="43.836531993" lon="11.195324007"><ele>62</ele><time>2020-02-09T08:05:09Z</time></trkpt>
<trkpt lat="43.836558983" lon="11.195346974"><ele>62</ele><time>2020-02-09T08:05:10Z</time></trkpt>
<trkpt lat="43.836584967" lon="11.195369018"><ele>62</ele><time>2020-02-09T08:05:11Z</time></trkpt>
<trkpt lat="43.836611034" lon="11.195391985"><ele>62</ele><time>2020-02-09T08:05:12Z</time></trkpt>
<trkpt lat="43.836637018" lon="11.195414029"><ele>62</ele><time>2020-02-09T08:05:13Z</time></trkpt>
<trkpt lat="43.836663002" lon="11.195436995"><ele>62</ele><time>2020-02-09T08:05:14Z</time></trkpt>
<trkpt lat="43.836688986" lon="11.195459962"><ele>62</ele><time>2020-02-09T08:05:15Z</time></trkpt>
<trkpt lat="43.836713964" lon="11.195483012"><ele>62</ele><time>2020-02-09T08:05:16Z</time></trkpt>
<trkpt lat="43.836740032" lon="11.195505979"><ele>62</ele><time>2020-02-09T08:05:17Z</time></trkpt>
<trkpt lat="43.83676501" lon="11.195530035"><ele>62</ele><time>2020-02-09T08:05:18Z</time></trkpt>
<trkpt lat="43.836789988" lon="11.195554007"><ele>62</ele><time>2020-02-09T08:05:19Z</time></trkpt>
<trkpt lat="43.836814966" lon="11.195577979"><ele>62</ele><time>2020-02-09T08:05:20Z</time></trkpt>
<trkpt lat="43.836840028" lon="11.195603041"><ele>63</ele><time>2020-02-09T08:05:21Z</time></trkpt>
<trkpt lat="43.836865006" lon="11.195629025"><ele>63</ele><time>2020-02-09T08:05:22Z</time></trkpt>
<trkpt lat="43.836888978" lon="11.195654003"><ele>63</ele><time>2020-02-09T08:05:23Z</time></trkpt>
<trkpt lat="43.83691404" lon="11.195679987"><ele>63</ele><time>2020-02-09T08:05:24Z</time></trkpt>
<trkpt lat="43.836939018" lon="11.195706977"><ele>63</ele><time>2020-02-09T08:05:25Z</time></trkpt>
<trkpt lat="43.836963996" lon="11.195733966"><ele>63</ele><time>2020-02-09T08:05:26Z</time></trkpt>
<trkpt lat="43.836988974" lon="11.195761962"><ele>63</ele><time>2020-02-09T08:05:27Z</time></trkpt>
<trkpt lat="43.83701303" lon="11.195790041"><ele>63</ele><time>2020-02-09T08:05:28Z</time></trkpt>
<trkpt lat="43.837038008" lon="11.195818037"><ele>63</ele><time>2020-02-09T08:05:29Z</time></trkpt>
<trkpt lat="43.837063992" lon="11.19584796"><ele>63</ele><time>2020-02-09T08:05:30Z</time></trkpt>
<trkpt lat="43.83708897" lon="11.195877967"><ele>63</ele><time>2020-02-09T08:05:31Z</time></trkpt>
<trkpt lat="43.837114032" lon="11.195907975"><ele>63</ele><time>2020-02-09T08:05:32Z</time></trkpt>
<trkpt lat="43.837140016" lon="11.195938988"><ele>63</ele><time>2020-02-09T08:05:33Z</time></trkpt>
<trkpt lat="43.837166" lon="11.195970001"><ele>63</ele><time>2020-02-09T08:05:34Z</time></trkpt>
<trkpt lat="43.837190978" lon="11.19600202"><ele>63</ele><time>2020-02-09T08:05:35Z</time></trkpt>
<trkpt lat="43.837216962" lon="11.196033033"><ele>64</ele><time>2020-02-09T08:05:36Z</time></trkpt>
<trkpt lat="43.83724303" lon="11.19606304"><ele>64</ele><time>2020-02-09T08:05:37Z</time></trkpt>
<trkpt lat="43.837268008" lon="11.196092041"><ele>64</ele><time>2020-02-09T08:05:38Z</time></trkpt>
<trkpt lat="43.837293992" lon="11.196119031"><ele>64</ele><time>2020-02-09T08:05:39Z</time></trkpt>
<trkpt lat="43.83731897" lon="11.196145015"><ele>64</ele><time>2020-02-09T08:05:40Z</time></trkpt>
<trkpt lat="43.837343026" lon="11.196168987"><ele>64</ele><time>2020-02-09T08:05:41Z</time></trkpt>
<trkpt lat="43.837368004" lon="11.196191031"><ele>64</ele><time>2020-02-09T08:05:42Z</time></trkpt>
<trkpt lat="43.837391976" lon="11.196211986"><ele>64</ele><time>2020-02-09T08:05:43Z</time></trkpt>
<trkpt lat="43.837416032" lon="11.196232019"><ele>64</ele><time>2020-02-09T08:05:44Z</time></trkpt>
<trkpt lat="43.837438999" lon="11.196250962"><ele>64</ele><time>2020-02-09T08:05:45Z</time></trkpt>
<trkpt lat="43.837462971" lon="11.196270995"><ele>64</ele><time>2020-02-09T08:05:46Z</time></trkpt>
<trkpt lat="43.837486021" lon="11.196291028"><ele>64</ele><time>2020-02-09T08:05:47Z</time></trkpt>
<trkpt lat="43.837509993" lon="11.196311982"><ele>64</ele><time>2020-02-09T08:05:48Z</time></trkpt>
<trkpt lat="43.83753296" lon="11.196334027"><ele>64</ele><time>2020-02-09T08:05:49Z</time></trkpt>
<trkpt lat="43.83755601" lon="11.196356993"><ele>64</ele><time>2020-02-09T08:05:50Z</time></trkpt>
<trkpt lat="43.837580988" lon="11.196381971"><ele>65</ele><time>2020-02-09T08:05:51Z</time></trkpt>
<trkpt lat="43.837605966" lon="11.196408039"><ele>65</ele><time>2020-02-09T08:05:52Z</time></trkpt>
<trkpt lat="43.837632034" lon="11.196436035"><ele>65</ele><time>2020-02-09T08:05:53Z</time></trkpt>
<trkpt lat="43.837658018" lon="11.196465036"><ele>65</ele><time>2020-02-09T08:05:54Z</time></trkpt>
<trkpt lat="43.837685008" lon="11.196494037"><ele>65</ele><time>2020-02-09T08:05:55Z</time></trkpt>
<trkpt lat="43.837710992" lon="11.196522033"><ele>65</ele><time>2020-02-09T08:05:56Z</time></trkpt>
<trkpt lat="43.837736975" lon="11.196550028"><ele>65</ele><time>2020-02-09T08:05:57Z</time></trkpt>
<trkpt lat="43.837762037" lon="11.196576012"><ele>65</ele><time>2020-02-09T08:05:58Z</time></trkpt>
<trkpt lat="43.83778601" lon="11.19660099"><ele>65</ele><time>2020-02-09T08:05:59Z</time></trkpt>
<trkpt lat="43.837809982" lon="11.196624041"><ele>65</ele><time>2020-02-09T08:06:00Z</time></trkpt>
<trkpt lat="43.837833032" lon="11.196647007"><ele>65</ele><time>2020-02-09T08:06:01Z</time></trkpt>
<trkpt lat="43.837855998" lon="11.196667962"><ele>65</ele><time>2020-02-09T08:06:02Z</time></trkpt>
<trkpt lat="43.837877959" lon="11.196689"><ele>66</ele><time>2020-02-09T08:06:03Z</time></trkpt>
<trkpt lat="43.837901009" lon="11.196708027"><ele>66</ele><time>2020-02-09T08:06:04Z</time></trkpt>
<trkpt lat="43.83792297" lon="11.19672697"><ele>66</ele><time>2020-02-09T08:06:05Z</time></trkpt>
<trkpt lat="43.837945014" lon="11.196745997"><ele>66</ele><time>2020-02-09T08:06:06Z</time></trkpt>
<trkpt lat="43.837966975" lon="11.19676603"><ele>66</ele><time>2020-02-09T08:06:07Z</time></trkpt>
<trkpt lat="43.837991031" lon="11.196786985"><ele>66</ele><time>2020-02-09T08:06:08Z</time></trkpt>
<trkpt lat="43.838015003" lon="11.196811041"><ele>66</ele><time>2020-02-09T08:06:09Z</time></trkpt>
<trkpt lat="43.838040987" lon="11.196836019"><ele>66</ele><time>2020-02-09T08:06:10Z</time></trkpt>
<trkpt lat="43.838065965" lon="11.196863009"><ele>67</ele><time>2020-02-09T08:06:11Z</time></trkpt>
<trkpt lat="43.838092033" lon="11.196889998"><ele>67</ele><time>2020-02-09T08:06:12Z</time></trkpt>
<trkpt lat="43.838117011" lon="11.196917994"><ele>67</ele><time>2020-02-09T08:06:13Z</time></trkpt>
<trkpt lat="43.838141989" lon="11.196944984"><ele>67</ele><time>2020-02-09T08:06:14Z</time></trkpt>
<trkpt lat="43.838165961" lon="11.196972979"><ele>67</ele><time>2020-02-09T08:06:15Z</time></trkpt>
<trkpt lat="43.838190017" lon="11.196999969"><ele>67</ele><time>2020-02-09T08:06:16Z</time></trkpt>
<trkpt lat="43.838212984" lon="11.197026037"><ele>68</ele><time>2020-02-09T08:06:17Z</time></trkpt>
<trkpt lat="43.838236034" lon="11.197053026"><ele>68</ele><time>2020-02-09T08:06:18Z</time></trkpt>
<trkpt lat="43.838260006" lon="11.197078004"><ele>68</ele><time>2020-02-09T08:06:19Z</time></trkpt>
<trkpt lat="43.838281967" lon="11.197102983"><ele>68</ele><time>2020-02-09T08:06:20Z</time></trkpt>
<trkpt lat="43.838305017" lon="11.197127039"><ele>68</ele><time>2020-02-09T08:06:21Z</time></trkpt>
<trkpt lat="43.838327983" lon="11.197152017"><ele>68</ele><time>2020-02-09T08:06:22Z</time></trkpt>
<trkpt lat="43.838351034" lon="11.197175989"><ele>69</ele><time>2020-02-09T08:06:23Z</time></trkpt>
<trkpt lat="43.838374" lon="11.197199961"><ele>69</ele><time>2020-02-09T08:06:24Z</time></trkpt>
<trkpt lat="43.838396966" lon="11.197224017"><ele>69</ele><time>2020-02-09T08:06:25Z</time></trkpt>
<trkpt lat="43.838420017" lon="11.197248995"><ele>69</ele><time>2020-02-09T08:06:26Z</time></trkpt>
<trkpt lat="43.838443989" lon="11.197274979"><ele>69</ele><time>2020-02-09T08:06:27Z</time></trkpt>
<trkpt lat="43.838467039" lon="11.197301969"><ele>69</ele><time>2020-02-09T08:06:28Z</time></trkpt>
<trkpt lat="43.838492017" lon="11.197328959"><ele>69</ele><time>2020-02-09T08:06:29Z</time></trkpt>
<trkpt lat="43.838515989" lon="11.197357038"><ele>69</ele><time>2020-02-09T08:06:30Z</time></trkpt>
<trkpt lat="43.838539962" lon="11.197385034"><ele>70</ele><time>2020-02-09T08:06:31Z</time></trkpt>
<trkpt lat="43.838565024" lon="11.197413029"><ele>70</ele><time>2020-02-09T08:06:32Z</time></trkpt>
<trkpt lat="43.838588996" lon="11.197440019"><ele>70</ele><time>2020-02-09T08:06:33Z</time></trkpt>
<trkpt lat="43.838613974" lon="11.197466003"><ele>70</ele><time>2020-02-09T08:06:34Z</time></trkpt>
<trkpt lat="43.83863803" lon="11.197490981"><ele>70</ele><time>2020-02-09T08:06:35Z</time></trkpt>
<trkpt lat="43.838662002" lon="11.197515037"><ele>70</ele><time>2020-02-09T08:06:36Z</time></trkpt>
<trkpt lat="43.838685974" lon="11.197536997"><ele>70</ele><time>2020-02-09T08:06:37Z</time></trkpt>
<trkpt lat="43.838710031" lon="11.197559042"><ele>70</ele><time>2020-02-09T08:06:38Z</time></trkpt>
<trkpt lat="43.838734003" lon="11.197581002"><ele>70</ele><time>2020-02-09T08:06:39Z</time></trkpt>
<trkpt lat="43.838756969" lon="11.197602041"><ele>70</ele><time>2020-02-09T08:06:40Z</time></trkpt>
<trkpt lat="43.838781025" lon="11.197624002"><ele>70</ele><time>2020-02-09T08:06:41Z</time></trkpt>
<trkpt lat="43.838804998" lon="11.197646968"><ele>70</ele><time>2020-02-09T08:06:42Z</time></trkpt>
<trkpt lat="43.83882897" lon="11.197671024"><ele>70</ele><time>2020-02-09T08:06:43Z</time></trkpt>
<trkpt lat="43.838854032" lon="11.197696002"><ele>70</ele><time>2020-02-09T08:06:44Z</time></trkpt>
<trkpt lat="43.838878004" lon="11.197722992"><ele>70</ele><time>2020-02-09T08:06:45Z</time></trkpt>
<trkpt lat="43.838902982" lon="11.197749982"><ele>70</ele><time>2020-02-09T08:06:46Z</time></trkpt>
<trkpt lat="43.83892796" lon="11.197776971"><ele>70</ele><time>2020-02-09T08:06:47Z</time></trkpt>
<trkpt lat="43.838952016" lon="11.197803961"><ele>70</ele><time>2020-02-09T08:06:48Z</time></trkpt>
<trkpt lat="43.838976994" lon="11.197830029"><ele>70</ele><time>2020-02-09T08:06:49Z</time></trkpt>
<trkpt lat="43.839001972" lon="11.197855007"><ele>70</ele><time>2020-02-09T08:06:50Z</time></trkpt>
<trkpt lat="43.839026028" lon="11.197878979"><ele>70</ele><time>2020-02-09T08:06:51Z</time></trkpt>
<trkpt lat="43.839051006" lon="11.197901024"><ele>70</ele><time>2020-02-09T08:06:52Z</time></trkpt>
<trkpt lat="43.839074979" lon="11.197921978"><ele>70</ele><time>2020-02-09T08:06:53Z</time></trkpt>
<trkpt lat="43.839099035" lon="11.197941005"><ele>70</ele><time>2020-02-09T08:06:54Z</time></trkpt>
<trkpt lat="43.839124013" lon="11.197960032"><ele>70</ele><time>2020-02-09T08:06:55Z</time></trkpt>
<trkpt lat="43.839147985" lon="11.197978975"><ele>70</ele><time>2020-02-09T08:06:56Z</time></trkpt>
<trkpt lat="43.839173969" lon="11.197998002"><ele>70</ele><time>2020-02-09T08:06:57Z</time></trkpt>
<trkpt lat="43.839199031" lon="11.198018035"><ele>70</ele><time>2020-02-09T08:06:58Z</time></trkpt>
<trkpt lat="43.839226021" lon="11.19803899"><ele>70</ele><time>2020-02-09T08:06:59Z</time></trkpt>
<trkpt lat="43.83925301" lon="11.198061034"><ele>70</ele><time>2020-02-09T08:07:00Z</time></trkpt>
<trkpt lat="43.83928" lon="11.198086012"><ele>70</ele><time>2020-02-09T08:07:01Z</time></trkpt>
<trkpt lat="43.839304978" lon="11.19811099"><ele>70</ele><time>2020-02-09T08:07:02Z</time></trkpt>
<trkpt lat="43.83933004" lon="11.198138986"><ele>70</ele><time>2020-02-09T08:07:03Z</time></trkpt>
<trkpt lat="43.839350995" lon="11.198167987"><ele>70</ele><time>2020-02-09T08:07:04Z</time></trkpt>
<trkpt lat="43.839369016" lon="11.198199"><ele>71</ele><time>2020-02-09T08:07:05Z</time></trkpt>
<trkpt lat="43.839392988" lon="11.198301008"><ele>71</ele><time>2020-02-09T08:07:08Z</time></trkpt>
<trkpt lat="43.839390976" lon="11.198337972"><ele>71</ele><time>2020-02-09T08:07:09Z</time></trkpt>
<trkpt lat="43.839384019" lon="11.198376026"><ele>71</ele><time>2020-02-09T08:07:10Z</time></trkpt>
<trkpt lat="43.839373039" lon="11.198415002"><ele>71</ele><time>2020-02-09T08:07:11Z</time></trkpt>
<trkpt lat="43.839359963" lon="11.198454984"><ele>71</ele><time>2020-02-09T08:07:12Z</time></trkpt>
<trkpt lat="43.83934496" lon="11.198494965"><ele>71</ele><time>2020-02-09T08:07:13Z</time></trkpt>
<trkpt lat="43.839329034" lon="11.198535031"><ele>70</ele><time>2020-02-09T08:07:14Z</time></trkpt>
<trkpt lat="43.839313025" lon="11.198575012"><ele>70</ele><time>2020-02-09T08:07:15Z</time></trkpt>
<trkpt lat="43.839297015" lon="11.198614994"><ele>70</ele><time>2020-02-09T08:07:16Z</time></trkpt>
<trkpt lat="43.839282012" lon="11.198654976"><ele>70</ele><time>2020-02-09T08:07:17Z</time></trkpt>
<trkpt lat="43.839268014" lon="11.198695041"><ele>70</ele><time>2020-02-09T08:07:18Z</time></trkpt>
<trkpt lat="43.83925301" lon="11.198734017"><ele>70</ele><time>2020-02-09T08:07:19Z</time></trkpt>
<trkpt lat="43.839239012" lon="11.198772993"><ele>70</ele><time>2020-02-09T08:07:20Z</time></trkpt>
<trkpt lat="43.839224009" lon="11.198811969"><ele>70</ele><time>2020-02-09T08:07:21Z</time></trkpt>
<trkpt lat="43.839209005" lon="11.198851028"><ele>70</ele><time>2020-02-09T08:07:22Z</time></trkpt>
<trkpt lat="43.839194002" lon="11.198888998"><ele>70</ele><time>2020-02-09T08:07:23Z</time></trkpt>
<trkpt lat="43.839176986" lon="11.198926969"><ele>70</ele><time>2020-02-09T08:07:24Z</time></trkpt>
<trkpt lat="43.839160977" lon="11.198964017"><ele>70</ele><time>2020-02-09T08:07:25Z</time></trkpt>
<trkpt lat="43.839143962" lon="11.198999975"><ele>70</ele><time>2020-02-09T08:07:26Z</time></trkpt>
<trkpt lat="43.839128036" lon="11.199036017"><ele>70</ele><time>2020-02-09T08:07:27Z</time></trkpt>
<trkpt lat="43.839111021" lon="11.19907097"><ele>70</ele><time>2020-02-09T08:07:28Z</time></trkpt>
<trkpt lat="43.839095011" lon="11.199103994"><ele>70</ele><time>2020-02-09T08:07:29Z</time></trkpt>
<trkpt lat="43.839080008" lon="11.199137019"><ele>70</ele><time>2020-02-09T08:07:30Z</time></trkpt>
<trkpt lat="43.83906601" lon="11.199168032"><ele>70</ele><time>2020-02-09T08:07:31Z</time></trkpt>
<trkpt lat="43.839052012" lon="11.199198961"><ele>70</ele><time>2020-02-09T08:07:32Z</time></trkpt>
<trkpt lat="43.839038014" lon="11.199229974"><ele>70</ele><time>2020-02-09T08:07:33Z</time></trkpt>
<trkpt lat="43.839024017" lon="11.199264005"><ele>70</ele><time>2020-02-09T08:07:34Z</time></trkpt>
<trkpt lat="43.839010019" lon="11.199300969"><ele>70</ele><time>2020-02-09T08:07:35Z</time></trkpt>
<trkpt lat="43.838987974" lon="11.199413035"><ele>71</ele><time>2020-02-09T08:07:38Z</time></trkpt>
<trkpt lat="43.838993004" lon="11.199446982"><ele>71</ele><time>2020-02-09T08:07:39Z</time></trkpt>
<trkpt lat="43.83900499" lon="11.199477995"><ele>71</ele><time>2020-02-09T08:07:40Z</time></trkpt>
<trkpt lat="43.839022005" lon="11.19950599"><ele>71</ele><time>2020-02-09T08:07:41Z</time></trkpt>
<trkpt lat="43.839043966" lon="11.199531974"><ele>71</ele><time>2020-02-09T08:07:42Z</time></trkpt>
<trkpt lat="43.839068022" lon="11.199555025"><ele>71</ele><time>2020-02-09T08:07:43Z</time></trkpt>
<trkpt lat="43.839093" lon="11.199576985"><ele>71</ele><time>2020-02-09T08:07:44Z</time></trkpt>
<trkpt lat="43.839118984" lon="11.199597018"><ele>72</ele><time>2020-02-09T08:07:45Z</time></trkpt>
<trkpt lat="43.839145973" lon="11.199617973"><ele>72</ele><time>2020-02-09T08:07:46Z</time></trkpt>
<trkpt lat="43.839171035" lon="11.199640017"><ele>72</ele><time>2020-02-09T08:07:47Z</time></trkpt>
<trkpt lat="43.839196013" lon="11.199661978"><ele>72</ele><time>2020-02-09T08:07:48Z</time></trkpt>
<trkpt lat="43.839219986" lon="11.199685028"><ele>72</ele><time>2020-02-09T08:07:49Z</time></trkpt>
<trkpt lat="43.839244042" lon="11.199709"><ele>72</ele><time>2020-02-09T08:07:50Z</time></trkpt>
<trkpt lat="43.839267008" lon="11.199732972"><ele>72</ele><time>2020-02-09T08:07:51Z</time></trkpt>
<trkpt lat="43.83929098" lon="11.199758034"><ele>73</ele><time>2020-02-09T08:07:52Z</time></trkpt>
<trkpt lat="43.83931403" lon="11.199784018"><ele>73</ele><time>2020-02-09T08:07:53Z</time></trkpt>
<trkpt lat="43.839338003" lon="11.199808996"><ele>73</ele><time>2020-02-09T08:07:54Z</time></trkpt>
<trkpt lat="43.839361975" lon="11.199835986"><ele>73</ele><time>2020-02-09T08:07:55Z</time></trkpt>
<trkpt lat="43.839385025" lon="11.19986197"><ele>73</ele><time>2020-02-09T08:07:56Z</time></trkpt>
<trkpt lat="43.839407992" lon="11.19988896"><ele>74</ele><time>2020-02-09T08:07:57Z</time></trkpt>
<trkpt lat="43.839431042" lon="11.199916033"><ele>74</ele><time>2020-02-09T08:07:58Z</time></trkpt>
<trkpt lat="43.839453002" lon="11.199942017"><ele>74</ele><time>2020-02-09T08:07:59Z</time></trkpt>
<trkpt lat="43.839474041" lon="11.199969007"><ele>74</ele><time>2020-02-09T08:08:00Z</time></trkpt>
<trkpt lat="43.839492984" lon="11.199995996"><ele>74</ele><time>2020-02-09T08:08:01Z</time></trkpt>
<trkpt lat="43.839512011" lon="11.20002198"><ele>74</ele><time>2020-02-09T08:08:02Z</time></trkpt>
<trkpt lat="43.83953196" lon="11.20004897"><ele>74</ele><time>2020-02-09T08:08:03Z</time></trkpt>
<trkpt lat="43.839556016" lon="11.200075038"><ele>74</ele><time>2020-02-09T08:08:04Z</time></trkpt>
<trkpt lat="43.839585017" lon="11.200100016"><ele>75</ele><time>2020-02-09T08:08:05Z</time></trkpt>
<trkpt lat="43.83961997" lon="11.200123988"><ele>75</ele><time>2020-02-09T08:08:06Z</time></trkpt>
<trkpt lat="43.839657018" lon="11.200142009"><ele>75</ele><time>2020-02-09T08:08:07Z</time></trkpt>
<trkpt lat="43.839689959" lon="11.200151984"><ele>75</ele><time>2020-02-09T08:08:08Z</time></trkpt>
<trkpt lat="43.839776963" lon="11.20017604"><ele>75</ele><time>2020-02-09T08:08:11Z</time></trkpt>
<trkpt lat="43.839804037" lon="11.200189032"><ele>75</ele><time>2020-02-09T08:08:12Z</time></trkpt>
<trkpt lat="43.839831026" lon="11.200204035"><ele>75</ele><time>2020-02-09T08:08:13Z</time></trkpt>
<trkpt lat="43.839907972" lon="11.200259021"><ele>76</ele><time>2020-02-09T08:08:16Z</time></trkpt>
<trkpt lat="43.839933034" lon="11.200279975"><ele>76</ele><time>2020-02-09T08:08:17Z</time></trkpt>
<trkpt lat="43.839958012" lon="11.200301014"><ele>76</ele><time>2020-02-09T08:08:18Z</time></trkpt>
<trkpt lat="43.839981984" lon="11.200321969"><ele>76</ele><time>2020-02-09T08:08:19Z</time></trkpt>
<trkpt lat="43.840006962" lon="11.200344013"><ele>76</ele><time>2020-02-09T08:08:20Z</time></trkpt>
<trkpt lat="43.840032024" lon="11.200365974"><ele>76</ele><time>2020-02-09T08:08:21Z</time></trkpt>
<trkpt lat="43.840057002" lon="11.200388018"><ele>76</ele><time>2020-02-09T08:08:22Z</time></trkpt>
<trkpt lat="43.840082986" lon="11.200409979"><ele>76</ele><time>2020-02-09T08:08:23Z</time></trkpt>
<trkpt lat="43.840109976" lon="11.200432023"><ele>76</ele><time>2020-02-09T08:08:24Z</time></trkpt>
<trkpt lat="43.840137972" lon="11.200453984"><ele>76</ele><time>2020-02-09T08:08:25Z</time></trkpt>
<trkpt lat="43.840166973" lon="11.200475022"><ele>76</ele><time>2020-02-09T08:08:26Z</time></trkpt>
<trkpt lat="43.84019698" lon="11.200494971"><ele>76</ele><time>2020-02-09T08:08:27Z</time></trkpt>
<trkpt lat="43.840226987" lon="11.200515004"><ele>76</ele><time>2020-02-09T08:08:28Z</time></trkpt>
<trkpt lat="43.840258" lon="11.200533025"><ele>76</ele><time>2020-02-09T08:08:29Z</time></trkpt>
<trkpt lat="43.840288008" lon="11.20055004"><ele>76</ele><time>2020-02-09T08:08:30Z</time></trkpt>
<trkpt lat="43.840318015" lon="11.200565966"><ele>76</ele><time>2020-02-09T08:08:31Z</time></trkpt>
<trkpt lat="43.840347016" lon="11.200579042"><ele>76</ele><time>2020-02-09T08:08:32Z</time></trkpt>
<trkpt lat="43.840375012" lon="11.200591028"><ele>76</ele><time>2020-02-09T08:08:33Z</time></trkpt>
<trkpt lat="43.840402002" lon="11.200602008"><ele>76</ele><time>2020-02-09T08:08:34Z</time></trkpt>
<trkpt lat="43.840428991" lon="11.200609971"><ele>76</ele><time>2020-02-09T08:08:35Z</time></trkpt>
<trkpt lat="43.840454975" lon="11.200618017"><ele>76</ele><time>2020-02-09T08:08:36Z</time></trkpt>
<trkpt lat="43.840481965" lon="11.200623969"><ele>76</ele><time>2020-02-09T08:08:37Z</time></trkpt>
<trkpt lat="43.840509038" lon="11.200628998"><ele>76</ele><time>2020-02-09T08:08:38Z</time></trkpt>
<trkpt lat="43.840537034" lon="11.200634027"><ele>76</ele><time>2020-02-09T08:08:39Z</time></trkpt>
<trkpt lat="43.840566035" lon="11.200637966"><ele>76</ele><time>2020-02-09T08:08:40Z</time></trkpt>
<trkpt lat="43.840595037" lon="11.20064199"><ele>76</ele><time>2020-02-09T08:08:41Z</time></trkpt>
<trkpt lat="43.840625966" lon="11.200646013"><ele>76</ele><time>2020-02-09T08:08:42Z</time></trkpt>
<trkpt lat="43.840657985" lon="11.200650036"><ele>76</ele><time>2020-02-09T08:08:43Z</time></trkpt>
<trkpt lat="43.840688998" lon="11.200653976"><ele>76</ele><time>2020-02-09T08:08:44Z</time></trkpt>
<trkpt lat="43.840721017" lon="11.200657999"><ele>76</ele><time>2020-02-09T08:08:45Z</time></trkpt>
<trkpt lat="43.84075203" lon="11.200662022"><ele>76</ele><time>2020-02-09T08:08:46Z</time></trkpt>
<trkpt lat="43.840782959" lon="11.200665962"><ele>76</ele><time>2020-02-09T08:08:47Z</time></trkpt>
<trkpt lat="43.840812966" lon="11.200669985"><ele>76</ele><time>2020-02-09T08:08:48Z</time></trkpt>
<trkpt lat="43.840841968" lon="11.200675014"><ele>76</ele><time>2020-02-09T08:08:49Z</time></trkpt>
<trkpt lat="43.840869963" lon="11.200680966"><ele>76</ele><time>2020-02-09T08:08:50Z</time></trkpt>
<trkpt lat="43.840897037" lon="11.200688006"><ele>76</ele><time>2020-02-09T08:08:51Z</time></trkpt>
<trkpt lat="43.840925032" lon="11.200695969"><ele>76</ele><time>2020-02-09T08:08:52Z</time></trkpt>
<trkpt lat="43.840953028" lon="11.200706027"><ele>76</ele><time>2020-02-09T08:08:53Z</time></trkpt>
<trkpt lat="43.840981023" lon="11.200719019"><ele>76</ele><time>2020-02-09T08:08:54Z</time></trkpt>
<trkpt lat="43.841009019" lon="11.200735029"><ele>76</ele><time>2020-02-09T08:08:55Z</time></trkpt>
<trkpt lat="43.841035003" lon="11.200754978"><ele>76</ele><time>2020-02-09T08:08:56Z</time></trkpt>
<trkpt lat="43.841059981" lon="11.200778028"><ele>76</ele><time>2020-02-09T08:08:57Z</time></trkpt>
<trkpt lat="43.841084037" lon="11.200805018"><ele>76</ele><time>2020-02-09T08:08:58Z</time></trkpt>
<trkpt lat="43.841105998" lon="11.200835025"><ele>76</ele><time>2020-02-09T08:08:59Z</time></trkpt>
<trkpt lat="43.841127036" lon="11.200866038"><ele>76</ele><time>2020-02-09T08:09:00Z</time></trkpt>
<trkpt lat="43.841147991" lon="11.200899985"><ele>76</ele><time>2020-02-09T08:09:01Z</time></trkpt>
<trkpt lat="43.841168024" lon="11.200933009"><ele>76</ele><time>2020-02-09T08:09:02Z</time></trkpt>
<trkpt lat="43.841187973" lon="11.20096704"><ele>76</ele><time>2020-02-09T08:09:03Z</time></trkpt>
<trkpt lat="43.841208005" lon="11.200999981"><ele>76</ele><time>2020-02-09T08:09:04Z</time></trkpt>
<trkpt lat="43.841227032" lon="11.201032"><ele>76</ele><time>2020-02-09T08:09:05Z</time></trkpt>
<trkpt lat="43.841246981" lon="11.201063013"><ele>77</ele><time>2020-02-09T08:09:06Z</time></trkpt>
<trkpt lat="43.84126802" lon="11.20109302"><ele>77</ele><time>2020-02-09T08:09:07Z</time></trkpt>
<trkpt lat="43.841287969" lon="11.201123027"><ele>77</ele><time>2020-02-09T08:09:08Z</time></trkpt>
<trkpt lat="43.841308001" lon="11.201153034"><ele>77</ele><time>2020-02-09T08:09:09Z</time></trkpt>
<trkpt lat="43.841328034" lon="11.201183964"><ele>77</ele><time>2020-02-09T08:09:10Z</time></trkpt>
<trkpt lat="43.841347983" lon="11.201214977"><ele>77</ele><time>2020-02-09T08:09:11Z</time></trkpt>
<trkpt lat="43.841368016" lon="11.201248001"><ele>77</ele><time>2020-02-09T08:09:12Z</time></trkpt>
<trkpt lat="43.841387965" lon="11.201282032"><ele>77</ele><time>2020-02-09T08:09:13Z</time></trkpt>
<trkpt lat="43.841406992" lon="11.201316984"><ele>78</ele><time>2020-02-09T08:09:14Z</time></trkpt>
<trkpt lat="43.841426019" lon="11.201354032"><ele>78</ele><time>2020-02-09T08:09:15Z</time></trkpt>
<trkpt lat="43.841443034" lon="11.201392002"><ele>78</ele><time>2020-02-09T08:09:16Z</time></trkpt>
<trkpt lat="43.84145896" lon="11.201429972"><ele>78</ele><time>2020-02-09T08:09:17Z</time></trkpt>
<trkpt lat="43.841473041" lon="11.201469032"><ele>78</ele><time>2020-02-09T08:09:18Z</time></trkpt>
<trkpt lat="43.841485027" lon="11.201508008"><ele>78</ele><time>2020-02-09T08:09:19Z</time></trkpt>
<trkpt lat="43.841493996" lon="11.20154799"><ele>79</ele><time>2020-02-09T08:09:20Z</time></trkpt>
<trkpt lat="43.841500031" lon="11.201586965"><ele>79</ele><time>2020-02-09T08:09:21Z</time></trkpt>
<trkpt lat="43.84150397" lon="11.201626025"><ele>79</ele><time>2020-02-09T08:09:22Z</time></trkpt>
<trkpt lat="43.841505982" lon="11.201666007"><ele>79</ele><time>2020-02-09T08:09:23Z</time></trkpt>
<trkpt lat="43.841506988" lon="11.201704983"><ele>79</ele><time>2020-02-09T08:09:24Z</time></trkpt>
<trkpt lat="43.841508999" lon="11.201744964"><ele>79</ele><time>2020-02-09T08:09:25Z</time></trkpt>
<trkpt lat="43.841510005" lon="11.201784024"><ele>79</ele><time>2020-02-09T08:09:26Z</time></trkpt>
<trkpt lat="43.841513023" lon="11.201824006"><ele>79</ele><time>2020-02-09T08:09:27Z</time></trkpt>
<trkpt lat="43.841517968" lon="11.201863987"><ele>80</ele><time>2020-02-09T08:09:28Z</time></trkpt>
<trkpt lat="43.841524003" lon="11.201903969"><ele>80</ele><time>2020-02-09T08:09:29Z</time></trkpt>
<trkpt lat="43.841531966" lon="11.201944035"><ele>80</ele><time>2020-02-09T08:09:30Z</time></trkpt>
<trkpt lat="43.841541018" lon="11.20198301"><ele>80</ele><time>2020-02-09T08:09:31Z</time></trkpt>
<trkpt lat="43.841550993" lon="11.202021986"><ele>80</ele><time>2020-02-09T08:09:32Z</time></trkpt>
<trkpt lat="43.841562979" lon="11.20206004"><ele>80</ele><time>2020-02-09T08:09:33Z</time></trkpt>
<trkpt lat="43.841575971" lon="11.202097004"><ele>80</ele><time>2020-02-09T08:09:34Z</time></trkpt>
<trkpt lat="43.841588963" lon="11.202132963"><ele>80</ele><time>2020-02-09T08:09:35Z</time></trkpt>
<trkpt lat="43.841602961" lon="11.202167999"><ele>80</ele><time>2020-02-09T08:09:36Z</time></trkpt>
<trkpt lat="43.841617964" lon="11.20220203"><ele>80</ele><time>2020-02-09T08:09:37Z</time></trkpt>
<trkpt lat="43.841663981" lon="11.202298002"><ele>81</ele><time>2020-02-09T08:09:40Z</time></trkpt>
<trkpt lat="43.84167999" lon="11.202329015"><ele>81</ele><time>2020-02-09T08:09:41Z</time></trkpt>
<trkpt lat="43.841696" lon="11.202359023"><ele>81</ele><time>2020-02-09T08:09:42Z</time></trkpt>
<trkpt lat="43.841711003" lon="11.202390036"><ele>81</ele><time>2020-02-09T08:09:43Z</time></trkpt>
<trkpt lat="43.841727013" lon="11.202419959"><ele>81</ele><time>2020-02-09T08:09:44Z</time></trkpt>
<trkpt lat="43.841742016" lon="11.20244896"><ele>81</ele><time>2020-02-09T08:09:45Z</time></trkpt>
<trkpt lat="43.841758026" lon="11.202477962"><ele>81</ele><time>2020-02-09T08:09:46Z</time></trkpt>
<trkpt lat="43.841774035" lon="11.202505035"><ele>81</ele><time>2020-02-09T08:09:47Z</time></trkpt>
<trkpt lat="43.841791973" lon="11.202530013"><ele>81</ele><time>2020-02-09T08:09:48Z</time></trkpt>
<trkpt lat="43.841810999" lon="11.20255298"><ele>82</ele><time>2020-02-09T08:09:49Z</time></trkpt>
<trkpt lat="43.841831032" lon="11.202572007"><ele>82</ele><time>2020-02-09T08:09:50Z</time></trkpt>
<trkpt lat="43.841852993" lon="11.202588016"><ele>82</ele><time>2020-02-09T08:09:51Z</time></trkpt>
<trkpt lat="43.841877971" lon="11.202601008"><ele>82</ele><time>2020-02-09T08:09:52Z</time></trkpt>
<trkpt lat="43.841904039" lon="11.202609977"><ele>82</ele><time>2020-02-09T08:09:53Z</time></trkpt>
<trkpt lat="43.841932034" lon="11.202616012"><ele>82</ele><time>2020-02-09T08:09:54Z</time></trkpt>
<trkpt lat="43.841961036" lon="11.202620035"><ele>82</ele><time>2020-02-09T08:09:55Z</time></trkpt>
<trkpt lat="43.841990959" lon="11.202622969"><ele>82</ele><time>2020-02-09T08:09:56Z</time></trkpt>
<trkpt lat="43.842021972" lon="11.20262498"><ele>82</ele><time>2020-02-09T08:09:57Z</time></trkpt>
<trkpt lat="43.842052985" lon="11.202626992"><ele>82</ele><time>2020-02-09T08:09:58Z</time></trkpt>
<trkpt lat="43.842082992" lon="11.20263001"><ele>82</ele><time>2020-02-09T08:09:59Z</time></trkpt>
<trkpt lat="43.842114005" lon="11.202634033"><ele>82</ele><time>2020-02-09T08:10:00Z</time></trkpt>
<trkpt lat="43.842143007" lon="11.202638978"><ele>83</ele><time>2020-02-09T08:10:01Z</time></trkpt>
<trkpt lat="43.842173014" lon="11.202644007"><ele>83</ele><time>2020-02-09T08:10:02Z</time></trkpt>
<trkpt lat="43.842202015" lon="11.202647025"><ele>83</ele><time>2020-02-09T08:10:03Z</time></trkpt>
<trkpt lat="43.842230011" lon="11.202649036"><ele>83</ele><time>2020-02-09T08:10:04Z</time></trkpt>
<trkpt lat="43.842258006" lon="11.202649036"><ele>83</ele><time>2020-02-09T08:10:05Z</time></trkpt>
<trkpt lat="43.842284996" lon="11.202646019"><ele>83</ele><time>2020-02-09T08:10:06Z</time></trkpt>
<trkpt lat="43.842338976" lon="11.202626992"><ele>83</ele><time>2020-02-09T08:10:08Z</time></trkpt>
<trkpt lat="43.842364037" lon="11.202611988"><ele>83</ele><time>2020-02-09T08:10:09Z</time></trkpt>
<trkpt lat="43.842390021" lon="11.202593967"><ele>83</ele><time>2020-02-09T08:10:10Z</time></trkpt>
<trkpt lat="43.842414999" lon="11.202574018"><ele>83</ele><time>2020-02-09T08:10:11Z</time></trkpt>
<trkpt lat="43.842439977" lon="11.202551974"><ele>83</ele><time>2020-02-09T08:10:12Z</time></trkpt>
<trkpt lat="43.842465039" lon="11.202531019"><ele>83</ele><time>2020-02-09T08:10:13Z</time></trkpt>
<trkpt lat="43.842490017" lon="11.202509981"><ele>83</ele><time>2020-02-09T08:10:14Z</time></trkpt>
<trkpt lat="43.842516001" lon="11.202490032"><ele>83</ele><time>2020-02-09T08:10:15Z</time></trkpt>
<trkpt lat="43.842540979" lon="11.202473016"><ele>83</ele><time>2020-02-09T08:10:16Z</time></trkpt>
<trkpt lat="43.842566963" lon="11.202458013"><ele>83</ele><time>2020-02-09T08:10:17Z</time></trkpt>
<trkpt lat="43.842593031" lon="11.202445021"><ele>83</ele><time>2020-02-09T08:10:18Z</time></trkpt>
<trkpt lat="43.842619015" lon="11.202435968"><ele>83</ele><time>2020-02-09T08:10:19Z</time></trkpt>
<trkpt lat="43.842643993" lon="11.202429011"><ele>83</ele><time>2020-02-09T08:10:20Z</time></trkpt>
<trkpt lat="43.842669977" lon="11.202425994"><ele>83</ele><time>2020-02-09T08:10:21Z</time></trkpt>
<trkpt lat="43.842695039" lon="11.202427"><ele>83</ele><time>2020-02-09T08:10:22Z</time></trkpt>
<trkpt lat="43.842720017" lon="11.202431023"><ele>84</ele><time>2020-02-09T08:10:23Z</time></trkpt>
<trkpt lat="43.842743989" lon="11.202439992"><ele>84</ele><time>2020-02-09T08:10:24Z</time></trkpt>
<trkpt lat="43.842767961" lon="11.202450972"><ele>84</ele><time>2020-02-09T08:10:25Z</time></trkpt>
<trkpt lat="43.842791012" lon="11.202465976"><ele>84</ele><time>2020-02-09T08:10:26Z</time></trkpt>
<trkpt lat="43.842813978" lon="11.202483997"><ele>84</ele><time>2020-02-09T08:10:27Z</time></trkpt>
<trkpt lat="43.842837028" lon="11.202503024"><ele>84</ele><time>2020-02-09T08:10:28Z</time></trkpt>
<trkpt lat="43.842858989" lon="11.202522973"><ele>84</ele><time>2020-02-09T08:10:29Z</time></trkpt>
<trkpt lat="43.842902994" lon="11.202566978"><ele>85</ele><time>2020-02-09T08:10:31Z</time></trkpt>
<trkpt lat="43.842925038" lon="11.202589022"><ele>85</ele><time>2020-02-09T08:10:32Z</time></trkpt>
<trkpt lat="43.842945993" lon="11.202611988"><ele>85</ele><time>2020-02-09T08:10:33Z</time></trkpt>
<trkpt lat="43.842967032" lon="11.202634033"><ele>85</ele><time>2020-02-09T08:10:34Z</time></trkpt>
<trkpt lat="43.842987986" lon="11.202656999"><ele>85</ele><time>2020-02-09T08:10:35Z</time></trkpt>
<trkpt lat="43.843009025" lon="11.20267896"><ele>85</ele><time>2020-02-09T08:10:36Z</time></trkpt>
<trkpt lat="43.843030985" lon="11.20270201"><ele>85</ele><time>2020-02-09T08:10:37Z</time></trkpt>
<trkpt lat="43.843052024" lon="11.202723971"><ele>85</ele><time>2020-02-09T08:10:38Z</time></trkpt>
<trkpt lat="43.843073985" lon="11.202746015"><ele>85</ele><time>2020-02-09T08:10:39Z</time></trkpt>
<trkpt lat="43.843095023" lon="11.20276697"><ele>85</ele><time>2020-02-09T08:10:40Z</time></trkpt>
<trkpt lat="43.843116984" lon="11.202789014"><ele>85</ele><time>2020-02-09T08:10:41Z</time></trkpt>
<trkpt lat="43.843139028" lon="11.202809969"><ele>85</ele><time>2020-02-09T08:10:42Z</time></trkpt>
<trkpt lat="43.843161995" lon="11.202830002"><ele>85</ele><time>2020-02-09T08:10:43Z</time></trkpt>
<trkpt lat="43.843184039" lon="11.20285104"><ele>85</ele><time>2020-02-09T08:10:44Z</time></trkpt>
<trkpt lat="43.843207005" lon="11.202870989"><ele>85</ele><time>2020-02-09T08:10:45Z</time></trkpt>
<trkpt lat="43.843229972" lon="11.202890016"><ele>85</ele><time>2020-02-09T08:10:46Z</time></trkpt>
<trkpt lat="43.843252016" lon="11.202908959"><ele>85</ele><time>2020-02-09T08:10:47Z</time></trkpt>
<trkpt lat="43.843275988" lon="11.202927986"><ele>85</ele><time>2020-02-09T08:10:48Z</time></trkpt>
<trkpt lat="43.843299039" lon="11.202947013"><ele>85</ele><time>2020-02-09T08:10:49Z</time></trkpt>
<trkpt lat="43.843322005" lon="11.202965034"><ele>85</ele><time>2020-02-09T08:10:50Z</time></trkpt>
<trkpt lat="43.843344972" lon="11.202981966"><ele>85</ele><time>2020-02-09T08:10:51Z</time></trkpt>
<trkpt lat="43.843369028" lon="11.202999987"><ele>85</ele><time>2020-02-09T08:10:52Z</time></trkpt>
<trkpt lat="43.843391994" lon="11.203017002"><ele>85</ele><time>2020-02-09T08:10:53Z</time></trkpt>
<trkpt lat="43.843415966" lon="11.203033011"><ele>86</ele><time>2020-02-09T08:10:54Z</time></trkpt>
<trkpt lat="43.843439016" lon="11.203050027"><ele>86</ele><time>2020-02-09T08:10:55Z</time></trkpt>
<trkpt lat="43.843461983" lon="11.203066036"><ele>86</ele><time>2020-02-09T08:10:56Z</time></trkpt>
<trkpt lat="43.843486039" lon="11.20308104"><ele>86</ele><time>2020-02-09T08:10:57Z</time></trkpt>
<trkpt lat="43.843509005" lon="11.203096965"><ele>86</ele><time>2020-02-09T08:10:58Z</time></trkpt>
<trkpt lat="43.843531972" lon="11.203111969"><ele>87</ele><time>2020-02-09T08:10:59Z</time></trkpt>
<trkpt lat="43.843556028" lon="11.203126973"><ele>87</ele><time>2020-02-09T08:11:00Z</time></trkpt>
<trkpt lat="43.843578994" lon="11.20314097"><ele>87</ele><time>2020-02-09T08:11:01Z</time></trkpt>
<trkpt lat="43.843601961" lon="11.203154968"><ele>87</ele><time>2020-02-09T08:11:02Z</time></trkpt>
<trkpt lat="43.843624005" lon="11.203168966"><ele>87</ele><time>2020-02-09T08:11:03Z</time></trkpt>
<trkpt lat="43.843646972" lon="11.203182964"><ele>88</ele><time>2020-02-09T08:11:04Z</time></trkpt>
<trkpt lat="43.843670022" lon="11.203196961"><ele>88</ele><time>2020-02-09T08:11:05Z</time></trkpt>
<trkpt lat="43.843691982" lon="11.203210959"><ele>88</ele><time>2020-02-09T08:11:06Z</time></trkpt>
<trkpt lat="43.843759038" lon="11.203252031"><ele>89</ele><time>2020-02-09T08:11:09Z</time></trkpt>
<trkpt lat="43.843780998" lon="11.203267034"><ele>89</ele><time>2020-02-09T08:11:10Z</time></trkpt>
<trkpt lat="43.843802959" lon="11.203281032"><ele>90</ele><time>2020-02-09T08:11:11Z</time></trkpt>
<trkpt lat="43.843825003" lon="11.203296036"><ele>90</ele><time>2020-02-09T08:11:12Z</time></trkpt>
<trkpt lat="43.843846964" lon="11.203310033"><ele>90</ele><time>2020-02-09T08:11:13Z</time></trkpt>
<trkpt lat="43.843869008" lon="11.203325037"><ele>90</ele><time>2020-02-09T08:11:14Z</time></trkpt>
<trkpt lat="43.843890969" lon="11.203339035"><ele>91</ele><time>2020-02-09T08:11:15Z</time></trkpt>
<trkpt lat="43.843914019" lon="11.203353032"><ele>91</ele><time>2020-02-09T08:11:16Z</time></trkpt>
<trkpt lat="43.84393598" lon="11.20336703"><ele>91</ele><time>2020-02-09T08:11:17Z</time></trkpt>
<trkpt lat="43.84395903" lon="11.203379016"><ele>92</ele><time>2020-02-09T08:11:18Z</time></trkpt>
<trkpt lat="43.843981996" lon="11.203392008"><ele>92</ele><time>2020-02-09T08:11:19Z</time></trkpt>
<trkpt lat="43.844005968" lon="11.203402989"><ele>92</ele><time>2020-02-09T08:11:20Z</time></trkpt>
<trkpt lat="43.844029019" lon="11.203414975"><ele>93</ele><time>2020-02-09T08:11:21Z</time></trkpt>
<trkpt lat="43.844050979" lon="11.203426039"><ele>93</ele><time>2020-02-09T08:11:22Z</time></trkpt>
<trkpt lat="43.844072018" lon="11.203438025"><ele>93</ele><time>2020-02-09T08:11:23Z</time></trkpt>
<trkpt lat="43.844092973" lon="11.203451017"><ele>93</ele><time>2020-02-09T08:11:24Z</time></trkpt>
<trkpt lat="43.844111999" lon="11.203465015"><ele>94</ele><time>2020-02-09T08:11:25Z</time></trkpt>
<trkpt lat="43.844129015" lon="11.203480018"><ele>94</ele><time>2020-02-09T08:11:26Z</time></trkpt>
<trkpt lat="43.844145024" lon="11.203496028"><ele>94</ele><time>2020-02-09T08:11:27Z</time></trkpt>
<trkpt lat="43.844159022" lon="11.203513965"><ele>94</ele><time>2020-02-09T08:11:28Z</time></trkpt>
<trkpt lat="43.844171008" lon="11.203532992"><ele>95</ele><time>2020-02-09T08:11:29Z</time></trkpt>
<trkpt lat="43.844182994" lon="11.203553025"><ele>95</ele><time>2020-02-09T08:11:30Z</time></trkpt>
<trkpt lat="43.844193975" lon="11.203573979"><ele>95</ele><time>2020-02-09T08:11:31Z</time></trkpt>
<trkpt lat="43.844204033" lon="11.203595018"><ele>95</ele><time>2020-02-09T08:11:32Z</time></trkpt>
<trkpt lat="43.844215013" lon="11.203615973"><ele>95</ele><time>2020-02-09T08:11:33Z</time></trkpt>
<trkpt lat="43.844225993" lon="11.203636006"><ele>95</ele><time>2020-02-09T08:11:34Z</time></trkpt>
<trkpt lat="43.844236974" lon="11.20365696"><ele>96</ele><time>2020-02-09T08:11:35Z</time></trkpt>
<trkpt lat="43.84424896" lon="11.203675987"><ele>96</ele><time>2020-02-09T08:11:36Z</time></trkpt>
<trkpt lat="43.844262036" lon="11.203695014"><ele>96</ele><time>2020-02-09T08:11:37Z</time></trkpt>
<trkpt lat="43.844276033" lon="11.203712029"><ele>96</ele><time>2020-02-09T08:11:38Z</time></trkpt>
<trkpt lat="43.844291037" lon="11.203728039"><ele>96</ele><time>2020-02-09T08:11:39Z</time></trkpt>
<trkpt lat="43.844307968" lon="11.203741031"><ele>97</ele><time>2020-02-09T08:11:40Z</time></trkpt>
<trkpt lat="43.844325989" lon="11.203753017"><ele>97</ele><time>2020-02-09T08:11:41Z</time></trkpt>
<trkpt lat="43.844345016" lon="11.203762991"><ele>97</ele><time>2020-02-09T08:11:42Z</time></trkpt>
<trkpt lat="43.844365971" lon="11.203770032"><ele>97</ele><time>2020-02-09T08:11:43Z</time></trkpt>
<trkpt lat="43.844389021" lon="11.203775983"><ele>98</ele><time>2020-02-09T08:11:44Z</time></trkpt>
<trkpt lat="43.844411988" lon="11.203781012"><ele>98</ele><time>2020-02-09T08:11:45Z</time></trkpt>
<trkpt lat="43.844435038" lon="11.20378403"><ele>98</ele><time>2020-02-09T08:11:46Z</time></trkpt>
<trkpt lat="43.84445901" lon="11.203786964"><ele>98</ele><time>2020-02-09T08:11:47Z</time></trkpt>
<trkpt lat="43.844481977" lon="11.203788975"><ele>99</ele><time>2020-02-09T08:11:48Z</time></trkpt>
<trkpt lat="43.844506033" lon="11.203791993"><ele>99</ele><time>2020-02-09T08:11:49Z</time></trkpt>
<trkpt lat="43.844527993" lon="11.203794004"><ele>99</ele><time>2020-02-09T08:11:50Z</time></trkpt>
<trkpt lat="43.844550038" lon="11.203797022"><ele>100</ele><time>2020-02-09T08:11:51Z</time></trkpt>
<trkpt lat="43.844571998" lon="11.203800039"><ele>100</ele><time>2020-02-09T08:11:52Z</time></trkpt>
<trkpt lat="43.844593037" lon="11.203802973"><ele>100</ele><time>2020-02-09T08:11:53Z</time></trkpt>
<trkpt lat="43.844613992" lon="11.203805991"><ele>100</ele><time>2020-02-09T08:11:54Z</time></trkpt>
<trkpt lat="43.84463503" lon="11.203809008"><ele>100</ele><time>2020-02-09T08:11:55Z</time></trkpt>
<trkpt lat="43.844655985" lon="11.203812025"><ele>101</ele><time>2020-02-09T08:11:56Z</time></trkpt>
<trkpt lat="43.844677024" lon="11.203814959"><ele>101</ele><time>2020-02-09T08:11:57Z</time></trkpt>
<trkpt lat="43.844697978" lon="11.203816971"><ele>101</ele><time>2020-02-09T08:11:58Z</time></trkpt>
<trkpt lat="43.844720023" lon="11.203818982"><ele>101</ele><time>2020-02-09T08:11:59Z</time></trkpt>
<trkpt lat="43.844740978" lon="11.203820994"><ele>102</ele><time>2020-02-09T08:12:00Z</time></trkpt>
<trkpt lat="43.844762016" lon="11.203822"><ele>102</ele><time>2020-02-09T08:12:01Z</time></trkpt>
<trkpt lat="43.844783977" lon="11.203823006"><ele>102</ele><time>2020-02-09T08:12:02Z</time></trkpt>
<trkpt lat="43.844805015" lon="11.203824012"><ele>102</ele><time>2020-02-09T08:12:03Z</time></trkpt>
<trkpt lat="43.84482597" lon="11.203824012"><ele>103</ele><time>2020-02-09T08:12:04Z</time></trkpt>
<trkpt lat="43.844847009" lon="11.203823006"><ele>103</ele><time>2020-02-09T08:12:05Z</time></trkpt>
<trkpt lat="43.844867963" lon="11.203822"><ele>103</ele><time>2020-02-09T08:12:06Z</time></trkpt>
<trkpt lat="43.844889002" lon="11.203819988"><ele>103</ele><time>2020-02-09T08:12:07Z</time></trkpt>
<trkpt lat="43.844909035" lon="11.203817977"><ele>104</ele><time>2020-02-09T08:12:08Z</time></trkpt>
<trkpt lat="43.844928984" lon="11.203815965"><ele>104</ele><time>2020-02-09T08:12:09Z</time></trkpt>
<trkpt lat="43.844949016" lon="11.203813031"><ele>104</ele><time>2020-02-09T08:12:10Z</time></trkpt>
<trkpt lat="43.844967959" lon="11.203810014"><ele>104</ele><time>2020-02-09T08:12:11Z</time></trkpt>
<trkpt lat="43.844987992" lon="11.203805991"><ele>104</ele><time>2020-02-09T08:12:12Z</time></trkpt>
<trkpt lat="43.845006013" lon="11.203801967"><ele>105</ele><time>2020-02-09T08:12:13Z</time></trkpt>
<trkpt lat="43.845024034" lon="11.203798028"><ele>105</ele><time>2020-02-09T08:12:14Z</time></trkpt>
<trkpt lat="43.845041972" lon="11.203792999"><ele>105</ele><time>2020-02-09T08:12:15Z</time></trkpt>
<trkpt lat="43.845058987" lon="11.203787969"><ele>105</ele><time>2020-02-09T08:12:16Z</time></trkpt>
<trkpt lat="43.845076002" lon="11.203782018"><ele>105</ele><time>2020-02-09T08:12:17Z</time></trkpt>
<trkpt lat="43.845092012" lon="11.203776989"><ele>105</ele><time>2020-02-09T08:12:18Z</time></trkpt>
<trkpt lat="43.845108021" lon="11.203771038"><ele>105</ele><time>2020-02-09T08:12:19Z</time></trkpt>
<trkpt lat="43.845122019" lon="11.203765003"><ele>105</ele><time>2020-02-09T08:12:20Z</time></trkpt>
<trkpt lat="43.845137022" lon="11.203758968"><ele>106</ele><time>2020-02-09T08:12:21Z</time></trkpt>
<trkpt lat="43.845150014" lon="11.203752011"><ele>106</ele><time>2020-02-09T08:12:22Z</time></trkpt>
<trkpt lat="43.845164012" lon="11.203745976"><ele>106</ele><time>2020-02-09T08:12:23Z</time></trkpt>
<trkpt lat="43.84517801" lon="11.203740025"><ele>106</ele><time>2020-02-09T08:12:24Z</time></trkpt>
<trkpt lat="43.845192008" lon="11.20373399"><ele>106</ele><time>2020-02-09T08:12:25Z</time></trkpt>
<trkpt lat="43.845206005" lon="11.203729967"><ele>106</ele><time>2020-02-09T08:12:26Z</time></trkpt>
<trkpt lat="43.845222015" lon="11.203726027"><ele>106</ele><time>2020-02-09T08:12:27Z</time></trkpt>
<trkpt lat="43.845238024" lon="11.203722004"><ele>106</ele><time>2020-02-09T08:12:28Z</time></trkpt>
<trkpt lat="43.845255962" lon="11.203719992"><ele>106</ele><time>2020-02-09T08:12:29Z</time></trkpt>
<trkpt lat="43.845274989" lon="11.203718986"><ele>106</ele><time>2020-02-09T08:12:30Z</time></trkpt>
<trkpt lat="43.845295021" lon="11.203717981"><ele>107</ele><time>2020-02-09T08:12:31Z</time></trkpt>
<trkpt lat="43.845316982" lon="11.203717981"><ele>107</ele><time>2020-02-09T08:12:32Z</time></trkpt>
<trkpt lat="43.845339026" lon="11.203716975"><ele>107</ele><time>2020-02-09T08:12:33Z</time></trkpt>
<trkpt lat="43.845361993" lon="11.203714963"><ele>107</ele><time>2020-02-09T08:12:34Z</time></trkpt>
<trkpt lat="43.845433993" lon="11.203704989"><ele>108</ele><time>2020-02-09T08:12:37Z</time></trkpt>
<trkpt lat="43.845458971" lon="11.203699959"><ele>108</ele><time>2020-02-09T08:12:38Z</time></trkpt>
<trkpt lat="43.845484033" lon="11.203695014"><ele>108</ele><time>2020-02-09T08:12:39Z</time></trkpt>
<trkpt lat="43.845508005" lon="11.203690991"><ele>108</ele><time>2020-02-09T08:12:40Z</time></trkpt>
<trkpt lat="43.845530972" lon="11.203685962"><ele>108</ele><time>2020-02-09T08:12:41Z</time></trkpt>
<trkpt lat="43.845554022" lon="11.203683028"><ele>108</ele><time>2020-02-09T08:12:42Z</time></trkpt>
<trkpt lat="43.845614959" lon="11.203681016"><ele>109</ele><time>2020-02-09T08:12:45Z</time></trkpt>
<trkpt lat="43.84563298" lon="11.203683028"><ele>109</ele><time>2020-02-09T08:12:46Z</time></trkpt>
<trkpt lat="43.845649995" lon="11.203686967"><ele>109</ele><time>2020-02-09T08:12:47Z</time></trkpt>
<trkpt lat="43.84566701" lon="11.203690991"><ele>109</ele><time>2020-02-09T08:12:48Z</time></trkpt>
<trkpt lat="43.84568302" lon="11.203698032"><ele>109</ele><time>2020-02-09T08:12:49Z</time></trkpt>
<trkpt lat="43.845698023" lon="11.203704989"><ele>109</ele><time>2020-02-09T08:12:50Z</time></trkpt>
<trkpt lat="43.845714033" lon="11.203713035"><ele>110</ele><time>2020-02-09T08:12:51Z</time></trkpt>
<trkpt lat="43.845729958" lon="11.20372301"><ele>110</ele><time>2020-02-09T08:12:52Z</time></trkpt>
<trkpt lat="43.845745968" lon="11.203731978"><ele>110</ele><time>2020-02-09T08:12:53Z</time></trkpt>
<trkpt lat="43.845761977" lon="11.203742037"><ele>110</ele><time>2020-02-09T08:12:54Z</time></trkpt>
<trkpt lat="43.845778992" lon="11.203751005"><ele>110</ele><time>2020-02-09T08:12:55Z</time></trkpt>
<trkpt lat="43.845797013" lon="11.203757962"><ele>110</ele><time>2020-02-09T08:12:56Z</time></trkpt>
<trkpt lat="43.845858034" lon="11.203766009"><ele>111</ele><time>2020-02-09T08:12:59Z</time></trkpt>
<trkpt lat="43.845882006" lon="11.203761986"><ele>111</ele><time>2020-02-09T08:13:00Z</time></trkpt>
<trkpt lat="43.845906984" lon="11.203756034"><ele>111</ele><time>2020-02-09T08:13:01Z</time></trkpt>
<trkpt lat="43.845931962" lon="11.203748994"><ele>112</ele><time>2020-02-09T08:13:02Z</time></trkpt>
<trkpt lat="43.84595803" lon="11.203743964"><ele>112</ele><time>2020-02-09T08:13:03Z</time></trkpt>
<trkpt lat="43.84598502" lon="11.203740025"><ele>112</ele><time>2020-02-09T08:13:04Z</time></trkpt>
<trkpt lat="43.846009998" lon="11.203739019"><ele>113</ele><time>2020-02-09T08:13:05Z</time></trkpt>
<trkpt lat="43.846035982" lon="11.203740025"><ele>113</ele><time>2020-02-09T08:13:06Z</time></trkpt>
<trkpt lat="43.84606096" lon="11.203742037"><ele>113</ele><time>2020-02-09T08:13:07Z</time></trkpt>
<trkpt lat="43.846107982" lon="11.203747988"><ele>114</ele><time>2020-02-09T08:13:09Z</time></trkpt>
<trkpt lat="43.846131032" lon="11.203752011"><ele>114</ele><time>2020-02-09T08:13:10Z</time></trkpt>
<trkpt lat="43.846152993" lon="11.203756034"><ele>114</ele><time>2020-02-09T08:13:11Z</time></trkpt>
<trkpt lat="43.846174031" lon="11.203759974"><ele>114</ele><time>2020-02-09T08:13:12Z</time></trkpt>
<trkpt lat="43.846194986" lon="11.203765003"><ele>115</ele><time>2020-02-09T08:13:13Z</time></trkpt>
<trkpt lat="43.846216025" lon="11.203770032"><ele>115</ele><time>2020-02-09T08:13:14Z</time></trkpt>
<trkpt lat="43.84623698" lon="11.203774977"><ele>115</ele><time>2020-02-09T08:13:15Z</time></trkpt>
<trkpt lat="43.846257012" lon="11.203780007"><ele>116</ele><time>2020-02-09T08:13:16Z</time></trkpt>
<trkpt lat="43.846276961" lon="11.203785036"><ele>116</ele><time>2020-02-09T08:13:17Z</time></trkpt>
<trkpt lat="43.846298" lon="11.203789981"><ele>116</ele><time>2020-02-09T08:13:18Z</time></trkpt>
<trkpt lat="43.846318033" lon="11.20379501"><ele>116</ele><time>2020-02-09T08:13:19Z</time></trkpt>
<trkpt lat="43.846337982" lon="11.203800039"><ele>117</ele><time>2020-02-09T08:13:20Z</time></trkpt>
<trkpt lat="43.84635902" lon="11.203803979"><ele>117</ele><time>2020-02-09T08:13:21Z</time></trkpt>
<trkpt lat="43.846379975" lon="11.203808002"><ele>117</ele><time>2020-02-09T08:13:22Z</time></trkpt>
<trkpt lat="43.846401013" lon="11.203812025"><ele>117</ele><time>2020-02-09T08:13:23Z</time></trkpt>
<trkpt lat="43.846421968" lon="11.203815965"><ele>118</ele><time>2020-02-09T08:13:24Z</time></trkpt>
<trkpt lat="43.846444013" lon="11.203818982"><ele>118</ele><time>2020-02-09T08:13:25Z</time></trkpt>
<trkpt lat="43.846465973" lon="11.203822"><ele>118</ele><time>2020-02-09T08:13:26Z</time></trkpt>
<trkpt lat="43.846488018" lon="11.203825017"><ele>118</ele><time>2020-02-09T08:13:27Z</time></trkpt>
<trkpt lat="43.846509978" lon="11.203829041"><ele>119</ele><time>2020-02-09T08:13:28Z</time></trkpt>
<trkpt lat="43.846531017" lon="11.203831974"><ele>119</ele><time>2020-02-09T08:13:29Z</time></trkpt>
<trkpt lat="43.846551972" lon="11.203835998"><ele>119</ele><time>2020-02-09T08:13:30Z</time></trkpt>
<trkpt lat="43.846572004" lon="11.203840021"><ele>119</ele><time>2020-02-09T08:13:31Z</time></trkpt>
<trkpt lat="43.846592037" lon="11.203844966"><ele>120</ele><time>2020-02-09T08:13:32Z</time></trkpt>
<trkpt lat="43.84661098" lon="11.203851001"><ele>120</ele><time>2020-02-09T08:13:33Z</time></trkpt>
<trkpt lat="43.846630007" lon="11.203857036"><ele>120</ele><time>2020-02-09T08:13:34Z</time></trkpt>
<trkpt lat="43.846649034" lon="11.203861982"><ele>120</ele><time>2020-02-09T08:13:35Z</time></trkpt>
<trkpt lat="43.846667977" lon="11.203867011"><ele>121</ele><time>2020-02-09T08:13:36Z</time></trkpt>
<trkpt lat="43.84668801" lon="11.20387204"><ele>121</ele><time>2020-02-09T08:13:37Z</time></trkpt>
<trkpt lat="43.846708965" lon="11.203874974"><ele>121</ele><time>2020-02-09T08:13:38Z</time></trkpt>
<trkpt lat="43.846730003" lon="11.203877991"><ele>121</ele><time>2020-02-09T08:13:39Z</time></trkpt>
<trkpt lat="43.846751964" lon="11.203880003"><ele>122</ele><time>2020-02-09T08:13:40Z</time></trkpt>
<trkpt lat="43.846822036" lon="11.203884026"><ele>123</ele><time>2020-02-09T08:13:43Z</time></trkpt>
<trkpt lat="43.846845003" lon="11.20388696"><ele>123</ele><time>2020-02-09T08:13:44Z</time></trkpt>
<trkpt lat="43.846867969" lon="11.203890983"><ele>123</ele><time>2020-02-09T08:13:45Z</time></trkpt>
<trkpt lat="43.846890014" lon="11.203897018"><ele>123</ele><time>2020-02-09T08:13:46Z</time></trkpt>
<trkpt lat="43.846910968" lon="11.203904981"><ele>124</ele><time>2020-02-09T08:13:47Z</time></trkpt>
<trkpt lat="43.846931001" lon="11.203913027"><ele>124</ele><time>2020-02-09T08:13:48Z</time></trkpt>
<trkpt lat="43.84695204" lon="11.203923002"><ele>124</ele><time>2020-02-09T08:13:49Z</time></trkpt>
<trkpt lat="43.846970983" lon="11.203930965"><ele>125</ele><time>2020-02-09T08:13:50Z</time></trkpt>
<trkpt lat="43.846991016" lon="11.203939011"><ele>125</ele><time>2020-02-09T08:13:51Z</time></trkpt>
<trkpt lat="43.847009959" lon="11.203945968"><ele>125</ele><time>2020-02-09T08:13:52Z</time></trkpt>
<trkpt lat="43.847029991" lon="11.203953009"><ele>125</ele><time>2020-02-09T08:13:53Z</time></trkpt>
<trkpt lat="43.847090006" lon="11.20397497"><ele>126</ele><time>2020-02-09T08:13:56Z</time></trkpt>
<trkpt lat="43.847110039" lon="11.203983016"><ele>126</ele><time>2020-02-09T08:13:57Z</time></trkpt>
<trkpt lat="43.847129988" lon="11.203991985"><ele>127</ele><time>2020-02-09T08:13:58Z</time></trkpt>
<trkpt lat="43.847151026" lon="11.204001037"><ele>127</ele><time>2020-02-09T08:13:59Z</time></trkpt>
<trkpt lat="43.847212968" lon="11.204027021"><ele>128</ele><time>2020-02-09T08:14:02Z</time></trkpt>
<trkpt lat="43.847234007" lon="11.20403599"><ele>128</ele><time>2020-02-09T08:14:03Z</time></trkpt>
<trkpt lat="43.847254962" lon="11.204044037"><ele>128</ele><time>2020-02-09T08:14:04Z</time></trkpt>
<trkpt lat="43.847276" lon="11.204050994"><ele>128</ele><time>2020-02-09T08:14:05Z</time></trkpt>
<trkpt lat="43.847297039" lon="11.204058034"><ele>129</ele><time>2020-02-09T08:14:06Z</time></trkpt>
<trkpt lat="43.847317994" lon="11.204063985"><ele>129</ele><time>2020-02-09T08:14:07Z</time></trkpt>
<trkpt lat="43.847339032" lon="11.20407002"><ele>129</ele><time>2020-02-09T08:14:08Z</time></trkpt>
<trkpt lat="43.847359987" lon="11.20407396"><ele>129</ele><time>2020-02-09T08:14:09Z</time></trkpt>
<trkpt lat="43.847381026" lon="11.204076977"><ele>130</ele><time>2020-02-09T08:14:10Z</time></trkpt>
<trkpt lat="43.84740198" lon="11.204078989"><ele>130</ele><time>2020-02-09T08:14:11Z</time></trkpt>
<trkpt lat="43.847423019" lon="11.204081001"><ele>130</ele><time>2020-02-09T08:14:12Z</time></trkpt>
<trkpt lat="43.847443974" lon="11.204081001"><ele>130</ele><time>2020-02-09T08:14:13Z</time></trkpt>
<trkpt lat="43.847464006" lon="11.204079995"><ele>131</ele><time>2020-02-09T08:14:14Z</time></trkpt>
<trkpt lat="43.847484039" lon="11.204078989"><ele>131</ele><time>2020-02-09T08:14:15Z</time></trkpt>
<trkpt lat="43.847503988" lon="11.204075972"><ele>131</ele><time>2020-02-09T08:14:16Z</time></trkpt>
<trkpt lat="43.847523015" lon="11.20407396"><ele>131</ele><time>2020-02-09T08:14:17Z</time></trkpt>
<trkpt lat="43.847541958" lon="11.204071026"><ele>132</ele><time>2020-02-09T08:14:18Z</time></trkpt>
<trkpt lat="43.847560985" lon="11.204067003"><ele>132</ele><time>2020-02-09T08:14:19Z</time></trkpt>
<trkpt lat="43.847579006" lon="11.204063985"><ele>132</ele><time>2020-02-09T08:14:20Z</time></trkpt>
<trkpt lat="43.847597027" lon="11.204059962"><ele>133</ele><time>2020-02-09T08:14:21Z</time></trkpt>
<trkpt lat="43.847614964" lon="11.204056023"><ele>133</ele><time>2020-02-09T08:14:22Z</time></trkpt>
<trkpt lat="43.847632986" lon="11.204053005"><ele>133</ele><time>2020-02-09T08:14:23Z</time></trkpt>
<trkpt lat="43.847651007" lon="11.204048982"><ele>134</ele><time>2020-02-09T08:14:24Z</time></trkpt>
<trkpt lat="43.847670034" lon="11.204045964"><ele>134</ele><time>2020-02-09T08:14:25Z</time></trkpt>
<trkpt lat="43.847688977" lon="11.204044037"><ele>134</ele><time>2020-02-09T08:14:26Z</time></trkpt>
<trkpt lat="43.847710015" lon="11.204042025"><ele>135</ele><time>2020-02-09T08:14:27Z</time></trkpt>
<trkpt lat="43.847729964" lon="11.204041019"><ele>135</ele><time>2020-02-09T08:14:28Z</time></trkpt>
<trkpt lat="43.847751003" lon="11.204043031"><ele>136</ele><time>2020-02-09T08:14:29Z</time></trkpt>
<trkpt lat="43.847771036" lon="11.204045964"><ele>136</ele><time>2020-02-09T08:14:30Z</time></trkpt>
<trkpt lat="43.847790984" lon="11.204053005"><ele>136</ele><time>2020-02-09T08:14:31Z</time></trkpt>
<trkpt lat="43.847808" lon="11.204061974"><ele>137</ele><time>2020-02-09T08:14:32Z</time></trkpt>
<trkpt lat="43.847823003" lon="11.20407396"><ele>137</ele><time>2020-02-09T08:14:33Z</time></trkpt>
<trkpt lat="43.847831972" lon="11.204087036"><ele>137</ele><time>2020-02-09T08:14:34Z</time></trkpt>
<trkpt lat="43.847835995" lon="11.204102961"><ele>137</ele><time>2020-02-09T08:14:35Z</time></trkpt>
<trkpt lat="43.847833984" lon="11.204119977"><ele>137</ele><time>2020-02-09T08:14:36Z</time></trkpt>
<trkpt lat="43.847828032" lon="11.204139004"><ele>137</ele><time>2020-02-09T08:14:37Z</time></trkpt>
<trkpt lat="43.847804982" lon="11.204183009"><ele>137</ele><time>2020-02-09T08:14:39Z</time></trkpt>
<trkpt lat="43.847790984" lon="11.204207987"><ele>137</ele><time>2020-02-09T08:14:40Z</time></trkpt>
<trkpt lat="43.847775981" lon="11.204234976"><ele>137</ele><time>2020-02-09T08:14:41Z</time></trkpt>
<trkpt lat="43.847759971" lon="11.204263978"><ele>136</ele><time>2020-02-09T08:14:42Z</time></trkpt>
<trkpt lat="43.847744968" lon="11.204293985"><ele>136</ele><time>2020-02-09T08:14:43Z</time></trkpt>
<trkpt lat="43.847728958" lon="11.20432701"><ele>136</ele><time>2020-02-09T08:14:44Z</time></trkpt>
<trkpt lat="43.847713033" lon="11.204360034"><ele>136</ele><time>2020-02-09T08:14:45Z</time></trkpt>
<trkpt lat="43.847697023" lon="11.204394987"><ele>135</ele><time>2020-02-09T08:14:46Z</time></trkpt>
<trkpt lat="43.847681014" lon="11.204431029"><ele>135</ele><time>2020-02-09T08:14:47Z</time></trkpt>
<trkpt lat="43.847663999" lon="11.204466987"><ele>135</ele><time>2020-02-09T08:14:48Z</time></trkpt>
<trkpt lat="43.847647989" lon="11.20450303"><ele>135</ele><time>2020-02-09T08:14:49Z</time></trkpt>
<trkpt lat="43.847630974" lon="11.204538988"><ele>135</ele><time>2020-02-09T08:14:50Z</time></trkpt>
<trkpt lat="43.847613959" lon="11.204576036"><ele>134</ele><time>2020-02-09T08:14:51Z</time></trkpt>
<trkpt lat="43.847597027" lon="11.204611994"><ele>134</ele><time>2020-02-09T08:14:52Z</time></trkpt>
<trkpt lat="43.847581018" lon="11.204648959"><ele>134</ele><time>2020-02-09T08:14:53Z</time></trkpt>
<trkpt lat="43.847530978" lon="11.204760019"><ele>133</ele><time>2020-02-09T08:14:56Z</time></trkpt>
<trkpt lat="43.847513963" lon="11.204796983"><ele>133</ele><time>2020-02-09T08:14:57Z</time></trkpt>
<trkpt lat="43.847498037" lon="11.204835037"><ele>133</ele><time>2020-02-09T08:14:58Z</time></trkpt>
<trkpt lat="43.847482027" lon="11.204872001"><ele>132</ele><time>2020-02-09T08:14:59Z</time></trkpt>
<trkpt lat="43.847467024" lon="11.204909971"><ele>132</ele><time>2020-02-09T08:15:00Z</time></trkpt>
<trkpt lat="43.84745202" lon="11.204947019"><ele>132</ele><time>2020-02-09T08:15:01Z</time></trkpt>
<trkpt lat="43.847437017" lon="11.204983983"><ele>132</ele><time>2020-02-09T08:15:02Z</time></trkpt>
<trkpt lat="43.847422013" lon="11.205020025"><ele>132</ele><time>2020-02-09T08:15:03Z</time></trkpt>
<trkpt lat="43.847408015" lon="11.205055984"><ele>132</ele><time>2020-02-09T08:15:04Z</time></trkpt>
<trkpt lat="43.847395023" lon="11.20509102"><ele>131</ele><time>2020-02-09T08:15:05Z</time></trkpt>
<trkpt lat="43.847381026" lon="11.205124967"><ele>131</ele><time>2020-02-09T08:15:06Z</time></trkpt>
<trkpt lat="43.847369039" lon="11.205158997"><ele>131</ele><time>2020-02-09T08:15:07Z</time></trkpt>
<trkpt lat="43.847355964" lon="11.205192022"><ele>130</ele><time>2020-02-09T08:15:08Z</time></trkpt>
<trkpt lat="43.847344983" lon="11.205224041"><ele>130</ele><time>2020-02-09T08:15:09Z</time></trkpt>
<trkpt lat="43.847332997" lon="11.20525497"><ele>130</ele><time>2020-02-09T08:15:10Z</time></trkpt>
<trkpt lat="43.847322017" lon="11.205286989"><ele>130</ele><time>2020-02-09T08:15:11Z</time></trkpt>
<trkpt lat="43.847311959" lon="11.205318002"><ele>129</ele><time>2020-02-09T08:15:12Z</time></trkpt>
<trkpt lat="43.847300978" lon="11.205349015"><ele>129</ele><time>2020-02-09T08:15:13Z</time></trkpt>
<trkpt lat="43.847291004" lon="11.205380028"><ele>129</ele><time>2020-02-09T08:15:14Z</time></trkpt>
<trkpt lat="43.847282035" lon="11.205410035"><ele>129</ele><time>2020-02-09T08:15:15Z</time></trkpt>
<trkpt lat="43.847271977" lon="11.205439959"><ele>129</ele><time>2020-02-09T08:15:16Z</time></trkpt>
<trkpt lat="43.847263008" lon="11.205469966"><ele>128</ele><time>2020-02-09T08:15:17Z</time></trkpt>
<trkpt lat="43.84725404" lon="11.205497961"><ele>128</ele><time>2020-02-09T08:15:18Z</time></trkpt>
<trkpt lat="43.847243981" lon="11.205525035"><ele>128</ele><time>2020-02-09T08:15:19Z</time></trkpt>
<trkpt lat="43.847234007" lon="11.205551019"><ele>128</ele><time>2020-02-09T08:15:20Z</time></trkpt>
<trkpt lat="43.847224033" lon="11.205573985"><ele>127</ele><time>2020-02-09T08:15:21Z</time></trkpt>
<trkpt lat="43.847213974" lon="11.20559603"><ele>127</ele><time>2020-02-09T08:15:22Z</time></trkpt>
<trkpt lat="43.847201988" lon="11.205615979"><ele>127</ele><time>2020-02-09T08:15:23Z</time></trkpt>
<trkpt lat="43.847191008" lon="11.205635006"><ele>127</ele><time>2020-02-09T08:15:24Z</time></trkpt>
<trkpt lat="43.847179022" lon="11.205652021"><ele>127</ele><time>2020-02-09T08:15:25Z</time></trkpt>
<trkpt lat="43.84716603" lon="11.205667024"><ele>126</ele><time>2020-02-09T08:15:26Z</time></trkpt>
<trkpt lat="43.847153038" lon="11.205682028"><ele>126</ele><time>2020-02-09T08:15:27Z</time></trkpt>
<trkpt lat="43.84713904" lon="11.20569502"><ele>126</ele><time>2020-02-09T08:15:28Z</time></trkpt>
<trkpt lat="43.847124036" lon="11.205708012"><ele>126</ele><time>2020-02-09T08:15:29Z</time></trkpt>
<trkpt lat="43.847108027" lon="11.205719998"><ele>125</ele><time>2020-02-09T08:15:30Z</time></trkpt>
<trkpt lat="43.847092018" lon="11.205731984"><ele>125</ele><time>2020-02-09T08:15:31Z</time></trkpt>
<trkpt lat="43.847073996" lon="11.205744976"><ele>125</ele><time>2020-02-09T08:15:32Z</time></trkpt>
<trkpt lat="43.847055975" lon="11.205757968"><ele>124</ele><time>2020-02-09T08:15:33Z</time></trkpt>
<trkpt lat="43.847037032" lon="11.205771966"><ele>124</ele><time>2020-02-09T08:15:34Z</time></trkpt>
<trkpt lat="43.847016999" lon="11.205787975"><ele>124</ele><time>2020-02-09T08:15:35Z</time></trkpt>
<trkpt lat="43.846995961" lon="11.205805996"><ele>123</ele><time>2020-02-09T08:15:36Z</time></trkpt>
<trkpt lat="43.846972995" lon="11.205826029"><ele>123</ele><time>2020-02-09T08:15:37Z</time></trkpt>
<trkpt lat="43.846950028" lon="11.205850001"><ele>123</ele><time>2020-02-09T08:15:38Z</time></trkpt>
<trkpt lat="43.846925972" lon="11.205874979"><ele>123</ele><time>2020-02-09T08:15:39Z</time></trkpt>
<trkpt lat="43.846900994" lon="11.205902975"><ele>122</ele><time>2020-02-09T08:15:40Z</time></trkpt>
<trkpt lat="43.84687501" lon="11.205930971"><ele>122</ele><time>2020-02-09T08:15:41Z</time></trkpt>
<trkpt lat="43.846850032" lon="11.205959972"><ele>122</ele><time>2020-02-09T08:15:42Z</time></trkpt>
<trkpt lat="43.846823964" lon="11.205988973"><ele>122</ele><time>2020-02-09T08:15:43Z</time></trkpt>
<trkpt lat="43.84679798" lon="11.206016969"><ele>122</ele><time>2020-02-09T08:15:44Z</time></trkpt>
<trkpt lat="43.846773002" lon="11.206043037"><ele>122</ele><time>2020-02-09T08:15:45Z</time></trkpt>
<trkpt lat="43.846748024" lon="11.206068015"><ele>122</ele><time>2020-02-09T08:15:46Z</time></trkpt>
<trkpt lat="43.846723968" lon="11.206092993"><ele>122</ele><time>2020-02-09T08:15:47Z</time></trkpt>
<trkpt lat="43.84669899" lon="11.206115959"><ele>122</ele><time>2020-02-09T08:15:48Z</time></trkpt>
<trkpt lat="43.846675018" lon="11.206139009"><ele>122</ele><time>2020-02-09T08:15:49Z</time></trkpt>
<trkpt lat="43.846651968" lon="11.206161976"><ele>122</ele><time>2020-02-09T08:15:50Z</time></trkpt>
<trkpt lat="43.846627995" lon="11.206185026"><ele>122</ele><time>2020-02-09T08:15:51Z</time></trkpt>
<trkpt lat="43.846604023" lon="11.206208998"><ele>122</ele><time>2020-02-09T08:15:52Z</time></trkpt>
<trkpt lat="43.846580973" lon="11.206232971"><ele>122</ele><time>2020-02-09T08:15:53Z</time></trkpt>
<trkpt lat="43.846558006" lon="11.206258032"><ele>122</ele><time>2020-02-09T08:15:54Z</time></trkpt>
<trkpt lat="43.84653504" lon="11.206283011"><ele>122</ele><time>2020-02-09T08:15:55Z</time></trkpt>
<trkpt lat="43.84651199" lon="11.206308994"><ele>122</ele><time>2020-02-09T08:15:56Z</time></trkpt>
<trkpt lat="43.846490029" lon="11.206333973"><ele>122</ele><time>2020-02-09T08:15:57Z</time></trkpt>
<trkpt lat="43.846467985" lon="11.206359034"><ele>122</ele><time>2020-02-09T08:15:58Z</time></trkpt>
<trkpt lat="43.84644703" lon="11.206383007"><ele>122</ele><time>2020-02-09T08:15:59Z</time></trkpt>
<trkpt lat="43.846425992" lon="11.206405973"><ele>122</ele><time>2020-02-09T08:16:00Z</time></trkpt>
<trkpt lat="43.846405037" lon="11.206428017"><ele>122</ele><time>2020-02-09T08:16:01Z</time></trkpt>
<trkpt lat="43.84634804" lon="11.206489038"><ele>123</ele><time>2020-02-09T08:16:04Z</time></trkpt>
<trkpt lat="43.846330019" lon="11.206507981"><ele>123</ele><time>2020-02-09T08:16:05Z</time></trkpt>
<trkpt lat="43.846313003" lon="11.206527008"><ele>123</ele><time>2020-02-09T08:16:06Z</time></trkpt>
<trkpt lat="43.846295988" lon="11.206546035"><ele>123</ele><time>2020-02-09T08:16:07Z</time></trkpt>
<trkpt lat="43.846280985" lon="11.206563972"><ele>123</ele><time>2020-02-09T08:16:08Z</time></trkpt>
<trkpt lat="43.846265981" lon="11.206581993"><ele>123</ele><time>2020-02-09T08:16:09Z</time></trkpt>
<trkpt lat="43.846251983" lon="11.20660102"><ele>123</ele><time>2020-02-09T08:16:10Z</time></trkpt>
<trkpt lat="43.846237985" lon="11.206619041"><ele>123</ele><time>2020-02-09T08:16:11Z</time></trkpt>
<trkpt lat="43.846225999" lon="11.206637984"><ele>123</ele><time>2020-02-09T08:16:12Z</time></trkpt>
<trkpt lat="43.846214013" lon="11.206658017"><ele>123</ele><time>2020-02-09T08:16:13Z</time></trkpt>
<trkpt lat="43.846203033" lon="11.206677966"><ele>123</ele><time>2020-02-09T08:16:14Z</time></trkpt>
<trkpt lat="43.846192975" lon="11.206699004"><ele>123</ele><time>2020-02-09T08:16:15Z</time></trkpt>
<trkpt lat="43.846184006" lon="11.206720965"><ele>124</ele><time>2020-02-09T08:16:16Z</time></trkpt>
<trkpt lat="43.846175959" lon="11.206744015"><ele>124</ele><time>2020-02-09T08:16:17Z</time></trkpt>
<trkpt lat="43.846169002" lon="11.206767987"><ele>124</ele><time>2020-02-09T08:16:18Z</time></trkpt>
<trkpt lat="43.846161962" lon="11.20679196"><ele>124</ele><time>2020-02-09T08:16:19Z</time></trkpt>
<trkpt lat="43.846155005" lon="11.206816016"><ele>124</ele><time>2020-02-09T08:16:20Z</time></trkpt>
<trkpt lat="43.846147964" lon="11.206839988"><ele>125</ele><time>2020-02-09T08:16:21Z</time></trkpt>
<trkpt lat="43.846142013" lon="11.20686396"><ele>125</ele><time>2020-02-09T08:16:22Z</time></trkpt>
<trkpt lat="43.846135978" lon="11.206888016"><ele>125</ele><time>2020-02-09T08:16:23Z</time></trkpt>
<trkpt lat="43.846129021" lon="11.206910983"><ele>125</ele><time>2020-02-09T08:16:24Z</time></trkpt>
<trkpt lat="43.84612198" lon="11.206934033"><ele>126</ele><time>2020-02-09T08:16:25Z</time></trkpt>
<trkpt lat="43.846116029" lon="11.206955994"><ele>126</ele><time>2020-02-09T08:16:26Z</time></trkpt>
<trkpt lat="43.846108988" lon="11.206978038"><ele>126</ele><time>2020-02-09T08:16:27Z</time></trkpt>
<trkpt lat="43.846102031" lon="11.206999999"><ele>126</ele><time>2020-02-09T08:16:28Z</time></trkpt>
<trkpt lat="43.846095996" lon="11.207022965"><ele>126</ele><time>2020-02-09T08:16:29Z</time></trkpt>
<trkpt lat="43.846089039" lon="11.207045009"><ele>127</ele><time>2020-02-09T08:16:30Z</time></trkpt>
<trkpt lat="43.846083004" lon="11.20706697"><ele>127</ele><time>2020-02-09T08:16:31Z</time></trkpt>
<trkpt lat="43.846077975" lon="11.20709002"><ele>127</ele><time>2020-02-09T08:16:32Z</time></trkpt>
<trkpt lat="43.846072024" lon="11.207111981"><ele>127</ele><time>2020-02-09T08:16:33Z</time></trkpt>
<trkpt lat="43.846066995" lon="11.207136037"><ele>127</ele><time>2020-02-09T08:16:34Z</time></trkpt>
<trkpt lat="43.846052997" lon="11.207207032"><ele>128</ele><time>2020-02-09T08:16:37Z</time></trkpt>
<trkpt lat="43.846047968" lon="11.207231004"><ele>128</ele><time>2020-02-09T08:16:38Z</time></trkpt>
<trkpt lat="43.846044028" lon="11.207254976"><ele>129</ele><time>2020-02-09T08:16:39Z</time></trkpt>
<trkpt lat="43.846038999" lon="11.207280038"><ele>129</ele><time>2020-02-09T08:16:40Z</time></trkpt>
<trkpt lat="43.846034976" lon="11.207305016"><ele>129</ele><time>2020-02-09T08:16:41Z</time></trkpt>
<trkpt lat="43.846031036" lon="11.207331"><ele>129</ele><time>2020-02-09T08:16:42Z</time></trkpt>
<trkpt lat="43.846028019" lon="11.207355978"><ele>130</ele><time>2020-02-09T08:16:43Z</time></trkpt>
<trkpt lat="43.846026007" lon="11.207381962"><ele>130</ele><time>2020-02-09T08:16:44Z</time></trkpt>
<trkpt lat="43.846023995" lon="11.207409035"><ele>130</ele><time>2020-02-09T08:16:45Z</time></trkpt>
<trkpt lat="43.846023995" lon="11.207436025"><ele>130</ele><time>2020-02-09T08:16:46Z</time></trkpt>
<trkpt lat="43.846025001" lon="11.207463015"><ele>131</ele><time>2020-02-09T08:16:47Z</time></trkpt>
<trkpt lat="43.846028019" lon="11.20749101"><ele>131</ele><time>2020-02-09T08:16:48Z</time></trkpt>
<trkpt lat="43.84603003" lon="11.207519006"><ele>131</ele><time>2020-02-09T08:16:49Z</time></trkpt>
<trkpt lat="43.846032964" lon="11.207548007"><ele>132</ele><time>2020-02-09T08:16:50Z</time></trkpt>
<trkpt lat="43.846035982" lon="11.207577009"><ele>132</ele><time>2020-02-09T08:16:51Z</time></trkpt>
<trkpt lat="43.846036987" lon="11.207605004"><ele>132</ele><time>2020-02-09T08:16:52Z</time></trkpt>
<trkpt lat="43.846037993" lon="11.207634006"><ele>132</ele><time>2020-02-09T08:16:53Z</time></trkpt>
<trkpt lat="43.846035982" lon="11.207664013"><ele>132</ele><time>2020-02-09T08:16:54Z</time></trkpt>
<trkpt lat="43.846032964" lon="11.207693014"><ele>132</ele><time>2020-02-09T08:16:55Z</time></trkpt>
<trkpt lat="43.846028019" lon="11.207722016"><ele>132</ele><time>2020-02-09T08:16:56Z</time></trkpt>
<trkpt lat="43.846020978" lon="11.207752023"><ele>132</ele><time>2020-02-09T08:16:57Z</time></trkpt>
<trkpt lat="43.846013015" lon="11.207783036"><ele>132</ele><time>2020-02-09T08:16:58Z</time></trkpt>
<trkpt lat="43.846003963" lon="11.207813965"><ele>132</ele><time>2020-02-09T08:16:59Z</time></trkpt>
<trkpt lat="43.845994994" lon="11.20784699"><ele>132</ele><time>2020-02-09T08:17:00Z</time></trkpt>
<trkpt lat="43.84598502" lon="11.207880015"><ele>132</ele><time>2020-02-09T08:17:01Z</time></trkpt>
<trkpt lat="43.845975967" lon="11.207915973"><ele>132</ele><time>2020-02-09T08:17:02Z</time></trkpt>
<trkpt lat="43.845966998" lon="11.207952015"><ele>132</ele><time>2020-02-09T08:17:03Z</time></trkpt>
<trkpt lat="43.845959036" lon="11.207990991"><ele>132</ele><time>2020-02-09T08:17:04Z</time></trkpt>
<trkpt lat="43.845951995" lon="11.208029967"><ele>132</ele><time>2020-02-09T08:17:05Z</time></trkpt>
<trkpt lat="43.845945038" lon="11.208071038"><ele>132</ele><time>2020-02-09T08:17:06Z</time></trkpt>
<trkpt lat="43.845939003" lon="11.208113031"><ele>132</ele><time>2020-02-09T08:17:07Z</time></trkpt>
<trkpt lat="43.845933974" lon="11.208155025"><ele>132</ele><time>2020-02-09T08:17:08Z</time></trkpt>
<trkpt lat="43.845930034" lon="11.208198024"><ele>132</ele><time>2020-02-09T08:17:09Z</time></trkpt>
<trkpt lat="43.845926011" lon="11.208241023"><ele>132</ele><time>2020-02-09T08:17:10Z</time></trkpt>
<trkpt lat="43.845923999" lon="11.208284022"><ele>132</ele><time>2020-02-09T08:17:11Z</time></trkpt>
<trkpt lat="43.845922993" lon="11.208327021"><ele>132</ele><time>2020-02-09T08:17:12Z</time></trkpt>
<trkpt lat="43.845921988" lon="11.208370021"><ele>132</ele><time>2020-02-09T08:17:13Z</time></trkpt>
<trkpt lat="43.845922993" lon="11.208412014"><ele>132</ele><time>2020-02-09T08:17:14Z</time></trkpt>
<trkpt lat="43.845923999" lon="11.208454007"><ele>131</ele><time>2020-02-09T08:17:15Z</time></trkpt>
<trkpt lat="43.845926011" lon="11.208494995"><ele>131</ele><time>2020-02-09T08:17:16Z</time></trkpt>
<trkpt lat="43.845930034" lon="11.208534976"><ele>131</ele><time>2020-02-09T08:17:17Z</time></trkpt>
<trkpt lat="43.845933974" lon="11.208574036"><ele>131</ele><time>2020-02-09T08:17:18Z</time></trkpt>
<trkpt lat="43.845937997" lon="11.208611"><ele>131</ele><time>2020-02-09T08:17:19Z</time></trkpt>
<trkpt lat="43.84594202" lon="11.20864897"><ele>131</ele><time>2020-02-09T08:17:20Z</time></trkpt>
<trkpt lat="43.84594202" lon="11.20868803"><ele>131</ele><time>2020-02-09T08:17:21Z</time></trkpt>
<trkpt lat="43.845937997" lon="11.208729018"><ele>130</ele><time>2020-02-09T08:17:22Z</time></trkpt>
<trkpt lat="43.845928023" lon="11.208773023"><ele>130</ele><time>2020-02-09T08:17:23Z</time></trkpt>
<trkpt lat="43.845914025" lon="11.208819039"><ele>129</ele><time>2020-02-09T08:17:24Z</time></trkpt>
<trkpt lat="43.845901033" lon="11.208866984"><ele>129</ele><time>2020-02-09T08:17:25Z</time></trkpt>
<trkpt lat="43.845889969" lon="11.208913"><ele>128</ele><time>2020-02-09T08:17:26Z</time></trkpt>
<trkpt lat="43.845885023" lon="11.208959017"><ele>128</ele><time>2020-02-09T08:17:27Z</time></trkpt>
<trkpt lat="43.845885023" lon="11.209003022"><ele>128</ele><time>2020-02-09T08:17:28Z</time></trkpt>
<trkpt lat="43.845889969" lon="11.209046021"><ele>128</ele><time>2020-02-09T08:17:29Z</time></trkpt>
<trkpt lat="43.845899021" lon="11.209087009"><ele>128</ele><time>2020-02-09T08:17:30Z</time></trkpt>
<trkpt lat="43.845910002" lon="11.209129002"><ele>128</ele><time>2020-02-09T08:17:31Z</time></trkpt>
<trkpt lat="43.845922993" lon="11.209168984"><ele>128</ele><time>2020-02-09T08:17:32Z</time></trkpt>
<trkpt lat="43.845935985" lon="11.209209971"><ele>128</ele><time>2020-02-09T08:17:33Z</time></trkpt>
<trkpt lat="43.845948977" lon="11.209250959"><ele>128</ele><time>2020-02-09T08:17:34Z</time></trkpt>
<trkpt lat="43.845961969" lon="11.20929203"><ele>128</ele><time>2020-02-09T08:17:35Z</time></trkpt>
<trkpt lat="43.845973033" lon="11.209332012"><ele>128</ele><time>2020-02-09T08:17:36Z</time></trkpt>
<trkpt lat="43.84598502" lon="11.209371993"><ele>128</ele><time>2020-02-09T08:17:37Z</time></trkpt>
<trkpt lat="43.845996" lon="11.209409041"><ele>128</ele><time>2020-02-09T08:17:38Z</time></trkpt>
<trkpt lat="43.846007986" lon="11.209442988"><ele>128</ele><time>2020-02-09T08:17:39Z</time></trkpt>
<trkpt lat="43.846019972" lon="11.209474001"><ele>128</ele><time>2020-02-09T08:17:40Z</time></trkpt>
<trkpt lat="43.84603397" lon="11.209499985"><ele>128</ele><time>2020-02-09T08:17:41Z</time></trkpt>
<trkpt lat="43.846048974" lon="11.209520018"><ele>128</ele><time>2020-02-09T08:17:42Z</time></trkpt>
<trkpt lat="43.846065989" lon="11.209535021"><ele>128</ele><time>2020-02-09T08:17:43Z</time></trkpt>
<trkpt lat="43.84608401" lon="11.209544996"><ele>128</ele><time>2020-02-09T08:17:44Z</time></trkpt>
<trkpt lat="43.846103037" lon="11.209550025"><ele>129</ele><time>2020-02-09T08:17:45Z</time></trkpt>
<trkpt lat="43.846123992" lon="11.209552037"><ele>129</ele><time>2020-02-09T08:17:46Z</time></trkpt>
<trkpt lat="43.846144024" lon="11.209552037"><ele>129</ele><time>2020-02-09T08:17:47Z</time></trkpt>
<trkpt lat="43.846164979" lon="11.209552037"><ele>130</ele><time>2020-02-09T08:17:48Z</time></trkpt>
<trkpt lat="43.846204961" lon="11.209552037"><ele>130</ele><time>2020-02-09T08:17:50Z</time></trkpt>
<trkpt lat="43.846223988" lon="11.209553964"><ele>131</ele><time>2020-02-09T08:17:51Z</time></trkpt>
<trkpt lat="43.846243015" lon="11.209556982"><ele>131</ele><time>2020-02-09T08:17:52Z</time></trkpt>
<trkpt lat="43.846261036" lon="11.209561005"><ele>131</ele><time>2020-02-09T08:17:53Z</time></trkpt>
<trkpt lat="43.846277967" lon="11.209566034"><ele>131</ele><time>2020-02-09T08:17:54Z</time></trkpt>
<trkpt lat="43.846295988" lon="11.209571986"><ele>132</ele><time>2020-02-09T08:17:55Z</time></trkpt>
<trkpt lat="43.846313003" lon="11.209579026"><ele>132</ele><time>2020-02-09T08:17:56Z</time></trkpt>
<trkpt lat="43.846330019" lon="11.209586989"><ele>132</ele><time>2020-02-09T08:17:57Z</time></trkpt>
<trkpt lat="43.84634804" lon="11.209596042"><ele>132</ele><time>2020-02-09T08:17:58Z</time></trkpt>
<trkpt lat="43.846364971" lon="11.209606016"><ele>133</ele><time>2020-02-09T08:17:59Z</time></trkpt>
<trkpt lat="43.846381987" lon="11.209615991"><ele>133</ele><time>2020-02-09T08:18:00Z</time></trkpt>
<trkpt lat="43.846400008" lon="11.209627977"><ele>133</ele><time>2020-02-09T08:18:01Z</time></trkpt>
<trkpt lat="43.846418029" lon="11.209639041"><ele>133</ele><time>2020-02-09T08:18:02Z</time></trkpt>
<trkpt lat="43.846436972" lon="11.209652033"><ele>133</ele><time>2020-02-09T08:18:03Z</time></trkpt>
<trkpt lat="43.84649598" lon="11.20969302"><ele>134</ele><time>2020-02-09T08:18:06Z</time></trkpt>
<trkpt lat="43.846516013" lon="11.209708024"><ele>134</ele><time>2020-02-09T08:18:07Z</time></trkpt>
<trkpt lat="43.846537974" lon="11.209723027"><ele>134</ele><time>2020-02-09T08:18:08Z</time></trkpt>
<trkpt lat="43.846559012" lon="11.209739037"><ele>134</ele><time>2020-02-09T08:18:09Z</time></trkpt>
<trkpt lat="43.846580973" lon="11.209755968"><ele>134</ele><time>2020-02-09T08:18:10Z</time></trkpt>
<trkpt lat="43.846602011" lon="11.209771978"><ele>134</ele><time>2020-02-09T08:18:11Z</time></trkpt>
<trkpt lat="43.846622966" lon="11.209789999"><ele>134</ele><time>2020-02-09T08:18:12Z</time></trkpt>
<trkpt lat="43.846644005" lon="11.209807014"><ele>134</ele><time>2020-02-09T08:18:13Z</time></trkpt>
<trkpt lat="43.846664038" lon="11.209826041"><ele>135</ele><time>2020-02-09T08:18:14Z</time></trkpt>
<trkpt lat="43.846682981" lon="11.209843978"><ele>134</ele><time>2020-02-09T08:18:15Z</time></trkpt>
<trkpt lat="43.846702008" lon="11.209864011"><ele>134</ele><time>2020-02-09T08:18:16Z</time></trkpt>
<trkpt lat="43.846720029" lon="11.20988396"><ele>134</ele><time>2020-02-09T08:18:17Z</time></trkpt>
<trkpt lat="43.846737966" lon="11.209906004"><ele>134</ele><time>2020-02-09T08:18:18Z</time></trkpt>
<trkpt lat="43.846754981" lon="11.209927965"><ele>134</ele><time>2020-02-09T08:18:19Z</time></trkpt>
<trkpt lat="43.846771996" lon="11.209952021"><ele>134</ele><time>2020-02-09T08:18:20Z</time></trkpt>
<trkpt lat="43.846789012" lon="11.209978005"><ele>134</ele><time>2020-02-09T08:18:21Z</time></trkpt>
<trkpt lat="43.846805021" lon="11.210004995"><ele>133</ele><time>2020-02-09T08:18:22Z</time></trkpt>
<trkpt lat="43.846821031" lon="11.21003299"><ele>133</ele><time>2020-02-09T08:18:23Z</time></trkpt>
<trkpt lat="43.84683704" lon="11.210061992"><ele>133</ele><time>2020-02-09T08:18:24Z</time></trkpt>
<trkpt lat="43.846852966" lon="11.210091999"><ele>133</ele><time>2020-02-09T08:18:25Z</time></trkpt>
<trkpt lat="43.846903006" lon="11.210183026"><ele>133</ele><time>2020-02-09T08:18:28Z</time></trkpt>
<trkpt lat="43.846920021" lon="11.210213033"><ele>133</ele><time>2020-02-09T08:18:29Z</time></trkpt>
<trkpt lat="43.846937958" lon="11.210242035"><ele>133</ele><time>2020-02-09T08:18:30Z</time></trkpt>
<trkpt lat="43.846955979" lon="11.21027003"><ele>133</ele><time>2020-02-09T08:18:31Z</time></trkpt>
<trkpt lat="43.846975006" lon="11.21029702"><ele>133</ele><time>2020-02-09T08:18:32Z</time></trkpt>
<trkpt lat="43.846995039" lon="11.21032401"><ele>133</ele><time>2020-02-09T08:18:33Z</time></trkpt>
<trkpt lat="43.847014988" lon="11.210349994"><ele>133</ele><time>2020-02-09T08:18:34Z</time></trkpt>
<trkpt lat="43.847035021" lon="11.210374972"><ele>133</ele><time>2020-02-09T08:18:35Z</time></trkpt>
<trkpt lat="43.847056981" lon="11.210400034"><ele>133</ele><time>2020-02-09T08:18:36Z</time></trkpt>
<trkpt lat="43.84707802" lon="11.210424006"><ele>133</ele><time>2020-02-09T08:18:37Z</time></trkpt>
<trkpt lat="43.84709998" lon="11.210447978"><ele>133</ele><time>2020-02-09T08:18:38Z</time></trkpt>
<trkpt lat="43.847123031" lon="11.210471028"><ele>133</ele><time>2020-02-09T08:18:39Z</time></trkpt>
<trkpt lat="43.847145997" lon="11.210493995"><ele>134</ele><time>2020-02-09T08:18:40Z</time></trkpt>
<trkpt lat="43.847168963" lon="11.210516039"><ele>134</ele><time>2020-02-09T08:18:41Z</time></trkpt>
<trkpt lat="43.847192014" lon="11.210538"><ele>134</ele><time>2020-02-09T08:18:42Z</time></trkpt>
<trkpt lat="43.847215986" lon="11.21055996"><ele>134</ele><time>2020-02-09T08:18:43Z</time></trkpt>
<trkpt lat="43.847239036" lon="11.210580999"><ele>134</ele><time>2020-02-09T08:18:44Z</time></trkpt>
<trkpt lat="43.847262003" lon="11.210602038"><ele>134</ele><time>2020-02-09T08:18:45Z</time></trkpt>
<trkpt lat="43.847284969" lon="11.210622992"><ele>134</ele><time>2020-02-09T08:18:46Z</time></trkpt>
<trkpt lat="43.847307013" lon="11.210644031"><ele>135</ele><time>2020-02-09T08:18:47Z</time></trkpt>
<trkpt lat="43.847328974" lon="11.21066398"><ele>135</ele><time>2020-02-09T08:18:48Z</time></trkpt>
<trkpt lat="43.847350013" lon="11.210684013"><ele>135</ele><time>2020-02-09T08:18:49Z</time></trkpt>
<trkpt lat="43.847370967" lon="11.210703962"><ele>135</ele><time>2020-02-09T08:18:50Z</time></trkpt>
<trkpt lat="43.847391" lon="11.210723994"><ele>135</ele><time>2020-02-09T08:18:51Z</time></trkpt>
<trkpt lat="43.847411033" lon="11.210744027"><ele>135</ele><time>2020-02-09T08:18:52Z</time></trkpt>
<trkpt lat="43.84742897" lon="11.210763976"><ele>135</ele><time>2020-02-09T08:18:53Z</time></trkpt>
<trkpt lat="43.847445985" lon="11.210784009"><ele>136</ele><time>2020-02-09T08:18:54Z</time></trkpt>
<trkpt lat="43.847463001" lon="11.210804041"><ele>136</ele><time>2020-02-09T08:18:55Z</time></trkpt>
<trkpt lat="43.84747901" lon="11.21082399"><ele>136</ele><time>2020-02-09T08:18:56Z</time></trkpt>
<trkpt lat="43.847495019" lon="11.210844023"><ele>136</ele><time>2020-02-09T08:18:57Z</time></trkpt>
<trkpt lat="43.847539024" lon="11.210905965"><ele>136</ele><time>2020-02-09T08:19:00Z</time></trkpt>
<trkpt lat="43.847553022" lon="11.210925998"><ele>136</ele><time>2020-02-09T08:19:01Z</time></trkpt>
<trkpt lat="43.847568026" lon="11.210947037"><ele>136</ele><time>2020-02-09T08:19:02Z</time></trkpt>
<trkpt lat="43.847582024" lon="11.210967992"><ele>136</ele><time>2020-02-09T08:19:03Z</time></trkpt>
<trkpt lat="43.847596021" lon="11.210990036"><ele>136</ele><time>2020-02-09T08:19:04Z</time></trkpt>
<trkpt lat="43.847610019" lon="11.211010991"><ele>136</ele><time>2020-02-09T08:19:05Z</time></trkpt>
<trkpt lat="43.847625023" lon="11.211033035"><ele>136</ele><time>2020-02-09T08:19:06Z</time></trkpt>
<trkpt lat="43.847640026" lon="11.211054996"><ele>136</ele><time>2020-02-09T08:19:07Z</time></trkpt>
<trkpt lat="43.84765503" lon="11.21107704"><ele>136</ele><time>2020-02-09T08:19:08Z</time></trkpt>
<trkpt lat="43.847670034" lon="11.211100006"><ele>136</ele><time>2020-02-09T08:19:09Z</time></trkpt>
<trkpt lat="43.847685959" lon="11.211121967"><ele>137</ele><time>2020-02-09T08:19:10Z</time></trkpt>
<trkpt lat="43.847702974" lon="11.211144011"><ele>137</ele><time>2020-02-09T08:19:11Z</time></trkpt>
<trkpt lat="43.84771999" lon="11.211165972"><ele>137</ele><time>2020-02-09T08:19:12Z</time></trkpt>
<trkpt lat="43.847738011" lon="11.211187011"><ele>137</ele><time>2020-02-09T08:19:13Z</time></trkpt>
<trkpt lat="43.847757038" lon="11.211207965"><ele>137</ele><time>2020-02-09T08:19:14Z</time></trkpt>
<trkpt lat="43.847776987" lon="11.211227998"><ele>137</ele><time>2020-02-09T08:19:15Z</time></trkpt>
<trkpt lat="43.847798025" lon="11.211246019"><ele>137</ele><time>2020-02-09T08:19:16Z</time></trkpt>
<trkpt lat="43.847819986" lon="11.21126404"><ele>137</ele><time>2020-02-09T08:19:17Z</time></trkpt>
<trkpt lat="43.847843036" lon="11.211280972"><ele>137</ele><time>2020-02-09T08:19:18Z</time></trkpt>
<trkpt lat="43.847866002" lon="11.211295975"><ele>138</ele><time>2020-02-09T08:19:19Z</time></trkpt>
<trkpt lat="43.847888969" lon="11.211310979"><ele>138</ele><time>2020-02-09T08:19:20Z</time></trkpt>
<trkpt lat="43.84795703" lon="11.211353978"><ele>138</ele><time>2020-02-09T08:19:23Z</time></trkpt>
<trkpt lat="43.847976979" lon="11.21136697"><ele>138</ele><time>2020-02-09T08:19:24Z</time></trkpt>
<trkpt lat="43.847996006" lon="11.211380968"><ele>139</ele><time>2020-02-09T08:19:25Z</time></trkpt>
<trkpt lat="43.848014027" lon="11.211394966"><ele>139</ele><time>2020-02-09T08:19:26Z</time></trkpt>
<trkpt lat="43.848030036" lon="11.211409969"><ele>139</ele><time>2020-02-09T08:19:27Z</time></trkpt>
<trkpt lat="43.848045962" lon="11.211423967"><ele>139</ele><time>2020-02-09T08:19:28Z</time></trkpt>
<trkpt lat="43.84805996" lon="11.211438971"><ele>139</ele><time>2020-02-09T08:19:29Z</time></trkpt>
<trkpt lat="43.848074041" lon="11.211453974"><ele>139</ele><time>2020-02-09T08:19:30Z</time></trkpt>
<trkpt lat="43.848088039" lon="11.211468978"><ele>139</ele><time>2020-02-09T08:19:31Z</time></trkpt>
<trkpt lat="43.848101031" lon="11.211484987"><ele>139</ele><time>2020-02-09T08:19:32Z</time></trkpt>
<trkpt lat="43.848114023" lon="11.211499991"><ele>139</ele><time>2020-02-09T08:19:33Z</time></trkpt>
<trkpt lat="43.848128021" lon="11.211516"><ele>139</ele><time>2020-02-09T08:19:34Z</time></trkpt>
<trkpt lat="43.848142019" lon="11.211533016"><ele>139</ele><time>2020-02-09T08:19:35Z</time></trkpt>
<trkpt lat="43.848156016" lon="11.211550031"><ele>139</ele><time>2020-02-09T08:19:36Z</time></trkpt>
<trkpt lat="43.84817102" lon="11.211566962"><ele>139</ele><time>2020-02-09T08:19:37Z</time></trkpt>
<trkpt lat="43.848187029" lon="11.211583978"><ele>139</ele><time>2020-02-09T08:19:38Z</time></trkpt>
<trkpt lat="43.848203961" lon="11.211601999"><ele>139</ele><time>2020-02-09T08:19:39Z</time></trkpt>
<trkpt lat="43.848222988" lon="11.211621026"><ele>139</ele><time>2020-02-09T08:19:40Z</time></trkpt>
<trkpt lat="43.84824302" lon="11.211639969"><ele>139</ele><time>2020-02-09T08:19:41Z</time></trkpt>
<trkpt lat="43.848263975" lon="11.211658996"><ele>139</ele><time>2020-02-09T08:19:42Z</time></trkpt>
<trkpt lat="43.848287025" lon="11.211679028"><ele>139</ele><time>2020-02-09T08:19:43Z</time></trkpt>
<trkpt lat="43.848309992" lon="11.211697971"><ele>139</ele><time>2020-02-09T08:19:44Z</time></trkpt>
<trkpt lat="43.848332958" lon="11.21171901"><ele>139</ele><time>2020-02-09T08:19:45Z</time></trkpt>
<trkpt lat="43.848356009" lon="11.211738959"><ele>140</ele><time>2020-02-09T08:19:46Z</time></trkpt>
<trkpt lat="43.848379981" lon="11.211758992"><ele>140</ele><time>2020-02-09T08:19:47Z</time></trkpt>
<trkpt lat="43.848402025" lon="11.211779024"><ele>140</ele><time>2020-02-09T08:19:48Z</time></trkpt>
<trkpt lat="43.848466985" lon="11.211839961"><ele>141</ele><time>2020-02-09T08:19:51Z</time></trkpt>
<trkpt lat="43.848487018" lon="11.211859994"><ele>141</ele><time>2020-02-09T08:19:52Z</time></trkpt>
<trkpt lat="43.848507972" lon="11.211881032"><ele>141</ele><time>2020-02-09T08:19:53Z</time></trkpt>
<trkpt lat="43.848528005" lon="11.211901987"><ele>141</ele><time>2020-02-09T08:19:54Z</time></trkpt>
<trkpt lat="43.848548038" lon="11.211923026"><ele>141</ele><time>2020-02-09T08:19:55Z</time></trkpt>
<trkpt lat="43.848567987" lon="11.211944986"><ele>141</ele><time>2020-02-09T08:19:56Z</time></trkpt>
<trkpt lat="43.848589025" lon="11.211967031"><ele>142</ele><time>2020-02-09T08:19:57Z</time></trkpt>
<trkpt lat="43.848608974" lon="11.211988991"><ele>142</ele><time>2020-02-09T08:19:58Z</time></trkpt>
<trkpt lat="43.848630013" lon="11.212012041"><ele>142</ele><time>2020-02-09T08:19:59Z</time></trkpt>
<trkpt lat="43.848650968" lon="11.212034002"><ele>142</ele><time>2020-02-09T08:20:00Z</time></trkpt>
<trkpt lat="43.848672006" lon="11.212056968"><ele>142</ele><time>2020-02-09T08:20:01Z</time></trkpt>
<trkpt lat="43.848693967" lon="11.212079013"><ele>142</ele><time>2020-02-09T08:20:02Z</time></trkpt>
<trkpt lat="43.848715005" lon="11.212101979"><ele>142</ele><time>2020-02-09T08:20:03Z</time></trkpt>
<trkpt lat="43.848736966" lon="11.212124024"><ele>143</ele><time>2020-02-09T08:20:04Z</time></trkpt>
<trkpt lat="43.84875901" lon="11.212145984"><ele>143</ele><time>2020-02-09T08:20:05Z</time></trkpt>
<trkpt lat="43.848780971" lon="11.212167023"><ele>143</ele><time>2020-02-09T08:20:06Z</time></trkpt>
<trkpt lat="43.848803015" lon="11.212187978"><ele>143</ele><time>2020-02-09T08:20:07Z</time></trkpt>
<trkpt lat="43.848825982" lon="11.212209016"><ele>143</ele><time>2020-02-09T08:20:08Z</time></trkpt>
<trkpt lat="43.848849032" lon="11.212228965"><ele>143</ele><time>2020-02-09T08:20:09Z</time></trkpt>
<trkpt lat="43.848871998" lon="11.212247992"><ele>144</ele><time>2020-02-09T08:20:10Z</time></trkpt>
<trkpt lat="43.848894965" lon="11.212267019"><ele>144</ele><time>2020-02-09T08:20:11Z</time></trkpt>
<trkpt lat="43.848918015" lon="11.212284034"><ele>144</ele><time>2020-02-09T08:20:12Z</time></trkpt>
<trkpt lat="43.848941987" lon="11.212300966"><ele>144</ele><time>2020-02-09T08:20:13Z</time></trkpt>
<trkpt lat="43.84896596" lon="11.212317981"><ele>145</ele><time>2020-02-09T08:20:14Z</time></trkpt>
<trkpt lat="43.84898901" lon="11.212334996"><ele>145</ele><time>2020-02-09T08:20:15Z</time></trkpt>
<trkpt lat="43.849011976" lon="11.212352011"><ele>145</ele><time>2020-02-09T08:20:16Z</time></trkpt>
<trkpt lat="43.849035027" lon="11.212370032"><ele>145</ele><time>2020-02-09T08:20:17Z</time></trkpt>
<trkpt lat="43.849057993" lon="11.212388976"><ele>145</ele><time>2020-02-09T08:20:18Z</time></trkpt>
<trkpt lat="43.849079031" lon="11.212408002"><ele>146</ele><time>2020-02-09T08:20:19Z</time></trkpt>
<trkpt lat="43.849099986" lon="11.212429041"><ele>146</ele><time>2020-02-09T08:20:20Z</time></trkpt>
<trkpt lat="43.849120019" lon="11.212451002"><ele>146</ele><time>2020-02-09T08:20:21Z</time></trkpt>
<trkpt lat="43.849138962" lon="11.212474974"><ele>146</ele><time>2020-02-09T08:20:22Z</time></trkpt>
<trkpt lat="43.849155977" lon="11.21249903"><ele>146</ele><time>2020-02-09T08:20:23Z</time></trkpt>
<trkpt lat="43.849170981" lon="11.21252602"><ele>146</ele><time>2020-02-09T08:20:24Z</time></trkpt>
<trkpt lat="43.849184979" lon="11.212553009"><ele>146</ele><time>2020-02-09T08:20:25Z</time></trkpt>
<trkpt lat="43.849195959" lon="11.212581005"><ele>146</ele><time>2020-02-09T08:20:26Z</time></trkpt>
<trkpt lat="43.849205012" lon="11.212611012"><ele>146</ele><time>2020-02-09T08:20:27Z</time></trkpt>
<trkpt lat="43.849211968" lon="11.212642025"><ele>146</ele><time>2020-02-09T08:20:28Z</time></trkpt>
<trkpt lat="43.849216998" lon="11.212673038"><ele>145</ele><time>2020-02-09T08:20:29Z</time></trkpt>
<trkpt lat="43.849222027" lon="11.212704973"><ele>145</ele><time>2020-02-09T08:20:30Z</time></trkpt>
<trkpt lat="43.849226972" lon="11.212736992"><ele>145</ele><time>2020-02-09T08:20:31Z</time></trkpt>
<trkpt lat="43.849232001" lon="11.212769011"><ele>145</ele><time>2020-02-09T08:20:32Z</time></trkpt>
<trkpt lat="43.849238036" lon="11.21280103"><ele>145</ele><time>2020-02-09T08:20:33Z</time></trkpt>
<trkpt lat="43.849245999" lon="11.212831959"><ele>144</ele><time>2020-02-09T08:20:34Z</time></trkpt>
<trkpt lat="43.849254968" lon="11.212862972"><ele>144</ele><time>2020-02-09T08:20:35Z</time></trkpt>
<trkpt lat="43.849267038" lon="11.212893985"><ele>144</ele><time>2020-02-09T08:20:36Z</time></trkpt>
<trkpt lat="43.849279024" lon="11.212922987"><ele>144</ele><time>2020-02-09T08:20:37Z</time></trkpt>
<trkpt lat="43.849293021" lon="11.212952994"><ele>144</ele><time>2020-02-09T08:20:38Z</time></trkpt>
<trkpt lat="43.849308025" lon="11.212981995"><ele>144</ele><time>2020-02-09T08:20:39Z</time></trkpt>
<trkpt lat="43.849323029" lon="11.213010997"><ele>144</ele><time>2020-02-09T08:20:40Z</time></trkpt>
<trkpt lat="43.849338032" lon="11.213039998"><ele>144</ele><time>2020-02-09T08:20:41Z</time></trkpt>
<trkpt lat="43.84935203" lon="11.213068999"><ele>144</ele><time>2020-02-09T08:20:42Z</time></trkpt>
<trkpt lat="43.849366028" lon="11.213099007"><ele>144</ele><time>2020-02-09T08:20:43Z</time></trkpt>
<trkpt lat="43.849380026" lon="11.213128008"><ele>144</ele><time>2020-02-09T08:20:44Z</time></trkpt>
<trkpt lat="43.849393018" lon="11.213157009"><ele>143</ele><time>2020-02-09T08:20:45Z</time></trkpt>
<trkpt lat="43.849440962" lon="11.21323999"><ele>143</ele><time>2020-02-09T08:20:48Z</time></trkpt>
<trkpt lat="43.849459989" lon="11.21326698"><ele>143</ele><time>2020-02-09T08:20:49Z</time></trkpt>
<trkpt lat="43.849482033" lon="11.213292042"><ele>143</ele><time>2020-02-09T08:20:50Z</time></trkpt>
<trkpt lat="43.849534001" lon="11.21333898"><ele>143</ele><time>2020-02-09T08:20:52Z</time></trkpt>
<trkpt lat="43.849560991" lon="11.213360019"><ele>144</ele><time>2020-02-09T08:20:53Z</time></trkpt>
<trkpt lat="43.849587981" lon="11.213380974"><ele>144</ele><time>2020-02-09T08:20:54Z</time></trkpt>
<trkpt lat="43.849613965" lon="11.213400001"><ele>145</ele><time>2020-02-09T08:20:55Z</time></trkpt>
<trkpt lat="43.849638021" lon="11.213419028"><ele>145</ele><time>2020-02-09T08:20:56Z</time></trkpt>
<trkpt lat="43.849662999" lon="11.213436965"><ele>145</ele><time>2020-02-09T08:20:57Z</time></trkpt>
<trkpt lat="43.849686971" lon="11.213454986"><ele>146</ele><time>2020-02-09T08:20:58Z</time></trkpt>
<trkpt lat="43.849712033" lon="11.213473007"><ele>146</ele><time>2020-02-09T08:20:59Z</time></trkpt>
<trkpt lat="43.849737011" lon="11.213491028"><ele>146</ele><time>2020-02-09T08:21:00Z</time></trkpt>
<trkpt lat="43.849761989" lon="11.21350796"><ele>147</ele><time>2020-02-09T08:21:01Z</time></trkpt>
<trkpt lat="43.849787973" lon="11.213525981"><ele>147</ele><time>2020-02-09T08:21:02Z</time></trkpt>
<trkpt lat="43.849813035" lon="11.21354199"><ele>147</ele><time>2020-02-09T08:21:03Z</time></trkpt>
<trkpt lat="43.849839019" lon="11.213559005"><ele>147</ele><time>2020-02-09T08:21:04Z</time></trkpt>
<trkpt lat="43.849865003" lon="11.213575015"><ele>148</ele><time>2020-02-09T08:21:05Z</time></trkpt>
<trkpt lat="43.849889981" lon="11.213590018"><ele>148</ele><time>2020-02-09T08:21:06Z</time></trkpt>
<trkpt lat="43.849915965" lon="11.213606028"><ele>148</ele><time>2020-02-09T08:21:07Z</time></trkpt>
<trkpt lat="43.849941026" lon="11.213621031"><ele>148</ele><time>2020-02-09T08:21:08Z</time></trkpt>
<trkpt lat="43.849966004" lon="11.213637041"><ele>148</ele><time>2020-02-09T08:21:09Z</time></trkpt>
<trkpt lat="43.849990983" lon="11.213652967"><ele>148</ele><time>2020-02-09T08:21:10Z</time></trkpt>
<trkpt lat="43.850015039" lon="11.213670988"><ele>149</ele><time>2020-02-09T08:21:11Z</time></trkpt>
<trkpt lat="43.850038005" lon="11.213689009"><ele>149</ele><time>2020-02-09T08:21:12Z</time></trkpt>
<trkpt lat="43.850060971" lon="11.213709963"><ele>149</ele><time>2020-02-09T08:21:13Z</time></trkpt>
<trkpt lat="43.850125009" lon="11.21377903"><ele>150</ele><time>2020-02-09T08:21:16Z</time></trkpt>
<trkpt lat="43.850144958" lon="11.213805014"><ele>150</ele><time>2020-02-09T08:21:17Z</time></trkpt>
<trkpt lat="43.850162979" lon="11.213832004"><ele>150</ele><time>2020-02-09T08:21:18Z</time></trkpt>
<trkpt lat="43.850181" lon="11.21386"><ele>150</ele><time>2020-02-09T08:21:19Z</time></trkpt>
<trkpt lat="43.85019701" lon="11.213887995"><ele>150</ele><time>2020-02-09T08:21:20Z</time></trkpt>
<trkpt lat="43.850212013" lon="11.213915991"><ele>150</ele><time>2020-02-09T08:21:21Z</time></trkpt>
<trkpt lat="43.850226011" lon="11.213944992"><ele>150</ele><time>2020-02-09T08:21:22Z</time></trkpt>
<trkpt lat="43.850239003" lon="11.213972988"><ele>150</ele><time>2020-02-09T08:21:23Z</time></trkpt>
<trkpt lat="43.850251995" lon="11.213997966"><ele>150</ele><time>2020-02-09T08:21:24Z</time></trkpt>
<trkpt lat="43.850297006" lon="11.214054963"><ele>150</ele><time>2020-02-09T08:21:27Z</time></trkpt>
<trkpt lat="43.850316033" lon="11.21406896"><ele>150</ele><time>2020-02-09T08:21:28Z</time></trkpt>
<trkpt lat="43.850336988" lon="11.214082036"><ele>150</ele><time>2020-02-09T08:21:29Z</time></trkpt>
<trkpt lat="43.85036096" lon="11.214095028"><ele>150</ele><time>2020-02-09T08:21:30Z</time></trkpt>
<trkpt lat="43.850388033" lon="11.214109026"><ele>150</ele><time>2020-02-09T08:21:31Z</time></trkpt>
<trkpt lat="43.850416029" lon="11.214123024"><ele>151</ele><time>2020-02-09T08:21:32Z</time></trkpt>
<trkpt lat="43.85044503" lon="11.214137021"><ele>151</ele><time>2020-02-09T08:21:33Z</time></trkpt>
<trkpt lat="43.850475959" lon="11.214151019"><ele>151</ele><time>2020-02-09T08:21:34Z</time></trkpt>
<trkpt lat="43.850505967" lon="11.214164011"><ele>151</ele><time>2020-02-09T08:21:35Z</time></trkpt>
<trkpt lat="43.85053698" lon="11.214178009"><ele>151</ele><time>2020-02-09T08:21:36Z</time></trkpt>
<trkpt lat="43.850565981" lon="11.214191001"><ele>152</ele><time>2020-02-09T08:21:37Z</time></trkpt>
<trkpt lat="43.850594983" lon="11.214203993"><ele>152</ele><time>2020-02-09T08:21:38Z</time></trkpt>
<trkpt lat="43.850621972" lon="11.214215979"><ele>152</ele><time>2020-02-09T08:21:39Z</time></trkpt>
<trkpt lat="43.85064804" lon="11.214226959"><ele>152</ele><time>2020-02-09T08:21:40Z</time></trkpt>
<trkpt lat="43.850673018" lon="11.214237018"><ele>153</ele><time>2020-02-09T08:21:41Z</time></trkpt>
<trkpt lat="43.850697996" lon="11.214246992"><ele>153</ele><time>2020-02-09T08:21:42Z</time></trkpt>
<trkpt lat="43.850721968" lon="11.214255039"><ele>153</ele><time>2020-02-09T08:21:43Z</time></trkpt>
<trkpt lat="43.850745019" lon="11.214261996"><ele>153</ele><time>2020-02-09T08:21:44Z</time></trkpt>
<trkpt lat="43.850767985" lon="11.214268031"><ele>153</ele><time>2020-02-09T08:21:45Z</time></trkpt>
<trkpt lat="43.850791035" lon="11.21427197"><ele>154</ele><time>2020-02-09T08:21:46Z</time></trkpt>
<trkpt lat="43.850812996" lon="11.214275993"><ele>154</ele><time>2020-02-09T08:21:47Z</time></trkpt>
<trkpt lat="43.85083504" lon="11.214279011"><ele>154</ele><time>2020-02-09T08:21:48Z</time></trkpt>
<trkpt lat="43.850855995" lon="11.214282028"><ele>154</ele><time>2020-02-09T08:21:49Z</time></trkpt>
<trkpt lat="43.850911986" lon="11.214297032"><ele>155</ele><time>2020-02-09T08:21:52Z</time></trkpt>
<trkpt lat="43.850927996" lon="11.214304995"><ele>156</ele><time>2020-02-09T08:21:53Z</time></trkpt>
<trkpt lat="43.850941993" lon="11.214315975"><ele>156</ele><time>2020-02-09T08:21:54Z</time></trkpt>
<trkpt lat="43.850953979" lon="11.214328967"><ele>156</ele><time>2020-02-09T08:21:55Z</time></trkpt>
<trkpt lat="43.850964038" lon="11.214344976"><ele>156</ele><time>2020-02-09T08:21:56Z</time></trkpt>
<trkpt lat="43.850972001" lon="11.214361992"><ele>156</ele><time>2020-02-09T08:21:57Z</time></trkpt>
<trkpt lat="43.85097703" lon="11.214382024"><ele>156</ele><time>2020-02-09T08:21:58Z</time></trkpt>
<trkpt lat="43.850979041" lon="11.214402979"><ele>156</ele><time>2020-02-09T08:21:59Z</time></trkpt>
<trkpt lat="43.850978035" lon="11.214426029"><ele>156</ele><time>2020-02-09T08:22:00Z</time></trkpt>
<trkpt lat="43.850975018" lon="11.214451008"><ele>156</ele><time>2020-02-09T08:22:01Z</time></trkpt>
<trkpt lat="43.850968983" lon="11.214475986"><ele>156</ele><time>2020-02-09T08:22:02Z</time></trkpt>
<trkpt lat="43.850963032" lon="11.21450197"><ele>156</ele><time>2020-02-09T08:22:03Z</time></trkpt>
<trkpt lat="43.850958003" lon="11.214527031"><ele>156</ele><time>2020-02-09T08:22:04Z</time></trkpt>
<trkpt lat="43.850954985" lon="11.214551004"><ele>155</ele><time>2020-02-09T08:22:05Z</time></trkpt>
<trkpt lat="43.850951968" lon="11.214574976"><ele>155</ele><time>2020-02-09T08:22:06Z</time></trkpt>
<trkpt lat="43.850948028" lon="11.214599032"><ele>155</ele><time>2020-02-09T08:22:07Z</time></trkpt>
<trkpt lat="43.850939982" lon="11.21462401"><ele>155</ele><time>2020-02-09T08:22:08Z</time></trkpt>
<trkpt lat="43.85092699" lon="11.214649994"><ele>155</ele><time>2020-02-09T08:22:09Z</time></trkpt>
<trkpt lat="43.850909974" lon="11.214675978"><ele>154</ele><time>2020-02-09T08:22:10Z</time></trkpt>
<trkpt lat="43.85088902" lon="11.214699028"><ele>154</ele><time>2020-02-09T08:22:11Z</time></trkpt>
<trkpt lat="43.850864964" lon="11.214716965"><ele>154</ele><time>2020-02-09T08:22:12Z</time></trkpt>
<trkpt lat="43.85083898" lon="11.214728029"><ele>153</ele><time>2020-02-09T08:22:13Z</time></trkpt>
<trkpt lat="43.85081199" lon="11.214733981"><ele>153</ele><time>2020-02-09T08:22:14Z</time></trkpt>
<trkpt lat="43.850785" lon="11.214736998"><ele>153</ele><time>2020-02-09T08:22:15Z</time></trkpt>
<trkpt lat="43.850758011" lon="11.214738004"><ele>153</ele><time>2020-02-09T08:22:16Z</time></trkpt>
<trkpt lat="43.850732027" lon="11.21473901"><ele>153</ele><time>2020-02-09T08:22:17Z</time></trkpt>
<trkpt lat="43.850705959" lon="11.214741021"><ele>153</ele><time>2020-02-09T08:22:18Z</time></trkpt>
<trkpt lat="43.850680981" lon="11.214743033"><ele>153</ele><time>2020-02-09T08:22:19Z</time></trkpt>
<trkpt lat="43.850657009" lon="11.214744961"><ele>153</ele><time>2020-02-09T08:22:20Z</time></trkpt>
<trkpt lat="43.850633036" lon="11.214747978"><ele>153</ele><time>2020-02-09T08:22:21Z</time></trkpt>
<trkpt lat="43.85060898" lon="11.214750996"><ele>153</ele><time>2020-02-09T08:22:22Z</time></trkpt>
<trkpt lat="43.850586014" lon="11.214755019"><ele>153</ele><time>2020-02-09T08:22:23Z</time></trkpt>
<trkpt lat="43.850562964" lon="11.214758959"><ele>154</ele><time>2020-02-09T08:22:24Z</time></trkpt>
<trkpt lat="43.850539997" lon="11.214762982"><ele>154</ele><time>2020-02-09T08:22:25Z</time></trkpt>
<trkpt lat="43.850517031" lon="11.214768011"><ele>154</ele><time>2020-02-09T08:22:26Z</time></trkpt>
<trkpt lat="43.850492975" lon="11.21477304"><ele>154</ele><time>2020-02-09T08:22:27Z</time></trkpt>
<trkpt lat="43.850470008" lon="11.214778991"><ele>154</ele><time>2020-02-09T08:22:28Z</time></trkpt>
<trkpt lat="43.850446958" lon="11.214785026"><ele>154</ele><time>2020-02-09T08:22:29Z</time></trkpt>
<trkpt lat="43.850422986" lon="11.214791983"><ele>154</ele><time>2020-02-09T08:22:30Z</time></trkpt>
<trkpt lat="43.850398008" lon="11.214799024"><ele>154</ele><time>2020-02-09T08:22:31Z</time></trkpt>
<trkpt lat="43.85037303" lon="11.214805981"><ele>154</ele><time>2020-02-09T08:22:32Z</time></trkpt>
<trkpt lat="43.850347968" lon="11.214814028"><ele>154</ele><time>2020-02-09T08:22:33Z</time></trkpt>
<trkpt lat="43.850321984" lon="11.214821991"><ele>154</ele><time>2020-02-09T08:22:34Z</time></trkpt>
<trkpt lat="43.850296" lon="11.214830037"><ele>154</ele><time>2020-02-09T08:22:35Z</time></trkpt>
<trkpt lat="43.85026901" lon="11.214838"><ele>154</ele><time>2020-02-09T08:22:36Z</time></trkpt>
<trkpt lat="43.850243026" lon="11.214844035"><ele>154</ele><time>2020-02-09T08:22:37Z</time></trkpt>
<trkpt lat="43.850164991" lon="11.214853004"><ele>155</ele><time>2020-02-09T08:22:40Z</time></trkpt>
<trkpt lat="43.850140013" lon="11.214851998"><ele>155</ele><time>2020-02-09T08:22:41Z</time></trkpt>
<trkpt lat="43.850115035" lon="11.214847974"><ele>155</ele><time>2020-02-09T08:22:42Z</time></trkpt>
<trkpt lat="43.850090979" lon="11.214843029"><ele>155</ele><time>2020-02-09T08:22:43Z</time></trkpt>
<trkpt lat="43.850067006" lon="11.214836994"><ele>155</ele><time>2020-02-09T08:22:44Z</time></trkpt>
<trkpt lat="43.850043034" lon="11.214830959"><ele>155</ele><time>2020-02-09T08:22:45Z</time></trkpt>
<trkpt lat="43.850018978" lon="11.214824002"><ele>155</ele><time>2020-02-09T08:22:46Z</time></trkpt>
<trkpt lat="43.849995006" lon="11.214817967"><ele>155</ele><time>2020-02-09T08:22:47Z</time></trkpt>
<trkpt lat="43.849970028" lon="11.214813022"><ele>155</ele><time>2020-02-09T08:22:48Z</time></trkpt>
<trkpt lat="43.84994396" lon="11.214807993"><ele>155</ele><time>2020-02-09T08:22:49Z</time></trkpt>
<trkpt lat="43.849918982" lon="11.214804975"><ele>155</ele><time>2020-02-09T08:22:50Z</time></trkpt>
<trkpt lat="43.849891992" lon="11.214802964"><ele>155</ele><time>2020-02-09T08:22:51Z</time></trkpt>
<trkpt lat="43.849866008" lon="11.214801036"><ele>155</ele><time>2020-02-09T08:22:52Z</time></trkpt>
<trkpt lat="43.849839019" lon="11.21480003"><ele>156</ele><time>2020-02-09T08:22:53Z</time></trkpt>
<trkpt lat="43.849812029" lon="11.214798018"><ele>156</ele><time>2020-02-09T08:22:54Z</time></trkpt>
<trkpt lat="43.849784033" lon="11.214797013"><ele>156</ele><time>2020-02-09T08:22:55Z</time></trkpt>
<trkpt lat="43.84975696" lon="11.214795001"><ele>156</ele><time>2020-02-09T08:22:56Z</time></trkpt>
<trkpt lat="43.84972997" lon="11.214791983"><ele>156</ele><time>2020-02-09T08:22:57Z</time></trkpt>
<trkpt lat="43.849646989" lon="11.214782009"><ele>157</ele><time>2020-02-09T08:23:00Z</time></trkpt>
<trkpt lat="43.849618994" lon="11.214777986"><ele>157</ele><time>2020-02-09T08:23:01Z</time></trkpt>
<trkpt lat="43.849590998" lon="11.214773962"><ele>157</ele><time>2020-02-09T08:23:02Z</time></trkpt>
<trkpt lat="43.849561997" lon="11.214770023"><ele>157</ele><time>2020-02-09T08:23:03Z</time></trkpt>
<trkpt lat="43.849474993" lon="11.214759964"><ele>157</ele><time>2020-02-09T08:23:06Z</time></trkpt>
<trkpt lat="43.849444985" lon="11.214757031"><ele>158</ele><time>2020-02-09T08:23:07Z</time></trkpt>
<trkpt lat="43.849414978" lon="11.214755019"><ele>158</ele><time>2020-02-09T08:23:08Z</time></trkpt>
<trkpt lat="43.849384971" lon="11.214753008"><ele>158</ele><time>2020-02-09T08:23:09Z</time></trkpt>
<trkpt lat="43.849354042" lon="11.214750996"><ele>158</ele><time>2020-02-09T08:23:10Z</time></trkpt>
<trkpt lat="43.849324035" lon="11.21474999"><ele>158</ele><time>2020-02-09T08:23:11Z</time></trkpt>
<trkpt lat="43.849293021" lon="11.214748984"><ele>158</ele><time>2020-02-09T08:23:12Z</time></trkpt>
<trkpt lat="43.849263014" lon="11.214748984"><ele>159</ele><time>2020-02-09T08:23:13Z</time></trkpt>
<trkpt lat="43.849232001" lon="11.214748984"><ele>159</ele><time>2020-02-09T08:23:14Z</time></trkpt>
<trkpt lat="43.849200988" lon="11.214747978"><ele>159</ele><time>2020-02-09T08:23:15Z</time></trkpt>
<trkpt lat="43.849170981" lon="11.214747978"><ele>159</ele><time>2020-02-09T08:23:16Z</time></trkpt>
<trkpt lat="43.849079031" lon="11.214742027"><ele>160</ele><time>2020-02-09T08:23:19Z</time></trkpt>
<trkpt lat="43.849049024" lon="11.214736998"><ele>160</ele><time>2020-02-09T08:23:20Z</time></trkpt>
<trkpt lat="43.849019017" lon="11.214731969"><ele>160</ele><time>2020-02-09T08:23:21Z</time></trkpt>
<trkpt lat="43.84898901" lon="11.214726018"><ele>160</ele><time>2020-02-09T08:23:22Z</time></trkpt>
<trkpt lat="43.848959003" lon="11.214718977"><ele>160</ele><time>2020-02-09T08:23:23Z</time></trkpt>
<trkpt lat="43.848928995" lon="11.21471202"><ele>160</ele><time>2020-02-09T08:23:24Z</time></trkpt>
<trkpt lat="43.848898988" lon="11.214703973"><ele>160</ele><time>2020-02-09T08:23:25Z</time></trkpt>
<trkpt lat="43.848868981" lon="11.214696011"><ele>160</ele><time>2020-02-09T08:23:26Z</time></trkpt>
<trkpt lat="43.848838974" lon="11.214687964"><ele>160</ele><time>2020-02-09T08:23:27Z</time></trkpt>
<trkpt lat="43.848807961" lon="11.214678995"><ele>160</ele><time>2020-02-09T08:23:28Z</time></trkpt>
<trkpt lat="43.848777032" lon="11.214671033"><ele>160</ele><time>2020-02-09T08:23:29Z</time></trkpt>
<trkpt lat="43.848746018" lon="11.21466198"><ele>159</ele><time>2020-02-09T08:23:30Z</time></trkpt>
<trkpt lat="43.848714" lon="11.214652006"><ele>159</ele><time>2020-02-09T08:23:31Z</time></trkpt>
<trkpt lat="43.848682987" lon="11.214641025"><ele>159</ele><time>2020-02-09T08:23:32Z</time></trkpt>
<trkpt lat="43.848650968" lon="11.214629961"><ele>159</ele><time>2020-02-09T08:23:33Z</time></trkpt>
<trkpt lat="43.848620038" lon="11.214616969"><ele>159</ele><time>2020-02-09T08:23:34Z</time></trkpt>
<trkpt lat="43.84858802" lon="11.214601966"><ele>159</ele><time>2020-02-09T08:23:35Z</time></trkpt>
<trkpt lat="43.848556001" lon="11.21458604"><ele>159</ele><time>2020-02-09T08:23:36Z</time></trkpt>
<trkpt lat="43.848523982" lon="11.214568019"><ele>158</ele><time>2020-02-09T08:23:37Z</time></trkpt>
<trkpt lat="43.848491963" lon="11.214548992"><ele>158</ele><time>2020-02-09T08:23:38Z</time></trkpt>
<trkpt lat="43.848460028" lon="11.214528959"><ele>158</ele><time>2020-02-09T08:23:39Z</time></trkpt>
<trkpt lat="43.848429015" lon="11.214508004"><ele>157</ele><time>2020-02-09T08:23:40Z</time></trkpt>
<trkpt lat="43.848396996" lon="11.21448596"><ele>157</ele><time>2020-02-09T08:23:41Z</time></trkpt>
<trkpt lat="43.848364977" lon="11.214463999"><ele>156</ele><time>2020-02-09T08:23:42Z</time></trkpt>
<trkpt lat="43.848333964" lon="11.214441033"><ele>156</ele><time>2020-02-09T08:23:43Z</time></trkpt>
<trkpt lat="43.848303035" lon="11.214417983"><ele>155</ele><time>2020-02-09T08:23:44Z</time></trkpt>
<trkpt lat="43.848272022" lon="11.214395016"><ele>155</ele><time>2020-02-09T08:23:45Z</time></trkpt>
<trkpt lat="43.848241009" lon="11.214372972"><ele>154</ele><time>2020-02-09T08:23:46Z</time></trkpt>
<trkpt lat="43.848209996" lon="11.214351011"><ele>154</ele><time>2020-02-09T08:23:47Z</time></trkpt>
<trkpt lat="43.848179989" lon="11.214329973"><ele>154</ele><time>2020-02-09T08:23:48Z</time></trkpt>
<trkpt lat="43.848149981" lon="11.214309018"><ele>153</ele><time>2020-02-09T08:23:49Z</time></trkpt>
<trkpt lat="43.84812098" lon="11.214289991"><ele>153</ele><time>2020-02-09T08:23:50Z</time></trkpt>
<trkpt lat="43.848091979" lon="11.21427197"><ele>152</ele><time>2020-02-09T08:23:51Z</time></trkpt>
<trkpt lat="43.848062977" lon="11.214255039"><ele>152</ele><time>2020-02-09T08:23:52Z</time></trkpt>
<trkpt lat="43.848033976" lon="11.214239029"><ele>152</ele><time>2020-02-09T08:23:53Z</time></trkpt>
<trkpt lat="43.848004974" lon="11.21422302"><ele>152</ele><time>2020-02-09T08:23:54Z</time></trkpt>
<trkpt lat="43.847975973" lon="11.21420701"><ele>151</ele><time>2020-02-09T08:23:55Z</time></trkpt>
<trkpt lat="43.847946972" lon="11.214189995"><ele>151</ele><time>2020-02-09T08:23:56Z</time></trkpt>
<trkpt lat="43.84791797" lon="11.21417298"><ele>151</ele><time>2020-02-09T08:23:57Z</time></trkpt>
<trkpt lat="43.847888969" lon="11.214154959"><ele>150</ele><time>2020-02-09T08:23:58Z</time></trkpt>
<trkpt lat="43.847860973" lon="11.214136016"><ele>150</ele><time>2020-02-09T08:23:59Z</time></trkpt>
<trkpt lat="43.847832978" lon="11.214116989"><ele>150</ele><time>2020-02-09T08:24:00Z</time></trkpt>
<trkpt lat="43.847806994" lon="11.214097962"><ele>150</ele><time>2020-02-09T08:24:01Z</time></trkpt>
<trkpt lat="43.84778101" lon="11.21408103"><ele>149</ele><time>2020-02-09T08:24:02Z</time></trkpt>
<trkpt lat="43.847755026" lon="11.214066027"><ele>149</ele><time>2020-02-09T08:24:03Z</time></trkpt>
<trkpt lat="43.847729964" lon="11.214054041"><ele>149</ele><time>2020-02-09T08:24:04Z</time></trkpt>
<trkpt lat="43.84770398" lon="11.214044988"><ele>149</ele><time>2020-02-09T08:24:05Z</time></trkpt>
<trkpt lat="43.847676991" lon="11.214041971"><ele>149</ele><time>2020-02-09T08:24:06Z</time></trkpt>
<trkpt lat="43.847648995" lon="11.214042976"><ele>149</ele><time>2020-02-09T08:24:07Z</time></trkpt>
<trkpt lat="43.847620999" lon="11.214048006"><ele>149</ele><time>2020-02-09T08:24:08Z</time></trkpt>
<trkpt lat="43.84759401" lon="11.214055968"><ele>149</ele><time>2020-02-09T08:24:09Z</time></trkpt>
<trkpt lat="43.847569032" lon="11.214065021"><ele>150</ele><time>2020-02-09T08:24:10Z</time></trkpt>
<trkpt lat="43.847544976" lon="11.21407399"><ele>150</ele><time>2020-02-09T08:24:11Z</time></trkpt>
<trkpt lat="43.847524021" lon="11.214082036"><ele>150</ele><time>2020-02-09T08:24:12Z</time></trkpt>
<trkpt lat="43.847503988" lon="11.214089999"><ele>150</ele><time>2020-02-09T08:24:13Z</time></trkpt>
<trkpt lat="43.847484039" lon="11.214097962"><ele>151</ele><time>2020-02-09T08:24:14Z</time></trkpt>
<trkpt lat="43.847465012" lon="11.214103997"><ele>151</ele><time>2020-02-09T08:24:15Z</time></trkpt>
<trkpt lat="43.847446991" lon="11.214110032"><ele>151</ele><time>2020-02-09T08:24:16Z</time></trkpt>
<trkpt lat="43.847427964" lon="11.214114977"><ele>151</ele><time>2020-02-09T08:24:17Z</time></trkpt>
<trkpt lat="43.847410027" lon="11.214120006"><ele>151</ele><time>2020-02-09T08:24:18Z</time></trkpt>
<trkpt lat="43.847392006" lon="11.214125035"><ele>151</ele><time>2020-02-09T08:24:19Z</time></trkpt>
<trkpt lat="43.847373985" lon="11.214128975"><ele>151</ele><time>2020-02-09T08:24:20Z</time></trkpt>
<trkpt lat="43.847355964" lon="11.214134004"><ele>151</ele><time>2020-02-09T08:24:21Z</time></trkpt>
<trkpt lat="43.847339032" lon="11.214138027"><ele>151</ele><time>2020-02-09T08:24:22Z</time></trkpt>
<trkpt lat="43.847321011" lon="11.214142973"><ele>151</ele><time>2020-02-09T08:24:23Z</time></trkpt>
<trkpt lat="43.847303996" lon="11.214148002"><ele>151</ele><time>2020-02-09T08:24:24Z</time></trkpt>
<trkpt lat="43.847285975" lon="11.214153031"><ele>152</ele><time>2020-02-09T08:24:25Z</time></trkpt>
<trkpt lat="43.84726896" lon="11.214157976"><ele>152</ele><time>2020-02-09T08:24:26Z</time></trkpt>
<trkpt lat="43.847251022" lon="11.214164011"><ele>152</ele><time>2020-02-09T08:24:27Z</time></trkpt>
<trkpt lat="43.847234007" lon="11.21416904"><ele>152</ele><time>2020-02-09T08:24:28Z</time></trkpt>
<trkpt lat="43.847216992" lon="11.214174991"><ele>152</ele><time>2020-02-09T08:24:29Z</time></trkpt>
<trkpt lat="43.847199976" lon="11.214180021"><ele>152</ele><time>2020-02-09T08:24:30Z</time></trkpt>
<trkpt lat="43.847182039" lon="11.214185972"><ele>152</ele><time>2020-02-09T08:24:31Z</time></trkpt>
<trkpt lat="43.847165024" lon="11.214191001"><ele>152</ele><time>2020-02-09T08:24:32Z</time></trkpt>
<trkpt lat="43.847148009" lon="11.21419603"><ele>152</ele><time>2020-02-09T08:24:33Z</time></trkpt>
<trkpt lat="43.847130993" lon="11.214201981"><ele>152</ele><time>2020-02-09T08:24:34Z</time></trkpt>
<trkpt lat="43.847113978" lon="11.21420701"><ele>152</ele><time>2020-02-09T08:24:35Z</time></trkpt>
<trkpt lat="43.847096963" lon="11.214212039"><ele>153</ele><time>2020-02-09T08:24:36Z</time></trkpt>
<trkpt lat="43.847081037" lon="11.214215979"><ele>153</ele><time>2020-02-09T08:24:37Z</time></trkpt>
<trkpt lat="43.847064022" lon="11.214221008"><ele>153</ele><time>2020-02-09T08:24:38Z</time></trkpt>
<trkpt lat="43.847047007" lon="11.214225031"><ele>153</ele><time>2020-02-09T08:24:39Z</time></trkpt>
<trkpt lat="43.847029991" lon="11.214229977"><ele>153</ele><time>2020-02-09T08:24:40Z</time></trkpt>
<trkpt lat="43.847012976" lon="11.214234"><ele>153</ele><time>2020-02-09T08:24:41Z</time></trkpt>
<trkpt lat="43.846995039" lon="11.214238023"><ele>153</ele><time>2020-02-09T08:24:42Z</time></trkpt>
<trkpt lat="43.846977018" lon="11.214241963"><ele>153</ele><time>2020-02-09T08:24:43Z</time></trkpt>
<trkpt lat="43.846958997" lon="11.214245986"><ele>153</ele><time>2020-02-09T08:24:44Z</time></trkpt>
<trkpt lat="43.84693997" lon="11.21425001"><ele>153</ele><time>2020-02-09T08:24:45Z</time></trkpt>
<trkpt lat="43.846920021" lon="11.214254033"><ele>153</ele><time>2020-02-09T08:24:46Z</time></trkpt>
<trkpt lat="43.846898982" lon="11.214257972"><ele>153</ele><time>2020-02-09T08:24:47Z</time></trkpt>
<trkpt lat="43.846878028" lon="11.214263001"><ele>153</ele><time>2020-02-09T08:24:48Z</time></trkpt>
<trkpt lat="43.846855983" lon="11.214268031"><ele>153</ele><time>2020-02-09T08:24:49Z</time></trkpt>
<trkpt lat="43.846832011" lon="11.21427197"><ele>154</ele><time>2020-02-09T08:24:50Z</time></trkpt>
<trkpt lat="43.846807033" lon="11.214278005"><ele>154</ele><time>2020-02-09T08:24:51Z</time></trkpt>
<trkpt lat="43.846781971" lon="11.214283034"><ele>154</ele><time>2020-02-09T08:24:52Z</time></trkpt>
<trkpt lat="43.846753975" lon="11.214288985"><ele>154</ele><time>2020-02-09T08:24:53Z</time></trkpt>
<trkpt lat="43.84672598" lon="11.21429502"><ele>154</ele><time>2020-02-09T08:24:54Z</time></trkpt>
<trkpt lat="43.846695973" lon="11.214301977"><ele>154</ele><time>2020-02-09T08:24:55Z</time></trkpt>
<trkpt lat="43.84666496" lon="11.214309018"><ele>154</ele><time>2020-02-09T08:24:56Z</time></trkpt>
<trkpt lat="43.846633025" lon="11.214314969"><ele>154</ele><time>2020-02-09T08:24:57Z</time></trkpt>
<trkpt lat="43.846601006" lon="11.21432201"><ele>154</ele><time>2020-02-09T08:24:58Z</time></trkpt>
<trkpt lat="43.846567981" lon="11.214327961"><ele>155</ele><time>2020-02-09T08:24:59Z</time></trkpt>
<trkpt lat="43.846534034" lon="11.214333996"><ele>155</ele><time>2020-02-09T08:25:00Z</time></trkpt>
<trkpt lat="43.84650101" lon="11.214339025"><ele>155</ele><time>2020-02-09T08:25:01Z</time></trkpt>
<trkpt lat="43.846467985" lon="11.214343971"><ele>155</ele><time>2020-02-09T08:25:02Z</time></trkpt>
<trkpt lat="43.84643496" lon="11.214347994"><ele>155</ele><time>2020-02-09T08:25:03Z</time></trkpt>
<trkpt lat="43.846403025" lon="11.214351011"><ele>155</ele><time>2020-02-09T08:25:04Z</time></trkpt>
<trkpt lat="43.846371006" lon="11.214353023"><ele>155</ele><time>2020-02-09T08:25:05Z</time></trkpt>
<trkpt lat="43.846339993" lon="11.214354029"><ele>155</ele><time>2020-02-09T08:25:06Z</time></trkpt>
<trkpt lat="43.846255001" lon="11.214346988"><ele>155</ele><time>2020-02-09T08:25:09Z</time></trkpt>
<trkpt lat="43.846228011" lon="11.214341959"><ele>155</ele><time>2020-02-09T08:25:10Z</time></trkpt>
<trkpt lat="43.846203033" lon="11.214336008"><ele>155</ele><time>2020-02-09T08:25:11Z</time></trkpt>
<trkpt lat="43.846176965" lon="11.214328967"><ele>154</ele><time>2020-02-09T08:25:12Z</time></trkpt>
<trkpt lat="43.846150981" lon="11.214319998"><ele>154</ele><time>2020-02-09T08:25:13Z</time></trkpt>
<trkpt lat="43.846123992" lon="11.214312036"><ele>154</ele><time>2020-02-09T08:25:14Z</time></trkpt>
<trkpt lat="43.846095996" lon="11.214301977"><ele>154</ele><time>2020-02-09T08:25:15Z</time></trkpt>
<trkpt lat="43.846066995" lon="11.214293009"><ele>154</ele><time>2020-02-09T08:25:16Z</time></trkpt>
<trkpt lat="43.846034976" lon="11.214283034"><ele>153</ele><time>2020-02-09T08:25:17Z</time></trkpt>
<trkpt lat="43.846002035" lon="11.214274988"><ele>153</ele><time>2020-02-09T08:25:18Z</time></trkpt>
<trkpt lat="43.845970016" lon="11.214270964"><ele>153</ele><time>2020-02-09T08:25:19Z</time></trkpt>
<trkpt lat="43.845939003" lon="11.214272976"><ele>153</ele><time>2020-02-09T08:25:20Z</time></trkpt>
<trkpt lat="43.845910002" lon="11.214282028"><ele>153</ele><time>2020-02-09T08:25:21Z</time></trkpt>
<trkpt lat="43.845885023" lon="11.214297032"><ele>154</ele><time>2020-02-09T08:25:22Z</time></trkpt>
<trkpt lat="43.845861973" lon="11.214317987"><ele>154</ele><time>2020-02-09T08:25:23Z</time></trkpt>
<trkpt lat="43.845841018" lon="11.214341037"><ele>155</ele><time>2020-02-09T08:25:24Z</time></trkpt>
<trkpt lat="43.845822997" lon="11.214368027"><ele>155</ele><time>2020-02-09T08:25:25Z</time></trkpt>
<trkpt lat="43.845805982" lon="11.214395016"><ele>156</ele><time>2020-02-09T08:25:26Z</time></trkpt>
<trkpt lat="43.845788967" lon="11.214423012"><ele>156</ele><time>2020-02-09T08:25:27Z</time></trkpt>
<trkpt lat="43.845772035" lon="11.214450002"><ele>157</ele><time>2020-02-09T08:25:28Z</time></trkpt>
<trkpt lat="43.845752003" lon="11.21447498"><ele>157</ele><time>2020-02-09T08:25:29Z</time></trkpt>
<trkpt lat="43.845729958" lon="11.214497024"><ele>157</ele><time>2020-02-09T08:25:30Z</time></trkpt>
<trkpt lat="43.845705986" lon="11.214514961"><ele>158</ele><time>2020-02-09T08:25:31Z</time></trkpt>
<trkpt lat="43.845680002" lon="11.214528037"><ele>158</ele><time>2020-02-09T08:25:32Z</time></trkpt>
<trkpt lat="43.845651001" lon="11.214536"><ele>158</ele><time>2020-02-09T08:25:33Z</time></trkpt>
<trkpt lat="43.845619988" lon="11.214539018"><ele>158</ele><time>2020-02-09T08:25:34Z</time></trkpt>
<trkpt lat="43.845587969" lon="11.214537006"><ele>158</ele><time>2020-02-09T08:25:35Z</time></trkpt>
<trkpt lat="43.845554022" lon="11.214531977"><ele>158</ele><time>2020-02-09T08:25:36Z</time></trkpt>
<trkpt lat="43.845519992" lon="11.214526026"><ele>157</ele><time>2020-02-09T08:25:37Z</time></trkpt>
<trkpt lat="43.845485961" lon="11.214516973"><ele>157</ele><time>2020-02-09T08:25:38Z</time></trkpt>
<trkpt lat="43.845452014" lon="11.21450901"><ele>157</ele><time>2020-02-09T08:25:39Z</time></trkpt>
<trkpt lat="43.84541899" lon="11.214500964"><ele>157</ele><time>2020-02-09T08:25:40Z</time></trkpt>
<trkpt lat="43.845386971" lon="11.214494007"><ele>156</ele><time>2020-02-09T08:25:41Z</time></trkpt>
<trkpt lat="43.845294015" lon="11.214481015"><ele>156</ele><time>2020-02-09T08:25:44Z</time></trkpt>
<trkpt lat="43.845264008" lon="11.214479003"><ele>156</ele><time>2020-02-09T08:25:45Z</time></trkpt>
<trkpt lat="43.845234001" lon="11.214477997"><ele>156</ele><time>2020-02-09T08:25:46Z</time></trkpt>
<trkpt lat="43.845202988" lon="11.214476991"><ele>155</ele><time>2020-02-09T08:25:47Z</time></trkpt>
<trkpt lat="43.845171975" lon="11.214475986"><ele>155</ele><time>2020-02-09T08:25:48Z</time></trkpt>
<trkpt lat="43.84514004" lon="11.214475986"><ele>155</ele><time>2020-02-09T08:25:49Z</time></trkpt>
<trkpt lat="43.845107015" lon="11.214476991"><ele>155</ele><time>2020-02-09T08:25:50Z</time></trkpt>
<trkpt lat="43.845073991" lon="11.214476991"><ele>155</ele><time>2020-02-09T08:25:51Z</time></trkpt>
<trkpt lat="43.84503996" lon="11.214476991"><ele>155</ele><time>2020-02-09T08:25:52Z</time></trkpt>
<trkpt lat="43.845006013" lon="11.214475986"><ele>155</ele><time>2020-02-09T08:25:53Z</time></trkpt>
<trkpt lat="43.844970977" lon="11.21447498"><ele>154</ele><time>2020-02-09T08:25:54Z</time></trkpt>
<trkpt lat="43.844936024" lon="11.214472968"><ele>154</ele><time>2020-02-09T08:25:55Z</time></trkpt>
<trkpt lat="43.844900988" lon="11.214470034"><ele>154</ele><time>2020-02-09T08:25:56Z</time></trkpt>
<trkpt lat="43.844866036" lon="11.214466011"><ele>153</ele><time>2020-02-09T08:25:57Z</time></trkpt>
<trkpt lat="43.844830999" lon="11.214460982"><ele>153</ele><time>2020-02-09T08:25:58Z</time></trkpt>
<trkpt lat="43.844797974" lon="11.214455031"><ele>153</ele><time>2020-02-09T08:25:59Z</time></trkpt>
<trkpt lat="43.844766961" lon="11.21444799"><ele>152</ele><time>2020-02-09T08:26:00Z</time></trkpt>
<trkpt lat="43.84473796" lon="11.214441033"><ele>152</ele><time>2020-02-09T08:26:01Z</time></trkpt>
<trkpt lat="43.84471097" lon="11.214431981"><ele>152</ele><time>2020-02-09T08:26:02Z</time></trkpt>
<trkpt lat="43.844684986" lon="11.214423012"><ele>151</ele><time>2020-02-09T08:26:03Z</time></trkpt>
<trkpt lat="43.844660008" lon="11.21441396"><ele>151</ele><time>2020-02-09T08:26:04Z</time></trkpt>
<trkpt lat="43.844634024" lon="11.214403985"><ele>150</ele><time>2020-02-09T08:26:05Z</time></trkpt>
<trkpt lat="43.844607035" lon="11.214393005"><ele>150</ele><time>2020-02-09T08:26:06Z</time></trkpt>
<trkpt lat="43.844579961" lon="11.21438303"><ele>150</ele><time>2020-02-09T08:26:07Z</time></trkpt>
<trkpt lat="43.844497986" lon="11.214352017"><ele>149</ele><time>2020-02-09T08:26:10Z</time></trkpt>
<trkpt lat="43.844470996" lon="11.214342965"><ele>148</ele><time>2020-02-09T08:26:11Z</time></trkpt>
<trkpt lat="43.844444007" lon="11.214335002"><ele>148</ele><time>2020-02-09T08:26:12Z</time></trkpt>
<trkpt lat="43.844416011" lon="11.214327961"><ele>148</ele><time>2020-02-09T08:26:13Z</time></trkpt>
<trkpt lat="43.844389021" lon="11.214321004"><ele>148</ele><time>2020-02-09T08:26:14Z</time></trkpt>
<trkpt lat="43.844362032" lon="11.214314969"><ele>147</ele><time>2020-02-09T08:26:15Z</time></trkpt>
<trkpt lat="43.844334958" lon="11.214309018"><ele>147</ele><time>2020-02-09T08:26:16Z</time></trkpt>
<trkpt lat="43.844308974" lon="11.214302983"><ele>147</ele><time>2020-02-09T08:26:17Z</time></trkpt>
<trkpt lat="43.844281984" lon="11.214298038"><ele>147</ele><time>2020-02-09T08:26:18Z</time></trkpt>
<trkpt lat="43.844254995" lon="11.214293009"><ele>147</ele><time>2020-02-09T08:26:19Z</time></trkpt>
<trkpt lat="43.844229011" lon="11.21428798"><ele>146</ele><time>2020-02-09T08:26:20Z</time></trkpt>
<trkpt lat="43.844203027" lon="11.214283034"><ele>146</ele><time>2020-02-09T08:26:21Z</time></trkpt>
<trkpt lat="43.844176959" lon="11.214278005"><ele>146</ele><time>2020-02-09T08:26:22Z</time></trkpt>
<trkpt lat="43.844150975" lon="11.21427197"><ele>146</ele><time>2020-02-09T08:26:23Z</time></trkpt>
<trkpt lat="43.844124991" lon="11.214267025"><ele>145</ele><time>2020-02-09T08:26:24Z</time></trkpt>
<trkpt lat="43.844100013" lon="11.21426099"><ele>145</ele><time>2020-02-09T08:26:25Z</time></trkpt>
<trkpt lat="43.844075035" lon="11.214254033"><ele>144</ele><time>2020-02-09T08:26:26Z</time></trkpt>
<trkpt lat="43.844049973" lon="11.214246992"><ele>144</ele><time>2020-02-09T08:26:27Z</time></trkpt>
<trkpt lat="43.844024995" lon="11.214239029"><ele>143</ele><time>2020-02-09T08:26:28Z</time></trkpt>
<trkpt lat="43.844000017" lon="11.214229977"><ele>143</ele><time>2020-02-09T08:26:29Z</time></trkpt>
<trkpt lat="43.843975961" lon="11.214221008"><ele>143</ele><time>2020-02-09T08:26:30Z</time></trkpt>
<trkpt lat="43.843951989" lon="11.214212039"><ele>142</ele><time>2020-02-09T08:26:31Z</time></trkpt>
<trkpt lat="43.843929023" lon="11.214202987"><ele>142</ele><time>2020-02-09T08:26:32Z</time></trkpt>
<trkpt lat="43.843861967" lon="11.214179015"><ele>140</ele><time>2020-02-09T08:26:35Z</time></trkpt>
<trkpt lat="43.843841013" lon="11.214171974"><ele>140</ele><time>2020-02-09T08:26:36Z</time></trkpt>
<trkpt lat="43.843819974" lon="11.214166023"><ele>140</ele><time>2020-02-09T08:26:37Z</time></trkpt>
<trkpt lat="43.843800025" lon="11.214160994"><ele>139</ele><time>2020-02-09T08:26:38Z</time></trkpt>
<trkpt lat="43.843779992" lon="11.21415697"><ele>139</ele><time>2020-02-09T08:26:39Z</time></trkpt>
<trkpt lat="43.843759038" lon="11.214154037"><ele>139</ele><time>2020-02-09T08:26:40Z</time></trkpt>
<trkpt lat="43.843739005" lon="11.214151019"><ele>138</ele><time>2020-02-09T08:26:41Z</time></trkpt>
<trkpt lat="43.843717966" lon="11.214150013"><ele>138</ele><time>2020-02-09T08:26:42Z</time></trkpt>
<trkpt lat="43.843697011" lon="11.214150013"><ele>138</ele><time>2020-02-09T08:26:43Z</time></trkpt>
<trkpt lat="43.843674967" lon="11.214151019"><ele>137</ele><time>2020-02-09T08:26:44Z</time></trkpt>
<trkpt lat="43.843652001" lon="11.214154037"><ele>137</ele><time>2020-02-09T08:26:45Z</time></trkpt>
<trkpt lat="43.843627023" lon="11.21415697"><ele>137</ele><time>2020-02-09T08:26:46Z</time></trkpt>
<trkpt lat="43.843601039" lon="11.214163005"><ele>136</ele><time>2020-02-09T08:26:47Z</time></trkpt>
<trkpt lat="43.843573965" lon="11.214170968"><ele>136</ele><time>2020-02-09T08:26:48Z</time></trkpt>
<trkpt lat="43.84354597" lon="11.214182032"><ele>135</ele><time>2020-02-09T08:26:49Z</time></trkpt>
<trkpt lat="43.84351898" lon="11.214197036"><ele>135</ele><time>2020-02-09T08:26:50Z</time></trkpt>
<trkpt lat="43.843494002" lon="11.214216985"><ele>135</ele><time>2020-02-09T08:26:51Z</time></trkpt>
<trkpt lat="43.843472041" lon="11.214242969"><ele>135</ele><time>2020-02-09T08:26:52Z</time></trkpt>
<trkpt lat="43.84345402" lon="11.214272976"><ele>135</ele><time>2020-02-09T08:26:53Z</time></trkpt>
<trkpt lat="43.843439016" lon="11.214307006"><ele>135</ele><time>2020-02-09T08:26:54Z</time></trkpt>
<trkpt lat="43.843426025" lon="11.214343971"><ele>135</ele><time>2020-02-09T08:26:55Z</time></trkpt>
<trkpt lat="43.843414038" lon="11.214384036"><ele>135</ele><time>2020-02-09T08:26:56Z</time></trkpt>
<trkpt lat="43.84340398" lon="11.214424018"><ele>135</ele><time>2020-02-09T08:26:57Z</time></trkpt>
<trkpt lat="43.843395011" lon="11.214462994"><ele>135</ele><time>2020-02-09T08:26:58Z</time></trkpt>
<trkpt lat="43.843385037" lon="11.21450197"><ele>135</ele><time>2020-02-09T08:26:59Z</time></trkpt>
<trkpt lat="43.843375985" lon="11.214539018"><ele>135</ele><time>2020-02-09T08:27:00Z</time></trkpt>
<trkpt lat="43.84336601" lon="11.214574976"><ele>135</ele><time>2020-02-09T08:27:01Z</time></trkpt>
<trkpt lat="43.84335503" lon="11.214609006"><ele>135</ele><time>2020-02-09T08:27:02Z</time></trkpt>
<trkpt lat="43.843342038" lon="11.214643037"><ele>135</ele><time>2020-02-09T08:27:03Z</time></trkpt>
<trkpt lat="43.843326028" lon="11.214676984"><ele>135</ele><time>2020-02-09T08:27:04Z</time></trkpt>
<trkpt lat="43.843308007" lon="11.214710008"><ele>135</ele><time>2020-02-09T08:27:05Z</time></trkpt>
<trkpt lat="43.843287975" lon="11.214741021"><ele>136</ele><time>2020-02-09T08:27:06Z</time></trkpt>
<trkpt lat="43.843265008" lon="11.214768011"><ele>136</ele><time>2020-02-09T08:27:07Z</time></trkpt>
<trkpt lat="43.84324003" lon="11.214789972"><ele>136</ele><time>2020-02-09T08:27:08Z</time></trkpt>
<trkpt lat="43.843212035" lon="11.214807993"><ele>136</ele><time>2020-02-09T08:27:09Z</time></trkpt>
<trkpt lat="43.843183033" lon="11.214820985"><ele>137</ele><time>2020-02-09T08:27:10Z</time></trkpt>
<trkpt lat="43.843153026" lon="11.214830959"><ele>137</ele><time>2020-02-09T08:27:11Z</time></trkpt>
<trkpt lat="43.843122013" lon="11.214839006"><ele>137</ele><time>2020-02-09T08:27:12Z</time></trkpt>
<trkpt lat="43.843026962" lon="11.214849986"><ele>138</ele><time>2020-02-09T08:27:15Z</time></trkpt>
<trkpt lat="43.842996033" lon="11.214851998"><ele>138</ele><time>2020-02-09T08:27:16Z</time></trkpt>
<trkpt lat="43.84296502" lon="11.214853004"><ele>138</ele><time>2020-02-09T08:27:17Z</time></trkpt>
<trkpt lat="43.842935013" lon="11.214851998"><ele>138</ele><time>2020-02-09T08:27:18Z</time></trkpt>
<trkpt lat="43.842904" lon="11.214850992"><ele>138</ele><time>2020-02-09T08:27:19Z</time></trkpt>
<trkpt lat="43.842873992" lon="11.21484898"><ele>138</ele><time>2020-02-09T08:27:20Z</time></trkpt>
<trkpt lat="43.842814984" lon="11.214842023"><ele>139</ele><time>2020-02-09T08:27:22Z</time></trkpt>
<trkpt lat="43.842784977" lon="11.214836994"><ele>139</ele><time>2020-02-09T08:27:23Z</time></trkpt>
<trkpt lat="43.842755975" lon="11.214831965"><ele>139</ele><time>2020-02-09T08:27:24Z</time></trkpt>
<trkpt lat="43.842726974" lon="11.214826014"><ele>139</ele><time>2020-02-09T08:27:25Z</time></trkpt>
<trkpt lat="43.842696967" lon="11.214818973"><ele>139</ele><time>2020-02-09T08:27:26Z</time></trkpt>
<trkpt lat="43.842668971" lon="11.21481101"><ele>139</ele><time>2020-02-09T08:27:27Z</time></trkpt>
<trkpt lat="43.84263997" lon="11.214802042"><ele>139</ele><time>2020-02-09T08:27:28Z</time></trkpt>
<trkpt lat="43.842610968" lon="11.214792989"><ele>139</ele><time>2020-02-09T08:27:29Z</time></trkpt>
<trkpt lat="43.842581967" lon="11.214784021"><ele>139</ele><time>2020-02-09T08:27:30Z</time></trkpt>
<trkpt lat="43.842553971" lon="11.21477304"><ele>138</ele><time>2020-02-09T08:27:31Z</time></trkpt>
<trkpt lat="43.84252497" lon="11.214761976"><ele>138</ele><time>2020-02-09T08:27:32Z</time></trkpt>
<trkpt lat="43.842496974" lon="11.214750996"><ele>138</ele><time>2020-02-09T08:27:33Z</time></trkpt>
<trkpt lat="43.842467973" lon="11.21473901"><ele>138</ele><time>2020-02-09T08:27:34Z</time></trkpt>
<trkpt lat="43.842439977" lon="11.214727024"><ele>138</ele><time>2020-02-09T08:27:35Z</time></trkpt>
<trkpt lat="43.842411982" lon="11.214715037"><ele>138</ele><time>2020-02-09T08:27:36Z</time></trkpt>
<trkpt lat="43.842327995" lon="11.214678995"><ele>137</ele><time>2020-02-09T08:27:39Z</time></trkpt>
<trkpt lat="43.8423" lon="11.214668015"><ele>137</ele><time>2020-02-09T08:27:40Z</time></trkpt>
<trkpt lat="43.842272004" lon="11.214656029"><ele>137</ele><time>2020-02-09T08:27:41Z</time></trkpt>
<trkpt lat="43.842245014" lon="11.214644965"><ele>137</ele><time>2020-02-09T08:27:42Z</time></trkpt>
<trkpt lat="43.842218025" lon="11.21463499"><ele>137</ele><time>2020-02-09T08:27:43Z</time></trkpt>
<trkpt lat="43.842190029" lon="11.214625016"><ele>136</ele><time>2020-02-09T08:27:44Z</time></trkpt>
<trkpt lat="43.842163039" lon="11.214615963"><ele>136</ele><time>2020-02-09T08:27:45Z</time></trkpt>
<trkpt lat="43.842135966" lon="11.214608001"><ele>136</ele><time>2020-02-09T08:27:46Z</time></trkpt>
<trkpt lat="43.842109982" lon="11.21460096"><ele>136</ele><time>2020-02-09T08:27:47Z</time></trkpt>
<trkpt lat="43.842082992" lon="11.214594003"><ele>136</ele><time>2020-02-09T08:27:48Z</time></trkpt>
<trkpt lat="43.842056002" lon="11.214588974"><ele>136</ele><time>2020-02-09T08:27:49Z</time></trkpt>
<trkpt lat="43.842030019" lon="11.214584028"><ele>136</ele><time>2020-02-09T08:27:50Z</time></trkpt>
<trkpt lat="43.842003029" lon="11.214580005"><ele>136</ele><time>2020-02-09T08:27:51Z</time></trkpt>
<trkpt lat="43.841976039" lon="11.214576988"><ele>136</ele><time>2020-02-09T08:27:52Z</time></trkpt>
<trkpt lat="43.841948966" lon="11.21457397"><ele>136</ele><time>2020-02-09T08:27:53Z</time></trkpt>
<trkpt lat="43.841865985" lon="11.214569025"><ele>136</ele><time>2020-02-09T08:27:56Z</time></trkpt>
<trkpt lat="43.841836983" lon="11.214568019"><ele>136</ele><time>2020-02-09T08:27:57Z</time></trkpt>
<trkpt lat="43.841807982" lon="11.214568019"><ele>136</ele><time>2020-02-09T08:27:58Z</time></trkpt>
<trkpt lat="43.841778981" lon="11.214568019"><ele>136</ele><time>2020-02-09T08:27:59Z</time></trkpt>
<trkpt lat="43.841747968" lon="11.214568019"><ele>136</ele><time>2020-02-09T08:28:00Z</time></trkpt>
<trkpt lat="43.841717038" lon="11.214569025"><ele>136</ele><time>2020-02-09T08:28:01Z</time></trkpt>
<trkpt lat="43.841685019" lon="11.214569025"><ele>136</ele><time>2020-02-09T08:28:02Z</time></trkpt>
<trkpt lat="43.841653001" lon="11.214570031"><ele>136</ele><time>2020-02-09T08:28:03Z</time></trkpt>
<trkpt lat="43.841619976" lon="11.214569025"><ele>136</ele><time>2020-02-09T08:28:04Z</time></trkpt>
<trkpt lat="43.841587035" lon="11.214566007"><ele>136</ele><time>2020-02-09T08:28:05Z</time></trkpt>
<trkpt lat="43.841553004" lon="11.214558966"><ele>135</ele><time>2020-02-09T08:28:06Z</time></trkpt>
<trkpt lat="43.841520986" lon="11.214545975"><ele>135</ele><time>2020-02-09T08:28:07Z</time></trkpt>
<trkpt lat="43.841487961" lon="11.214530971"><ele>134</ele><time>2020-02-09T08:28:08Z</time></trkpt>
<trkpt lat="43.841456026" lon="11.214514039"><ele>133</ele><time>2020-02-09T08:28:09Z</time></trkpt>
<trkpt lat="43.841425013" lon="11.214497024"><ele>133</ele><time>2020-02-09T08:28:10Z</time></trkpt>
<trkpt lat="43.841394" lon="11.214482021"><ele>132</ele><time>2020-02-09T08:28:11Z</time></trkpt>
<trkpt lat="43.841362987" lon="11.214469029"><ele>132</ele><time>2020-02-09T08:28:12Z</time></trkpt>
<trkpt lat="43.841331974" lon="11.214457965"><ele>131</ele><time>2020-02-09T08:28:13Z</time></trkpt>
<trkpt lat="43.841300961" lon="11.214448996"><ele>131</ele><time>2020-02-09T08:28:14Z</time></trkpt>
<trkpt lat="43.841270031" lon="11.214441033"><ele>131</ele><time>2020-02-09T08:28:15Z</time></trkpt>
<trkpt lat="43.841240024" lon="11.214433992"><ele>130</ele><time>2020-02-09T08:28:16Z</time></trkpt>
<trkpt lat="43.841209011" lon="11.214428041"><ele>130</ele><time>2020-02-09T08:28:17Z</time></trkpt>
<trkpt lat="43.841177998" lon="11.214424018"><ele>130</ele><time>2020-02-09T08:28:18Z</time></trkpt>
<trkpt lat="43.841146985" lon="11.214419995"><ele>129</ele><time>2020-02-09T08:28:19Z</time></trkpt>
<trkpt lat="43.841115972" lon="11.214417983"><ele>129</ele><time>2020-02-09T08:28:20Z</time></trkpt>
<trkpt lat="43.841084959" lon="11.214417983"><ele>129</ele><time>2020-02-09T08:28:21Z</time></trkpt>
<trkpt lat="43.84105403" lon="11.214418989"><ele>129</ele><time>2020-02-09T08:28:22Z</time></trkpt>
<trkpt lat="43.841023017" lon="11.214423012"><ele>129</ele><time>2020-02-09T08:28:23Z</time></trkpt>
<trkpt lat="43.840992004" lon="11.214429969"><ele>128</ele><time>2020-02-09T08:28:24Z</time></trkpt>
<trkpt lat="43.840961996" lon="11.214439021"><ele>128</ele><time>2020-02-09T08:28:25Z</time></trkpt>
<trkpt lat="43.840931989" lon="11.214450002"><ele>129</ele><time>2020-02-09T08:28:26Z</time></trkpt>
<trkpt lat="43.840901982" lon="11.214465005"><ele>129</ele><time>2020-02-09T08:28:27Z</time></trkpt>
<trkpt lat="43.840871975" lon="11.214482021"><ele>129</ele><time>2020-02-09T08:28:28Z</time></trkpt>
<trkpt lat="43.840841968" lon="11.214500042"><ele>129</ele><time>2020-02-09T08:28:29Z</time></trkpt>
<trkpt lat="43.840812966" lon="11.214519991"><ele>129</ele><time>2020-02-09T08:28:30Z</time></trkpt>
<trkpt lat="43.840783965" lon="11.214540023"><ele>129</ele><time>2020-02-09T08:28:31Z</time></trkpt>
<trkpt lat="43.840754041" lon="11.214561984"><ele>129</ele><time>2020-02-09T08:28:32Z</time></trkpt>
<trkpt lat="43.84072504" lon="11.214583023"><ele>129</ele><time>2020-02-09T08:28:33Z</time></trkpt>
<trkpt lat="43.840696039" lon="11.214603977"><ele>129</ele><time>2020-02-09T08:28:34Z</time></trkpt>
<trkpt lat="43.840667037" lon="11.21462401"><ele>129</ele><time>2020-02-09T08:28:35Z</time></trkpt>
<trkpt lat="43.840638036" lon="11.214643959"><ele>129</ele><time>2020-02-09T08:28:36Z</time></trkpt>
<trkpt lat="43.840609035" lon="11.214663992"><ele>128</ele><time>2020-02-09T08:28:37Z</time></trkpt>
<trkpt lat="43.840580033" lon="11.214684024"><ele>128</ele><time>2020-02-09T08:28:38Z</time></trkpt>
<trkpt lat="43.840551032" lon="11.214703973"><ele>128</ele><time>2020-02-09T08:28:39Z</time></trkpt>
<trkpt lat="43.84052203" lon="11.214723"><ele>128</ele><time>2020-02-09T08:28:40Z</time></trkpt>
<trkpt lat="43.840493029" lon="11.214743033"><ele>128</ele><time>2020-02-09T08:28:41Z</time></trkpt>
<trkpt lat="43.840464028" lon="11.214761976"><ele>128</ele><time>2020-02-09T08:28:42Z</time></trkpt>
<trkpt lat="43.840406025" lon="11.214801036"><ele>127</ele><time>2020-02-09T08:28:44Z</time></trkpt>
<trkpt lat="43.840377023" lon="11.214819979"><ele>127</ele><time>2020-02-09T08:28:45Z</time></trkpt>
<trkpt lat="43.840348022" lon="11.214840012"><ele>127</ele><time>2020-02-09T08:28:46Z</time></trkpt>
<trkpt lat="43.840319021" lon="11.214859961"><ele>126</ele><time>2020-02-09T08:28:47Z</time></trkpt>
<trkpt lat="43.840291025" lon="11.214879993"><ele>126</ele><time>2020-02-09T08:28:48Z</time></trkpt>
<trkpt lat="43.840262024" lon="11.214901032"><ele>126</ele><time>2020-02-09T08:28:49Z</time></trkpt>
<trkpt lat="43.840233022" lon="11.214920981"><ele>126</ele><time>2020-02-09T08:28:50Z</time></trkpt>
<trkpt lat="43.840204021" lon="11.214942019"><ele>125</ele><time>2020-02-09T08:28:51Z</time></trkpt>
<trkpt lat="43.84017502" lon="11.214962974"><ele>125</ele><time>2020-02-09T08:28:52Z</time></trkpt>
<trkpt lat="43.840146018" lon="11.214984013"><ele>125</ele><time>2020-02-09T08:28:53Z</time></trkpt>
<trkpt lat="43.840117017" lon="11.215005973"><ele>125</ele><time>2020-02-09T08:28:54Z</time></trkpt>
<trkpt lat="43.840089021" lon="11.215027012"><ele>124</ele><time>2020-02-09T08:28:55Z</time></trkpt>
<trkpt lat="43.84006002" lon="11.215047967"><ele>124</ele><time>2020-02-09T08:28:56Z</time></trkpt>
<trkpt lat="43.840032024" lon="11.215070011"><ele>124</ele><time>2020-02-09T08:28:57Z</time></trkpt>
<trkpt lat="43.840004029" lon="11.215090966"><ele>124</ele><time>2020-02-09T08:28:58Z</time></trkpt>
<trkpt lat="43.839975027" lon="11.215112004"><ele>124</ele><time>2020-02-09T08:28:59Z</time></trkpt>
<trkpt lat="43.839947032" lon="11.215132959"><ele>124</ele><time>2020-02-09T08:29:00Z</time></trkpt>
<trkpt lat="43.839919958" lon="11.215153998"><ele>124</ele><time>2020-02-09T08:29:01Z</time></trkpt>
<trkpt lat="43.839891963" lon="11.215174031"><ele>124</ele><time>2020-02-09T08:29:02Z</time></trkpt>
<trkpt lat="43.839864973" lon="11.215194985"><ele>124</ele><time>2020-02-09T08:29:03Z</time></trkpt>
<trkpt lat="43.839836977" lon="11.215214012"><ele>124</ele><time>2020-02-09T08:29:04Z</time></trkpt>
<trkpt lat="43.839809988" lon="11.215233961"><ele>124</ele><time>2020-02-09T08:29:05Z</time></trkpt>
<trkpt lat="43.839784004" lon="11.215252988"><ele>124</ele><time>2020-02-09T08:29:06Z</time></trkpt>
<trkpt lat="43.839757014" lon="11.215271009"><ele>125</ele><time>2020-02-09T08:29:07Z</time></trkpt>
<trkpt lat="43.83973103" lon="11.215288024"><ele>125</ele><time>2020-02-09T08:29:08Z</time></trkpt>
<trkpt lat="43.839705968" lon="11.215303028"><ele>125</ele><time>2020-02-09T08:29:09Z</time></trkpt>
<trkpt lat="43.839679984" lon="11.215317026"><ele>125</ele><time>2020-02-09T08:29:10Z</time></trkpt>
<trkpt lat="43.839656012" lon="11.215328006"><ele>124</ele><time>2020-02-09T08:29:11Z</time></trkpt>
<trkpt lat="43.83963204" lon="11.215336975"><ele>124</ele><time>2020-02-09T08:29:12Z</time></trkpt>
<trkpt lat="43.839607984" lon="11.215344016"><ele>124</ele><time>2020-02-09T08:29:13Z</time></trkpt>
<trkpt lat="43.839584012" lon="11.215348961"><ele>124</ele><time>2020-02-09T08:29:14Z</time></trkpt>
<trkpt lat="43.839560961" lon="11.215352984"><ele>124</ele><time>2020-02-09T08:29:15Z</time></trkpt>
<trkpt lat="43.839535983" lon="11.215357007"><ele>124</ele><time>2020-02-09T08:29:16Z</time></trkpt>
<trkpt lat="43.839511005" lon="11.215361031"><ele>123</ele><time>2020-02-09T08:29:17Z</time></trkpt>
<trkpt lat="43.839484015" lon="11.215366982"><ele>123</ele><time>2020-02-09T08:29:18Z</time></trkpt>
<trkpt lat="43.839455014" lon="11.215375029"><ele>123</ele><time>2020-02-09T08:29:19Z</time></trkpt>
<trkpt lat="43.839424001" lon="11.215386009"><ele>123</ele><time>2020-02-09T08:29:20Z</time></trkpt>
<trkpt lat="43.839338003" lon="11.215422973"><ele>123</ele><time>2020-02-09T08:29:23Z</time></trkpt>
<trkpt lat="43.839316964" lon="11.215433031"><ele>123</ele><time>2020-02-09T08:29:24Z</time></trkpt>
<trkpt lat="43.839300033" lon="11.215443006"><ele>123</ele><time>2020-02-09T08:29:25Z</time></trkpt>
<trkpt lat="43.839286035" lon="11.215455998"><ele>123</ele><time>2020-02-09T08:29:26Z</time></trkpt>
<trkpt lat="43.839274971" lon="11.21547603"><ele>123</ele><time>2020-02-09T08:29:27Z</time></trkpt>
<trkpt lat="43.839266002" lon="11.215502014"><ele>123</ele><time>2020-02-09T08:29:28Z</time></trkpt>
<trkpt lat="43.839257034" lon="11.215535039"><ele>124</ele><time>2020-02-09T08:29:29Z</time></trkpt>
<trkpt lat="43.839247981" lon="11.215569992"><ele>124</ele><time>2020-02-09T08:29:30Z</time></trkpt>
<trkpt lat="43.839238007" lon="11.215604022"><ele>125</ele><time>2020-02-09T08:29:31Z</time></trkpt>
<trkpt lat="43.839227026" lon="11.215636041"><ele>125</ele><time>2020-02-09T08:29:32Z</time></trkpt>
<trkpt lat="43.839213029" lon="11.215664037"><ele>126</ele><time>2020-02-09T08:29:33Z</time></trkpt>
<trkpt lat="43.839198025" lon="11.215688009"><ele>126</ele><time>2020-02-09T08:29:34Z</time></trkpt>
<trkpt lat="43.839177992" lon="11.215707036"><ele>126</ele><time>2020-02-09T08:29:35Z</time></trkpt>
<trkpt lat="43.839156032" lon="11.215721034"><ele>126</ele><time>2020-02-09T08:29:36Z</time></trkpt>
<trkpt lat="43.83913097" lon="11.21573302"><ele>126</ele><time>2020-02-09T08:29:37Z</time></trkpt>
<trkpt lat="43.839104986" lon="11.215746012"><ele>125</ele><time>2020-02-09T08:29:38Z</time></trkpt>
<trkpt lat="43.839080008" lon="11.215761015"><ele>125</ele><time>2020-02-09T08:29:39Z</time></trkpt>
<trkpt lat="43.839056036" lon="11.215780964"><ele>125</ele><time>2020-02-09T08:29:40Z</time></trkpt>
<trkpt lat="43.839033991" lon="11.215806026"><ele>125</ele><time>2020-02-09T08:29:41Z</time></trkpt>
<trkpt lat="43.839013036" lon="11.215834022"><ele>125</ele><time>2020-02-09T08:29:42Z</time></trkpt>
<trkpt lat="43.838990992" lon="11.215865035"><ele>125</ele><time>2020-02-09T08:29:43Z</time></trkpt>
<trkpt lat="43.838969031" lon="11.215898981"><ele>125</ele><time>2020-02-09T08:29:44Z</time></trkpt>
<trkpt lat="43.838946987" lon="11.215932006"><ele>125</ele><time>2020-02-09T08:29:45Z</time></trkpt>
<trkpt lat="43.838926032" lon="11.215965031"><ele>125</ele><time>2020-02-09T08:29:46Z</time></trkpt>
<trkpt lat="43.838905999" lon="11.21599596"><ele>125</ele><time>2020-02-09T08:29:47Z</time></trkpt>
<trkpt lat="43.838886973" lon="11.216023033"><ele>125</ele><time>2020-02-09T08:29:48Z</time></trkpt>
<trkpt lat="43.838837016" lon="11.216094028"><ele>125</ele><time>2020-02-09T08:29:51Z</time></trkpt>
<trkpt lat="43.838820001" lon="11.216119006"><ele>124</ele><time>2020-02-09T08:29:52Z</time></trkpt>
<trkpt lat="43.838802986" lon="11.21614499"><ele>124</ele><time>2020-02-09T08:29:53Z</time></trkpt>
<trkpt lat="43.838785971" lon="11.216170974"><ele>124</ele><time>2020-02-09T08:29:54Z</time></trkpt>
<trkpt lat="43.838768033" lon="11.21619897"><ele>124</ele><time>2020-02-09T08:29:55Z</time></trkpt>
<trkpt lat="43.838750012" lon="11.216227971"><ele>124</ele><time>2020-02-09T08:29:56Z</time></trkpt>
<trkpt lat="43.838731991" lon="11.216257978"><ele>124</ele><time>2020-02-09T08:29:57Z</time></trkpt>
<trkpt lat="43.838712964" lon="11.216287985"><ele>124</ele><time>2020-02-09T08:29:58Z</time></trkpt>
<trkpt lat="43.838695027" lon="11.216318998"><ele>124</ele><time>2020-02-09T08:29:59Z</time></trkpt>
<trkpt lat="43.838676" lon="11.216351017"><ele>124</ele><time>2020-02-09T08:30:00Z</time></trkpt>
<trkpt lat="43.838656973" lon="11.216383036"><ele>124</ele><time>2020-02-09T08:30:01Z</time></trkpt>
<trkpt lat="43.838639036" lon="11.216415977"><ele>124</ele><time>2020-02-09T08:30:02Z</time></trkpt>
<trkpt lat="43.838620009" lon="11.216447996"><ele>124</ele><time>2020-02-09T08:30:03Z</time></trkpt>
<trkpt lat="43.838600982" lon="11.216481021"><ele>124</ele><time>2020-02-09T08:30:04Z</time></trkpt>
<trkpt lat="43.838582961" lon="11.216513962"><ele>124</ele><time>2020-02-09T08:30:05Z</time></trkpt>
<trkpt lat="43.838565024" lon="11.216546986"><ele>124</ele><time>2020-02-09T08:30:06Z</time></trkpt>
<trkpt lat="43.838547003" lon="11.216580011"><ele>125</ele><time>2020-02-09T08:30:07Z</time></trkpt>
<trkpt lat="43.838529987" lon="11.216613036"><ele>125</ele><time>2020-02-09T08:30:08Z</time></trkpt>
<trkpt lat="43.838511966" lon="11.216644971"><ele>125</ele><time>2020-02-09T08:30:09Z</time></trkpt>
<trkpt lat="43.838495035" lon="11.21667699"><ele>125</ele><time>2020-02-09T08:30:10Z</time></trkpt>
<trkpt lat="43.838478019" lon="11.216709008"><ele>125</ele><time>2020-02-09T08:30:11Z</time></trkpt>
<trkpt lat="43.838461004" lon="11.216741027"><ele>125</ele><time>2020-02-09T08:30:12Z</time></trkpt>
<trkpt lat="43.838442983" lon="11.21677204"><ele>125</ele><time>2020-02-09T08:30:13Z</time></trkpt>
<trkpt lat="43.838425968" lon="11.21680297"><ele>125</ele><time>2020-02-09T08:30:14Z</time></trkpt>
<trkpt lat="43.838408031" lon="11.216833983"><ele>126</ele><time>2020-02-09T08:30:15Z</time></trkpt>
<trkpt lat="43.838390009" lon="11.21686399"><ele>126</ele><time>2020-02-09T08:30:16Z</time></trkpt>
<trkpt lat="43.838370983" lon="11.216893997"><ele>126</ele><time>2020-02-09T08:30:17Z</time></trkpt>
<trkpt lat="43.838352039" lon="11.216922998"><ele>126</ele><time>2020-02-09T08:30:18Z</time></trkpt>
<trkpt lat="43.838332007" lon="11.216952"><ele>126</ele><time>2020-02-09T08:30:19Z</time></trkpt>
<trkpt lat="43.838310968" lon="11.216979995"><ele>126</ele><time>2020-02-09T08:30:20Z</time></trkpt>
<trkpt lat="43.838290013" lon="11.217007991"><ele>126</ele><time>2020-02-09T08:30:21Z</time></trkpt>
<trkpt lat="43.838267969" lon="11.217035986"><ele>126</ele><time>2020-02-09T08:30:22Z</time></trkpt>
<trkpt lat="43.838243997" lon="11.217062976"><ele>126</ele><time>2020-02-09T08:30:23Z</time></trkpt>
<trkpt lat="43.838220024" lon="11.21708896"><ele>126</ele><time>2020-02-09T08:30:24Z</time></trkpt>
<trkpt lat="43.838194963" lon="11.217115028"><ele>127</ele><time>2020-02-09T08:30:25Z</time></trkpt>
<trkpt lat="43.838169985" lon="11.217140006"><ele>127</ele><time>2020-02-09T08:30:26Z</time></trkpt>
<trkpt lat="43.838144001" lon="11.217163978"><ele>126</ele><time>2020-02-09T08:30:27Z</time></trkpt>
<trkpt lat="43.838118017" lon="11.217188034"><ele>126</ele><time>2020-02-09T08:30:28Z</time></trkpt>
<trkpt lat="43.838092033" lon="11.217209995"><ele>126</ele><time>2020-02-09T08:30:29Z</time></trkpt>
<trkpt lat="43.838065965" lon="11.217232039"><ele>126</ele><time>2020-02-09T08:30:30Z</time></trkpt>
<trkpt lat="43.838039981" lon="11.217251988"><ele>126</ele><time>2020-02-09T08:30:31Z</time></trkpt>
<trkpt lat="43.838013997" lon="11.217272021"><ele>126</ele><time>2020-02-09T08:30:32Z</time></trkpt>
<trkpt lat="43.837988013" lon="11.217290964"><ele>126</ele><time>2020-02-09T08:30:33Z</time></trkpt>
<trkpt lat="43.837963035" lon="11.217308985"><ele>126</ele><time>2020-02-09T08:30:34Z</time></trkpt>
<trkpt lat="43.837938979" lon="11.217328012"><ele>126</ele><time>2020-02-09T08:30:35Z</time></trkpt>
<trkpt lat="43.837916013" lon="11.217346033"><ele>126</ele><time>2020-02-09T08:30:36Z</time></trkpt>
<trkpt lat="43.837893968" lon="11.217364976"><ele>126</ele><time>2020-02-09T08:30:37Z</time></trkpt>
<trkpt lat="43.83787402" lon="11.217385009"><ele>126</ele><time>2020-02-09T08:30:38Z</time></trkpt>
<trkpt lat="43.837854993" lon="11.217405042"><ele>126</ele><time>2020-02-09T08:30:39Z</time></trkpt>
<trkpt lat="43.837836972" lon="11.217425996"><ele>126</ele><time>2020-02-09T08:30:40Z</time></trkpt>
<trkpt lat="43.837820962" lon="11.217447035"><ele>126</ele><time>2020-02-09T08:30:41Z</time></trkpt>
<trkpt lat="43.837805958" lon="11.21746799"><ele>126</ele><time>2020-02-09T08:30:42Z</time></trkpt>
<trkpt lat="43.837792967" lon="11.217490034"><ele>126</ele><time>2020-02-09T08:30:43Z</time></trkpt>
<trkpt lat="43.83778098" lon="11.217510989"><ele>126</ele><time>2020-02-09T08:30:44Z</time></trkpt>
<trkpt lat="43.83777" lon="11.217533033"><ele>126</ele><time>2020-02-09T08:30:45Z</time></trkpt>
<trkpt lat="43.837761031" lon="11.217552982"><ele>126</ele><time>2020-02-09T08:30:46Z</time></trkpt>
<trkpt lat="43.837751979" lon="11.217573015"><ele>127</ele><time>2020-02-09T08:30:47Z</time></trkpt>
<trkpt lat="43.837745022" lon="11.217591958"><ele>127</ele><time>2020-02-09T08:30:48Z</time></trkpt>
<trkpt lat="43.837736975" lon="11.217610985"><ele>127</ele><time>2020-02-09T08:30:49Z</time></trkpt>
<trkpt lat="43.837729013" lon="11.217629006"><ele>127</ele><time>2020-02-09T08:30:50Z</time></trkpt>
<trkpt lat="43.837720966" lon="11.217647027"><ele>127</ele><time>2020-02-09T08:30:51Z</time></trkpt>
<trkpt lat="43.837710992" lon="11.217663959"><ele>127</ele><time>2020-02-09T08:30:52Z</time></trkpt>
<trkpt lat="43.837700011" lon="11.217680974"><ele>127</ele><time>2020-02-09T08:30:53Z</time></trkpt>
<trkpt lat="43.837688025" lon="11.217697989"><ele>127</ele><time>2020-02-09T08:30:54Z</time></trkpt>
<trkpt lat="43.837675033" lon="11.21771601"><ele>127</ele><time>2020-02-09T08:30:55Z</time></trkpt>
<trkpt lat="43.837663969" lon="11.217735959"><ele>127</ele><time>2020-02-09T08:30:56Z</time></trkpt>
<trkpt lat="43.837656006" lon="11.217761021"><ele>127</ele><time>2020-02-09T08:30:57Z</time></trkpt>
<trkpt lat="43.837652989" lon="11.217790022"><ele>127</ele><time>2020-02-09T08:30:58Z</time></trkpt>
<trkpt lat="43.837655" lon="11.217823969"><ele>128</ele><time>2020-02-09T08:30:59Z</time></trkpt>
<trkpt lat="43.837659024" lon="11.217858"><ele>128</ele><time>2020-02-09T08:31:00Z</time></trkpt>
<trkpt lat="43.837664975" lon="11.21789203"><ele>129</ele><time>2020-02-09T08:31:01Z</time></trkpt>
<trkpt lat="43.83767101" lon="11.217922037"><ele>129</ele><time>2020-02-09T08:31:02Z</time></trkpt>
<trkpt lat="43.837676961" lon="11.217951039"><ele>130</ele><time>2020-02-09T08:31:03Z</time></trkpt>
<trkpt lat="43.83768199" lon="11.217977023"><ele>130</ele><time>2020-02-09T08:31:04Z</time></trkpt>
<trkpt lat="43.837685008" lon="11.218003007"><ele>130</ele><time>2020-02-09T08:31:05Z</time></trkpt>
<trkpt lat="43.837685008" lon="11.218027985"><ele>131</ele><time>2020-02-09T08:31:06Z</time></trkpt>
<trkpt lat="43.837682996" lon="11.218101997"><ele>131</ele><time>2020-02-09T08:31:09Z</time></trkpt>
<trkpt lat="43.837684002" lon="11.218125969"><ele>132</ele><time>2020-02-09T08:31:10Z</time></trkpt>
<trkpt lat="43.837686013" lon="11.218149019"><ele>132</ele><time>2020-02-09T08:31:11Z</time></trkpt>
<trkpt lat="43.837690037" lon="11.21817098"><ele>132</ele><time>2020-02-09T08:31:12Z</time></trkpt>
<trkpt lat="43.837693976" lon="11.218193024"><ele>133</ele><time>2020-02-09T08:31:13Z</time></trkpt>
<trkpt lat="43.837700011" lon="11.218214985"><ele>133</ele><time>2020-02-09T08:31:14Z</time></trkpt>
<trkpt lat="43.837705962" lon="11.218236024"><ele>134</ele><time>2020-02-09T08:31:15Z</time></trkpt>
<trkpt lat="43.837714009" lon="11.218256978"><ele>134</ele><time>2020-02-09T08:31:16Z</time></trkpt>
<trkpt lat="43.837721972" lon="11.218277011"><ele>135</ele><time>2020-02-09T08:31:17Z</time></trkpt>
<trkpt lat="43.837731024" lon="11.218297966"><ele>135</ele><time>2020-02-09T08:31:18Z</time></trkpt>
<trkpt lat="43.837739993" lon="11.218317999"><ele>135</ele><time>2020-02-09T08:31:19Z</time></trkpt>
<trkpt lat="43.837749967" lon="11.218339037"><ele>136</ele><time>2020-02-09T08:31:20Z</time></trkpt>
<trkpt lat="43.837760026" lon="11.218358986"><ele>136</ele><time>2020-02-09T08:31:21Z</time></trkpt>
<trkpt lat="43.83777" lon="11.218380025"><ele>137</ele><time>2020-02-09T08:31:22Z</time></trkpt>
<trkpt lat="43.83778098" lon="11.218400979"><ele>137</ele><time>2020-02-09T08:31:23Z</time></trkpt>
<trkpt lat="43.837791039" lon="11.218422018"><ele>137</ele><time>2020-02-09T08:31:24Z</time></trkpt>
<trkpt lat="43.837801013" lon="11.218442973"><ele>138</ele><time>2020-02-09T08:31:25Z</time></trkpt>
<trkpt lat="43.837811993" lon="11.218462"><ele>138</ele><time>2020-02-09T08:31:26Z</time></trkpt>
<trkpt lat="43.837822974" lon="11.218477003"><ele>138</ele><time>2020-02-09T08:31:27Z</time></trkpt>
<trkpt lat="43.837835966" lon="11.218484966"><ele>139</ele><time>2020-02-09T08:31:28Z</time></trkpt>
<trkpt lat="43.837850969" lon="11.218485972"><ele>139</ele><time>2020-02-09T08:31:29Z</time></trkpt>
<trkpt lat="43.837866979" lon="11.218480021"><ele>139</ele><time>2020-02-09T08:31:30Z</time></trkpt>
<trkpt lat="43.837896986" lon="11.218454037"><ele>140</ele><time>2020-02-09T08:31:32Z</time></trkpt>
<trkpt lat="43.837908972" lon="11.218437022"><ele>141</ele><time>2020-02-09T08:31:33Z</time></trkpt>
<trkpt lat="43.83791903" lon="11.218417995"><ele>141</ele><time>2020-02-09T08:31:34Z</time></trkpt>
<trkpt lat="43.837927999" lon="11.218397962"><ele>141</ele><time>2020-02-09T08:31:35Z</time></trkpt>
<trkpt lat="43.837936968" lon="11.218377007"><ele>141</ele><time>2020-02-09T08:31:36Z</time></trkpt>
<trkpt lat="43.837947026" lon="11.218354963"><ele>141</ele><time>2020-02-09T08:31:37Z</time></trkpt>
<trkpt lat="43.837958006" lon="11.218334008"><ele>142</ele><time>2020-02-09T08:31:38Z</time></trkpt>
<trkpt lat="43.837969992" lon="11.218313975"><ele>142</ele><time>2020-02-09T08:31:39Z</time></trkpt>
<trkpt lat="43.837984996" lon="11.218296038"><ele>142</ele><time>2020-02-09T08:31:40Z</time></trkpt>
<trkpt lat="43.838001005" lon="11.218282962"><ele>142</ele><time>2020-02-09T08:31:41Z</time></trkpt>
<trkpt lat="43.838019026" lon="11.218271982"><ele>142</ele><time>2020-02-09T08:31:42Z</time></trkpt>
<trkpt lat="43.83803797" lon="11.218265025"><ele>143</ele><time>2020-02-09T08:31:43Z</time></trkpt>
<trkpt lat="43.838056996" lon="11.218261002"><ele>143</ele><time>2020-02-09T08:31:44Z</time></trkpt>
<trkpt lat="43.838076023" lon="11.21825899"><ele>144</ele><time>2020-02-09T08:31:45Z</time></trkpt>
<trkpt lat="43.838093039" lon="11.218261002"><ele>144</ele><time>2020-02-09T08:31:46Z</time></trkpt>
<trkpt lat="43.838107958" lon="11.218264019"><ele>145</ele><time>2020-02-09T08:31:47Z</time></trkpt>
<trkpt lat="43.838120028" lon="11.21826997"><ele>145</ele><time>2020-02-09T08:31:48Z</time></trkpt>
<trkpt lat="43.838128997" lon="11.218279023"><ele>145</ele><time>2020-02-09T08:31:49Z</time></trkpt>
<trkpt lat="43.838134026" lon="11.218288997"><ele>146</ele><time>2020-02-09T08:31:50Z</time></trkpt>
<trkpt lat="43.83813696" lon="11.218300983"><ele>146</ele><time>2020-02-09T08:31:51Z</time></trkpt>
<trkpt lat="43.83813696" lon="11.218313975"><ele>146</ele><time>2020-02-09T08:31:52Z</time></trkpt>
<trkpt lat="43.838135032" lon="11.218345994"><ele>147</ele><time>2020-02-09T08:31:54Z</time></trkpt>
<trkpt lat="43.83813302" lon="11.218363009"><ele>147</ele><time>2020-02-09T08:31:55Z</time></trkpt>
<trkpt lat="43.838131009" lon="11.218382036"><ele>147</ele><time>2020-02-09T08:31:56Z</time></trkpt>
<trkpt lat="43.838130003" lon="11.218401985"><ele>147</ele><time>2020-02-09T08:31:57Z</time></trkpt>
<trkpt lat="43.838130003" lon="11.218423024"><ele>147</ele><time>2020-02-09T08:31:58Z</time></trkpt>
<trkpt lat="43.838130003" lon="11.218444984"><ele>147</ele><time>2020-02-09T08:31:59Z</time></trkpt>
<trkpt lat="43.838131009" lon="11.218467029"><ele>147</ele><time>2020-02-09T08:32:00Z</time></trkpt>
<trkpt lat="43.838132014" lon="11.218491001"><ele>147</ele><time>2020-02-09T08:32:01Z</time></trkpt>
<trkpt lat="43.838134026" lon="11.218514973"><ele>147</ele><time>2020-02-09T08:32:02Z</time></trkpt>
<trkpt lat="43.83813696" lon="11.218540035"><ele>147</ele><time>2020-02-09T08:32:03Z</time></trkpt>
<trkpt lat="43.838139977" lon="11.218566019"><ele>147</ele><time>2020-02-09T08:32:04Z</time></trkpt>
<trkpt lat="43.838142995" lon="11.218592003"><ele>148</ele><time>2020-02-09T08:32:05Z</time></trkpt>
<trkpt lat="43.838147018" lon="11.218618993"><ele>148</ele><time>2020-02-09T08:32:06Z</time></trkpt>
<trkpt lat="43.838151041" lon="11.218646988"><ele>148</ele><time>2020-02-09T08:32:07Z</time></trkpt>
<trkpt lat="43.838155987" lon="11.218674984"><ele>148</ele><time>2020-02-09T08:32:08Z</time></trkpt>
<trkpt lat="43.838161016" lon="11.218703985"><ele>148</ele><time>2020-02-09T08:32:09Z</time></trkpt>
<trkpt lat="43.838165961" lon="11.218732987"><ele>149</ele><time>2020-02-09T08:32:10Z</time></trkpt>
<trkpt lat="43.83817099" lon="11.218762994"><ele>149</ele><time>2020-02-09T08:32:11Z</time></trkpt>
<trkpt lat="43.838176019" lon="11.218793001"><ele>149</ele><time>2020-02-09T08:32:12Z</time></trkpt>
<trkpt lat="43.838181971" lon="11.218823008"><ele>149</ele><time>2020-02-09T08:32:13Z</time></trkpt>
<trkpt lat="43.838187" lon="11.218854021"><ele>150</ele><time>2020-02-09T08:32:14Z</time></trkpt>
<trkpt lat="43.838193035" lon="11.218885034"><ele>150</ele><time>2020-02-09T08:32:15Z</time></trkpt>
<trkpt lat="43.838198986" lon="11.218915964"><ele>150</ele><time>2020-02-09T08:32:16Z</time></trkpt>
<trkpt lat="43.838205021" lon="11.218946977"><ele>150</ele><time>2020-02-09T08:32:17Z</time></trkpt>
<trkpt lat="43.838209966" lon="11.21897799"><ele>151</ele><time>2020-02-09T08:32:18Z</time></trkpt>
<trkpt lat="43.838216001" lon="11.219009003"><ele>151</ele><time>2020-02-09T08:32:19Z</time></trkpt>
<trkpt lat="43.838222036" lon="11.219040016"><ele>151</ele><time>2020-02-09T08:32:20Z</time></trkpt>
<trkpt lat="43.838228993" lon="11.219071029"><ele>151</ele><time>2020-02-09T08:32:21Z</time></trkpt>
<trkpt lat="43.838235028" lon="11.219102042"><ele>152</ele><time>2020-02-09T08:32:22Z</time></trkpt>
<trkpt lat="43.838240979" lon="11.219131965"><ele>152</ele><time>2020-02-09T08:32:23Z</time></trkpt>
<trkpt lat="43.838247014" lon="11.219161972"><ele>152</ele><time>2020-02-09T08:32:24Z</time></trkpt>
<trkpt lat="43.838252965" lon="11.219190974"><ele>152</ele><time>2020-02-09T08:32:25Z</time></trkpt>
<trkpt lat="43.838271992" lon="11.219276972"><ele>152</ele><time>2020-02-09T08:32:28Z</time></trkpt>
<trkpt lat="43.838279033" lon="11.219303962"><ele>152</ele><time>2020-02-09T08:32:29Z</time></trkpt>
<trkpt lat="43.838284984" lon="11.219331035"><ele>152</ele><time>2020-02-09T08:32:30Z</time></trkpt>
<trkpt lat="43.838292025" lon="11.219358025"><ele>152</ele><time>2020-02-09T08:32:31Z</time></trkpt>
<trkpt lat="43.838298982" lon="11.219384009"><ele>152</ele><time>2020-02-09T08:32:32Z</time></trkpt>
<trkpt lat="43.838306023" lon="11.219409993"><ele>152</ele><time>2020-02-09T08:32:33Z</time></trkpt>
<trkpt lat="43.83831298" lon="11.219435977"><ele>152</ele><time>2020-02-09T08:32:34Z</time></trkpt>
<trkpt lat="43.838320021" lon="11.219462967"><ele>152</ele><time>2020-02-09T08:32:35Z</time></trkpt>
<trkpt lat="43.838326978" lon="11.219489034"><ele>152</ele><time>2020-02-09T08:32:36Z</time></trkpt>
<trkpt lat="43.838334018" lon="11.219516024"><ele>152</ele><time>2020-02-09T08:32:37Z</time></trkpt>
<trkpt lat="43.838341981" lon="11.219541002"><ele>152</ele><time>2020-02-09T08:32:38Z</time></trkpt>
<trkpt lat="43.838350028" lon="11.219566986"><ele>152</ele><time>2020-02-09T08:32:39Z</time></trkpt>
<trkpt lat="43.838356985" lon="11.219590958"><ele>152</ele><time>2020-02-09T08:32:40Z</time></trkpt>
<trkpt lat="43.838365031" lon="11.219614008"><ele>152</ele><time>2020-02-09T08:32:41Z</time></trkpt>
<trkpt lat="43.838372994" lon="11.219634963"><ele>153</ele><time>2020-02-09T08:32:42Z</time></trkpt>
<trkpt lat="43.838381963" lon="11.219654996"><ele>153</ele><time>2020-02-09T08:32:43Z</time></trkpt>
<trkpt lat="43.838390009" lon="11.219672011"><ele>153</ele><time>2020-02-09T08:32:44Z</time></trkpt>
<trkpt lat="43.838397972" lon="11.219687015"><ele>153</ele><time>2020-02-09T08:32:45Z</time></trkpt>
<trkpt lat="43.838407025" lon="11.219701013"><ele>153</ele><time>2020-02-09T08:32:46Z</time></trkpt>
<trkpt lat="43.838415993" lon="11.219712999"><ele>153</ele><time>2020-02-09T08:32:47Z</time></trkpt>
<trkpt lat="43.838424962" lon="11.219722973"><ele>154</ele><time>2020-02-09T08:32:48Z</time></trkpt>
<trkpt lat="43.838434014" lon="11.219732026"><ele>154</ele><time>2020-02-09T08:32:49Z</time></trkpt>
<trkpt lat="43.838442983" lon="11.219738983"><ele>154</ele><time>2020-02-09T08:32:50Z</time></trkpt>
<trkpt lat="43.838453041" lon="11.219745018"><ele>155</ele><time>2020-02-09T08:32:51Z</time></trkpt>
<trkpt lat="43.83846201" lon="11.219750969"><ele>155</ele><time>2020-02-09T08:32:52Z</time></trkpt>
<trkpt lat="43.838471984" lon="11.219754992"><ele>155</ele><time>2020-02-09T08:32:53Z</time></trkpt>
<trkpt lat="43.838481959" lon="11.219759015"><ele>156</ele><time>2020-02-09T08:32:54Z</time></trkpt>
<trkpt lat="43.838493023" lon="11.219762033"><ele>156</ele><time>2020-02-09T08:32:55Z</time></trkpt>
<trkpt lat="43.838504003" lon="11.219764967"><ele>156</ele><time>2020-02-09T08:32:56Z</time></trkpt>
<trkpt lat="43.838514984" lon="11.219766978"><ele>157</ele><time>2020-02-09T08:32:57Z</time></trkpt>
<trkpt lat="43.838525964" lon="11.219769996"><ele>157</ele><time>2020-02-09T08:32:58Z</time></trkpt>
<trkpt lat="43.838538034" lon="11.219772007"><ele>158</ele><time>2020-02-09T08:32:59Z</time></trkpt>
<trkpt lat="43.838549014" lon="11.219775025"><ele>158</ele><time>2020-02-09T08:33:00Z</time></trkpt>
<trkpt lat="43.838561" lon="11.219777958"><ele>158</ele><time>2020-02-09T08:33:01Z</time></trkpt>
<trkpt lat="43.838573992" lon="11.219780976"><ele>159</ele><time>2020-02-09T08:33:02Z</time></trkpt>
<trkpt lat="43.838585978" lon="11.219784999"><ele>159</ele><time>2020-02-09T08:33:03Z</time></trkpt>
<trkpt lat="43.838597964" lon="11.219790028"><ele>160</ele><time>2020-02-09T08:33:04Z</time></trkpt>
<trkpt lat="43.838610034" lon="11.21979598"><ele>160</ele><time>2020-02-09T08:33:05Z</time></trkpt>
<trkpt lat="43.838622021" lon="11.219802015"><ele>160</ele><time>2020-02-09T08:33:06Z</time></trkpt>
<trkpt lat="43.838634007" lon="11.219809977"><ele>161</ele><time>2020-02-09T08:33:07Z</time></trkpt>
<trkpt lat="43.838645993" lon="11.21981903"><ele>161</ele><time>2020-02-09T08:33:08Z</time></trkpt>
<trkpt lat="43.838656973" lon="11.219829004"><ele>162</ele><time>2020-02-09T08:33:09Z</time></trkpt>
<trkpt lat="43.838668037" lon="11.219838979"><ele>162</ele><time>2020-02-09T08:33:10Z</time></trkpt>
<trkpt lat="43.838679017" lon="11.219850965"><ele>162</ele><time>2020-02-09T08:33:11Z</time></trkpt>
<trkpt lat="43.838688992" lon="11.219864041"><ele>163</ele><time>2020-02-09T08:33:12Z</time></trkpt>
<trkpt lat="43.838715982" lon="11.21990704"><ele>163</ele><time>2020-02-09T08:33:15Z</time></trkpt>
<trkpt lat="43.838739032" lon="11.219959008"><ele>164</ele><time>2020-02-09T08:33:18Z</time></trkpt>
<trkpt lat="43.838746995" lon="11.21997904"><ele>164</ele><time>2020-02-09T08:33:19Z</time></trkpt>
<trkpt lat="43.838755041" lon="11.219999995"><ele>164</ele><time>2020-02-09T08:33:20Z</time></trkpt>
<trkpt lat="43.83877499" lon="11.220050035"><ele>164</ele><time>2020-02-09T08:33:22Z</time></trkpt>
<trkpt lat="43.838786976" lon="11.220078031"><ele>165</ele><time>2020-02-09T08:33:23Z</time></trkpt>
<trkpt lat="43.838799968" lon="11.220108038"><ele>165</ele><time>2020-02-09T08:33:24Z</time></trkpt>
<trkpt lat="43.838813966" lon="11.220138967"><ele>165</ele><time>2020-02-09T08:33:25Z</time></trkpt>
<trkpt lat="43.838827964" lon="11.220171992"><ele>165</ele><time>2020-02-09T08:33:26Z</time></trkpt>
<trkpt lat="43.838842968" lon="11.220205016"><ele>165</ele><time>2020-02-09T08:33:27Z</time></trkpt>
<trkpt lat="43.838858977" lon="11.220238963"><ele>165</ele><time>2020-02-09T08:33:28Z</time></trkpt>
<trkpt lat="43.838873981" lon="11.220272994"><ele>165</ele><time>2020-02-09T08:33:29Z</time></trkpt>
<trkpt lat="43.838888984" lon="11.220306018"><ele>165</ele><time>2020-02-09T08:33:30Z</time></trkpt>
<trkpt lat="43.838903988" lon="11.220339965"><ele>165</ele><time>2020-02-09T08:33:31Z</time></trkpt>
<trkpt lat="43.838919997" lon="11.220371984"><ele>166</ele><time>2020-02-09T08:33:32Z</time></trkpt>
<trkpt lat="43.838935001" lon="11.220404003"><ele>166</ele><time>2020-02-09T08:33:33Z</time></trkpt>
<trkpt lat="43.838950004" lon="11.220436022"><ele>166</ele><time>2020-02-09T08:33:34Z</time></trkpt>
<trkpt lat="43.838965008" lon="11.220467035"><ele>166</ele><time>2020-02-09T08:33:35Z</time></trkpt>
<trkpt lat="43.839011025" lon="11.220556973"><ele>166</ele><time>2020-02-09T08:33:38Z</time></trkpt>
<trkpt lat="43.839026028" lon="11.220585974"><ele>166</ele><time>2020-02-09T08:33:39Z</time></trkpt>
<trkpt lat="43.839042038" lon="11.220612964"><ele>166</ele><time>2020-02-09T08:33:40Z</time></trkpt>
<trkpt lat="43.839057041" lon="11.220640959"><ele>166</ele><time>2020-02-09T08:33:41Z</time></trkpt>
<trkpt lat="43.839072967" lon="11.220667027"><ele>166</ele><time>2020-02-09T08:33:42Z</time></trkpt>
<trkpt lat="43.839088976" lon="11.220692005"><ele>166</ele><time>2020-02-09T08:33:43Z</time></trkpt>
<trkpt lat="43.839105992" lon="11.220716983"><ele>166</ele><time>2020-02-09T08:33:44Z</time></trkpt>
<trkpt lat="43.839123007" lon="11.220740033"><ele>166</ele><time>2020-02-09T08:33:45Z</time></trkpt>
<trkpt lat="43.839140022" lon="11.220763"><ele>166</ele><time>2020-02-09T08:33:46Z</time></trkpt>
<trkpt lat="43.839157037" lon="11.22078496"><ele>167</ele><time>2020-02-09T08:33:47Z</time></trkpt>
<trkpt lat="43.839173969" lon="11.220805999"><ele>167</ele><time>2020-02-09T08:33:48Z</time></trkpt>
<trkpt lat="43.83919199" lon="11.220826032"><ele>167</ele><time>2020-02-09T08:33:49Z</time></trkpt>
<trkpt lat="43.839210011" lon="11.220844975"><ele>168</ele><time>2020-02-09T08:33:50Z</time></trkpt>
<trkpt lat="43.839229038" lon="11.220864002"><ele>168</ele><time>2020-02-09T08:33:51Z</time></trkpt>
<trkpt lat="43.839246975" lon="11.220882023"><ele>169</ele><time>2020-02-09T08:33:52Z</time></trkpt>
<trkpt lat="43.839264996" lon="11.220899038"><ele>169</ele><time>2020-02-09T08:33:53Z</time></trkpt>
<trkpt lat="43.839284023" lon="11.220915969"><ele>170</ele><time>2020-02-09T08:33:54Z</time></trkpt>
<trkpt lat="43.839302966" lon="11.220931979"><ele>170</ele><time>2020-02-09T08:33:55Z</time></trkpt>
<trkpt lat="43.839321993" lon="11.220947988"><ele>171</ele><time>2020-02-09T08:33:56Z</time></trkpt>
<trkpt lat="43.83934102" lon="11.220962992"><ele>171</ele><time>2020-02-09T08:33:57Z</time></trkpt>
<trkpt lat="43.839359963" lon="11.220977996"><ele>172</ele><time>2020-02-09T08:33:58Z</time></trkpt>
<trkpt lat="43.83937899" lon="11.220992999"><ele>172</ele><time>2020-02-09T08:33:59Z</time></trkpt>
<trkpt lat="43.839398017" lon="11.221006997"><ele>173</ele><time>2020-02-09T08:34:00Z</time></trkpt>
<trkpt lat="43.839417966" lon="11.221020995"><ele>173</ele><time>2020-02-09T08:34:01Z</time></trkpt>
<trkpt lat="43.839455014" lon="11.22104899"><ele>174</ele><time>2020-02-09T08:34:03Z</time></trkpt>
<trkpt lat="43.839474041" lon="11.221062988"><ele>175</ele><time>2020-02-09T08:34:04Z</time></trkpt>
<trkpt lat="43.839490972" lon="11.221076986"><ele>175</ele><time>2020-02-09T08:34:05Z</time></trkpt>
<trkpt lat="43.839507988" lon="11.221090984"><ele>176</ele><time>2020-02-09T08:34:06Z</time></trkpt>
<trkpt lat="43.839522991" lon="11.221105987"><ele>176</ele><time>2020-02-09T08:34:07Z</time></trkpt>
<trkpt lat="43.839536989" lon="11.221120991"><ele>176</ele><time>2020-02-09T08:34:08Z</time></trkpt>
<trkpt lat="43.839547969" lon="11.221135994"><ele>177</ele><time>2020-02-09T08:34:09Z</time></trkpt>
<trkpt lat="43.839559034" lon="11.22115301"><ele>177</ele><time>2020-02-09T08:34:10Z</time></trkpt>
<trkpt lat="43.839568002" lon="11.221171031"><ele>177</ele><time>2020-02-09T08:34:11Z</time></trkpt>
<trkpt lat="43.839576971" lon="11.22119098"><ele>177</ele><time>2020-02-09T08:34:12Z</time></trkpt>
<trkpt lat="43.839587029" lon="11.221213024"><ele>177</ele><time>2020-02-09T08:34:13Z</time></trkpt>
<trkpt lat="43.839600021" lon="11.221236996"><ele>177</ele><time>2020-02-09T08:34:14Z</time></trkpt>
<trkpt lat="43.839614019" lon="11.221263986"><ele>177</ele><time>2020-02-09T08:34:15Z</time></trkpt>
<trkpt lat="43.839629022" lon="11.221290976"><ele>177</ele><time>2020-02-09T08:34:16Z</time></trkpt>
<trkpt lat="43.839646038" lon="11.22131696"><ele>178</ele><time>2020-02-09T08:34:17Z</time></trkpt>
<trkpt lat="43.839663975" lon="11.221342022"><ele>178</ele><time>2020-02-09T08:34:18Z</time></trkpt>
<trkpt lat="43.839681996" lon="11.221365994"><ele>178</ele><time>2020-02-09T08:34:19Z</time></trkpt>
<trkpt lat="43.839701023" lon="11.221388038"><ele>178</ele><time>2020-02-09T08:34:20Z</time></trkpt>
<trkpt lat="43.83971896" lon="11.221408993"><ele>179</ele><time>2020-02-09T08:34:21Z</time></trkpt>
<trkpt lat="43.839736981" lon="11.221430032"><ele>179</ele><time>2020-02-09T08:34:22Z</time></trkpt>
<trkpt lat="43.839753997" lon="11.221449981"><ele>179</ele><time>2020-02-09T08:34:23Z</time></trkpt>
<trkpt lat="43.839770006" lon="11.221470013"><ele>179</ele><time>2020-02-09T08:34:24Z</time></trkpt>
<trkpt lat="43.839784004" lon="11.221490968"><ele>179</ele><time>2020-02-09T08:34:25Z</time></trkpt>
<trkpt lat="43.839796996" lon="11.221513012"><ele>179</ele><time>2020-02-09T08:34:26Z</time></trkpt>
<trkpt lat="43.839807976" lon="11.221534973"><ele>179</ele><time>2020-02-09T08:34:27Z</time></trkpt>
<trkpt lat="43.839818034" lon="11.221557017"><ele>179</ele><time>2020-02-09T08:34:28Z</time></trkpt>
<trkpt lat="43.839828009" lon="11.221578978"><ele>179</ele><time>2020-02-09T08:34:29Z</time></trkpt>
<trkpt lat="43.839838989" lon="11.221600017"><ele>179</ele><time>2020-02-09T08:34:30Z</time></trkpt>
<trkpt lat="43.839848964" lon="11.221620971"><ele>179</ele><time>2020-02-09T08:34:31Z</time></trkpt>
<trkpt lat="43.839861033" lon="11.221641004"><ele>179</ele><time>2020-02-09T08:34:32Z</time></trkpt>
<trkpt lat="43.839874025" lon="11.221659025"><ele>179</ele><time>2020-02-09T08:34:33Z</time></trkpt>
<trkpt lat="43.839888023" lon="11.221676962"><ele>180</ele><time>2020-02-09T08:34:34Z</time></trkpt>
<trkpt lat="43.839902021" lon="11.221693978"><ele>180</ele><time>2020-02-09T08:34:35Z</time></trkpt>
<trkpt lat="43.839917025" lon="11.221709987"><ele>180</ele><time>2020-02-09T08:34:36Z</time></trkpt>
<trkpt lat="43.839930017" lon="11.221728008"><ele>181</ele><time>2020-02-09T08:34:37Z</time></trkpt>
<trkpt lat="43.839942003" lon="11.221746029"><ele>181</ele><time>2020-02-09T08:34:38Z</time></trkpt>
<trkpt lat="43.839952983" lon="11.221764972"><ele>181</ele><time>2020-02-09T08:34:39Z</time></trkpt>
<trkpt lat="43.83996103" lon="11.221786011"><ele>182</ele><time>2020-02-09T08:34:40Z</time></trkpt>
<trkpt lat="43.839965975" lon="11.221808977"><ele>182</ele><time>2020-02-09T08:34:41Z</time></trkpt>
<trkpt lat="43.839968992" lon="11.221834039"><ele>182</ele><time>2020-02-09T08:34:42Z</time></trkpt>
<trkpt lat="43.839968992" lon="11.221859017"><ele>182</ele><time>2020-02-09T08:34:43Z</time></trkpt>
<trkpt lat="43.839966981" lon="11.221886007"><ele>182</ele><time>2020-02-09T08:34:44Z</time></trkpt>
<trkpt lat="43.839963041" lon="11.221911991"><ele>182</ele><time>2020-02-09T08:34:45Z</time></trkpt>
<trkpt lat="43.839958012" lon="11.221937975"><ele>182</ele><time>2020-02-09T08:34:46Z</time></trkpt>
<trkpt lat="43.839951977" lon="11.221963037"><ele>182</ele><time>2020-02-09T08:34:47Z</time></trkpt>
<trkpt lat="43.83994502" lon="11.221986003"><ele>182</ele><time>2020-02-09T08:34:48Z</time></trkpt>
<trkpt lat="43.839937979" lon="11.222007964"><ele>182</ele><time>2020-02-09T08:34:49Z</time></trkpt>
<trkpt lat="43.839930017" lon="11.222027997"><ele>182</ele><time>2020-02-09T08:34:50Z</time></trkpt>
<trkpt lat="43.83992197" lon="11.222046018"><ele>182</ele><time>2020-02-09T08:34:51Z</time></trkpt>
<trkpt lat="43.839913001" lon="11.222063033"><ele>182</ele><time>2020-02-09T08:34:52Z</time></trkpt>
<trkpt lat="43.839904033" lon="11.222078037"><ele>182</ele><time>2020-02-09T08:34:53Z</time></trkpt>
<trkpt lat="43.839893974" lon="11.22209304"><ele>182</ele><time>2020-02-09T08:34:54Z</time></trkpt>
<trkpt lat="43.839884" lon="11.222107038"><ele>182</ele><time>2020-02-09T08:34:55Z</time></trkpt>
<trkpt lat="43.839874025" lon="11.222121036"><ele>182</ele><time>2020-02-09T08:34:56Z</time></trkpt>
<trkpt lat="43.839863967" lon="11.222134028"><ele>181</ele><time>2020-02-09T08:34:57Z</time></trkpt>
<trkpt lat="43.839852987" lon="11.22214702"><ele>181</ele><time>2020-02-09T08:34:58Z</time></trkpt>
<trkpt lat="43.839843012" lon="11.222160012"><ele>181</ele><time>2020-02-09T08:34:59Z</time></trkpt>
<trkpt lat="43.839832032" lon="11.222173003"><ele>181</ele><time>2020-02-09T08:35:00Z</time></trkpt>
<trkpt lat="43.839820968" lon="11.222185995"><ele>181</ele><time>2020-02-09T08:35:01Z</time></trkpt>
<trkpt lat="43.839809988" lon="11.222200999"><ele>181</ele><time>2020-02-09T08:35:02Z</time></trkpt>
<trkpt lat="43.839798002" lon="11.222216003"><ele>180</ele><time>2020-02-09T08:35:03Z</time></trkpt>
<trkpt lat="43.839787021" lon="11.222232012"><ele>180</ele><time>2020-02-09T08:35:04Z</time></trkpt>
<trkpt lat="43.839776041" lon="11.222250033"><ele>180</ele><time>2020-02-09T08:35:05Z</time></trkpt>
<trkpt lat="43.839764977" lon="11.222268976"><ele>180</ele><time>2020-02-09T08:35:06Z</time></trkpt>
<trkpt lat="43.839753997" lon="11.222288003"><ele>180</ele><time>2020-02-09T08:35:07Z</time></trkpt>
<trkpt lat="43.839744022" lon="11.222308036"><ele>180</ele><time>2020-02-09T08:35:08Z</time></trkpt>
<trkpt lat="43.839733964" lon="11.222328991"><ele>180</ele><time>2020-02-09T08:35:09Z</time></trkpt>
<trkpt lat="43.839724995" lon="11.222351035"><ele>180</ele><time>2020-02-09T08:35:10Z</time></trkpt>
<trkpt lat="43.839717032" lon="11.22237199"><ele>180</ele><time>2020-02-09T08:35:11Z</time></trkpt>
<trkpt lat="43.839709992" lon="11.222394034"><ele>180</ele><time>2020-02-09T08:35:12Z</time></trkpt>
<trkpt lat="43.839695994" lon="11.222458994"><ele>180</ele><time>2020-02-09T08:35:15Z</time></trkpt>
<trkpt lat="43.839692976" lon="11.222481038"><ele>180</ele><time>2020-02-09T08:35:16Z</time></trkpt>
<trkpt lat="43.839690965" lon="11.222502999"><ele>180</ele><time>2020-02-09T08:35:17Z</time></trkpt>
<trkpt lat="43.839687025" lon="11.22256997"><ele>181</ele><time>2020-02-09T08:35:20Z</time></trkpt>
<trkpt lat="43.839686019" lon="11.222592015"><ele>181</ele><time>2020-02-09T08:35:21Z</time></trkpt>
<trkpt lat="43.839685014" lon="11.222615987"><ele>181</ele><time>2020-02-09T08:35:22Z</time></trkpt>
<trkpt lat="43.839684008" lon="11.222639037"><ele>181</ele><time>2020-02-09T08:35:23Z</time></trkpt>
<trkpt lat="43.839683002" lon="11.222662004"><ele>182</ele><time>2020-02-09T08:35:24Z</time></trkpt>
<trkpt lat="43.839681996" lon="11.222685976"><ele>182</ele><time>2020-02-09T08:35:25Z</time></trkpt>
<trkpt lat="43.83968099" lon="11.222710032"><ele>182</ele><time>2020-02-09T08:35:26Z</time></trkpt>
<trkpt lat="43.839679984" lon="11.222732998"><ele>183</ele><time>2020-02-09T08:35:27Z</time></trkpt>
<trkpt lat="43.839678979" lon="11.222756971"><ele>183</ele><time>2020-02-09T08:35:28Z</time></trkpt>
<trkpt lat="43.839677973" lon="11.222781027"><ele>183</ele><time>2020-02-09T08:35:29Z</time></trkpt>
<trkpt lat="43.839676967" lon="11.222804999"><ele>183</ele><time>2020-02-09T08:35:30Z</time></trkpt>
<trkpt lat="43.839675961" lon="11.222827965"><ele>184</ele><time>2020-02-09T08:35:31Z</time></trkpt>
<trkpt lat="43.839674033" lon="11.222852021"><ele>184</ele><time>2020-02-09T08:35:32Z</time></trkpt>
<trkpt lat="43.839673027" lon="11.222874988"><ele>184</ele><time>2020-02-09T08:35:33Z</time></trkpt>
<trkpt lat="43.839671016" lon="11.22289896"><ele>185</ele><time>2020-02-09T08:35:34Z</time></trkpt>
<trkpt lat="43.83967001" lon="11.222921005"><ele>185</ele><time>2020-02-09T08:35:35Z</time></trkpt>
<trkpt lat="43.839667998" lon="11.222943971"><ele>185</ele><time>2020-02-09T08:35:36Z</time></trkpt>
<trkpt lat="43.839665987" lon="11.222966015"><ele>185</ele><time>2020-02-09T08:35:37Z</time></trkpt>
<trkpt lat="43.839663975" lon="11.222988982"><ele>186</ele><time>2020-02-09T08:35:38Z</time></trkpt>
<trkpt lat="43.839661963" lon="11.223011026"><ele>186</ele><time>2020-02-09T08:35:39Z</time></trkpt>
<trkpt lat="43.83965903" lon="11.223032987"><ele>186</ele><time>2020-02-09T08:35:40Z</time></trkpt>
<trkpt lat="43.839657018" lon="11.223055031"><ele>186</ele><time>2020-02-09T08:35:41Z</time></trkpt>
<trkpt lat="43.839655006" lon="11.223076992"><ele>186</ele><time>2020-02-09T08:35:42Z</time></trkpt>
<trkpt lat="43.839652995" lon="11.223099036"><ele>187</ele><time>2020-02-09T08:35:43Z</time></trkpt>
<trkpt lat="43.839650983" lon="11.223120997"><ele>187</ele><time>2020-02-09T08:35:44Z</time></trkpt>
<trkpt lat="43.839649977" lon="11.223143963"><ele>187</ele><time>2020-02-09T08:35:45Z</time></trkpt>
<trkpt lat="43.839647966" lon="11.223167013"><ele>187</ele><time>2020-02-09T08:35:46Z</time></trkpt>
<trkpt lat="43.83964696" lon="11.22318998"><ele>188</ele><time>2020-02-09T08:35:47Z</time></trkpt>
<trkpt lat="43.839646038" lon="11.22321303"><ele>188</ele><time>2020-02-09T08:35:48Z</time></trkpt>
<trkpt lat="43.839645032" lon="11.223237002"><ele>188</ele><time>2020-02-09T08:35:49Z</time></trkpt>
<trkpt lat="43.839644026" lon="11.22326198"><ele>188</ele><time>2020-02-09T08:35:50Z</time></trkpt>
<trkpt lat="43.839644026" lon="11.223286958"><ele>189</ele><time>2020-02-09T08:35:51Z</time></trkpt>
<trkpt lat="43.839644026" lon="11.22331202"><ele>189</ele><time>2020-02-09T08:35:52Z</time></trkpt>
<trkpt lat="43.839644026" lon="11.223338004"><ele>189</ele><time>2020-02-09T08:35:53Z</time></trkpt>
<trkpt lat="43.839644026" lon="11.223364994"><ele>190</ele><time>2020-02-09T08:35:54Z</time></trkpt>
<trkpt lat="43.83964302" lon="11.223391984"><ele>190</ele><time>2020-02-09T08:35:55Z</time></trkpt>
<trkpt lat="43.839642014" lon="11.223418973"><ele>190</ele><time>2020-02-09T08:35:56Z</time></trkpt>
<trkpt lat="43.839638997" lon="11.223446969"><ele>190</ele><time>2020-02-09T08:35:57Z</time></trkpt>
<trkpt lat="43.839633968" lon="11.22347597"><ele>191</ele><time>2020-02-09T08:35:58Z</time></trkpt>
<trkpt lat="43.839628017" lon="11.223504972"><ele>191</ele><time>2020-02-09T08:35:59Z</time></trkpt>
<trkpt lat="43.839618964" lon="11.223533973"><ele>191</ele><time>2020-02-09T08:36:00Z</time></trkpt>
<trkpt lat="43.839607984" lon="11.223562974"><ele>191</ele><time>2020-02-09T08:36:01Z</time></trkpt>
<trkpt lat="43.839595998" lon="11.223592982"><ele>191</ele><time>2020-02-09T08:36:02Z</time></trkpt>
<trkpt lat="43.839582" lon="11.223623995"><ele>191</ele><time>2020-02-09T08:36:03Z</time></trkpt>
<trkpt lat="43.839568002" lon="11.223655008"><ele>191</ele><time>2020-02-09T08:36:04Z</time></trkpt>
<trkpt lat="43.839554004" lon="11.223686021"><ele>190</ele><time>2020-02-09T08:36:05Z</time></trkpt>
<trkpt lat="43.839539001" lon="11.22371804"><ele>190</ele><time>2020-02-09T08:36:06Z</time></trkpt>
<trkpt lat="43.839525003" lon="11.223750981"><ele>190</ele><time>2020-02-09T08:36:07Z</time></trkpt>
<trkpt lat="43.839512011" lon="11.223784005"><ele>190</ele><time>2020-02-09T08:36:08Z</time></trkpt>
<trkpt lat="43.839499019" lon="11.223818036"><ele>190</ele><time>2020-02-09T08:36:09Z</time></trkpt>
<trkpt lat="43.839487033" lon="11.223851983"><ele>190</ele><time>2020-02-09T08:36:10Z</time></trkpt>
<trkpt lat="43.839474963" lon="11.223886013"><ele>190</ele><time>2020-02-09T08:36:11Z</time></trkpt>
<trkpt lat="43.839462977" lon="11.22391996"><ele>190</ele><time>2020-02-09T08:36:12Z</time></trkpt>
<trkpt lat="43.839450991" lon="11.22395399"><ele>190</ele><time>2020-02-09T08:36:13Z</time></trkpt>
<trkpt lat="43.839439005" lon="11.223986009"><ele>190</ele><time>2020-02-09T08:36:14Z</time></trkpt>
<trkpt lat="43.839426013" lon="11.224018028"><ele>190</ele><time>2020-02-09T08:36:15Z</time></trkpt>
<trkpt lat="43.839413021" lon="11.224049963"><ele>189</ele><time>2020-02-09T08:36:16Z</time></trkpt>
<trkpt lat="43.839399023" lon="11.22407997"><ele>189</ele><time>2020-02-09T08:36:17Z</time></trkpt>
<trkpt lat="43.839385025" lon="11.224110983"><ele>189</ele><time>2020-02-09T08:36:18Z</time></trkpt>
<trkpt lat="43.839371027" lon="11.224141996"><ele>189</ele><time>2020-02-09T08:36:19Z</time></trkpt>
<trkpt lat="43.839356024" lon="11.224175021"><ele>189</ele><time>2020-02-09T08:36:20Z</time></trkpt>
<trkpt lat="43.839340014" lon="11.224209974"><ele>189</ele><time>2020-02-09T08:36:21Z</time></trkpt>
<trkpt lat="43.839324005" lon="11.224249033"><ele>188</ele><time>2020-02-09T08:36:22Z</time></trkpt>
<trkpt lat="43.839302966" lon="11.224289015"><ele>188</ele><time>2020-02-09T08:36:23Z</time></trkpt>
<trkpt lat="43.839274971" lon="11.224324973"><ele>187</ele><time>2020-02-09T08:36:24Z</time></trkpt>
<trkpt lat="43.83924203" lon="11.224352969"><ele>187</ele><time>2020-02-09T08:36:25Z</time></trkpt>
<trkpt lat="43.839207999" lon="11.224369984"><ele>186</ele><time>2020-02-09T08:36:26Z</time></trkpt>
<trkpt lat="43.839176986" lon="11.22437099"><ele>185</ele><time>2020-02-09T08:36:27Z</time></trkpt>
<trkpt lat="43.839152008" lon="11.224353975"><ele>184</ele><time>2020-02-09T08:36:28Z</time></trkpt>
<trkpt lat="43.839131976" lon="11.224321034"><ele>183</ele><time>2020-02-09T08:36:29Z</time></trkpt>
<trkpt lat="43.839117978" lon="11.224279962"><ele>182</ele><time>2020-02-09T08:36:30Z</time></trkpt>
<trkpt lat="43.839106997" lon="11.22423403"><ele>182</ele><time>2020-02-09T08:36:31Z</time></trkpt>
<trkpt lat="43.83910004" lon="11.224188013"><ele>181</ele><time>2020-02-09T08:36:32Z</time></trkpt>
<trkpt lat="43.839095011" lon="11.224141996"><ele>180</ele><time>2020-02-09T08:36:33Z</time></trkpt>
<trkpt lat="43.839087971" lon="11.224096986"><ele>180</ele><time>2020-02-09T08:36:34Z</time></trkpt>
<trkpt lat="43.839077996" lon="11.224049963"><ele>179</ele><time>2020-02-09T08:36:35Z</time></trkpt>
<trkpt lat="43.839062992" lon="11.224001013"><ele>178</ele><time>2020-02-09T08:36:36Z</time></trkpt>
<trkpt lat="43.839043966" lon="11.223951979"><ele>178</ele><time>2020-02-09T08:36:37Z</time></trkpt>
<trkpt lat="43.839025022" lon="11.223903028"><ele>177</ele><time>2020-02-09T08:36:38Z</time></trkpt>
<trkpt lat="43.83900499" lon="11.223855"><ele>176</ele><time>2020-02-09T08:36:39Z</time></trkpt>
<trkpt lat="43.838986969" lon="11.223806972"><ele>175</ele><time>2020-02-09T08:36:40Z</time></trkpt>
<trkpt lat="43.838970037" lon="11.223760033"><ele>174</ele><time>2020-02-09T08:36:41Z</time></trkpt>
<trkpt lat="43.838954028" lon="11.223713011"><ele>173</ele><time>2020-02-09T08:36:42Z</time></trkpt>
<trkpt lat="43.838938018" lon="11.223666994"><ele>173</ele><time>2020-02-09T08:36:43Z</time></trkpt>
<trkpt lat="43.838923015" lon="11.223621983"><ele>172</ele><time>2020-02-09T08:36:44Z</time></trkpt>
<trkpt lat="43.838909017" lon="11.223575966"><ele>171</ele><time>2020-02-09T08:36:45Z</time></trkpt>
<trkpt lat="43.838896025" lon="11.223531039"><ele>170</ele><time>2020-02-09T08:36:46Z</time></trkpt>
<trkpt lat="43.838883033" lon="11.223486029"><ele>169</ele><time>2020-02-09T08:36:47Z</time></trkpt>
<trkpt lat="43.838870041" lon="11.223441018"><ele>169</ele><time>2020-02-09T08:36:48Z</time></trkpt>
<trkpt lat="43.838857971" lon="11.223395001"><ele>168</ele><time>2020-02-09T08:36:49Z</time></trkpt>
<trkpt lat="43.838845985" lon="11.223348984"><ele>167</ele><time>2020-02-09T08:36:50Z</time></trkpt>
<trkpt lat="43.838835005" lon="11.223302968"><ele>167</ele><time>2020-02-09T08:36:51Z</time></trkpt>
<trkpt lat="43.838824024" lon="11.223257035"><ele>166</ele><time>2020-02-09T08:36:52Z</time></trkpt>
<trkpt lat="43.83881296" lon="11.223210013"><ele>166</ele><time>2020-02-09T08:36:53Z</time></trkpt>
<trkpt lat="43.83880198" lon="11.223161984"><ele>165</ele><time>2020-02-09T08:36:54Z</time></trkpt>
<trkpt lat="43.838791" lon="11.22311404"><ele>164</ele><time>2020-02-09T08:36:55Z</time></trkpt>
<trkpt lat="43.838780019" lon="11.223065006"><ele>164</ele><time>2020-02-09T08:36:56Z</time></trkpt>
<trkpt lat="43.838769961" lon="11.223017983"><ele>164</ele><time>2020-02-09T08:36:57Z</time></trkpt>
<trkpt lat="43.838760993" lon="11.222971966"><ele>163</ele><time>2020-02-09T08:36:58Z</time></trkpt>
<trkpt lat="43.838738026" lon="11.222844981"><ele>162</ele><time>2020-02-09T08:37:01Z</time></trkpt>
<trkpt lat="43.838729979" lon="11.222802987"><ele>162</ele><time>2020-02-09T08:37:02Z</time></trkpt>
<trkpt lat="43.838721011" lon="11.222758982"><ele>161</ele><time>2020-02-09T08:37:03Z</time></trkpt>
<trkpt lat="43.838685974" lon="11.222617999"><ele>160</ele><time>2020-02-09T08:37:06Z</time></trkpt>
<trkpt lat="43.838671977" lon="11.22256997"><ele>159</ele><time>2020-02-09T08:37:07Z</time></trkpt>
<trkpt lat="43.838657979" lon="11.22252102"><ele>159</ele><time>2020-02-09T08:37:08Z</time></trkpt>
<trkpt lat="43.838643981" lon="11.222471986"><ele>158</ele><time>2020-02-09T08:37:09Z</time></trkpt>
<trkpt lat="43.838627972" lon="11.222424041"><ele>158</ele><time>2020-02-09T08:37:10Z</time></trkpt>
<trkpt lat="43.838612968" lon="11.222376013"><ele>157</ele><time>2020-02-09T08:37:11Z</time></trkpt>
<trkpt lat="43.838596959" lon="11.222328991"><ele>156</ele><time>2020-02-09T08:37:12Z</time></trkpt>
<trkpt lat="43.838580027" lon="11.222282974"><ele>156</ele><time>2020-02-09T08:37:13Z</time></trkpt>
<trkpt lat="43.838562006" lon="11.222237041"><ele>155</ele><time>2020-02-09T08:37:14Z</time></trkpt>
<trkpt lat="43.838542979" lon="11.222191025"><ele>155</ele><time>2020-02-09T08:37:15Z</time></trkpt>
<trkpt lat="43.838524036" lon="11.22214702"><ele>154</ele><time>2020-02-09T08:37:16Z</time></trkpt>
<trkpt lat="43.838502998" lon="11.22210402"><ele>153</ele><time>2020-02-09T08:37:17Z</time></trkpt>
<trkpt lat="43.838480031" lon="11.222061021"><ele>153</ele><time>2020-02-09T08:37:18Z</time></trkpt>
<trkpt lat="43.838456981" lon="11.222019028"><ele>152</ele><time>2020-02-09T08:37:19Z</time></trkpt>
<trkpt lat="43.838433009" lon="11.221977035"><ele>151</ele><time>2020-02-09T08:37:20Z</time></trkpt>
<trkpt lat="43.838409958" lon="11.221935041"><ele>151</ele><time>2020-02-09T08:37:21Z</time></trkpt>
<trkpt lat="43.838385986" lon="11.221891958"><ele>150</ele><time>2020-02-09T08:37:22Z</time></trkpt>
<trkpt lat="43.83836302" lon="11.221848959"><ele>149</ele><time>2020-02-09T08:37:23Z</time></trkpt>
<trkpt lat="43.838341981" lon="11.221804032"><ele>149</ele><time>2020-02-09T08:37:24Z</time></trkpt>
<trkpt lat="43.838322032" lon="11.221758015"><ele>148</ele><time>2020-02-09T08:37:25Z</time></trkpt>
<trkpt lat="43.838303005" lon="11.221709987"><ele>148</ele><time>2020-02-09T08:37:26Z</time></trkpt>
<trkpt lat="43.838286996" lon="11.221661037"><ele>147</ele><time>2020-02-09T08:37:27Z</time></trkpt>
<trkpt lat="43.838271992" lon="11.221610997"><ele>147</ele><time>2020-02-09T08:37:28Z</time></trkpt>
<trkpt lat="43.838259" lon="11.221559029"><ele>146</ele><time>2020-02-09T08:37:29Z</time></trkpt>
<trkpt lat="43.83824802" lon="11.221506977"><ele>146</ele><time>2020-02-09T08:37:30Z</time></trkpt>
<trkpt lat="43.838237962" lon="11.221456015"><ele>145</ele><time>2020-02-09T08:37:31Z</time></trkpt>
<trkpt lat="43.838229999" lon="11.221403964"><ele>145</ele><time>2020-02-09T08:37:32Z</time></trkpt>
<trkpt lat="43.838222958" lon="11.221354008"><ele>144</ele><time>2020-02-09T08:37:33Z</time></trkpt>
<trkpt lat="43.838217007" lon="11.221303968"><ele>144</ele><time>2020-02-09T08:37:34Z</time></trkpt>
<trkpt lat="43.838212984" lon="11.221255017"><ele>144</ele><time>2020-02-09T08:37:35Z</time></trkpt>
<trkpt lat="43.83820896" lon="11.221205983"><ele>143</ele><time>2020-02-09T08:37:36Z</time></trkpt>
<trkpt lat="43.838206027" lon="11.221157033"><ele>143</ele><time>2020-02-09T08:37:37Z</time></trkpt>
<trkpt lat="43.838204015" lon="11.221107999"><ele>143</ele><time>2020-02-09T08:37:38Z</time></trkpt>
<trkpt lat="43.838203009" lon="11.221057959"><ele>142</ele><time>2020-02-09T08:37:39Z</time></trkpt>
<trkpt lat="43.838202003" lon="11.221005991"><ele>142</ele><time>2020-02-09T08:37:40Z</time></trkpt>
<trkpt lat="43.838200998" lon="11.220953017"><ele>142</ele><time>2020-02-09T08:37:41Z</time></trkpt>
<trkpt lat="43.838199992" lon="11.220899038"><ele>141</ele><time>2020-02-09T08:37:42Z</time></trkpt>
<trkpt lat="43.83819798" lon="11.220843969"><ele>141</ele><time>2020-02-09T08:37:43Z</time></trkpt>
<trkpt lat="43.838195968" lon="11.220788984"><ele>141</ele><time>2020-02-09T08:37:44Z</time></trkpt>
<trkpt lat="43.838192029" lon="11.220735004"><ele>141</ele><time>2020-02-09T08:37:45Z</time></trkpt>
<trkpt lat="43.838185994" lon="11.220682031"><ele>141</ele><time>2020-02-09T08:37:46Z</time></trkpt>
<trkpt lat="43.838178031" lon="11.220629979"><ele>142</ele><time>2020-02-09T08:37:47Z</time></trkpt>
<trkpt lat="43.838167973" lon="11.220580023"><ele>142</ele><time>2020-02-09T08:37:48Z</time></trkpt>
<trkpt lat="43.838154981" lon="11.220533"><ele>142</ele><time>2020-02-09T08:37:49Z</time></trkpt>
<trkpt lat="43.838138971" lon="11.220487989"><ele>142</ele><time>2020-02-09T08:37:50Z</time></trkpt>
<trkpt lat="43.838121034" lon="11.220443984"><ele>141</ele><time>2020-02-09T08:37:51Z</time></trkpt>
<trkpt lat="43.838102007" lon="11.220400985"><ele>141</ele><time>2020-02-09T08:37:52Z</time></trkpt>
<trkpt lat="43.838081975" lon="11.220358992"><ele>141</ele><time>2020-02-09T08:37:53Z</time></trkpt>
<trkpt lat="43.838062026" lon="11.220315993"><ele>141</ele><time>2020-02-09T08:37:54Z</time></trkpt>
<trkpt lat="43.838040987" lon="11.220271988"><ele>141</ele><time>2020-02-09T08:37:55Z</time></trkpt>
<trkpt lat="43.83802196" lon="11.220227983"><ele>140</ele><time>2020-02-09T08:37:56Z</time></trkpt>
<trkpt lat="43.838004023" lon="11.22018096"><ele>140</ele><time>2020-02-09T08:37:57Z</time></trkpt>
<trkpt lat="43.837986002" lon="11.220133016"><ele>140</ele><time>2020-02-09T08:37:58Z</time></trkpt>
<trkpt lat="43.837968986" lon="11.220084988"><ele>140</ele><time>2020-02-09T08:37:59Z</time></trkpt>
<trkpt lat="43.837952977" lon="11.220036959"><ele>140</ele><time>2020-02-09T08:38:00Z</time></trkpt>
<trkpt lat="43.837935962" lon="11.219990021"><ele>140</ele><time>2020-02-09T08:38:01Z</time></trkpt>
<trkpt lat="43.83791903" lon="11.219944004"><ele>139</ele><time>2020-02-09T08:38:02Z</time></trkpt>
<trkpt lat="43.837900003" lon="11.219901005"><ele>139</ele><time>2020-02-09T08:38:03Z</time></trkpt>
<trkpt lat="43.837880976" lon="11.219860017"><ele>139</ele><time>2020-02-09T08:38:04Z</time></trkpt>
<trkpt lat="43.837860022" lon="11.219822969"><ele>138</ele><time>2020-02-09T08:38:05Z</time></trkpt>
<trkpt lat="43.837788021" lon="11.219726996"><ele>137</ele><time>2020-02-09T08:38:08Z</time></trkpt>
<trkpt lat="43.837762037" lon="11.219697995"><ele>136</ele><time>2020-02-09T08:38:09Z</time></trkpt>
<trkpt lat="43.837734964" lon="11.219668994"><ele>136</ele><time>2020-02-09T08:38:10Z</time></trkpt>
<trkpt lat="43.837707974" lon="11.219639992"><ele>135</ele><time>2020-02-09T08:38:11Z</time></trkpt>
<trkpt lat="43.837679978" lon="11.219608979"><ele>134</ele><time>2020-02-09T08:38:12Z</time></trkpt>
<trkpt lat="43.837651983" lon="11.219576038"><ele>134</ele><time>2020-02-09T08:38:13Z</time></trkpt>
<trkpt lat="43.837623987" lon="11.219542008"><ele>133</ele><time>2020-02-09T08:38:14Z</time></trkpt>
<trkpt lat="43.837595992" lon="11.219505966"><ele>132</ele><time>2020-02-09T08:38:15Z</time></trkpt>
<trkpt lat="43.837569002" lon="11.219467996"><ele>131</ele><time>2020-02-09T08:38:16Z</time></trkpt>
<trkpt lat="43.837543018" lon="11.21942902"><ele>131</ele><time>2020-02-09T08:38:17Z</time></trkpt>
<trkpt lat="43.837518962" lon="11.219388032"><ele>130</ele><time>2020-02-09T08:38:18Z</time></trkpt>
<trkpt lat="43.837495996" lon="11.219346039"><ele>129</ele><time>2020-02-09T08:38:19Z</time></trkpt>
<trkpt lat="43.837474035" lon="11.219302034"><ele>129</ele><time>2020-02-09T08:38:20Z</time></trkpt>
<trkpt lat="43.837455008" lon="11.219257023"><ele>129</ele><time>2020-02-09T08:38:21Z</time></trkpt>
<trkpt lat="43.837437993" lon="11.219212012"><ele>128</ele><time>2020-02-09T08:38:22Z</time></trkpt>
<trkpt lat="43.837421983" lon="11.21916499"><ele>128</ele><time>2020-02-09T08:38:23Z</time></trkpt>
<trkpt lat="43.83740698" lon="11.219116962"><ele>128</ele><time>2020-02-09T08:38:24Z</time></trkpt>
<trkpt lat="43.837392982" lon="11.219069017"><ele>128</ele><time>2020-02-09T08:38:25Z</time></trkpt>
<trkpt lat="43.83737999" lon="11.219020989"><ele>127</ele><time>2020-02-09T08:38:26Z</time></trkpt>
<trkpt lat="43.837365992" lon="11.21897296"><ele>127</ele><time>2020-02-09T08:38:27Z</time></trkpt>
<trkpt lat="43.837350989" lon="11.218925016"><ele>127</ele><time>2020-02-09T08:38:28Z</time></trkpt>
<trkpt lat="43.837335985" lon="11.218877994"><ele>127</ele><time>2020-02-09T08:38:29Z</time></trkpt>
<trkpt lat="43.837320982" lon="11.218829965"><ele>127</ele><time>2020-02-09T08:38:30Z</time></trkpt>
<trkpt lat="43.837303966" lon="11.218783027"><ele>126</ele><time>2020-02-09T08:38:31Z</time></trkpt>
<trkpt lat="43.837287035" lon="11.218736004"><ele>126</ele><time>2020-02-09T08:38:32Z</time></trkpt>
<trkpt lat="43.83727002" lon="11.218687976"><ele>126</ele><time>2020-02-09T08:38:33Z</time></trkpt>
<trkpt lat="43.837253004" lon="11.218640031"><ele>126</ele><time>2020-02-09T08:38:34Z</time></trkpt>
<trkpt lat="43.837235989" lon="11.218592003"><ele>126</ele><time>2020-02-09T08:38:35Z</time></trkpt>
<trkpt lat="43.837218974" lon="11.218543975"><ele>125</ele><time>2020-02-09T08:38:36Z</time></trkpt>
<trkpt lat="43.837201959" lon="11.218495024"><ele>125</ele><time>2020-02-09T08:38:37Z</time></trkpt>
<trkpt lat="43.837185027" lon="11.21844599"><ele>125</ele><time>2020-02-09T08:38:38Z</time></trkpt>
<trkpt lat="43.837168012" lon="11.218398968"><ele>125</ele><time>2020-02-09T08:38:39Z</time></trkpt>
<trkpt lat="43.837149991" lon="11.218354041"><ele>124</ele><time>2020-02-09T08:38:40Z</time></trkpt>
<trkpt lat="43.837130964" lon="11.218312969"><ele>124</ele><time>2020-02-09T08:38:41Z</time></trkpt>
<trkpt lat="43.837111015" lon="11.218276005"><ele>124</ele><time>2020-02-09T08:38:42Z</time></trkpt>
<trkpt lat="43.837089976" lon="11.218244992"><ele>123</ele><time>2020-02-09T08:38:43Z</time></trkpt>
<trkpt lat="43.837066004" lon="11.21822102"><ele>123</ele><time>2020-02-09T08:38:44Z</time></trkpt>
<trkpt lat="43.837041026" lon="11.218202999"><ele>122</ele><time>2020-02-09T08:38:45Z</time></trkpt>
<trkpt lat="43.83701303" lon="11.218192019"><ele>122</ele><time>2020-02-09T08:38:46Z</time></trkpt>
<trkpt lat="43.836982017" lon="11.218187995"><ele>121</ele><time>2020-02-09T08:38:47Z</time></trkpt>
<trkpt lat="43.836947987" lon="11.218190007"><ele>121</ele><time>2020-02-09T08:38:48Z</time></trkpt>
<trkpt lat="43.836912028" lon="11.218196964"><ele>120</ele><time>2020-02-09T08:38:49Z</time></trkpt>
<trkpt lat="43.836836005" lon="11.218211967"><ele>120</ele><time>2020-02-09T08:38:51Z</time></trkpt>
<trkpt lat="43.836797029" lon="11.218214985"><ele>119</ele><time>2020-02-09T08:38:52Z</time></trkpt>
<trkpt lat="43.836758975" lon="11.218214985"><ele>119</ele><time>2020-02-09T08:38:53Z</time></trkpt>
<trkpt lat="43.836721005" lon="11.218212973"><ele>118</ele><time>2020-02-09T08:38:54Z</time></trkpt>
<trkpt lat="43.836683035" lon="11.218208028"><ele>118</ele><time>2020-02-09T08:38:55Z</time></trkpt>
<trkpt lat="43.836644981" lon="11.218200987"><ele>117</ele><time>2020-02-09T08:38:56Z</time></trkpt>
<trkpt lat="43.836608017" lon="11.21819403"><ele>117</ele><time>2020-02-09T08:38:57Z</time></trkpt>
<trkpt lat="43.836570969" lon="11.218185984"><ele>117</ele><time>2020-02-09T08:38:58Z</time></trkpt>
<trkpt lat="43.836532999" lon="11.218178021"><ele>116</ele><time>2020-02-09T08:38:59Z</time></trkpt>
<trkpt lat="43.83649704" lon="11.21817098"><ele>116</ele><time>2020-02-09T08:39:00Z</time></trkpt>
<trkpt lat="43.836459992" lon="11.218165029"><ele>116</ele><time>2020-02-09T08:39:01Z</time></trkpt>
<trkpt lat="43.836423028" lon="11.218158994"><ele>116</ele><time>2020-02-09T08:39:02Z</time></trkpt>
<trkpt lat="43.836386986" lon="11.218154971"><ele>115</ele><time>2020-02-09T08:39:03Z</time></trkpt>
<trkpt lat="43.836351028" lon="11.218151031"><ele>115</ele><time>2020-02-09T08:39:04Z</time></trkpt>
<trkpt lat="43.836314986" lon="11.218148014"><ele>115</ele><time>2020-02-09T08:39:05Z</time></trkpt>
<trkpt lat="43.836279027" lon="11.218144996"><ele>115</ele><time>2020-02-09T08:39:06Z</time></trkpt>
<trkpt lat="43.836242985" lon="11.218142984"><ele>114</ele><time>2020-02-09T08:39:07Z</time></trkpt>
<trkpt lat="43.836207027" lon="11.218140973"><ele>114</ele><time>2020-02-09T08:39:08Z</time></trkpt>
<trkpt lat="43.83609999" lon="11.21814399"><ele>113</ele><time>2020-02-09T08:39:11Z</time></trkpt>
<trkpt lat="43.836065037" lon="11.218147008"><ele>113</ele><time>2020-02-09T08:39:12Z</time></trkpt>
<trkpt lat="43.836028995" lon="11.218152959"><ele>113</ele><time>2020-02-09T08:39:13Z</time></trkpt>
<trkpt lat="43.835993959" lon="11.218161006"><ele>113</ele><time>2020-02-09T08:39:14Z</time></trkpt>
<trkpt lat="43.835958" lon="11.218171986"><ele>113</ele><time>2020-02-09T08:39:15Z</time></trkpt>
<trkpt lat="43.835922964" lon="11.218185984"><ele>112</ele><time>2020-02-09T08:39:16Z</time></trkpt>
<trkpt lat="43.835887006" lon="11.218200987"><ele>112</ele><time>2020-02-09T08:39:17Z</time></trkpt>
<trkpt lat="43.835851969" lon="11.218218002"><ele>112</ele><time>2020-02-09T08:39:18Z</time></trkpt>
<trkpt lat="43.835816011" lon="11.218234012"><ele>112</ele><time>2020-02-09T08:39:19Z</time></trkpt>
<trkpt lat="43.835779969" lon="11.218250021"><ele>112</ele><time>2020-02-09T08:39:20Z</time></trkpt>
<trkpt lat="43.83574401" lon="11.218264019"><ele>111</ele><time>2020-02-09T08:39:21Z</time></trkpt>
<trkpt lat="43.835707968" lon="11.218274999"><ele>111</ele><time>2020-02-09T08:39:22Z</time></trkpt>
<trkpt lat="43.835599003" lon="11.218284974"><ele>110</ele><time>2020-02-09T08:39:25Z</time></trkpt>
<trkpt lat="43.835562039" lon="11.218282962"><ele>110</ele><time>2020-02-09T08:39:26Z</time></trkpt>
<trkpt lat="43.835527003" lon="11.218281034"><ele>110</ele><time>2020-02-09T08:39:27Z</time></trkpt>
<trkpt lat="43.835490961" lon="11.218281034"><ele>110</ele><time>2020-02-09T08:39:28Z</time></trkpt>
<trkpt lat="43.835456008" lon="11.218282962"><ele>110</ele><time>2020-02-09T08:39:29Z</time></trkpt>
<trkpt lat="43.835421978" lon="11.218290003"><ele>109</ele><time>2020-02-09T08:39:30Z</time></trkpt>
<trkpt lat="43.835389037" lon="11.218301989"><ele>109</ele><time>2020-02-09T08:39:31Z</time></trkpt>
<trkpt lat="43.835357018" lon="11.218322022"><ele>109</ele><time>2020-02-09T08:39:32Z</time></trkpt>
<trkpt lat="43.835326005" lon="11.218348006"><ele>109</ele><time>2020-02-09T08:39:33Z</time></trkpt>
<trkpt lat="43.835297003" lon="11.218379019"><ele>109</ele><time>2020-02-09T08:39:34Z</time></trkpt>
<trkpt lat="43.835268002" lon="11.218413971"><ele>109</ele><time>2020-02-09T08:39:35Z</time></trkpt>
<trkpt lat="43.835240006" lon="11.218452025"><ele>109</ele><time>2020-02-09T08:39:36Z</time></trkpt>
<trkpt lat="43.835214023" lon="11.218491001"><ele>109</ele><time>2020-02-09T08:39:37Z</time></trkpt>
<trkpt lat="43.835188039" lon="11.218529977"><ele>109</ele><time>2020-02-09T08:39:38Z</time></trkpt>
<trkpt lat="43.835162977" lon="11.218569037"><ele>109</ele><time>2020-02-09T08:39:39Z</time></trkpt>
<trkpt lat="43.83514001" lon="11.218604995"><ele>109</ele><time>2020-02-09T08:39:40Z</time></trkpt>
<trkpt lat="43.83511696" lon="11.218639025"><ele>109</ele><time>2020-02-09T08:39:41Z</time></trkpt>
<trkpt lat="43.835093994" lon="11.218670961"><ele>109</ele><time>2020-02-09T08:39:42Z</time></trkpt>
<trkpt lat="43.835072033" lon="11.218699962"><ele>109</ele><time>2020-02-09T08:39:43Z</time></trkpt>
<trkpt lat="43.835049989" lon="11.218725024"><ele>110</ele><time>2020-02-09T08:39:44Z</time></trkpt>
<trkpt lat="43.835028028" lon="11.218746984"><ele>110</ele><time>2020-02-09T08:39:45Z</time></trkpt>
<trkpt lat="43.835005984" lon="11.218766011"><ele>110</ele><time>2020-02-09T08:39:46Z</time></trkpt>
<trkpt lat="43.834983017" lon="11.218781015"><ele>110</ele><time>2020-02-09T08:39:47Z</time></trkpt>
<trkpt lat="43.834959967" lon="11.218789984"><ele>110</ele><time>2020-02-09T08:39:48Z</time></trkpt>
<trkpt lat="43.834937001" lon="11.218791995"><ele>110</ele><time>2020-02-09T08:39:49Z</time></trkpt>
<trkpt lat="43.834913028" lon="11.21878596"><ele>110</ele><time>2020-02-09T08:39:50Z</time></trkpt>
<trkpt lat="43.834843962" lon="11.218722006"><ele>109</ele><time>2020-02-09T08:39:53Z</time></trkpt>
<trkpt lat="43.834822001" lon="11.21869904"><ele>109</ele><time>2020-02-09T08:39:54Z</time></trkpt>
<trkpt lat="43.834801968" lon="11.218681019"><ele>109</ele><time>2020-02-09T08:39:55Z</time></trkpt>
<trkpt lat="43.834760981" lon="11.218655035"><ele>109</ele><time>2020-02-09T08:39:57Z</time></trkpt>
<trkpt lat="43.834738014" lon="11.218643971"><ele>109</ele><time>2020-02-09T08:39:58Z</time></trkpt>
<trkpt lat="43.834710019" lon="11.218631985"><ele>109</ele><time>2020-02-09T08:39:59Z</time></trkpt>
<trkpt lat="43.834680011" lon="11.218618993"><ele>109</ele><time>2020-02-09T08:40:00Z</time></trkpt>
<trkpt lat="43.834647993" lon="11.218607007"><ele>108</ele><time>2020-02-09T08:40:01Z</time></trkpt>
<trkpt lat="43.834613962" lon="11.218597032"><ele>108</ele><time>2020-02-09T08:40:02Z</time></trkpt>
<trkpt lat="43.834580015" lon="11.218588986"><ele>108</ele><time>2020-02-09T08:40:03Z</time></trkpt>
<trkpt lat="43.834545985" lon="11.218583034"><ele>108</ele><time>2020-02-09T08:40:04Z</time></trkpt>
<trkpt lat="43.83451296" lon="11.218578005"><ele>108</ele><time>2020-02-09T08:40:05Z</time></trkpt>
<trkpt lat="43.834479013" lon="11.218574988"><ele>108</ele><time>2020-02-09T08:40:06Z</time></trkpt>
<trkpt lat="43.834445989" lon="11.21857197"><ele>108</ele><time>2020-02-09T08:40:07Z</time></trkpt>
<trkpt lat="43.83441397" lon="11.218569959"><ele>108</ele><time>2020-02-09T08:40:08Z</time></trkpt>
<trkpt lat="43.834382035" lon="11.218568031"><ele>108</ele><time>2020-02-09T08:40:09Z</time></trkpt>
<trkpt lat="43.834352028" lon="11.218566019"><ele>108</ele><time>2020-02-09T08:40:10Z</time></trkpt>
<trkpt lat="43.83432202" lon="11.218563002"><ele>108</ele><time>2020-02-09T08:40:11Z</time></trkpt>
<trkpt lat="43.834236022" lon="11.218552021"><ele>107</ele><time>2020-02-09T08:40:14Z</time></trkpt>
<trkpt lat="43.834208027" lon="11.218549004"><ele>107</ele><time>2020-02-09T08:40:15Z</time></trkpt>
<trkpt lat="43.834180031" lon="11.218546992"><ele>107</ele><time>2020-02-09T08:40:16Z</time></trkpt>
<trkpt lat="43.834090009" lon="11.218547998"><ele>107</ele><time>2020-02-09T08:40:19Z</time></trkpt>
<trkpt lat="43.834058996" lon="11.218552021"><ele>107</ele><time>2020-02-09T08:40:20Z</time></trkpt>
<trkpt lat="43.834026977" lon="11.218556967"><ele>107</ele><time>2020-02-09T08:40:21Z</time></trkpt>
<trkpt lat="43.833994037" lon="11.218564007"><ele>106</ele><time>2020-02-09T08:40:22Z</time></trkpt>
<trkpt lat="43.833962018" lon="11.21857197"><ele>106</ele><time>2020-02-09T08:40:23Z</time></trkpt>
<trkpt lat="43.833929999" lon="11.218582029"><ele>106</ele><time>2020-02-09T08:40:24Z</time></trkpt>
<trkpt lat="43.833898986" lon="11.218593009"><ele>106</ele><time>2020-02-09T08:40:25Z</time></trkpt>
<trkpt lat="43.833868979" lon="11.218604995"><ele>106</ele><time>2020-02-09T08:40:26Z</time></trkpt>
<trkpt lat="43.833838971" lon="11.218617987"><ele>106</ele><time>2020-02-09T08:40:27Z</time></trkpt>
<trkpt lat="43.833810976" lon="11.21863299"><ele>106</ele><time>2020-02-09T08:40:28Z</time></trkpt>
<trkpt lat="43.833783986" lon="11.218646988"><ele>106</ele><time>2020-02-09T08:40:29Z</time></trkpt>
<trkpt lat="43.833756996" lon="11.218662998"><ele>106</ele><time>2020-02-09T08:40:30Z</time></trkpt>
<trkpt lat="43.833730007" lon="11.218678001"><ele>106</ele><time>2020-02-09T08:40:31Z</time></trkpt>
<trkpt lat="43.833704023" lon="11.218691999"><ele>106</ele><time>2020-02-09T08:40:32Z</time></trkpt>
<trkpt lat="43.833678039" lon="11.218705997"><ele>106</ele><time>2020-02-09T08:40:33Z</time></trkpt>
<trkpt lat="43.833650965" lon="11.218718989"><ele>106</ele><time>2020-02-09T08:40:34Z</time></trkpt>
<trkpt lat="43.833624981" lon="11.218730975"><ele>106</ele><time>2020-02-09T08:40:35Z</time></trkpt>
<trkpt lat="43.833597992" lon="11.218742039"><ele>106</ele><time>2020-02-09T08:40:36Z</time></trkpt>
<trkpt lat="43.833569996" lon="11.218752014"><ele>106</ele><time>2020-02-09T08:40:37Z</time></trkpt>
<trkpt lat="43.833542001" lon="11.218760982"><ele>106</ele><time>2020-02-09T08:40:38Z</time></trkpt>
<trkpt lat="43.833514005" lon="11.218770035"><ele>105</ele><time>2020-02-09T08:40:39Z</time></trkpt>
<trkpt lat="43.833486009" lon="11.218777997"><ele>105</ele><time>2020-02-09T08:40:40Z</time></trkpt>
<trkpt lat="43.833457008" lon="11.218785038"><ele>105</ele><time>2020-02-09T08:40:41Z</time></trkpt>
<trkpt lat="43.833428007" lon="11.218793001"><ele>105</ele><time>2020-02-09T08:40:42Z</time></trkpt>
<trkpt lat="43.833397999" lon="11.218800042"><ele>105</ele><time>2020-02-09T08:40:43Z</time></trkpt>
<trkpt lat="43.833368998" lon="11.218806999"><ele>105</ele><time>2020-02-09T08:40:44Z</time></trkpt>
<trkpt lat="43.833337985" lon="11.218814962"><ele>105</ele><time>2020-02-09T08:40:45Z</time></trkpt>
<trkpt lat="43.833307978" lon="11.218822002"><ele>105</ele><time>2020-02-09T08:40:46Z</time></trkpt>
<trkpt lat="43.833276965" lon="11.218830971"><ele>105</ele><time>2020-02-09T08:40:47Z</time></trkpt>
<trkpt lat="43.833246036" lon="11.218839018"><ele>104</ele><time>2020-02-09T08:40:48Z</time></trkpt>
<trkpt lat="43.833215022" lon="11.218848992"><ele>104</ele><time>2020-02-09T08:40:49Z</time></trkpt>
<trkpt lat="43.833183004" lon="11.218859972"><ele>104</ele><time>2020-02-09T08:40:50Z</time></trkpt>
<trkpt lat="43.833150985" lon="11.218871037"><ele>104</ele><time>2020-02-09T08:40:51Z</time></trkpt>
<trkpt lat="43.833118966" lon="11.218883023"><ele>104</ele><time>2020-02-09T08:40:52Z</time></trkpt>
<trkpt lat="43.833086025" lon="11.218896015"><ele>104</ele><time>2020-02-09T08:40:53Z</time></trkpt>
<trkpt lat="43.833054006" lon="11.218910012"><ele>104</ele><time>2020-02-09T08:40:54Z</time></trkpt>
<trkpt lat="43.833020981" lon="11.21892401"><ele>104</ele><time>2020-02-09T08:40:55Z</time></trkpt>
<trkpt lat="43.832988041" lon="11.218939014"><ele>104</ele><time>2020-02-09T08:40:56Z</time></trkpt>
<trkpt lat="43.832955016" lon="11.218954017"><ele>104</ele><time>2020-02-09T08:40:57Z</time></trkpt>
<trkpt lat="43.832920985" lon="11.218970027"><ele>104</ele><time>2020-02-09T08:40:58Z</time></trkpt>
<trkpt lat="43.832887961" lon="11.218986036"><ele>103</ele><time>2020-02-09T08:40:59Z</time></trkpt>
<trkpt lat="43.83285502" lon="11.219002968"><ele>103</ele><time>2020-02-09T08:41:00Z</time></trkpt>
<trkpt lat="43.832820989" lon="11.219019983"><ele>103</ele><time>2020-02-09T08:41:01Z</time></trkpt>
<trkpt lat="43.832787964" lon="11.219036998"><ele>103</ele><time>2020-02-09T08:41:02Z</time></trkpt>
<trkpt lat="43.832755024" lon="11.219055019"><ele>103</ele><time>2020-02-09T08:41:03Z</time></trkpt>
<trkpt lat="43.832720993" lon="11.21907304"><ele>103</ele><time>2020-02-09T08:41:04Z</time></trkpt>
<trkpt lat="43.832687968" lon="11.219089972"><ele>102</ele><time>2020-02-09T08:41:05Z</time></trkpt>
<trkpt lat="43.832655028" lon="11.219107993"><ele>102</ele><time>2020-02-09T08:41:06Z</time></trkpt>
<trkpt lat="43.832556037" lon="11.219161972"><ele>102</ele><time>2020-02-09T08:41:09Z</time></trkpt>
<trkpt lat="43.832523013" lon="11.219179993"><ele>101</ele><time>2020-02-09T08:41:10Z</time></trkpt>
<trkpt lat="43.832488982" lon="11.21919902"><ele>101</ele><time>2020-02-09T08:41:11Z</time></trkpt>
<trkpt lat="43.832456041" lon="11.219217042"><ele>101</ele><time>2020-02-09T08:41:12Z</time></trkpt>
<trkpt lat="43.832422011" lon="11.219234979"><ele>101</ele><time>2020-02-09T08:41:13Z</time></trkpt>
<trkpt lat="43.83238798" lon="11.219253"><ele>100</ele><time>2020-02-09T08:41:14Z</time></trkpt>
<trkpt lat="43.832353028" lon="11.219271021"><ele>100</ele><time>2020-02-09T08:41:15Z</time></trkpt>
<trkpt lat="43.832318997" lon="11.219288958"><ele>100</ele><time>2020-02-09T08:41:16Z</time></trkpt>
<trkpt lat="43.832283961" lon="11.219305974"><ele>100</ele><time>2020-02-09T08:41:17Z</time></trkpt>
<trkpt lat="43.832250014" lon="11.219321983"><ele>100</ele><time>2020-02-09T08:41:18Z</time></trkpt>
<trkpt lat="43.832215983" lon="11.219336987"><ele>99</ele><time>2020-02-09T08:41:19Z</time></trkpt>
<trkpt lat="43.832182959" lon="11.219350984"><ele>99</ele><time>2020-02-09T08:41:20Z</time></trkpt>
<trkpt lat="43.832150018" lon="11.21936297"><ele>99</ele><time>2020-02-09T08:41:21Z</time></trkpt>
<trkpt lat="43.832117999" lon="11.21937504"><ele>99</ele><time>2020-02-09T08:41:22Z</time></trkpt>
<trkpt lat="43.832086986" lon="11.219387027"><ele>99</ele><time>2020-02-09T08:41:23Z</time></trkpt>
<trkpt lat="43.832057985" lon="11.219400018"><ele>99</ele><time>2020-02-09T08:41:24Z</time></trkpt>
<trkpt lat="43.832028983" lon="11.219414016"><ele>98</ele><time>2020-02-09T08:41:25Z</time></trkpt>
<trkpt lat="43.832002999" lon="11.219431031"><ele>98</ele><time>2020-02-09T08:41:26Z</time></trkpt>
<trkpt lat="43.831977015" lon="11.21945098"><ele>98</ele><time>2020-02-09T08:41:27Z</time></trkpt>
<trkpt lat="43.831953965" lon="11.219474031"><ele>98</ele><time>2020-02-09T08:41:28Z</time></trkpt>
<trkpt lat="43.831932005" lon="11.219502026"><ele>98</ele><time>2020-02-09T08:41:29Z</time></trkpt>
<trkpt lat="43.83190996" lon="11.219533039"><ele>98</ele><time>2020-02-09T08:41:30Z</time></trkpt>
<trkpt lat="43.831842989" lon="11.219622977"><ele>98</ele><time>2020-02-09T08:41:33Z</time></trkpt>
<trkpt lat="43.83182304" lon="11.219646027"><ele>98</ele><time>2020-02-09T08:41:34Z</time></trkpt>
<trkpt lat="43.831805019" lon="11.219667988"><ele>98</ele><time>2020-02-09T08:41:35Z</time></trkpt>
<trkpt lat="43.831788003" lon="11.219689026"><ele>98</ele><time>2020-02-09T08:41:36Z</time></trkpt>
<trkpt lat="43.831770988" lon="11.219710987"><ele>98</ele><time>2020-02-09T08:41:37Z</time></trkpt>
<trkpt lat="43.831753973" lon="11.219733031"><ele>98</ele><time>2020-02-09T08:41:38Z</time></trkpt>
<trkpt lat="43.831737963" lon="11.219755998"><ele>98</ele><time>2020-02-09T08:41:39Z</time></trkpt>
<trkpt lat="43.831722038" lon="11.219778964"><ele>98</ele><time>2020-02-09T08:41:40Z</time></trkpt>
<trkpt lat="43.831707034" lon="11.219802015"><ele>98</ele><time>2020-02-09T08:41:41Z</time></trkpt>
<trkpt lat="43.831692031" lon="11.219824981"><ele>98</ele><time>2020-02-09T08:41:42Z</time></trkpt>
<trkpt lat="43.831678033" lon="11.219849037"><ele>98</ele><time>2020-02-09T08:41:43Z</time></trkpt>
<trkpt lat="43.831665041" lon="11.219872003"><ele>98</ele><time>2020-02-09T08:41:44Z</time></trkpt>
<trkpt lat="43.831651965" lon="11.21989497"><ele>98</ele><time>2020-02-09T08:41:45Z</time></trkpt>
<trkpt lat="43.831638973" lon="11.219917014"><ele>98</ele><time>2020-02-09T08:41:46Z</time></trkpt>
<trkpt lat="43.831626987" lon="11.219939981"><ele>98</ele><time>2020-02-09T08:41:47Z</time></trkpt>
<trkpt lat="43.831613995" lon="11.219964037"><ele>98</ele><time>2020-02-09T08:41:48Z</time></trkpt>
<trkpt lat="43.831599997" lon="11.219988009"><ele>98</ele><time>2020-02-09T08:41:49Z</time></trkpt>
<trkpt lat="43.831584994" lon="11.220013993"><ele>98</ele><time>2020-02-09T08:41:50Z</time></trkpt>
<trkpt lat="43.831568984" lon="11.220040983"><ele>98</ele><time>2020-02-09T08:41:51Z</time></trkpt>
<trkpt lat="43.831550963" lon="11.220069984"><ele>98</ele><time>2020-02-09T08:41:52Z</time></trkpt>
<trkpt lat="43.83153202" lon="11.220099991"><ele>98</ele><time>2020-02-09T08:41:53Z</time></trkpt>
<trkpt lat="43.831510982" lon="11.220131004"><ele>98</ele><time>2020-02-09T08:41:54Z</time></trkpt>
<trkpt lat="43.831490027" lon="11.220162017"><ele>99</ele><time>2020-02-09T08:41:55Z</time></trkpt>
<trkpt lat="43.83142096" lon="11.220253967"><ele>99</ele><time>2020-02-09T08:41:58Z</time></trkpt>
<trkpt lat="43.831396988" lon="11.220281962"><ele>99</ele><time>2020-02-09T08:41:59Z</time></trkpt>
<trkpt lat="43.831373015" lon="11.22030803"><ele>99</ele><time>2020-02-09T08:42:00Z</time></trkpt>
<trkpt lat="43.831349965" lon="11.220333008"><ele>99</ele><time>2020-02-09T08:42:01Z</time></trkpt>
<trkpt lat="43.831325993" lon="11.22035698"><ele>99</ele><time>2020-02-09T08:42:02Z</time></trkpt>
<trkpt lat="43.831301015" lon="11.220380031"><ele>100</ele><time>2020-02-09T08:42:03Z</time></trkpt>
<trkpt lat="43.831276037" lon="11.220402997"><ele>100</ele><time>2020-02-09T08:42:04Z</time></trkpt>
<trkpt lat="43.831249969" lon="11.220425963"><ele>100</ele><time>2020-02-09T08:42:05Z</time></trkpt>
<trkpt lat="43.831223985" lon="11.220450019"><ele>100</ele><time>2020-02-09T08:42:06Z</time></trkpt>
<trkpt lat="43.83119599" lon="11.220474998"><ele>100</ele><time>2020-02-09T08:42:07Z</time></trkpt>
<trkpt lat="43.831166988" lon="11.220500981"><ele>100</ele><time>2020-02-09T08:42:08Z</time></trkpt>
<trkpt lat="43.831137987" lon="11.22052596"><ele>101</ele><time>2020-02-09T08:42:09Z</time></trkpt>
<trkpt lat="43.83110798" lon="11.220544986"><ele>101</ele><time>2020-02-09T08:42:10Z</time></trkpt>
<trkpt lat="43.831077972" lon="11.220555967"><ele>101</ele><time>2020-02-09T08:42:11Z</time></trkpt>
<trkpt lat="43.831047965" lon="11.220556973"><ele>101</ele><time>2020-02-09T08:42:12Z</time></trkpt>
<trkpt lat="43.831018042" lon="11.220548004"><ele>101</ele><time>2020-02-09T08:42:13Z</time></trkpt>
<trkpt lat="43.830987029" lon="11.220535012"><ele>101</ele><time>2020-02-09T08:42:14Z</time></trkpt>
<trkpt lat="43.830957022" lon="11.220520008"><ele>100</ele><time>2020-02-09T08:42:15Z</time></trkpt>
<trkpt lat="43.830926009" lon="11.220506011"><ele>100</ele><time>2020-02-09T08:42:16Z</time></trkpt>
<trkpt lat="43.830894995" lon="11.220493019"><ele>100</ele><time>2020-02-09T08:42:17Z</time></trkpt>
<trkpt lat="43.830862977" lon="11.220480027"><ele>100</ele><time>2020-02-09T08:42:18Z</time></trkpt>
<trkpt lat="43.830831042" lon="11.220468963"><ele>100</ele><time>2020-02-09T08:42:19Z</time></trkpt>
<trkpt lat="43.830798017" lon="11.220457982"><ele>100</ele><time>2020-02-09T08:42:20Z</time></trkpt>
<trkpt lat="43.830763986" lon="11.220447002"><ele>100</ele><time>2020-02-09T08:42:21Z</time></trkpt>
<trkpt lat="43.83073004" lon="11.220436022"><ele>99</ele><time>2020-02-09T08:42:22Z</time></trkpt>
<trkpt lat="43.830695003" lon="11.220425041"><ele>99</ele><time>2020-02-09T08:42:23Z</time></trkpt>
<trkpt lat="43.830658961" lon="11.220413977"><ele>99</ele><time>2020-02-09T08:42:24Z</time></trkpt>
<trkpt lat="43.830623003" lon="11.220400985"><ele>99</ele><time>2020-02-09T08:42:25Z</time></trkpt>
<trkpt lat="43.830587966" lon="11.220385982"><ele>99</ele><time>2020-02-09T08:42:26Z</time></trkpt>
<trkpt lat="43.83055402" lon="11.220367039"><ele>98</ele><time>2020-02-09T08:42:27Z</time></trkpt>
<trkpt lat="43.830523007" lon="11.220344994"><ele>98</ele><time>2020-02-09T08:42:28Z</time></trkpt>
<trkpt lat="43.830491994" lon="11.220321022"><ele>98</ele><time>2020-02-09T08:42:29Z</time></trkpt>
<trkpt lat="43.830460981" lon="11.22029596"><ele>97</ele><time>2020-02-09T08:42:30Z</time></trkpt>
<trkpt lat="43.830428962" lon="11.220273999"><ele>97</ele><time>2020-02-09T08:42:31Z</time></trkpt>
<trkpt lat="43.830395015" lon="11.220254973"><ele>97</ele><time>2020-02-09T08:42:32Z</time></trkpt>
<trkpt lat="43.830358973" lon="11.220238041"><ele>96</ele><time>2020-02-09T08:42:33Z</time></trkpt>
<trkpt lat="43.830322009" lon="11.22022396"><ele>96</ele><time>2020-02-09T08:42:34Z</time></trkpt>
<trkpt lat="43.830285966" lon="11.220209962"><ele>96</ele><time>2020-02-09T08:42:35Z</time></trkpt>
<trkpt lat="43.830251014" lon="11.220194958"><ele>96</ele><time>2020-02-09T08:42:36Z</time></trkpt>
<trkpt lat="43.830218995" lon="11.220178027"><ele>95</ele><time>2020-02-09T08:42:37Z</time></trkpt>
<trkpt lat="43.830189994" lon="11.220159"><ele>95</ele><time>2020-02-09T08:42:38Z</time></trkpt>
<trkpt lat="43.830134002" lon="11.220076019"><ele>94</ele><time>2020-02-09T08:42:41Z</time></trkpt>
<trkpt lat="43.830130985" lon="11.220040983"><ele>93</ele><time>2020-02-09T08:42:42Z</time></trkpt>
<trkpt lat="43.830179013" lon="11.219938975"><ele>92</ele><time>2020-02-09T08:42:45Z</time></trkpt>
<trkpt lat="43.830203991" lon="11.21990704"><ele>92</ele><time>2020-02-09T08:42:46Z</time></trkpt>
<trkpt lat="43.830227964" lon="11.219874015"><ele>92</ele><time>2020-02-09T08:42:47Z</time></trkpt>
<trkpt lat="43.830246991" lon="11.219837973"><ele>92</ele><time>2020-02-09T08:42:48Z</time></trkpt>
<trkpt lat="43.830264006" lon="11.219801009"><ele>92</ele><time>2020-02-09T08:42:49Z</time></trkpt>
<trkpt lat="43.830279009" lon="11.219762033"><ele>91</ele><time>2020-02-09T08:42:50Z</time></trkpt>
<trkpt lat="43.830296025" lon="11.219720962"><ele>91</ele><time>2020-02-09T08:42:51Z</time></trkpt>
<trkpt lat="43.830313962" lon="11.219679974"><ele>91</ele><time>2020-02-09T08:42:52Z</time></trkpt>
<trkpt lat="43.830333995" lon="11.219636975"><ele>91</ele><time>2020-02-09T08:42:53Z</time></trkpt>
<trkpt lat="43.830355033" lon="11.219593976"><ele>90</ele><time>2020-02-09T08:42:54Z</time></trkpt>
<trkpt lat="43.830374982" lon="11.219548965"><ele>90</ele><time>2020-02-09T08:42:55Z</time></trkpt>
<trkpt lat="43.830393003" lon="11.219504038"><ele>90</ele><time>2020-02-09T08:42:56Z</time></trkpt>
<trkpt lat="43.830409013" lon="11.219459027"><ele>89</ele><time>2020-02-09T08:42:57Z</time></trkpt>
<trkpt lat="43.830419993" lon="11.219414016"><ele>89</ele><time>2020-02-09T08:42:58Z</time></trkpt>
<trkpt lat="43.830426028" lon="11.219372023"><ele>89</ele><time>2020-02-09T08:42:59Z</time></trkpt>
<trkpt lat="43.830426028" lon="11.219331035"><ele>88</ele><time>2020-02-09T08:43:00Z</time></trkpt>
<trkpt lat="43.830417981" lon="11.219292982"><ele>88</ele><time>2020-02-09T08:43:01Z</time></trkpt>
<trkpt lat="43.830343969" lon="11.219201032"><ele>87</ele><time>2020-02-09T08:43:04Z</time></trkpt>
<trkpt lat="43.830308011" lon="11.219176976"><ele>86</ele><time>2020-02-09T08:43:05Z</time></trkpt>
<trkpt lat="43.830270041" lon="11.219153004"><ele>86</ele><time>2020-02-09T08:43:06Z</time></trkpt>
<trkpt lat="43.830160992" lon="11.219090978"><ele>85</ele><time>2020-02-09T08:43:09Z</time></trkpt>
<trkpt lat="43.830127968" lon="11.219079997"><ele>84</ele><time>2020-02-09T08:43:10Z</time></trkpt>
<trkpt lat="43.830096032" lon="11.219075974"><ele>84</ele><time>2020-02-09T08:43:11Z</time></trkpt>
<trkpt lat="43.830066025" lon="11.219078992"><ele>84</ele><time>2020-02-09T08:43:12Z</time></trkpt>
<trkpt lat="43.83003803" lon="11.21908796"><ele>84</ele><time>2020-02-09T08:43:13Z</time></trkpt>
<trkpt lat="43.830011962" lon="11.219102042"><ele>84</ele><time>2020-02-09T08:43:14Z</time></trkpt>
<trkpt lat="43.82998799" lon="11.219121991"><ele>84</ele><time>2020-02-09T08:43:15Z</time></trkpt>
<trkpt lat="43.829966029" lon="11.219145963"><ele>84</ele><time>2020-02-09T08:43:16Z</time></trkpt>
<trkpt lat="43.829945996" lon="11.219173037"><ele>84</ele><time>2020-02-09T08:43:17Z</time></trkpt>
<trkpt lat="43.829927975" lon="11.219203966"><ele>84</ele><time>2020-02-09T08:43:18Z</time></trkpt>
<trkpt lat="43.829911966" lon="11.219235985"><ele>85</ele><time>2020-02-09T08:43:19Z</time></trkpt>
<trkpt lat="43.829897968" lon="11.219271021"><ele>85</ele><time>2020-02-09T08:43:20Z</time></trkpt>
<trkpt lat="43.829884976" lon="11.219305974"><ele>85</ele><time>2020-02-09T08:43:21Z</time></trkpt>
<trkpt lat="43.829873996" lon="11.219342016"><ele>86</ele><time>2020-02-09T08:43:22Z</time></trkpt>
<trkpt lat="43.829863016" lon="11.219376968"><ele>86</ele><time>2020-02-09T08:43:23Z</time></trkpt>
<trkpt lat="43.829852035" lon="11.219412005"><ele>86</ele><time>2020-02-09T08:43:24Z</time></trkpt>
<trkpt lat="43.829840971" lon="11.219446035"><ele>87</ele><time>2020-02-09T08:43:25Z</time></trkpt>
<trkpt lat="43.829828985" lon="11.21947797"><ele>87</ele><time>2020-02-09T08:43:26Z</time></trkpt>
<trkpt lat="43.829816999" lon="11.219506972"><ele>87</ele><time>2020-02-09T08:43:27Z</time></trkpt>
<trkpt lat="43.829803001" lon="11.219533961"><ele>88</ele><time>2020-02-09T08:43:28Z</time></trkpt>
<trkpt lat="43.829786992" lon="11.219558017"><ele>88</ele><time>2020-02-09T08:43:29Z</time></trkpt>
<trkpt lat="43.829768971" lon="11.219578972"><ele>88</ele><time>2020-02-09T08:43:30Z</time></trkpt>
<trkpt lat="43.829749022" lon="11.219597999"><ele>88</ele><time>2020-02-09T08:43:31Z</time></trkpt>
<trkpt lat="43.829725971" lon="11.219613003"><ele>89</ele><time>2020-02-09T08:43:32Z</time></trkpt>
<trkpt lat="43.829700993" lon="11.219623983"><ele>89</ele><time>2020-02-09T08:43:33Z</time></trkpt>
<trkpt lat="43.829674004" lon="11.219629012"><ele>89</ele><time>2020-02-09T08:43:34Z</time></trkpt>
<trkpt lat="43.829647014" lon="11.219629012"><ele>89</ele><time>2020-02-09T08:43:35Z</time></trkpt>
<trkpt lat="43.829618013" lon="11.219623983"><ele>89</ele><time>2020-02-09T08:43:36Z</time></trkpt>
<trkpt lat="43.829588005" lon="11.219615014"><ele>89</ele><time>2020-02-09T08:43:37Z</time></trkpt>
<trkpt lat="43.829557998" lon="11.219604034"><ele>89</ele><time>2020-02-09T08:43:38Z</time></trkpt>
<trkpt lat="43.829526985" lon="11.219590036"><ele>88</ele><time>2020-02-09T08:43:39Z</time></trkpt>
<trkpt lat="43.829495972" lon="11.219575033"><ele>88</ele><time>2020-02-09T08:43:40Z</time></trkpt>
<trkpt lat="43.829403017" lon="11.219534967"><ele>88</ele><time>2020-02-09T08:43:43Z</time></trkpt>
<trkpt lat="43.829372004" lon="11.219524993"><ele>88</ele><time>2020-02-09T08:43:44Z</time></trkpt>
<trkpt lat="43.829343002" lon="11.219515018"><ele>88</ele><time>2020-02-09T08:43:45Z</time></trkpt>
<trkpt lat="43.829314001" lon="11.219505966"><ele>87</ele><time>2020-02-09T08:43:46Z</time></trkpt>
<trkpt lat="43.829285" lon="11.219495991"><ele>87</ele><time>2020-02-09T08:43:47Z</time></trkpt>
<trkpt lat="43.82925801" lon="11.219486017"><ele>87</ele><time>2020-02-09T08:43:48Z</time></trkpt>
<trkpt lat="43.82923102" lon="11.219474031"><ele>87</ele><time>2020-02-09T08:43:49Z</time></trkpt>
<trkpt lat="43.829205036" lon="11.219460033"><ele>87</ele><time>2020-02-09T08:43:50Z</time></trkpt>
<trkpt lat="43.829179974" lon="11.219444023"><ele>87</ele><time>2020-02-09T08:43:51Z</time></trkpt>
<trkpt lat="43.829156002" lon="11.219424997"><ele>86</ele><time>2020-02-09T08:43:52Z</time></trkpt>
<trkpt lat="43.829133036" lon="11.219403036"><ele>86</ele><time>2020-02-09T08:43:53Z</time></trkpt>
<trkpt lat="43.829109985" lon="11.219377974"><ele>85</ele><time>2020-02-09T08:43:54Z</time></trkpt>
<trkpt lat="43.829087019" lon="11.219348973"><ele>85</ele><time>2020-02-09T08:43:55Z</time></trkpt>
<trkpt lat="43.829063969" lon="11.219316032"><ele>84</ele><time>2020-02-09T08:43:56Z</time></trkpt>
<trkpt lat="43.829042008" lon="11.219278984"><ele>84</ele><time>2020-02-09T08:43:57Z</time></trkpt>
<trkpt lat="43.829019042" lon="11.219237996"><ele>83</ele><time>2020-02-09T08:43:58Z</time></trkpt>
<trkpt lat="43.828996997" lon="11.219193991"><ele>82</ele><time>2020-02-09T08:43:59Z</time></trkpt>
<trkpt lat="43.82897797" lon="11.21914898"><ele>82</ele><time>2020-02-09T08:44:00Z</time></trkpt>
<trkpt lat="43.828961961" lon="11.219102964"><ele>81</ele><time>2020-02-09T08:44:01Z</time></trkpt>
<trkpt lat="43.828951987" lon="11.219057031"><ele>80</ele><time>2020-02-09T08:44:02Z</time></trkpt>
<trkpt lat="43.828946035" lon="11.219013026"><ele>80</ele><time>2020-02-09T08:44:03Z</time></trkpt>
<trkpt lat="43.828946035" lon="11.218970027"><ele>79</ele><time>2020-02-09T08:44:04Z</time></trkpt>
<trkpt lat="43.828952992" lon="11.218929039"><ele>79</ele><time>2020-02-09T08:44:05Z</time></trkpt>
<trkpt lat="43.828964978" lon="11.218887968"><ele>79</ele><time>2020-02-09T08:44:06Z</time></trkpt>
<trkpt lat="43.828983" lon="11.218848992"><ele>78</ele><time>2020-02-09T08:44:07Z</time></trkpt>
<trkpt lat="43.82900496" lon="11.218811022"><ele>78</ele><time>2020-02-09T08:44:08Z</time></trkpt>
<trkpt lat="43.829030022" lon="11.218773974"><ele>78</ele><time>2020-02-09T08:44:09Z</time></trkpt>
<trkpt lat="43.829057012" lon="11.21873701"><ele>78</ele><time>2020-02-09T08:44:10Z</time></trkpt>
<trkpt lat="43.829084001" lon="11.218699962"><ele>78</ele><time>2020-02-09T08:44:11Z</time></trkpt>
<trkpt lat="43.829109985" lon="11.218662998"><ele>77</ele><time>2020-02-09T08:44:12Z</time></trkpt>
<trkpt lat="43.829134041" lon="11.218626034"><ele>77</ele><time>2020-02-09T08:44:13Z</time></trkpt>
<trkpt lat="43.829156002" lon="11.21858798"><ele>77</ele><time>2020-02-09T08:44:14Z</time></trkpt>
<trkpt lat="43.829174023" lon="11.21855001"><ele>76</ele><time>2020-02-09T08:44:15Z</time></trkpt>
<trkpt lat="43.829190033" lon="11.218511034"><ele>76</ele><time>2020-02-09T08:44:16Z</time></trkpt>
<trkpt lat="43.829205036" lon="11.218470968"><ele>76</ele><time>2020-02-09T08:44:17Z</time></trkpt>
<trkpt lat="43.829217022" lon="11.218430987"><ele>75</ele><time>2020-02-09T08:44:18Z</time></trkpt>
<trkpt lat="43.829229008" lon="11.218391005"><ele>75</ele><time>2020-02-09T08:44:19Z</time></trkpt>
<trkpt lat="43.829238983" lon="11.218349012"><ele>75</ele><time>2020-02-09T08:44:20Z</time></trkpt>
<trkpt lat="43.829249041" lon="11.218307018"><ele>75</ele><time>2020-02-09T08:44:21Z</time></trkpt>
<trkpt lat="43.82925801" lon="11.218265025"><ele>75</ele><time>2020-02-09T08:44:22Z</time></trkpt>
<trkpt lat="43.829267984" lon="11.218222026"><ele>75</ele><time>2020-02-09T08:44:23Z</time></trkpt>
<trkpt lat="43.829277037" lon="11.218179027"><ele>75</ele><time>2020-02-09T08:44:24Z</time></trkpt>
<trkpt lat="43.829287011" lon="11.218136027"><ele>75</ele><time>2020-02-09T08:44:25Z</time></trkpt>
<trkpt lat="43.829296986" lon="11.218093028"><ele>75</ele><time>2020-02-09T08:44:26Z</time></trkpt>
<trkpt lat="43.829307966" lon="11.218051035"><ele>75</ele><time>2020-02-09T08:44:27Z</time></trkpt>
<trkpt lat="43.829320036" lon="11.218009964"><ele>75</ele><time>2020-02-09T08:44:28Z</time></trkpt>
<trkpt lat="43.829332022" lon="11.217968976"><ele>75</ele><time>2020-02-09T08:44:29Z</time></trkpt>
<trkpt lat="43.829375021" lon="11.217853976"><ele>75</ele><time>2020-02-09T08:44:32Z</time></trkpt>
<trkpt lat="43.829390025" lon="11.217817012"><ele>75</ele><time>2020-02-09T08:44:33Z</time></trkpt>
<trkpt lat="43.829406034" lon="11.21778097"><ele>75</ele><time>2020-02-09T08:44:34Z</time></trkpt>
<trkpt lat="43.829421038" lon="11.217746018"><ele>75</ele><time>2020-02-09T08:44:35Z</time></trkpt>
<trkpt lat="43.829436041" lon="11.217710981"><ele>75</ele><time>2020-02-09T08:44:36Z</time></trkpt>
<trkpt lat="43.829450039" lon="11.217677034"><ele>75</ele><time>2020-02-09T08:44:37Z</time></trkpt>
<trkpt lat="43.829464037" lon="11.217643004"><ele>76</ele><time>2020-02-09T08:44:38Z</time></trkpt>
<trkpt lat="43.829476023" lon="11.217608973"><ele>76</ele><time>2020-02-09T08:44:39Z</time></trkpt>
<trkpt lat="43.829488009" lon="11.217574021"><ele>76</ele><time>2020-02-09T08:44:40Z</time></trkpt>
<trkpt lat="43.829499995" lon="11.21753999"><ele>76</ele><time>2020-02-09T08:44:41Z</time></trkpt>
<trkpt lat="43.829510976" lon="11.217505038"><ele>76</ele><time>2020-02-09T08:44:42Z</time></trkpt>
<trkpt lat="43.829522962" lon="11.217470001"><ele>76</ele><time>2020-02-09T08:44:43Z</time></trkpt>
<trkpt lat="43.829534026" lon="11.217433037"><ele>76</ele><time>2020-02-09T08:44:44Z</time></trkpt>
<trkpt lat="43.829545006" lon="11.217395989"><ele>76</ele><time>2020-02-09T08:44:45Z</time></trkpt>
<trkpt lat="43.829556992" lon="11.217357013"><ele>76</ele><time>2020-02-09T08:44:46Z</time></trkpt>
<trkpt lat="43.829592029" lon="11.217233967"><ele>76</ele><time>2020-02-09T08:44:49Z</time></trkpt>
<trkpt lat="43.829602003" lon="11.217190968"><ele>76</ele><time>2020-02-09T08:44:50Z</time></trkpt>
<trkpt lat="43.829612983" lon="11.217146963"><ele>76</ele><time>2020-02-09T08:44:51Z</time></trkpt>
<trkpt lat="43.829622036" lon="11.217102036"><ele>76</ele><time>2020-02-09T08:44:52Z</time></trkpt>
<trkpt lat="43.829629999" lon="11.217057025"><ele>76</ele><time>2020-02-09T08:44:53Z</time></trkpt>
<trkpt lat="43.829637039" lon="11.217011008"><ele>76</ele><time>2020-02-09T08:44:54Z</time></trkpt>
<trkpt lat="43.829651037" lon="11.216871031"><ele>76</ele><time>2020-02-09T08:44:57Z</time></trkpt>
<trkpt lat="43.829654977" lon="11.216825014"><ele>76</ele><time>2020-02-09T08:44:58Z</time></trkpt>
<trkpt lat="43.829656988" lon="11.216777992"><ele>76</ele><time>2020-02-09T08:44:59Z</time></trkpt>
<trkpt lat="43.829659" lon="11.216731975"><ele>76</ele><time>2020-02-09T08:45:00Z</time></trkpt>
<trkpt lat="43.829661012" lon="11.216685958"><ele>76</ele><time>2020-02-09T08:45:01Z</time></trkpt>
<trkpt lat="43.829663023" lon="11.216641031"><ele>76</ele><time>2020-02-09T08:45:02Z</time></trkpt>
<trkpt lat="43.829664029" lon="11.21659602"><ele>75</ele><time>2020-02-09T08:45:03Z</time></trkpt>
<trkpt lat="43.829665035" lon="11.216552015"><ele>75</ele><time>2020-02-09T08:45:04Z</time></trkpt>
<trkpt lat="43.829665035" lon="11.216507005"><ele>75</ele><time>2020-02-09T08:45:05Z</time></trkpt>
<trkpt lat="43.829666041" lon="11.216463"><ele>75</ele><time>2020-02-09T08:45:06Z</time></trkpt>
<trkpt lat="43.829666041" lon="11.21642"><ele>75</ele><time>2020-02-09T08:45:07Z</time></trkpt>
<trkpt lat="43.829666041" lon="11.216375995"><ele>75</ele><time>2020-02-09T08:45:08Z</time></trkpt>
<trkpt lat="43.829666041" lon="11.216332996"><ele>75</ele><time>2020-02-09T08:45:09Z</time></trkpt>
<trkpt lat="43.829666041" lon="11.216289997"><ele>75</ele><time>2020-02-09T08:45:10Z</time></trkpt>
<trkpt lat="43.829666041" lon="11.216246998"><ele>75</ele><time>2020-02-09T08:45:11Z</time></trkpt>
<trkpt lat="43.829665035" lon="11.216203999"><ele>75</ele><time>2020-02-09T08:45:12Z</time></trkpt>
<trkpt lat="43.829665035" lon="11.216161"><ele>75</ele><time>2020-02-09T08:45:13Z</time></trkpt>
<trkpt lat="43.829665035" lon="11.216118"><ele>74</ele><time>2020-02-09T08:45:14Z</time></trkpt>
<trkpt lat="43.829664029" lon="11.216075001"><ele>74</ele><time>2020-02-09T08:45:15Z</time></trkpt>
<trkpt lat="43.829664029" lon="11.216032002"><ele>74</ele><time>2020-02-09T08:45:16Z</time></trkpt>
<trkpt lat="43.829664029" lon="11.215987997"><ele>74</ele><time>2020-02-09T08:45:17Z</time></trkpt>
<trkpt lat="43.829664029" lon="11.215944998"><ele>74</ele><time>2020-02-09T08:45:18Z</time></trkpt>
<trkpt lat="43.829664029" lon="11.215900993"><ele>74</ele><time>2020-02-09T08:45:19Z</time></trkpt>
<trkpt lat="43.829664029" lon="11.215857994"><ele>74</ele><time>2020-02-09T08:45:20Z</time></trkpt>
<trkpt lat="43.829664029" lon="11.215813989"><ele>74</ele><time>2020-02-09T08:45:21Z</time></trkpt>
<trkpt lat="43.829665035" lon="11.21577099"><ele>74</ele><time>2020-02-09T08:45:22Z</time></trkpt>
<trkpt lat="43.829665035" lon="11.215726985"><ele>74</ele><time>2020-02-09T08:45:23Z</time></trkpt>
<trkpt lat="43.829665035" lon="11.215683986"><ele>74</ele><time>2020-02-09T08:45:24Z</time></trkpt>
<trkpt lat="43.829666041" lon="11.215640986"><ele>74</ele><time>2020-02-09T08:45:25Z</time></trkpt>
<trkpt lat="43.829666963" lon="11.215596981"><ele>74</ele><time>2020-02-09T08:45:26Z</time></trkpt>
<trkpt lat="43.829666963" lon="11.215553982"><ele>74</ele><time>2020-02-09T08:45:27Z</time></trkpt>
<trkpt lat="43.829667969" lon="11.215510983"><ele>74</ele><time>2020-02-09T08:45:28Z</time></trkpt>
<trkpt lat="43.829668975" lon="11.21546899"><ele>74</ele><time>2020-02-09T08:45:29Z</time></trkpt>
<trkpt lat="43.82966998" lon="11.215425991"><ele>74</ele><time>2020-02-09T08:45:30Z</time></trkpt>
<trkpt lat="43.829671992" lon="11.215383997"><ele>74</ele><time>2020-02-09T08:45:31Z</time></trkpt>
<trkpt lat="43.829672998" lon="11.215342004"><ele>74</ele><time>2020-02-09T08:45:32Z</time></trkpt>
<trkpt lat="43.829675009" lon="11.215300011"><ele>74</ele><time>2020-02-09T08:45:33Z</time></trkpt>
<trkpt lat="43.829677021" lon="11.215259023"><ele>74</ele><time>2020-02-09T08:45:34Z</time></trkpt>
<trkpt lat="43.829680039" lon="11.215219041"><ele>74</ele><time>2020-02-09T08:45:35Z</time></trkpt>
<trkpt lat="43.829684984" lon="11.215179982"><ele>74</ele><time>2020-02-09T08:45:36Z</time></trkpt>
<trkpt lat="43.829690013" lon="11.215141006"><ele>74</ele><time>2020-02-09T08:45:37Z</time></trkpt>
<trkpt lat="43.82969697" lon="11.215104042"><ele>74</ele><time>2020-02-09T08:45:38Z</time></trkpt>
<trkpt lat="43.829705017" lon="11.215067999"><ele>74</ele><time>2020-02-09T08:45:39Z</time></trkpt>
<trkpt lat="43.829739969" lon="11.214965992"><ele>74</ele><time>2020-02-09T08:45:42Z</time></trkpt>
<trkpt lat="43.829754973" lon="11.214932967"><ele>74</ele><time>2020-02-09T08:45:43Z</time></trkpt>
<trkpt lat="43.829770982" lon="11.214900026"><ele>74</ele><time>2020-02-09T08:45:44Z</time></trkpt>
<trkpt lat="43.829789003" lon="11.214865996"><ele>74</ele><time>2020-02-09T08:45:45Z</time></trkpt>
<trkpt lat="43.829807024" lon="11.214830959"><ele>74</ele><time>2020-02-09T08:45:46Z</time></trkpt>
<trkpt lat="43.829826973" lon="11.214795001"><ele>74</ele><time>2020-02-09T08:45:47Z</time></trkpt>
<trkpt lat="43.829847006" lon="11.214757031"><ele>74</ele><time>2020-02-09T08:45:48Z</time></trkpt>
<trkpt lat="43.829867961" lon="11.214717971"><ele>74</ele><time>2020-02-09T08:45:49Z</time></trkpt>
<trkpt lat="43.829888999" lon="11.214680001"><ele>74</ele><time>2020-02-09T08:45:50Z</time></trkpt>
<trkpt lat="43.829911966" lon="11.214643959"><ele>74</ele><time>2020-02-09T08:45:51Z</time></trkpt>
<trkpt lat="43.829935016" lon="11.214612024"><ele>74</ele><time>2020-02-09T08:45:52Z</time></trkpt>
<trkpt lat="43.829957983" lon="11.214583023"><ele>74</ele><time>2020-02-09T08:45:53Z</time></trkpt>
<trkpt lat="43.829982039" lon="11.214559972"><ele>74</ele><time>2020-02-09T08:45:54Z</time></trkpt>
<trkpt lat="43.830007017" lon="11.214543963"><ele>74</ele><time>2020-02-09T08:45:55Z</time></trkpt>
<trkpt lat="43.830031995" lon="11.214534994"><ele>75</ele><time>2020-02-09T08:45:56Z</time></trkpt>
<trkpt lat="43.830056973" lon="11.214532983"><ele>75</ele><time>2020-02-09T08:45:57Z</time></trkpt>
<trkpt lat="43.83011003" lon="11.214543963"><ele>75</ele><time>2020-02-09T08:45:59Z</time></trkpt>
<trkpt lat="43.83013702" lon="11.214555027"><ele>75</ele><time>2020-02-09T08:46:00Z</time></trkpt>
<trkpt lat="43.83016401" lon="11.214567013"><ele>76</ele><time>2020-02-09T08:46:01Z</time></trkpt>
<trkpt lat="43.830192005" lon="11.214580005"><ele>76</ele><time>2020-02-09T08:46:02Z</time></trkpt>
<trkpt lat="43.830221007" lon="11.214591991"><ele>76</ele><time>2020-02-09T08:46:03Z</time></trkpt>
<trkpt lat="43.830251014" lon="11.214602971"><ele>76</ele><time>2020-02-09T08:46:04Z</time></trkpt>
<trkpt lat="43.830280015" lon="11.214614036"><ele>77</ele><time>2020-02-09T08:46:05Z</time></trkpt>
<trkpt lat="43.830309017" lon="11.21462401"><ele>77</ele><time>2020-02-09T08:46:06Z</time></trkpt>
<trkpt lat="43.830338018" lon="11.214633984"><ele>77</ele><time>2020-02-09T08:46:07Z</time></trkpt>
<trkpt lat="43.830366014" lon="11.214643959"><ele>77</ele><time>2020-02-09T08:46:08Z</time></trkpt>
<trkpt lat="43.830391997" lon="11.214654017"><ele>78</ele><time>2020-02-09T08:46:09Z</time></trkpt>
<trkpt lat="43.830416976" lon="11.214663992"><ele>78</ele><time>2020-02-09T08:46:10Z</time></trkpt>
<trkpt lat="43.830440026" lon="11.214673966"><ele>78</ele><time>2020-02-09T08:46:11Z</time></trkpt>
<trkpt lat="43.830461986" lon="11.21468503"><ele>78</ele><time>2020-02-09T08:46:12Z</time></trkpt>
<trkpt lat="43.830483025" lon="11.214696011"><ele>78</ele><time>2020-02-09T08:46:13Z</time></trkpt>
<trkpt lat="43.830504986" lon="11.214707997"><ele>79</ele><time>2020-02-09T08:46:14Z</time></trkpt>
<trkpt lat="43.830526024" lon="11.214719983"><ele>79</ele><time>2020-02-09T08:46:15Z</time></trkpt>
<trkpt lat="43.830548991" lon="11.214732975"><ele>79</ele><time>2020-02-09T08:46:16Z</time></trkpt>
<trkpt lat="43.830572963" lon="11.214746973"><ele>79</ele><time>2020-02-09T08:46:17Z</time></trkpt>
<trkpt lat="43.830600036" lon="11.214761976"><ele>80</ele><time>2020-02-09T08:46:18Z</time></trkpt>
<trkpt lat="43.83062996" lon="11.214777986"><ele>80</ele><time>2020-02-09T08:46:19Z</time></trkpt>
<trkpt lat="43.830660973" lon="11.214793995"><ele>80</ele><time>2020-02-09T08:46:20Z</time></trkpt>
<trkpt lat="43.830692992" lon="11.214808999"><ele>81</ele><time>2020-02-09T08:46:21Z</time></trkpt>
<trkpt lat="43.830724005" lon="11.214822996"><ele>81</ele><time>2020-02-09T08:46:22Z</time></trkpt>
<trkpt lat="43.830754012" lon="11.214834983"><ele>81</ele><time>2020-02-09T08:46:23Z</time></trkpt>
<trkpt lat="43.830782007" lon="11.214845963"><ele>82</ele><time>2020-02-09T08:46:24Z</time></trkpt>
<trkpt lat="43.830808997" lon="11.214857027"><ele>82</ele><time>2020-02-09T08:46:25Z</time></trkpt>
<trkpt lat="43.830834981" lon="11.214870019"><ele>82</ele><time>2020-02-09T08:46:26Z</time></trkpt>
<trkpt lat="43.830859959" lon="11.214886028"><ele>82</ele><time>2020-02-09T08:46:27Z</time></trkpt>
<trkpt lat="43.830884015" lon="11.214904971"><ele>82</ele><time>2020-02-09T08:46:28Z</time></trkpt>
<trkpt lat="43.830906982" lon="11.214927016"><ele>82</ele><time>2020-02-09T08:46:29Z</time></trkpt>
<trkpt lat="43.830930032" lon="11.214950988"><ele>82</ele><time>2020-02-09T08:46:30Z</time></trkpt>
<trkpt lat="43.830952998" lon="11.214975966"><ele>82</ele><time>2020-02-09T08:46:31Z</time></trkpt>
<trkpt lat="43.830974037" lon="11.21500304"><ele>82</ele><time>2020-02-09T08:46:32Z</time></trkpt>
<trkpt lat="43.830995997" lon="11.215031035"><ele>82</ele><time>2020-02-09T08:46:33Z</time></trkpt>
<trkpt lat="43.831058023" lon="11.215116028"><ele>82</ele><time>2020-02-09T08:46:36Z</time></trkpt>
<trkpt lat="43.831077972" lon="11.215144023"><ele>82</ele><time>2020-02-09T08:46:37Z</time></trkpt>
<trkpt lat="43.831098005" lon="11.215172019"><ele>82</ele><time>2020-02-09T08:46:38Z</time></trkpt>
<trkpt lat="43.831155002" lon="11.215258017"><ele>82</ele><time>2020-02-09T08:46:41Z</time></trkpt>
<trkpt lat="43.831174029" lon="11.215286013"><ele>82</ele><time>2020-02-09T08:46:42Z</time></trkpt>
<trkpt lat="43.831192972" lon="11.215315014"><ele>82</ele><time>2020-02-09T08:46:43Z</time></trkpt>
<trkpt lat="43.831210993" lon="11.21534301"><ele>82</ele><time>2020-02-09T08:46:44Z</time></trkpt>
<trkpt lat="43.83123002" lon="11.215372011"><ele>82</ele><time>2020-02-09T08:46:45Z</time></trkpt>
<trkpt lat="43.831248041" lon="11.215400007"><ele>82</ele><time>2020-02-09T08:46:46Z</time></trkpt>
<trkpt lat="43.831265979" lon="11.215429008"><ele>83</ele><time>2020-02-09T08:46:47Z</time></trkpt>
<trkpt lat="43.831284" lon="11.215457004"><ele>83</ele><time>2020-02-09T08:46:48Z</time></trkpt>
<trkpt lat="43.831302021" lon="11.215486005"><ele>83</ele><time>2020-02-09T08:46:49Z</time></trkpt>
<trkpt lat="43.831320042" lon="11.215514001"><ele>83</ele><time>2020-02-09T08:46:50Z</time></trkpt>
<trkpt lat="43.831337979" lon="11.215541996"><ele>83</ele><time>2020-02-09T08:46:51Z</time></trkpt>
<trkpt lat="43.831356" lon="11.215570997"><ele>83</ele><time>2020-02-09T08:46:52Z</time></trkpt>
<trkpt lat="43.831374021" lon="11.215598993"><ele>83</ele><time>2020-02-09T08:46:53Z</time></trkpt>
<trkpt lat="43.831391959" lon="11.215626989"><ele>83</ele><time>2020-02-09T08:46:54Z</time></trkpt>
<trkpt lat="43.83140998" lon="11.215654984"><ele>83</ele><time>2020-02-09T08:46:55Z</time></trkpt>
<trkpt lat="43.831428001" lon="11.21568298"><ele>83</ele><time>2020-02-09T08:46:56Z</time></trkpt>
<trkpt lat="43.831446022" lon="11.215710975"><ele>83</ele><time>2020-02-09T08:46:57Z</time></trkpt>
<trkpt lat="43.831463959" lon="11.215738971"><ele>84</ele><time>2020-02-09T08:46:58Z</time></trkpt>
<trkpt lat="43.83148198" lon="11.215765961"><ele>84</ele><time>2020-02-09T08:46:59Z</time></trkpt>
<trkpt lat="43.831538977" lon="11.215849025"><ele>84</ele><time>2020-02-09T08:47:02Z</time></trkpt>
<trkpt lat="43.831558004" lon="11.215876015"><ele>84</ele><time>2020-02-09T08:47:03Z</time></trkpt>
<trkpt lat="43.831577031" lon="11.215903005"><ele>84</ele><time>2020-02-09T08:47:04Z</time></trkpt>
<trkpt lat="43.83159698" lon="11.215929994"><ele>84</ele><time>2020-02-09T08:47:05Z</time></trkpt>
<trkpt lat="43.831617013" lon="11.215956984"><ele>85</ele><time>2020-02-09T08:47:06Z</time></trkpt>
<trkpt lat="43.831678033" lon="11.216036025"><ele>85</ele><time>2020-02-09T08:47:09Z</time></trkpt>
<trkpt lat="43.831697982" lon="11.216062009"><ele>85</ele><time>2020-02-09T08:47:10Z</time></trkpt>
<trkpt lat="43.83171902" lon="11.216087993"><ele>85</ele><time>2020-02-09T08:47:11Z</time></trkpt>
<trkpt lat="43.831739975" lon="11.216112971"><ele>86</ele><time>2020-02-09T08:47:12Z</time></trkpt>
<trkpt lat="43.831761014" lon="11.216138033"><ele>86</ele><time>2020-02-09T08:47:13Z</time></trkpt>
<trkpt lat="43.831781968" lon="11.216163011"><ele>86</ele><time>2020-02-09T08:47:14Z</time></trkpt>
<trkpt lat="43.831803007" lon="11.216186984"><ele>86</ele><time>2020-02-09T08:47:15Z</time></trkpt>
<trkpt lat="43.831823962" lon="11.21621104"><ele>86</ele><time>2020-02-09T08:47:16Z</time></trkpt>
<trkpt lat="43.831845" lon="11.216234006"><ele>86</ele><time>2020-02-09T08:47:17Z</time></trkpt>
<trkpt lat="43.831866039" lon="11.216256972"><ele>87</ele><time>2020-02-09T08:47:18Z</time></trkpt>
<trkpt lat="43.831886994" lon="11.216279017"><ele>87</ele><time>2020-02-09T08:47:19Z</time></trkpt>
<trkpt lat="43.831907026" lon="11.216300977"><ele>87</ele><time>2020-02-09T08:47:20Z</time></trkpt>
<trkpt lat="43.831926975" lon="11.216322016"><ele>87</ele><time>2020-02-09T08:47:21Z</time></trkpt>
<trkpt lat="43.831948014" lon="11.216342971"><ele>87</ele><time>2020-02-09T08:47:22Z</time></trkpt>
<trkpt lat="43.831967963" lon="11.216363003"><ele>87</ele><time>2020-02-09T08:47:23Z</time></trkpt>
<trkpt lat="43.83198699" lon="11.216383036"><ele>87</ele><time>2020-02-09T08:47:24Z</time></trkpt>
<trkpt lat="43.832006017" lon="11.216402985"><ele>88</ele><time>2020-02-09T08:47:25Z</time></trkpt>
<trkpt lat="43.83202496" lon="11.216423018"><ele>88</ele><time>2020-02-09T08:47:26Z</time></trkpt>
<trkpt lat="43.832043987" lon="11.216441961"><ele>88</ele><time>2020-02-09T08:47:27Z</time></trkpt>
<trkpt lat="43.832061002" lon="11.216461994"><ele>88</ele><time>2020-02-09T08:47:28Z</time></trkpt>
<trkpt lat="43.832079023" lon="11.216483032"><ele>88</ele><time>2020-02-09T08:47:29Z</time></trkpt>
<trkpt lat="43.832096038" lon="11.216502981"><ele>88</ele><time>2020-02-09T08:47:30Z</time></trkpt>
<trkpt lat="43.832111964" lon="11.216525026"><ele>88</ele><time>2020-02-09T08:47:31Z</time></trkpt>
<trkpt lat="43.832126968" lon="11.216546986"><ele>89</ele><time>2020-02-09T08:47:32Z</time></trkpt>
<trkpt lat="43.832141971" lon="11.216570036"><ele>89</ele><time>2020-02-09T08:47:33Z</time></trkpt>
<trkpt lat="43.832155969" lon="11.216594009"><ele>89</ele><time>2020-02-09T08:47:34Z</time></trkpt>
<trkpt lat="43.832168961" lon="11.216618987"><ele>89</ele><time>2020-02-09T08:47:35Z</time></trkpt>
<trkpt lat="43.832181031" lon="11.216644971"><ele>89</ele><time>2020-02-09T08:47:36Z</time></trkpt>
<trkpt lat="43.832192011" lon="11.216672966"><ele>89</ele><time>2020-02-09T08:47:37Z</time></trkpt>
<trkpt lat="43.832202991" lon="11.216700962"><ele>90</ele><time>2020-02-09T08:47:38Z</time></trkpt>
<trkpt lat="43.832214978" lon="11.216728035"><ele>90</ele><time>2020-02-09T08:47:39Z</time></trkpt>
<trkpt lat="43.83222797" lon="11.216755025"><ele>90</ele><time>2020-02-09T08:47:40Z</time></trkpt>
<trkpt lat="43.832243979" lon="11.216778997"><ele>90</ele><time>2020-02-09T08:47:41Z</time></trkpt>
<trkpt lat="43.832259988" lon="11.216801042"><ele>90</ele><time>2020-02-09T08:47:42Z</time></trkpt>
<trkpt lat="43.832277004" lon="11.216821996"><ele>90</ele><time>2020-02-09T08:47:43Z</time></trkpt>
<trkpt lat="43.832294019" lon="11.216843035"><ele>90</ele><time>2020-02-09T08:47:44Z</time></trkpt>
<trkpt lat="43.832310028" lon="11.216862984"><ele>91</ele><time>2020-02-09T08:47:45Z</time></trkpt>
<trkpt lat="43.832325032" lon="11.216883017"><ele>91</ele><time>2020-02-09T08:47:46Z</time></trkpt>
<trkpt lat="43.832341963" lon="11.216902966"><ele>91</ele><time>2020-02-09T08:47:47Z</time></trkpt>
<trkpt lat="43.832358979" lon="11.216922998"><ele>91</ele><time>2020-02-09T08:47:48Z</time></trkpt>
<trkpt lat="43.832378006" lon="11.216943031"><ele>91</ele><time>2020-02-09T08:47:49Z</time></trkpt>
<trkpt lat="43.832441038" lon="11.216991981"><ele>91</ele><time>2020-02-09T08:47:52Z</time></trkpt>
<trkpt lat="43.832462998" lon="11.21700204"><ele>92</ele><time>2020-02-09T08:47:53Z</time></trkpt>
<trkpt lat="43.832485965" lon="11.217007991"><ele>92</ele><time>2020-02-09T08:47:54Z</time></trkpt>
<trkpt lat="43.832507003" lon="11.217006985"><ele>92</ele><time>2020-02-09T08:47:55Z</time></trkpt>
<trkpt lat="43.832528042" lon="11.216998016"><ele>92</ele><time>2020-02-09T08:47:56Z</time></trkpt>
<trkpt lat="43.832547991" lon="11.216982007"><ele>92</ele><time>2020-02-09T08:47:57Z</time></trkpt>
<trkpt lat="43.832568023" lon="11.216959963"><ele>92</ele><time>2020-02-09T08:47:58Z</time></trkpt>
<trkpt lat="43.832585961" lon="11.216931967"><ele>92</ele><time>2020-02-09T08:47:59Z</time></trkpt>
<trkpt lat="43.832602976" lon="11.216901038"><ele>92</ele><time>2020-02-09T08:48:00Z</time></trkpt>
<trkpt lat="43.832619991" lon="11.216867007"><ele>92</ele><time>2020-02-09T08:48:01Z</time></trkpt>
<trkpt lat="43.832634995" lon="11.216831971"><ele>91</ele><time>2020-02-09T08:48:02Z</time></trkpt>
<trkpt lat="43.832649998" lon="11.216796013"><ele>91</ele><time>2020-02-09T08:48:03Z</time></trkpt>
<trkpt lat="43.832666008" lon="11.216758965"><ele>91</ele><time>2020-02-09T08:48:04Z</time></trkpt>
<trkpt lat="43.832682017" lon="11.216720995"><ele>91</ele><time>2020-02-09T08:48:05Z</time></trkpt>
<trkpt lat="43.832698027" lon="11.216683025"><ele>91</ele><time>2020-02-09T08:48:06Z</time></trkpt>
<trkpt lat="43.832715964" lon="11.216644971"><ele>91</ele><time>2020-02-09T08:48:07Z</time></trkpt>
<trkpt lat="43.832734991" lon="11.216607001"><ele>91</ele><time>2020-02-09T08:48:08Z</time></trkpt>
<trkpt lat="43.832755024" lon="11.216570036"><ele>91</ele><time>2020-02-09T08:48:09Z</time></trkpt>
<trkpt lat="43.832775978" lon="11.216532988"><ele>91</ele><time>2020-02-09T08:48:10Z</time></trkpt>
<trkpt lat="43.832797017" lon="11.216496024"><ele>91</ele><time>2020-02-09T08:48:11Z</time></trkpt>
<trkpt lat="43.832817972" lon="11.216458976"><ele>90</ele><time>2020-02-09T08:48:12Z</time></trkpt>
<trkpt lat="43.832838004" lon="11.216422012"><ele>90</ele><time>2020-02-09T08:48:13Z</time></trkpt>
<trkpt lat="43.832858037" lon="11.216383958"><ele>90</ele><time>2020-02-09T08:48:14Z</time></trkpt>
<trkpt lat="43.832875974" lon="11.216346994"><ele>90</ele><time>2020-02-09T08:48:15Z</time></trkpt>
<trkpt lat="43.832891984" lon="11.216308018"><ele>90</ele><time>2020-02-09T08:48:16Z</time></trkpt>
<trkpt lat="43.832905982" lon="11.216269964"><ele>90</ele><time>2020-02-09T08:48:17Z</time></trkpt>
<trkpt lat="43.832918974" lon="11.216230989"><ele>90</ele><time>2020-02-09T08:48:18Z</time></trkpt>
<trkpt lat="43.832931966" lon="11.216191007"><ele>90</ele><time>2020-02-09T08:48:19Z</time></trkpt>
<trkpt lat="43.83294303" lon="11.216151025"><ele>89</ele><time>2020-02-09T08:48:20Z</time></trkpt>
<trkpt lat="43.832953004" lon="11.21611096"><ele>89</ele><time>2020-02-09T08:48:21Z</time></trkpt>
<trkpt lat="43.832962979" lon="11.216069972"><ele>89</ele><time>2020-02-09T08:48:22Z</time></trkpt>
<trkpt lat="43.832973037" lon="11.216028985"><ele>89</ele><time>2020-02-09T08:48:23Z</time></trkpt>
<trkpt lat="43.832983011" lon="11.215987997"><ele>89</ele><time>2020-02-09T08:48:24Z</time></trkpt>
<trkpt lat="43.832992986" lon="11.215946004"><ele>88</ele><time>2020-02-09T08:48:25Z</time></trkpt>
<trkpt lat="43.833003966" lon="11.21590401"><ele>88</ele><time>2020-02-09T08:48:26Z</time></trkpt>
<trkpt lat="43.833014024" lon="11.215863023"><ele>88</ele><time>2020-02-09T08:48:27Z</time></trkpt>
<trkpt lat="43.833025005" lon="11.215820024"><ele>88</ele><time>2020-02-09T08:48:28Z</time></trkpt>
<trkpt lat="43.833035985" lon="11.215779036"><ele>88</ele><time>2020-02-09T08:48:29Z</time></trkpt>
<trkpt lat="43.833046965" lon="11.215736959"><ele>88</ele><time>2020-02-09T08:48:30Z</time></trkpt>
<trkpt lat="43.833058029" lon="11.215694966"><ele>88</ele><time>2020-02-09T08:48:31Z</time></trkpt>
<trkpt lat="43.833093988" lon="11.215572003"><ele>88</ele><time>2020-02-09T08:48:34Z</time></trkpt>
<trkpt lat="43.83310698" lon="11.215532022"><ele>88</ele><time>2020-02-09T08:48:35Z</time></trkpt>
<trkpt lat="43.833119972" lon="11.215492962"><ele>89</ele><time>2020-02-09T08:48:36Z</time></trkpt>
<trkpt lat="43.833133969" lon="11.215453986"><ele>89</ele><time>2020-02-09T08:48:37Z</time></trkpt>
<trkpt lat="43.833147967" lon="11.215416016"><ele>89</ele><time>2020-02-09T08:48:38Z</time></trkpt>
<trkpt lat="43.833162971" lon="11.215378968"><ele>89</ele><time>2020-02-09T08:48:39Z</time></trkpt>
<trkpt lat="43.83317898" lon="11.21534301"><ele>89</ele><time>2020-02-09T08:48:40Z</time></trkpt>
<trkpt lat="43.83319499" lon="11.215307973"><ele>89</ele><time>2020-02-09T08:48:41Z</time></trkpt>
<trkpt lat="43.833210999" lon="11.215273021"><ele>89</ele><time>2020-02-09T08:48:42Z</time></trkpt>
<trkpt lat="43.833228014" lon="11.21523899"><ele>89</ele><time>2020-02-09T08:48:43Z</time></trkpt>
<trkpt lat="43.83324503" lon="11.215205966"><ele>89</ele><time>2020-02-09T08:48:44Z</time></trkpt>
<trkpt lat="43.833262967" lon="11.215173025"><ele>90</ele><time>2020-02-09T08:48:45Z</time></trkpt>
<trkpt lat="43.833280988" lon="11.21514"><ele>90</ele><time>2020-02-09T08:48:46Z</time></trkpt>
<trkpt lat="43.833299009" lon="11.215107981"><ele>90</ele><time>2020-02-09T08:48:47Z</time></trkpt>
<trkpt lat="43.83331703" lon="11.215075962"><ele>90</ele><time>2020-02-09T08:48:48Z</time></trkpt>
<trkpt lat="43.833334967" lon="11.215044027"><ele>90</ele><time>2020-02-09T08:48:49Z</time></trkpt>
<trkpt lat="43.833352989" lon="11.215011002"><ele>90</ele><time>2020-02-09T08:48:50Z</time></trkpt>
<trkpt lat="43.833372016" lon="11.214978984"><ele>90</ele><time>2020-02-09T08:48:51Z</time></trkpt>
<trkpt lat="43.833390037" lon="11.214946965"><ele>90</ele><time>2020-02-09T08:48:52Z</time></trkpt>
<trkpt lat="43.833407974" lon="11.214914024"><ele>90</ele><time>2020-02-09T08:48:53Z</time></trkpt>
<trkpt lat="43.833424989" lon="11.214880999"><ele>90</ele><time>2020-02-09T08:48:54Z</time></trkpt>
<trkpt lat="43.83344301" lon="11.214846969"><ele>89</ele><time>2020-02-09T08:48:55Z</time></trkpt>
<trkpt lat="43.833460025" lon="11.214813022"><ele>89</ele><time>2020-02-09T08:48:56Z</time></trkpt>
<trkpt lat="43.833477041" lon="11.214777986"><ele>89</ele><time>2020-02-09T08:48:57Z</time></trkpt>
<trkpt lat="43.833493972" lon="11.214742027"><ele>89</ele><time>2020-02-09T08:48:58Z</time></trkpt>
<trkpt lat="43.833511993" lon="11.214705985"><ele>89</ele><time>2020-02-09T08:48:59Z</time></trkpt>
<trkpt lat="43.833529009" lon="11.214669021"><ele>89</ele><time>2020-02-09T08:49:00Z</time></trkpt>
<trkpt lat="43.83354703" lon="11.214631973"><ele>89</ele><time>2020-02-09T08:49:01Z</time></trkpt>
<trkpt lat="43.833565973" lon="11.214594003"><ele>89</ele><time>2020-02-09T08:49:02Z</time></trkpt>
<trkpt lat="43.833586005" lon="11.214556033"><ele>88</ele><time>2020-02-09T08:49:03Z</time></trkpt>
<trkpt lat="43.833606038" lon="11.214516973"><ele>88</ele><time>2020-02-09T08:49:04Z</time></trkpt>
<trkpt lat="43.833626993" lon="11.214476991"><ele>88</ele><time>2020-02-09T08:49:05Z</time></trkpt>
<trkpt lat="43.833649037" lon="11.21443701"><ele>88</ele><time>2020-02-09T08:49:06Z</time></trkpt>
<trkpt lat="43.833713997" lon="11.214316981"><ele>87</ele><time>2020-02-09T08:49:09Z</time></trkpt>
<trkpt lat="43.833735036" lon="11.214276999"><ele>87</ele><time>2020-02-09T08:49:10Z</time></trkpt>
<trkpt lat="43.83375599" lon="11.214237018"><ele>87</ele><time>2020-02-09T08:49:11Z</time></trkpt>
<trkpt lat="43.833775017" lon="11.214198042"><ele>87</ele><time>2020-02-09T08:49:12Z</time></trkpt>
<trkpt lat="43.833793961" lon="11.214157976"><ele>87</ele><time>2020-02-09T08:49:13Z</time></trkpt>
<trkpt lat="43.833812987" lon="11.214119"><ele>87</ele><time>2020-02-09T08:49:14Z</time></trkpt>
<trkpt lat="43.833830003" lon="11.214080025"><ele>87</ele><time>2020-02-09T08:49:15Z</time></trkpt>
<trkpt lat="43.833848024" lon="11.214041971"><ele>87</ele><time>2020-02-09T08:49:16Z</time></trkpt>
<trkpt lat="43.833865039" lon="11.214002995"><ele>87</ele><time>2020-02-09T08:49:17Z</time></trkpt>
<trkpt lat="43.833880965" lon="11.213964019"><ele>87</ele><time>2020-02-09T08:49:18Z</time></trkpt>
<trkpt lat="43.83389798" lon="11.213925965"><ele>87</ele><time>2020-02-09T08:49:19Z</time></trkpt>
<trkpt lat="43.833913989" lon="11.213886989"><ele>87</ele><time>2020-02-09T08:49:20Z</time></trkpt>
<trkpt lat="43.833928993" lon="11.213849019"><ele>87</ele><time>2020-02-09T08:49:21Z</time></trkpt>
<trkpt lat="43.833945002" lon="11.213810965"><ele>86</ele><time>2020-02-09T08:49:22Z</time></trkpt>
<trkpt lat="43.833960006" lon="11.213772995"><ele>86</ele><time>2020-02-09T08:49:23Z</time></trkpt>
<trkpt lat="43.833976015" lon="11.21373402"><ele>86</ele><time>2020-02-09T08:49:24Z</time></trkpt>
<trkpt lat="43.833992025" lon="11.213695966"><ele>86</ele><time>2020-02-09T08:49:25Z</time></trkpt>
<trkpt lat="43.834007028" lon="11.213657996"><ele>86</ele><time>2020-02-09T08:49:26Z</time></trkpt>
<trkpt lat="43.834023038" lon="11.213620026"><ele>86</ele><time>2020-02-09T08:49:27Z</time></trkpt>
<trkpt lat="43.834038964" lon="11.213580966"><ele>86</ele><time>2020-02-09T08:49:28Z</time></trkpt>
<trkpt lat="43.834054973" lon="11.213542996"><ele>86</ele><time>2020-02-09T08:49:29Z</time></trkpt>
<trkpt lat="43.834070982" lon="11.213505026"><ele>86</ele><time>2020-02-09T08:49:30Z</time></trkpt>
<trkpt lat="43.834087998" lon="11.213465966"><ele>86</ele><time>2020-02-09T08:49:31Z</time></trkpt>
<trkpt lat="43.834104007" lon="11.213427996"><ele>86</ele><time>2020-02-09T08:49:32Z</time></trkpt>
<trkpt lat="43.834121022" lon="11.21338902"><ele>86</ele><time>2020-02-09T08:49:33Z</time></trkpt>
<trkpt lat="43.83413896" lon="11.213349961"><ele>86</ele><time>2020-02-09T08:49:34Z</time></trkpt>
<trkpt lat="43.834155975" lon="11.213310985"><ele>86</ele><time>2020-02-09T08:49:35Z</time></trkpt>
<trkpt lat="43.834173996" lon="11.213272009"><ele>86</ele><time>2020-02-09T08:49:36Z</time></trkpt>
<trkpt lat="43.834193023" lon="11.213233033"><ele>86</ele><time>2020-02-09T08:49:37Z</time></trkpt>
<trkpt lat="43.83421096" lon="11.213192968"><ele>85</ele><time>2020-02-09T08:49:38Z</time></trkpt>
<trkpt lat="43.834230993" lon="11.213153992"><ele>85</ele><time>2020-02-09T08:49:39Z</time></trkpt>
<trkpt lat="43.83425002" lon="11.21311401"><ele>85</ele><time>2020-02-09T08:49:40Z</time></trkpt>
<trkpt lat="43.834269969" lon="11.213074028"><ele>85</ele><time>2020-02-09T08:49:41Z</time></trkpt>
<trkpt lat="43.834290002" lon="11.213033963"><ele>85</ele><time>2020-02-09T08:49:42Z</time></trkpt>
<trkpt lat="43.83431104" lon="11.212993981"><ele>84</ele><time>2020-02-09T08:49:43Z</time></trkpt>
<trkpt lat="43.834330989" lon="11.212952994"><ele>84</ele><time>2020-02-09T08:49:44Z</time></trkpt>
<trkpt lat="43.834351022" lon="11.212913012"><ele>84</ele><time>2020-02-09T08:49:45Z</time></trkpt>
<trkpt lat="43.834370971" lon="11.212872025"><ele>84</ele><time>2020-02-09T08:49:46Z</time></trkpt>
<trkpt lat="43.834388992" lon="11.212831037"><ele>83</ele><time>2020-02-09T08:49:47Z</time></trkpt>
<trkpt lat="43.834406007" lon="11.212789966"><ele>83</ele><time>2020-02-09T08:49:48Z</time></trkpt>
<trkpt lat="43.834421011" lon="11.212748978"><ele>83</ele><time>2020-02-09T08:49:49Z</time></trkpt>
<trkpt lat="43.834434003" lon="11.212707991"><ele>83</ele><time>2020-02-09T08:49:50Z</time></trkpt>
<trkpt lat="43.834445989" lon="11.212667003"><ele>83</ele><time>2020-02-09T08:49:51Z</time></trkpt>
<trkpt lat="43.834455963" lon="11.21262501"><ele>82</ele><time>2020-02-09T08:49:52Z</time></trkpt>
<trkpt lat="43.834481025" lon="11.212489977"><ele>82</ele><time>2020-02-09T08:49:55Z</time></trkpt>
<trkpt lat="43.834488988" lon="11.212443961"><ele>81</ele><time>2020-02-09T08:49:56Z</time></trkpt>
<trkpt lat="43.83449804" lon="11.212398028"><ele>81</ele><time>2020-02-09T08:49:57Z</time></trkpt>
<trkpt lat="43.834508015" lon="11.212354023"><ele>81</ele><time>2020-02-09T08:49:58Z</time></trkpt>
<trkpt lat="43.834520001" lon="11.212311024"><ele>81</ele><time>2020-02-09T08:49:59Z</time></trkpt>
<trkpt lat="43.834531987" lon="11.212269031"><ele>81</ele><time>2020-02-09T08:50:00Z</time></trkpt>
<trkpt lat="43.834545985" lon="11.212228965"><ele>81</ele><time>2020-02-09T08:50:01Z</time></trkpt>
<trkpt lat="43.834560988" lon="11.212188983"><ele>80</ele><time>2020-02-09T08:50:02Z</time></trkpt>
<trkpt lat="43.834576998" lon="11.212150007"><ele>80</ele><time>2020-02-09T08:50:03Z</time></trkpt>
<trkpt lat="43.834594013" lon="11.212112037"><ele>80</ele><time>2020-02-09T08:50:04Z</time></trkpt>
<trkpt lat="43.834611028" lon="11.212073984"><ele>80</ele><time>2020-02-09T08:50:05Z</time></trkpt>
<trkpt lat="43.834628966" lon="11.212036014"><ele>80</ele><time>2020-02-09T08:50:06Z</time></trkpt>
<trkpt lat="43.834647993" lon="11.211998966"><ele>80</ele><time>2020-02-09T08:50:07Z</time></trkpt>
<trkpt lat="43.83466702" lon="11.211962001"><ele>80</ele><time>2020-02-09T08:50:08Z</time></trkpt>
<trkpt lat="43.834685963" lon="11.211925037"><ele>80</ele><time>2020-02-09T08:50:09Z</time></trkpt>
<trkpt lat="43.834705995" lon="11.211887989"><ele>79</ele><time>2020-02-09T08:50:10Z</time></trkpt>
<trkpt lat="43.834726028" lon="11.211850019"><ele>79</ele><time>2020-02-09T08:50:11Z</time></trkpt>
<trkpt lat="43.834744971" lon="11.211811965"><ele>79</ele><time>2020-02-09T08:50:12Z</time></trkpt>
<trkpt lat="43.834765004" lon="11.211773995"><ele>79</ele><time>2020-02-09T08:50:13Z</time></trkpt>
<trkpt lat="43.834785037" lon="11.211735019"><ele>79</ele><time>2020-02-09T08:50:14Z</time></trkpt>
<trkpt lat="43.834804986" lon="11.211696966"><ele>79</ele><time>2020-02-09T08:50:15Z</time></trkpt>
<trkpt lat="43.834826024" lon="11.211660001"><ele>79</ele><time>2020-02-09T08:50:16Z</time></trkpt>
<trkpt lat="43.834847985" lon="11.211623037"><ele>79</ele><time>2020-02-09T08:50:17Z</time></trkpt>
<trkpt lat="43.834871035" lon="11.211588001"><ele>79</ele><time>2020-02-09T08:50:18Z</time></trkpt>
<trkpt lat="43.834895007" lon="11.211554976"><ele>79</ele><time>2020-02-09T08:50:19Z</time></trkpt>
<trkpt lat="43.834920991" lon="11.211524969"><ele>79</ele><time>2020-02-09T08:50:20Z</time></trkpt>
<trkpt lat="43.834948987" lon="11.211496973"><ele>79</ele><time>2020-02-09T08:50:21Z</time></trkpt>
<trkpt lat="43.834977988" lon="11.21147099"><ele>79</ele><time>2020-02-09T08:50:22Z</time></trkpt>
<trkpt lat="43.835007995" lon="11.211447017"><ele>79</ele><time>2020-02-09T08:50:23Z</time></trkpt>
<trkpt lat="43.835039008" lon="11.211423967"><ele>79</ele><time>2020-02-09T08:50:24Z</time></trkpt>
<trkpt lat="43.835070021" lon="11.211402006"><ele>79</ele><time>2020-02-09T08:50:25Z</time></trkpt>
<trkpt lat="43.83510204" lon="11.211380968"><ele>79</ele><time>2020-02-09T08:50:26Z</time></trkpt>
<trkpt lat="43.835133975" lon="11.211359007"><ele>79</ele><time>2020-02-09T08:50:27Z</time></trkpt>
<trkpt lat="43.835164988" lon="11.211336963"><ele>79</ele><time>2020-02-09T08:50:28Z</time></trkpt>
<trkpt lat="43.835196001" lon="11.211313996"><ele>79</ele><time>2020-02-09T08:50:29Z</time></trkpt>
<trkpt lat="43.835226009" lon="11.21129103"><ele>79</ele><time>2020-02-09T08:50:30Z</time></trkpt>
<trkpt lat="43.83525501" lon="11.211266974"><ele>79</ele><time>2020-02-09T08:50:31Z</time></trkpt>
<trkpt lat="43.835284011" lon="11.211244008"><ele>79</ele><time>2020-02-09T08:50:32Z</time></trkpt>
<trkpt lat="43.835312007" lon="11.211220035"><ele>79</ele><time>2020-02-09T08:50:33Z</time></trkpt>
<trkpt lat="43.835341008" lon="11.211197991"><ele>79</ele><time>2020-02-09T08:50:34Z</time></trkpt>
<trkpt lat="43.835369004" lon="11.211177036"><ele>79</ele><time>2020-02-09T08:50:35Z</time></trkpt>
<trkpt lat="43.835396999" lon="11.211157003"><ele>79</ele><time>2020-02-09T08:50:36Z</time></trkpt>
<trkpt lat="43.835426001" lon="11.211137976"><ele>79</ele><time>2020-02-09T08:50:37Z</time></trkpt>
<trkpt lat="43.835453996" lon="11.211120961"><ele>79</ele><time>2020-02-09T08:50:38Z</time></trkpt>
<trkpt lat="43.835482998" lon="11.211105036"><ele>79</ele><time>2020-02-09T08:50:39Z</time></trkpt>
<trkpt lat="43.835510993" lon="11.211090032"><ele>79</ele><time>2020-02-09T08:50:40Z</time></trkpt>
<trkpt lat="43.835539995" lon="11.211074023"><ele>79</ele><time>2020-02-09T08:50:41Z</time></trkpt>
<trkpt lat="43.835568996" lon="11.211059019"><ele>79</ele><time>2020-02-09T08:50:42Z</time></trkpt>
<trkpt lat="43.835597998" lon="11.21104301"><ele>79</ele><time>2020-02-09T08:50:43Z</time></trkpt>
<trkpt lat="43.835626999" lon="11.211027"><ele>79</ele><time>2020-02-09T08:50:44Z</time></trkpt>
<trkpt lat="43.835656" lon="11.211008979"><ele>79</ele><time>2020-02-09T08:50:45Z</time></trkpt>
<trkpt lat="43.835685002" lon="11.210990036"><ele>79</ele><time>2020-02-09T08:50:46Z</time></trkpt>
<trkpt lat="43.835712997" lon="11.210970003"><ele>79</ele><time>2020-02-09T08:50:47Z</time></trkpt>
<trkpt lat="43.835741999" lon="11.21094997"><ele>79</ele><time>2020-02-09T08:50:48Z</time></trkpt>
<trkpt lat="43.835769994" lon="11.21092801"><ele>79</ele><time>2020-02-09T08:50:49Z</time></trkpt>
<trkpt lat="43.83579799" lon="11.210905965"><ele>79</ele><time>2020-02-09T08:50:50Z</time></trkpt>
<trkpt lat="43.835824979" lon="11.210882999"><ele>79</ele><time>2020-02-09T08:50:51Z</time></trkpt>
<trkpt lat="43.835850963" lon="11.210859027"><ele>79</ele><time>2020-02-09T08:50:52Z</time></trkpt>
<trkpt lat="43.835877031" lon="11.210835977"><ele>79</ele><time>2020-02-09T08:50:53Z</time></trkpt>
<trkpt lat="43.835901003" lon="11.210810998"><ele>79</ele><time>2020-02-09T08:50:54Z</time></trkpt>
<trkpt lat="43.835925981" lon="11.210787026"><ele>80</ele><time>2020-02-09T08:50:55Z</time></trkpt>
<trkpt lat="43.835950037" lon="11.210760958"><ele>80</ele><time>2020-02-09T08:50:56Z</time></trkpt>
<trkpt lat="43.835973004" lon="11.21073598"><ele>80</ele><time>2020-02-09T08:50:57Z</time></trkpt>
<trkpt lat="43.83599597" lon="11.210709997"><ele>80</ele><time>2020-02-09T08:50:58Z</time></trkpt>
<trkpt lat="43.836019021" lon="11.210683007"><ele>80</ele><time>2020-02-09T08:50:59Z</time></trkpt>
<trkpt lat="43.836041987" lon="11.210656017"><ele>80</ele><time>2020-02-09T08:51:00Z</time></trkpt>
<trkpt lat="43.836065037" lon="11.210629027"><ele>80</ele><time>2020-02-09T08:51:01Z</time></trkpt>
<trkpt lat="43.836089009" lon="11.210601032"><ele>80</ele><time>2020-02-09T08:51:02Z</time></trkpt>
<trkpt lat="43.836111976" lon="11.210573036"><ele>80</ele><time>2020-02-09T08:51:03Z</time></trkpt>
<trkpt lat="43.836135026" lon="11.210544035"><ele>80</ele><time>2020-02-09T08:51:04Z</time></trkpt>
<trkpt lat="43.836158998" lon="11.210516039"><ele>80</ele><time>2020-02-09T08:51:05Z</time></trkpt>
<trkpt lat="43.836181965" lon="11.210487038"><ele>80</ele><time>2020-02-09T08:51:06Z</time></trkpt>
<trkpt lat="43.836206021" lon="11.210457031"><ele>80</ele><time>2020-02-09T08:51:07Z</time></trkpt>
<trkpt lat="43.836228987" lon="11.210428029"><ele>80</ele><time>2020-02-09T08:51:08Z</time></trkpt>
<trkpt lat="43.836252959" lon="11.210399028"><ele>81</ele><time>2020-02-09T08:51:09Z</time></trkpt>
<trkpt lat="43.83627601" lon="11.210369021"><ele>81</ele><time>2020-02-09T08:51:10Z</time></trkpt>
<trkpt lat="43.836299982" lon="11.210340019"><ele>81</ele><time>2020-02-09T08:51:11Z</time></trkpt>
<trkpt lat="43.836323032" lon="11.210310012"><ele>81</ele><time>2020-02-09T08:51:12Z</time></trkpt>
<trkpt lat="43.836347004" lon="11.210281011"><ele>81</ele><time>2020-02-09T08:51:13Z</time></trkpt>
<trkpt lat="43.836369971" lon="11.210252009"><ele>81</ele><time>2020-02-09T08:51:14Z</time></trkpt>
<trkpt lat="43.836394027" lon="11.210223008"><ele>81</ele><time>2020-02-09T08:51:15Z</time></trkpt>
<trkpt lat="43.836416993" lon="11.210194007"><ele>81</ele><time>2020-02-09T08:51:16Z</time></trkpt>
<trkpt lat="43.83643996" lon="11.210165005"><ele>81</ele><time>2020-02-09T08:51:17Z</time></trkpt>
<trkpt lat="43.836464016" lon="11.21013701"><ele>81</ele><time>2020-02-09T08:51:18Z</time></trkpt>
<trkpt lat="43.836486982" lon="11.210108008"><ele>81</ele><time>2020-02-09T08:51:19Z</time></trkpt>
<trkpt lat="43.836509027" lon="11.210079007"><ele>81</ele><time>2020-02-09T08:51:20Z</time></trkpt>
<trkpt lat="43.836531993" lon="11.210050005"><ele>81</ele><time>2020-02-09T08:51:21Z</time></trkpt>
<trkpt lat="43.836554037" lon="11.210021004"><ele>81</ele><time>2020-02-09T08:51:22Z</time></trkpt>
<trkpt lat="43.836575998" lon="11.209990997"><ele>81</ele><time>2020-02-09T08:51:23Z</time></trkpt>
<trkpt lat="43.836597959" lon="11.20996099"><ele>81</ele><time>2020-02-09T08:51:24Z</time></trkpt>
<trkpt lat="43.836618997" lon="11.209930982"><ele>81</ele><time>2020-02-09T08:51:25Z</time></trkpt>
<trkpt lat="43.836640036" lon="11.209898964"><ele>81</ele><time>2020-02-09T08:51:26Z</time></trkpt>
<trkpt lat="43.836659985" lon="11.209867029"><ele>81</ele><time>2020-02-09T08:51:27Z</time></trkpt>
<trkpt lat="43.836680017" lon="11.20983501"><ele>81</ele><time>2020-02-09T08:51:28Z</time></trkpt>
<trkpt lat="43.836698961" lon="11.209800979"><ele>81</ele><time>2020-02-09T08:51:29Z</time></trkpt>
<trkpt lat="43.836716982" lon="11.209766027"><ele>81</ele><time>2020-02-09T08:51:30Z</time></trkpt>
<trkpt lat="43.836735003" lon="11.20973099"><ele>81</ele><time>2020-02-09T08:51:31Z</time></trkpt>
<trkpt lat="43.836753024" lon="11.209694026"><ele>81</ele><time>2020-02-09T08:51:32Z</time></trkpt>
<trkpt lat="43.836770039" lon="11.209656978"><ele>81</ele><time>2020-02-09T08:51:33Z</time></trkpt>
<trkpt lat="43.836785965" lon="11.209619008"><ele>81</ele><time>2020-02-09T08:51:34Z</time></trkpt>
<trkpt lat="43.83680298" lon="11.20958196"><ele>81</ele><time>2020-02-09T08:51:35Z</time></trkpt>
<trkpt lat="43.836819995" lon="11.209544996"><ele>81</ele><time>2020-02-09T08:51:36Z</time></trkpt>
<trkpt lat="43.836838016" lon="11.209509037"><ele>81</ele><time>2020-02-09T08:51:37Z</time></trkpt>
<trkpt lat="43.836855032" lon="11.209472995"><ele>81</ele><time>2020-02-09T08:51:38Z</time></trkpt>
<trkpt lat="43.836906999" lon="11.209359001"><ele>81</ele><time>2020-02-09T08:51:41Z</time></trkpt>
<trkpt lat="43.836924015" lon="11.209320026"><ele>80</ele><time>2020-02-09T08:51:42Z</time></trkpt>
<trkpt lat="43.83694103" lon="11.209281972"><ele>80</ele><time>2020-02-09T08:51:43Z</time></trkpt>
<trkpt lat="43.836958967" lon="11.209244002"><ele>80</ele><time>2020-02-09T08:51:44Z</time></trkpt>
<trkpt lat="43.836976988" lon="11.209207037"><ele>80</ele><time>2020-02-09T08:51:45Z</time></trkpt>
<trkpt lat="43.836994004" lon="11.209168984"><ele>80</ele><time>2020-02-09T08:51:46Z</time></trkpt>
<trkpt lat="43.837010013" lon="11.209131014"><ele>80</ele><time>2020-02-09T08:51:47Z</time></trkpt>
<trkpt lat="43.837024011" lon="11.20909296"><ele>80</ele><time>2020-02-09T08:51:48Z</time></trkpt>
<trkpt lat="43.837035997" lon="11.209053984"><ele>80</ele><time>2020-02-09T08:51:49Z</time></trkpt>
<trkpt lat="43.837045971" lon="11.209015008"><ele>80</ele><time>2020-02-09T08:51:50Z</time></trkpt>
<trkpt lat="43.83705603" lon="11.208975026"><ele>80</ele><time>2020-02-09T08:51:51Z</time></trkpt>
<trkpt lat="43.837064998" lon="11.208935967"><ele>80</ele><time>2020-02-09T08:51:52Z</time></trkpt>
<trkpt lat="43.837072961" lon="11.208896991"><ele>80</ele><time>2020-02-09T08:51:53Z</time></trkpt>
<trkpt lat="43.837082013" lon="11.208859021"><ele>80</ele><time>2020-02-09T08:51:54Z</time></trkpt>
<trkpt lat="43.837091988" lon="11.208820967"><ele>80</ele><time>2020-02-09T08:51:55Z</time></trkpt>
<trkpt lat="43.837101962" lon="11.208785009"><ele>80</ele><time>2020-02-09T08:51:56Z</time></trkpt>
<trkpt lat="43.837114032" lon="11.208748966"><ele>80</ele><time>2020-02-09T08:51:57Z</time></trkpt>
<trkpt lat="43.837126018" lon="11.208713008"><ele>80</ele><time>2020-02-09T08:51:58Z</time></trkpt>
<trkpt lat="43.83713901" lon="11.208677972"><ele>80</ele><time>2020-02-09T08:51:59Z</time></trkpt>
<trkpt lat="43.837153008" lon="11.208643019"><ele>80</ele><time>2020-02-09T08:52:00Z</time></trkpt>
<trkpt lat="43.837167006" lon="11.208606977"><ele>80</ele><time>2020-02-09T08:52:01Z</time></trkpt>
<trkpt lat="43.837181004" lon="11.208571019"><ele>80</ele><time>2020-02-09T08:52:02Z</time></trkpt>
<trkpt lat="43.837195002" lon="11.208534976"><ele>80</ele><time>2020-02-09T08:52:03Z</time></trkpt>
<trkpt lat="43.837210005" lon="11.208498012"><ele>80</ele><time>2020-02-09T08:52:04Z</time></trkpt>
<trkpt lat="43.837224003" lon="11.208459958"><ele>80</ele><time>2020-02-09T08:52:05Z</time></trkpt>
<trkpt lat="43.837238001" lon="11.208424"><ele>80</ele><time>2020-02-09T08:52:06Z</time></trkpt>
<trkpt lat="43.837250993" lon="11.20838997"><ele>80</ele><time>2020-02-09T08:52:07Z</time></trkpt>
<trkpt lat="43.837288041" lon="11.208299026"><ele>80</ele><time>2020-02-09T08:52:10Z</time></trkpt>
<trkpt lat="43.837300027" lon="11.208270025"><ele>80</ele><time>2020-02-09T08:52:11Z</time></trkpt>
<trkpt lat="43.837314025" lon="11.208240017"><ele>80</ele><time>2020-02-09T08:52:12Z</time></trkpt>
<trkpt lat="43.837329028" lon="11.208209004"><ele>80</ele><time>2020-02-09T08:52:13Z</time></trkpt>
<trkpt lat="43.837344032" lon="11.208176985"><ele>80</ele><time>2020-02-09T08:52:14Z</time></trkpt>
<trkpt lat="43.837360041" lon="11.208143961"><ele>80</ele><time>2020-02-09T08:52:15Z</time></trkpt>
<trkpt lat="43.837376973" lon="11.208112026"><ele>80</ele><time>2020-02-09T08:52:16Z</time></trkpt>
<trkpt lat="43.837394994" lon="11.208077995"><ele>80</ele><time>2020-02-09T08:52:17Z</time></trkpt>
<trkpt lat="43.837413015" lon="11.20804497"><ele>80</ele><time>2020-02-09T08:52:18Z</time></trkpt>
<trkpt lat="43.837432042" lon="11.20801203"><ele>80</ele><time>2020-02-09T08:52:19Z</time></trkpt>
<trkpt lat="43.837450985" lon="11.207979005"><ele>80</ele><time>2020-02-09T08:52:20Z</time></trkpt>
<trkpt lat="43.837470012" lon="11.207946986"><ele>80</ele><time>2020-02-09T08:52:21Z</time></trkpt>
<trkpt lat="43.837489961" lon="11.207913961"><ele>80</ele><time>2020-02-09T08:52:22Z</time></trkpt>
<trkpt lat="43.837509993" lon="11.207882026"><ele>80</ele><time>2020-02-09T08:52:23Z</time></trkpt>
<trkpt lat="43.837530026" lon="11.207849002"><ele>80</ele><time>2020-02-09T08:52:24Z</time></trkpt>
<trkpt lat="43.837550981" lon="11.207816983"><ele>80</ele><time>2020-02-09T08:52:25Z</time></trkpt>
<trkpt lat="43.837571014" lon="11.207784964"><ele>80</ele><time>2020-02-09T08:52:26Z</time></trkpt>
<trkpt lat="43.837591968" lon="11.207753029"><ele>80</ele><time>2020-02-09T08:52:27Z</time></trkpt>
<trkpt lat="43.837612001" lon="11.20772101"><ele>81</ele><time>2020-02-09T08:52:28Z</time></trkpt>
<trkpt lat="43.83763304" lon="11.207689997"><ele>81</ele><time>2020-02-09T08:52:29Z</time></trkpt>
<trkpt lat="43.837653995" lon="11.207657978"><ele>81</ele><time>2020-02-09T08:52:30Z</time></trkpt>
<trkpt lat="43.837674027" lon="11.207626965"><ele>81</ele><time>2020-02-09T08:52:31Z</time></trkpt>
<trkpt lat="43.837693976" lon="11.20759503"><ele>81</ele><time>2020-02-09T08:52:32Z</time></trkpt>
<trkpt lat="43.837715015" lon="11.207564017"><ele>81</ele><time>2020-02-09T08:52:33Z</time></trkpt>
<trkpt lat="43.837734964" lon="11.207533004"><ele>81</ele><time>2020-02-09T08:52:34Z</time></trkpt>
<trkpt lat="43.837753991" lon="11.207501991"><ele>81</ele><time>2020-02-09T08:52:35Z</time></trkpt>
<trkpt lat="43.837774023" lon="11.207470978"><ele>81</ele><time>2020-02-09T08:52:36Z</time></trkpt>
<trkpt lat="43.837792967" lon="11.207439965"><ele>81</ele><time>2020-02-09T08:52:37Z</time></trkpt>
<trkpt lat="43.837810988" lon="11.207409035"><ele>82</ele><time>2020-02-09T08:52:38Z</time></trkpt>
<trkpt lat="43.837830015" lon="11.207378022"><ele>82</ele><time>2020-02-09T08:52:39Z</time></trkpt>
<trkpt lat="43.837848036" lon="11.207347009"><ele>82</ele><time>2020-02-09T08:52:40Z</time></trkpt>
<trkpt lat="43.837864967" lon="11.207315996"><ele>82</ele><time>2020-02-09T08:52:41Z</time></trkpt>
<trkpt lat="43.837882988" lon="11.207283977"><ele>82</ele><time>2020-02-09T08:52:42Z</time></trkpt>
<trkpt lat="43.837900003" lon="11.207252964"><ele>82</ele><time>2020-02-09T08:52:43Z</time></trkpt>
<trkpt lat="43.837916013" lon="11.207221029"><ele>82</ele><time>2020-02-09T08:52:44Z</time></trkpt>
<trkpt lat="43.837932022" lon="11.20718901"><ele>82</ele><time>2020-02-09T08:52:45Z</time></trkpt>
<trkpt lat="43.837948032" lon="11.207156992"><ele>82</ele><time>2020-02-09T08:52:46Z</time></trkpt>
<trkpt lat="43.837963035" lon="11.207124973"><ele>82</ele><time>2020-02-09T08:52:47Z</time></trkpt>
<trkpt lat="43.837978039" lon="11.207092032"><ele>82</ele><time>2020-02-09T08:52:48Z</time></trkpt>
<trkpt lat="43.837992959" lon="11.207059007"><ele>82</ele><time>2020-02-09T08:52:49Z</time></trkpt>
<trkpt lat="43.83800704" lon="11.207025982"><ele>82</ele><time>2020-02-09T08:52:50Z</time></trkpt>
<trkpt lat="43.838020032" lon="11.206992036"><ele>82</ele><time>2020-02-09T08:52:51Z</time></trkpt>
<trkpt lat="43.83803403" lon="11.206958005"><ele>82</ele><time>2020-02-09T08:52:52Z</time></trkpt>
<trkpt lat="43.838047022" lon="11.206924981"><ele>82</ele><time>2020-02-09T08:52:53Z</time></trkpt>
<trkpt lat="43.83806102" lon="11.20689204"><ele>82</ele><time>2020-02-09T08:52:54Z</time></trkpt>
<trkpt lat="43.838076023" lon="11.206860021"><ele>82</ele><time>2020-02-09T08:52:55Z</time></trkpt>
<trkpt lat="43.838092033" lon="11.206830014"><ele>82</ele><time>2020-02-09T08:52:56Z</time></trkpt>
<trkpt lat="43.83810997" lon="11.206801012"><ele>82</ele><time>2020-02-09T08:52:57Z</time></trkpt>
<trkpt lat="43.838130003" lon="11.206774022"><ele>82</ele><time>2020-02-09T08:52:58Z</time></trkpt>
<trkpt lat="43.838151963" lon="11.206748961"><ele>82</ele><time>2020-02-09T08:52:59Z</time></trkpt>
<trkpt lat="43.838176019" lon="11.206725994"><ele>83</ele><time>2020-02-09T08:53:00Z</time></trkpt>
<trkpt lat="43.838200998" lon="11.206704034"><ele>83</ele><time>2020-02-09T08:53:01Z</time></trkpt>
<trkpt lat="43.838227987" lon="11.206679977"><ele>83</ele><time>2020-02-09T08:53:02Z</time></trkpt>
<trkpt lat="43.838255983" lon="11.206656005"><ele>83</ele><time>2020-02-09T08:53:03Z</time></trkpt>
<trkpt lat="43.838342987" lon="11.206565984"><ele>83</ele><time>2020-02-09T08:53:06Z</time></trkpt>
<trkpt lat="43.838370983" lon="11.206530025"><ele>83</ele><time>2020-02-09T08:53:07Z</time></trkpt>
<trkpt lat="43.838398978" lon="11.206497001"><ele>83</ele><time>2020-02-09T08:53:08Z</time></trkpt>
<trkpt lat="43.83842404" lon="11.206475962"><ele>83</ele><time>2020-02-09T08:53:09Z</time></trkpt>
<trkpt lat="43.838447006" lon="11.206469005"><ele>83</ele><time>2020-02-09T08:53:10Z</time></trkpt>
<trkpt lat="43.838467039" lon="11.206474034"><ele>83</ele><time>2020-02-09T08:53:11Z</time></trkpt>
<trkpt lat="43.838485982" lon="11.20648996"><ele>83</ele><time>2020-02-09T08:53:12Z</time></trkpt>
<trkpt lat="43.838502998" lon="11.206514016"><ele>83</ele><time>2020-02-09T08:53:13Z</time></trkpt>
<trkpt lat="43.838520013" lon="11.206541006"><ele>83</ele><time>2020-02-09T08:53:14Z</time></trkpt>
<trkpt lat="43.838555971" lon="11.20660102"><ele>83</ele><time>2020-02-09T08:53:16Z</time></trkpt>
<trkpt lat="43.83857701" lon="11.206631027"><ele>83</ele><time>2020-02-09T08:53:17Z</time></trkpt>
<trkpt lat="43.838600982" lon="11.206661034"><ele>83</ele><time>2020-02-09T08:53:18Z</time></trkpt>
<trkpt lat="43.838627972" lon="11.206690036"><ele>83</ele><time>2020-02-09T08:53:19Z</time></trkpt>
<trkpt lat="43.838655967" lon="11.206719959"><ele>84</ele><time>2020-02-09T08:53:20Z</time></trkpt>
<trkpt lat="43.838683041" lon="11.206748961"><ele>84</ele><time>2020-02-09T08:53:21Z</time></trkpt>
<trkpt lat="43.838706007" lon="11.206778968"><ele>84</ele><time>2020-02-09T08:53:22Z</time></trkpt>
<trkpt lat="43.83872604" lon="11.206808975"><ele>84</ele><time>2020-02-09T08:53:23Z</time></trkpt>
<trkpt lat="43.838741966" lon="11.206839988"><ele>84</ele><time>2020-02-09T08:53:24Z</time></trkpt>
<trkpt lat="43.838755963" lon="11.206871001"><ele>84</ele><time>2020-02-09T08:53:25Z</time></trkpt>
<trkpt lat="43.838767027" lon="11.206901008"><ele>84</ele><time>2020-02-09T08:53:26Z</time></trkpt>
<trkpt lat="43.838778008" lon="11.206932021"><ele>84</ele><time>2020-02-09T08:53:27Z</time></trkpt>
<trkpt lat="43.838787982" lon="11.206963034"><ele>84</ele><time>2020-02-09T08:53:28Z</time></trkpt>
<trkpt lat="43.838798041" lon="11.206993042"><ele>84</ele><time>2020-02-09T08:53:29Z</time></trkpt>
<trkpt lat="43.838808015" lon="11.207021959"><ele>85</ele><time>2020-02-09T08:53:30Z</time></trkpt>
<trkpt lat="43.838820001" lon="11.207050961"><ele>85</ele><time>2020-02-09T08:53:31Z</time></trkpt>
<trkpt lat="43.838830981" lon="11.207079962"><ele>85</ele><time>2020-02-09T08:53:32Z</time></trkpt>
<trkpt lat="43.838843973" lon="11.207108963"><ele>85</ele><time>2020-02-09T08:53:33Z</time></trkpt>
<trkpt lat="43.838857971" lon="11.207137965"><ele>85</ele><time>2020-02-09T08:53:34Z</time></trkpt>
<trkpt lat="43.838871969" lon="11.207166966"><ele>85</ele><time>2020-02-09T08:53:35Z</time></trkpt>
<trkpt lat="43.838887978" lon="11.207195967"><ele>85</ele><time>2020-02-09T08:53:36Z</time></trkpt>
<trkpt lat="43.838903988" lon="11.20722698"><ele>85</ele><time>2020-02-09T08:53:37Z</time></trkpt>
<trkpt lat="43.838921003" lon="11.207257994"><ele>85</ele><time>2020-02-09T08:53:38Z</time></trkpt>
<trkpt lat="43.838939024" lon="11.207290012"><ele>86</ele><time>2020-02-09T08:53:39Z</time></trkpt>
<trkpt lat="43.838956961" lon="11.207322031"><ele>86</ele><time>2020-02-09T08:53:40Z</time></trkpt>
<trkpt lat="43.838974983" lon="11.207355978"><ele>86</ele><time>2020-02-09T08:53:41Z</time></trkpt>
<trkpt lat="43.838993004" lon="11.207391014"><ele>86</ele><time>2020-02-09T08:53:42Z</time></trkpt>
<trkpt lat="43.839010019" lon="11.207426973"><ele>86</ele><time>2020-02-09T08:53:43Z</time></trkpt>
<trkpt lat="43.839026028" lon="11.207464021"><ele>86</ele><time>2020-02-09T08:53:44Z</time></trkpt>
<trkpt lat="43.839041032" lon="11.207502997"><ele>87</ele><time>2020-02-09T08:53:45Z</time></trkpt>
<trkpt lat="43.839054024" lon="11.207541972"><ele>87</ele><time>2020-02-09T08:53:46Z</time></trkpt>
<trkpt lat="43.839067016" lon="11.207578015"><ele>87</ele><time>2020-02-09T08:53:47Z</time></trkpt>
<trkpt lat="43.839081014" lon="11.207607016"><ele>87</ele><time>2020-02-09T08:53:48Z</time></trkpt>
<trkpt lat="43.83911496" lon="11.207628977"><ele>87</ele><time>2020-02-09T08:53:50Z</time></trkpt>
<trkpt lat="43.839135999" lon="11.207624031"><ele>87</ele><time>2020-02-09T08:53:51Z</time></trkpt>
<trkpt lat="43.839157959" lon="11.207619002"><ele>87</ele><time>2020-02-09T08:53:52Z</time></trkpt>
<trkpt lat="43.83920297" lon="11.207621014"><ele>87</ele><time>2020-02-09T08:53:54Z</time></trkpt>
<trkpt lat="43.839225015" lon="11.207629982"><ele>87</ele><time>2020-02-09T08:53:55Z</time></trkpt>
<trkpt lat="43.839245969" lon="11.20764398"><ele>87</ele><time>2020-02-09T08:53:56Z</time></trkpt>
<trkpt lat="43.839267008" lon="11.207662001"><ele>87</ele><time>2020-02-09T08:53:57Z</time></trkpt>
<trkpt lat="43.839286035" lon="11.20768304"><ele>87</ele><time>2020-02-09T08:53:58Z</time></trkpt>
<trkpt lat="43.839304978" lon="11.207708018"><ele>87</ele><time>2020-02-09T08:53:59Z</time></trkpt>
<trkpt lat="43.839321993" lon="11.207735008"><ele>87</ele><time>2020-02-09T08:54:00Z</time></trkpt>
<trkpt lat="43.839336997" lon="11.207765015"><ele>87</ele><time>2020-02-09T08:54:01Z</time></trkpt>
<trkpt lat="43.839352001" lon="11.207796028"><ele>87</ele><time>2020-02-09T08:54:02Z</time></trkpt>
<trkpt lat="43.839365998" lon="11.207827963"><ele>88</ele><time>2020-02-09T08:54:03Z</time></trkpt>
<trkpt lat="43.839381002" lon="11.207860988"><ele>88</ele><time>2020-02-09T08:54:04Z</time></trkpt>
<trkpt lat="43.83942903" lon="11.207953021"><ele>88</ele><time>2020-02-09T08:54:07Z</time></trkpt>
<trkpt lat="43.839447973" lon="11.207980011"><ele>88</ele><time>2020-02-09T08:54:08Z</time></trkpt>
<trkpt lat="43.839470018" lon="11.208003983"><ele>88</ele><time>2020-02-09T08:54:09Z</time></trkpt>
<trkpt lat="43.839492984" lon="11.208026027"><ele>88</ele><time>2020-02-09T08:54:10Z</time></trkpt>
<trkpt lat="43.839514023" lon="11.208045976"><ele>88</ele><time>2020-02-09T08:54:11Z</time></trkpt>
<trkpt lat="43.839531038" lon="11.208066009"><ele>88</ele><time>2020-02-09T08:54:12Z</time></trkpt>
<trkpt lat="43.83954403" lon="11.208086042"><ele>88</ele><time>2020-02-09T08:54:13Z</time></trkpt>
<trkpt lat="43.83955501" lon="11.208104985"><ele>88</ele><time>2020-02-09T08:54:14Z</time></trkpt>
<trkpt lat="43.83956599" lon="11.208120994"><ele>88</ele><time>2020-02-09T08:54:15Z</time></trkpt>
<trkpt lat="43.839580994" lon="11.20813298"><ele>88</ele><time>2020-02-09T08:54:16Z</time></trkpt>
<trkpt lat="43.839602033" lon="11.208139015"><ele>88</ele><time>2020-02-09T08:54:17Z</time></trkpt>
<trkpt lat="43.839627011" lon="11.208142033"><ele>88</ele><time>2020-02-09T08:54:18Z</time></trkpt>
<trkpt lat="43.839654" lon="11.208144967"><ele>88</ele><time>2020-02-09T08:54:19Z</time></trkpt>
<trkpt lat="43.839679984" lon="11.208151001"><ele>88</ele><time>2020-02-09T08:54:20Z</time></trkpt>
<trkpt lat="43.839749973" lon="11.208198024"><ele>88</ele><time>2020-02-09T08:54:23Z</time></trkpt>
<trkpt lat="43.839773024" lon="11.20822099"><ele>89</ele><time>2020-02-09T08:54:24Z</time></trkpt>
<trkpt lat="43.83979599" lon="11.208245968"><ele>89</ele><time>2020-02-09T08:54:25Z</time></trkpt>
<trkpt lat="43.839868996" lon="11.208316963"><ele>89</ele><time>2020-02-09T08:54:28Z</time></trkpt>
<trkpt lat="43.839892969" lon="11.208338002"><ele>89</ele><time>2020-02-09T08:54:29Z</time></trkpt>
<trkpt lat="43.839917025" lon="11.20835904"><ele>89</ele><time>2020-02-09T08:54:30Z</time></trkpt>
<trkpt lat="43.839939991" lon="11.208381001"><ele>89</ele><time>2020-02-09T08:54:31Z</time></trkpt>
<trkpt lat="43.839962035" lon="11.208403967"><ele>89</ele><time>2020-02-09T08:54:32Z</time></trkpt>
<trkpt lat="43.83998299" lon="11.208428023"><ele>89</ele><time>2020-02-09T08:54:33Z</time></trkpt>
<trkpt lat="43.840004029" lon="11.208451996"><ele>89</ele><time>2020-02-09T08:54:34Z</time></trkpt>
<trkpt lat="43.840024984" lon="11.208473034"><ele>89</ele><time>2020-02-09T08:54:35Z</time></trkpt>
<trkpt lat="43.840045016" lon="11.208489966"><ele>89</ele><time>2020-02-09T08:54:36Z</time></trkpt>
<trkpt lat="43.840064965" lon="11.208502036"><ele>89</ele><time>2020-02-09T08:54:37Z</time></trkpt>
<trkpt lat="43.840083992" lon="11.208507987"><ele>89</ele><time>2020-02-09T08:54:38Z</time></trkpt>
<trkpt lat="43.840104025" lon="11.208505975"><ele>89</ele><time>2020-02-09T08:54:39Z</time></trkpt>
<trkpt lat="43.840123974" lon="11.208496001"><ele>89</ele><time>2020-02-09T08:54:40Z</time></trkpt>
<trkpt lat="43.840143001" lon="11.208476974"><ele>89</ele><time>2020-02-09T08:54:41Z</time></trkpt>
<trkpt lat="43.840163033" lon="11.208453001"><ele>89</ele><time>2020-02-09T08:54:42Z</time></trkpt>
<trkpt lat="43.840181977" lon="11.208425006"><ele>89</ele><time>2020-02-09T08:54:43Z</time></trkpt>
<trkpt lat="43.840201003" lon="11.208393993"><ele>89</ele><time>2020-02-09T08:54:44Z</time></trkpt>
<trkpt lat="43.840219025" lon="11.20836298"><ele>89</ele><time>2020-02-09T08:54:45Z</time></trkpt>
<trkpt lat="43.840237968" lon="11.208331967"><ele>89</ele><time>2020-02-09T08:54:46Z</time></trkpt>
<trkpt lat="43.840256995" lon="11.208302965"><ele>89</ele><time>2020-02-09T08:54:47Z</time></trkpt>
<trkpt lat="43.840277027" lon="11.208276981"><ele>89</ele><time>2020-02-09T08:54:48Z</time></trkpt>
<trkpt lat="43.840297982" lon="11.208253009"><ele>89</ele><time>2020-02-09T08:54:49Z</time></trkpt>
<trkpt lat="43.840319021" lon="11.208229959"><ele>89</ele><time>2020-02-09T08:54:50Z</time></trkpt>
<trkpt lat="43.840340981" lon="11.208204981"><ele>89</ele><time>2020-02-09T08:54:51Z</time></trkpt>
<trkpt lat="43.840363026" lon="11.208177991"><ele>89</ele><time>2020-02-09T08:54:52Z</time></trkpt>
<trkpt lat="43.840385992" lon="11.20814899"><ele>89</ele><time>2020-02-09T08:54:53Z</time></trkpt>
<trkpt lat="43.840408036" lon="11.208118983"><ele>89</ele><time>2020-02-09T08:54:54Z</time></trkpt>
<trkpt lat="43.840429997" lon="11.208086964"><ele>89</ele><time>2020-02-09T08:54:55Z</time></trkpt>
<trkpt lat="43.84045003" lon="11.208056035"><ele>89</ele><time>2020-02-09T08:54:56Z</time></trkpt>
<trkpt lat="43.840469979" lon="11.208024016"><ele>89</ele><time>2020-02-09T08:54:57Z</time></trkpt>
<trkpt lat="43.840489006" lon="11.207991997"><ele>89</ele><time>2020-02-09T08:54:58Z</time></trkpt>
<trkpt lat="43.840507027" lon="11.207959978"><ele>89</ele><time>2020-02-09T08:54:59Z</time></trkpt>
<trkpt lat="43.840523958" lon="11.207927959"><ele>89</ele><time>2020-02-09T08:55:00Z</time></trkpt>
<trkpt lat="43.840539968" lon="11.20789703"><ele>89</ele><time>2020-02-09T08:55:01Z</time></trkpt>
<trkpt lat="43.840555977" lon="11.207866017"><ele>89</ele><time>2020-02-09T08:55:02Z</time></trkpt>
<trkpt lat="43.840571987" lon="11.207835004"><ele>89</ele><time>2020-02-09T08:55:03Z</time></trkpt>
<trkpt lat="43.84058699" lon="11.207803991"><ele>89</ele><time>2020-02-09T08:55:04Z</time></trkpt>
<trkpt lat="43.840600988" lon="11.207773983"><ele>89</ele><time>2020-02-09T08:55:05Z</time></trkpt>
<trkpt lat="43.840615992" lon="11.207744982"><ele>89</ele><time>2020-02-09T08:55:06Z</time></trkpt>
<trkpt lat="43.840629989" lon="11.207715981"><ele>89</ele><time>2020-02-09T08:55:07Z</time></trkpt>
<trkpt lat="43.840644993" lon="11.207687985"><ele>89</ele><time>2020-02-09T08:55:08Z</time></trkpt>
<trkpt lat="43.840658991" lon="11.20765999"><ele>89</ele><time>2020-02-09T08:55:09Z</time></trkpt>
<trkpt lat="43.840673994" lon="11.207633"><ele>89</ele><time>2020-02-09T08:55:10Z</time></trkpt>
<trkpt lat="43.840688998" lon="11.20760601"><ele>89</ele><time>2020-02-09T08:55:11Z</time></trkpt>
<trkpt lat="43.840704001" lon="11.207580026"><ele>89</ele><time>2020-02-09T08:55:12Z</time></trkpt>
<trkpt lat="43.840719005" lon="11.207554964"><ele>89</ele><time>2020-02-09T08:55:13Z</time></trkpt>
<trkpt lat="43.840735015" lon="11.20752898"><ele>89</ele><time>2020-02-09T08:55:14Z</time></trkpt>
<trkpt lat="43.84075203" lon="11.207504002"><ele>89</ele><time>2020-02-09T08:55:15Z</time></trkpt>
<trkpt lat="43.840805003" lon="11.207424039"><ele>89</ele><time>2020-02-09T08:55:18Z</time></trkpt>
<trkpt lat="43.84082403" lon="11.207395038"><ele>89</ele><time>2020-02-09T08:55:19Z</time></trkpt>
<trkpt lat="43.840843979" lon="11.20736503"><ele>89</ele><time>2020-02-09T08:55:20Z</time></trkpt>
<trkpt lat="43.840863006" lon="11.207335023"><ele>89</ele><time>2020-02-09T08:55:21Z</time></trkpt>
<trkpt lat="43.840880021" lon="11.20730401"><ele>89</ele><time>2020-02-09T08:55:22Z</time></trkpt>
<trkpt lat="43.840895025" lon="11.207271991"><ele>89</ele><time>2020-02-09T08:55:23Z</time></trkpt>
<trkpt lat="43.840907011" lon="11.207240978"><ele>89</ele><time>2020-02-09T08:55:24Z</time></trkpt>
<trkpt lat="43.840912962" lon="11.207210971"><ele>89</ele><time>2020-02-09T08:55:25Z</time></trkpt>
<trkpt lat="43.840913968" lon="11.207180964"><ele>89</ele><time>2020-02-09T08:55:26Z</time></trkpt>
<trkpt lat="43.840908017" lon="11.207152968"><ele>89</ele><time>2020-02-09T08:55:27Z</time></trkpt>
<trkpt lat="43.840895025" lon="11.207125979"><ele>89</ele><time>2020-02-09T08:55:28Z</time></trkpt>
<trkpt lat="43.84087801" lon="11.207099995"><ele>89</ele><time>2020-02-09T08:55:29Z</time></trkpt>
<trkpt lat="43.840830987" lon="11.207050961"><ele>89</ele><time>2020-02-09T08:55:31Z</time></trkpt>
<trkpt lat="43.840803998" lon="11.207027994"><ele>89</ele><time>2020-02-09T08:55:32Z</time></trkpt>
<trkpt lat="43.840776002" lon="11.207005028"><ele>89</ele><time>2020-02-09T08:55:33Z</time></trkpt>
<trkpt lat="43.840747001" lon="11.206981977"><ele>89</ele><time>2020-02-09T08:55:34Z</time></trkpt>
<trkpt lat="43.840719005" lon="11.206959011"><ele>89</ele><time>2020-02-09T08:55:35Z</time></trkpt>
<trkpt lat="43.84069101" lon="11.206936967"><ele>89</ele><time>2020-02-09T08:55:36Z</time></trkpt>
<trkpt lat="43.84066402" lon="11.206912994"><ele>89</ele><time>2020-02-09T08:55:37Z</time></trkpt>
<trkpt lat="43.840638036" lon="11.206890028"><ele>88</ele><time>2020-02-09T08:55:38Z</time></trkpt>
<trkpt lat="43.840611968" lon="11.206864966"><ele>88</ele><time>2020-02-09T08:55:39Z</time></trkpt>
<trkpt lat="43.840585984" lon="11.206838982"><ele>88</ele><time>2020-02-09T08:55:40Z</time></trkpt>
<trkpt lat="43.840561006" lon="11.206810987"><ele>88</ele><time>2020-02-09T08:55:41Z</time></trkpt>
<trkpt lat="43.840536028" lon="11.206780979"><ele>88</ele><time>2020-02-09T08:55:42Z</time></trkpt>
<trkpt lat="43.840510966" lon="11.206749966"><ele>88</ele><time>2020-02-09T08:55:43Z</time></trkpt>
<trkpt lat="43.840485988" lon="11.206717025"><ele>88</ele><time>2020-02-09T08:55:44Z</time></trkpt>
<trkpt lat="43.840462016" lon="11.206681989"><ele>88</ele><time>2020-02-09T08:55:45Z</time></trkpt>
<trkpt lat="43.840437038" lon="11.206647037"><ele>88</ele><time>2020-02-09T08:55:46Z</time></trkpt>
<trkpt lat="43.840412982" lon="11.206610994"><ele>88</ele><time>2020-02-09T08:55:47Z</time></trkpt>
<trkpt lat="43.840388004" lon="11.206576042"><ele>87</ele><time>2020-02-09T08:55:48Z</time></trkpt>
<trkpt lat="43.840363026" lon="11.206542011"><ele>87</ele><time>2020-02-09T08:55:49Z</time></trkpt>
<trkpt lat="43.840337964" lon="11.206507981"><ele>87</ele><time>2020-02-09T08:55:50Z</time></trkpt>
<trkpt lat="43.84031198" lon="11.206476968"><ele>87</ele><time>2020-02-09T08:55:51Z</time></trkpt>
<trkpt lat="43.840287002" lon="11.206446039"><ele>87</ele><time>2020-02-09T08:55:52Z</time></trkpt>
<trkpt lat="43.840261018" lon="11.206417037"><ele>87</ele><time>2020-02-09T08:55:53Z</time></trkpt>
<trkpt lat="43.84023604" lon="11.20638703"><ele>87</ele><time>2020-02-09T08:55:54Z</time></trkpt>
<trkpt lat="43.840210978" lon="11.206358029"><ele>87</ele><time>2020-02-09T08:55:55Z</time></trkpt>
<trkpt lat="43.840186" lon="11.206328021"><ele>87</ele><time>2020-02-09T08:55:56Z</time></trkpt>
<trkpt lat="43.840116011" lon="11.206230037"><ele>86</ele><time>2020-02-09T08:55:59Z</time></trkpt>
<trkpt lat="43.840093967" lon="11.206193995"><ele>86</ele><time>2020-02-09T08:56:00Z</time></trkpt>
<trkpt lat="43.840075023" lon="11.206157031"><ele>86</ele><time>2020-02-09T08:56:01Z</time></trkpt>
<trkpt lat="43.840059014" lon="11.206118977"><ele>86</ele><time>2020-02-09T08:56:02Z</time></trkpt>
<trkpt lat="43.840045016" lon="11.206080001"><ele>86</ele><time>2020-02-09T08:56:03Z</time></trkpt>
<trkpt lat="43.840035042" lon="11.206040019"><ele>86</ele><time>2020-02-09T08:56:04Z</time></trkpt>
<trkpt lat="43.840029007" lon="11.20600096"><ele>86</ele><time>2020-02-09T08:56:05Z</time></trkpt>
<trkpt lat="43.840029007" lon="11.205961984"><ele>86</ele><time>2020-02-09T08:56:06Z</time></trkpt>
<trkpt lat="43.84003303" lon="11.205923008"><ele>86</ele><time>2020-02-09T08:56:07Z</time></trkpt>
<trkpt lat="43.840041999" lon="11.205885038"><ele>86</ele><time>2020-02-09T08:56:08Z</time></trkpt>
<trkpt lat="43.840054991" lon="11.20584799"><ele>86</ele><time>2020-02-09T08:56:09Z</time></trkpt>
<trkpt lat="43.840071" lon="11.205811026"><ele>86</ele><time>2020-02-09T08:56:10Z</time></trkpt>
<trkpt lat="43.840090027" lon="11.205773978"><ele>86</ele><time>2020-02-09T08:56:11Z</time></trkpt>
<trkpt lat="43.840110982" lon="11.205738019"><ele>86</ele><time>2020-02-09T08:56:12Z</time></trkpt>
<trkpt lat="43.840134032" lon="11.205701977"><ele>86</ele><time>2020-02-09T08:56:13Z</time></trkpt>
<trkpt lat="43.840156998" lon="11.205667024"><ele>86</ele><time>2020-02-09T08:56:14Z</time></trkpt>
<trkpt lat="43.840179965" lon="11.205630982"><ele>86</ele><time>2020-02-09T08:56:15Z</time></trkpt>
<trkpt lat="43.840203015" lon="11.20559603"><ele>86</ele><time>2020-02-09T08:56:16Z</time></trkpt>
<trkpt lat="43.840225982" lon="11.205561999"><ele>86</ele><time>2020-02-09T08:56:17Z</time></trkpt>
<trkpt lat="43.840248026" lon="11.205526963"><ele>86</ele><time>2020-02-09T08:56:18Z</time></trkpt>
<trkpt lat="43.840269987" lon="11.20549201"><ele>86</ele><time>2020-02-09T08:56:19Z</time></trkpt>
<trkpt lat="43.840291025" lon="11.205456974"><ele>86</ele><time>2020-02-09T08:56:20Z</time></trkpt>
<trkpt lat="43.840310974" lon="11.205422021"><ele>86</ele><time>2020-02-09T08:56:21Z</time></trkpt>
<trkpt lat="43.840331007" lon="11.205385979"><ele>86</ele><time>2020-02-09T08:56:22Z</time></trkpt>
<trkpt lat="43.840349028" lon="11.205351027"><ele>86</ele><time>2020-02-09T08:56:23Z</time></trkpt>
<trkpt lat="43.840366965" lon="11.205313979"><ele>86</ele><time>2020-02-09T08:56:24Z</time></trkpt>
<trkpt lat="43.840382975" lon="11.20527802"><ele>86</ele><time>2020-02-09T08:56:25Z</time></trkpt>
<trkpt lat="43.840397978" lon="11.205239967"><ele>86</ele><time>2020-02-09T08:56:26Z</time></trkpt>
<trkpt lat="43.84041097" lon="11.205201996"><ele>86</ele><time>2020-02-09T08:56:27Z</time></trkpt>
<trkpt lat="43.84042304" lon="11.205163021"><ele>86</ele><time>2020-02-09T08:56:28Z</time></trkpt>
<trkpt lat="43.840433015" lon="11.205123961"><ele>86</ele><time>2020-02-09T08:56:29Z</time></trkpt>
<trkpt lat="43.840440977" lon="11.205082973"><ele>86</ele><time>2020-02-09T08:56:30Z</time></trkpt>
<trkpt lat="43.840448018" lon="11.20504098"><ele>86</ele><time>2020-02-09T08:56:31Z</time></trkpt>
<trkpt lat="43.840452041" lon="11.204998987"><ele>86</ele><time>2020-02-09T08:56:32Z</time></trkpt>
<trkpt lat="43.840455981" lon="11.204954982"><ele>86</ele><time>2020-02-09T08:56:33Z</time></trkpt>
<trkpt lat="43.840457993" lon="11.204910977"><ele>86</ele><time>2020-02-09T08:56:34Z</time></trkpt>
<trkpt lat="43.840458998" lon="11.204772005"><ele>86</ele><time>2020-02-09T08:56:37Z</time></trkpt>
<trkpt lat="43.840457993" lon="11.204724982"><ele>86</ele><time>2020-02-09T08:56:38Z</time></trkpt>
<trkpt lat="43.840455981" lon="11.204676032"><ele>86</ele><time>2020-02-09T08:56:39Z</time></trkpt>
<trkpt lat="43.840453969" lon="11.204626998"><ele>85</ele><time>2020-02-09T08:56:40Z</time></trkpt>
<trkpt lat="43.840451036" lon="11.204577964"><ele>85</ele><time>2020-02-09T08:56:41Z</time></trkpt>
<trkpt lat="43.840449024" lon="11.204529013"><ele>85</ele><time>2020-02-09T08:56:42Z</time></trkpt>
<trkpt lat="43.840445001" lon="11.204385012"><ele>85</ele><time>2020-02-09T08:56:45Z</time></trkpt>
<trkpt lat="43.840443995" lon="11.204338996"><ele>85</ele><time>2020-02-09T08:56:46Z</time></trkpt>
<trkpt lat="43.840441983" lon="11.204295997"><ele>85</ele><time>2020-02-09T08:56:47Z</time></trkpt>
<trkpt lat="43.84043796" lon="11.204256015"><ele>85</ele><time>2020-02-09T08:56:48Z</time></trkpt>
<trkpt lat="43.840428991" lon="11.204220979"><ele>85</ele><time>2020-02-09T08:56:49Z</time></trkpt>
<trkpt lat="43.840413988" lon="11.204192983"><ele>85</ele><time>2020-02-09T08:56:50Z</time></trkpt>
<trkpt lat="43.840394039" lon="11.204170017"><ele>84</ele><time>2020-02-09T08:56:51Z</time></trkpt>
<trkpt lat="43.840369983" lon="11.20415099"><ele>84</ele><time>2020-02-09T08:56:52Z</time></trkpt>
<trkpt lat="43.840343999" lon="11.20413498"><ele>84</ele><time>2020-02-09T08:56:53Z</time></trkpt>
<trkpt lat="43.840314997" lon="11.204119977"><ele>84</ele><time>2020-02-09T08:56:54Z</time></trkpt>
<trkpt lat="43.840285996" lon="11.204106985"><ele>84</ele><time>2020-02-09T08:56:55Z</time></trkpt>
<trkpt lat="43.840254983" lon="11.204093993"><ele>84</ele><time>2020-02-09T08:56:56Z</time></trkpt>
<trkpt lat="43.84022397" lon="11.204083012"><ele>84</ele><time>2020-02-09T08:56:57Z</time></trkpt>
<trkpt lat="43.840193041" lon="11.204072032"><ele>84</ele><time>2020-02-09T08:56:58Z</time></trkpt>
<trkpt lat="43.840161022" lon="11.204060968"><ele>83</ele><time>2020-02-09T08:56:59Z</time></trkpt>
<trkpt lat="43.840130009" lon="11.204049988"><ele>83</ele><time>2020-02-09T08:57:00Z</time></trkpt>
<trkpt lat="43.840100002" lon="11.204039007"><ele>83</ele><time>2020-02-09T08:57:01Z</time></trkpt>
<trkpt lat="43.840071" lon="11.204028027"><ele>83</ele><time>2020-02-09T08:57:02Z</time></trkpt>
<trkpt lat="43.840041999" lon="11.204015035"><ele>83</ele><time>2020-02-09T08:57:03Z</time></trkpt>
<trkpt lat="43.840014003" lon="11.204000032"><ele>83</ele><time>2020-02-09T08:57:04Z</time></trkpt>
<trkpt lat="43.839985002" lon="11.203979999"><ele>83</ele><time>2020-02-09T08:57:05Z</time></trkpt>
<trkpt lat="43.839956" lon="11.203956027"><ele>83</ele><time>2020-02-09T08:57:06Z</time></trkpt>
<trkpt lat="43.839929011" lon="11.203928031"><ele>83</ele><time>2020-02-09T08:57:07Z</time></trkpt>
<trkpt lat="43.839906966" lon="11.203897018"><ele>83</ele><time>2020-02-09T08:57:08Z</time></trkpt>
<trkpt lat="43.839891041" lon="11.203863993"><ele>82</ele><time>2020-02-09T08:57:09Z</time></trkpt>
<trkpt lat="43.839884" lon="11.203830969"><ele>82</ele><time>2020-02-09T08:57:10Z</time></trkpt>
<trkpt lat="43.839885006" lon="11.203797022"><ele>82</ele><time>2020-02-09T08:57:11Z</time></trkpt>
<trkpt lat="43.839893974" lon="11.203762991"><ele>82</ele><time>2020-02-09T08:57:12Z</time></trkpt>
<trkpt lat="43.839908978" lon="11.203728961"><ele>82</ele><time>2020-02-09T08:57:13Z</time></trkpt>
<trkpt lat="43.839928005" lon="11.203694008"><ele>82</ele><time>2020-02-09T08:57:14Z</time></trkpt>
<trkpt lat="43.839975027" lon="11.203623014"><ele>82</ele><time>2020-02-09T08:57:16Z</time></trkpt>
<trkpt lat="43.840000005" lon="11.203586971"><ele>82</ele><time>2020-02-09T08:57:17Z</time></trkpt>
<trkpt lat="43.840025989" lon="11.203551013"><ele>82</ele><time>2020-02-09T08:57:18Z</time></trkpt>
<trkpt lat="43.840050967" lon="11.203513965"><ele>82</ele><time>2020-02-09T08:57:19Z</time></trkpt>
<trkpt lat="43.840076029" lon="11.203477001"><ele>82</ele><time>2020-02-09T08:57:20Z</time></trkpt>
<trkpt lat="43.840100002" lon="11.203440037"><ele>82</ele><time>2020-02-09T08:57:21Z</time></trkpt>
<trkpt lat="43.840123974" lon="11.203401983"><ele>82</ele><time>2020-02-09T08:57:22Z</time></trkpt>
<trkpt lat="43.840147024" lon="11.203364013"><ele>82</ele><time>2020-02-09T08:57:23Z</time></trkpt>
<trkpt lat="43.840168985" lon="11.203326965"><ele>82</ele><time>2020-02-09T08:57:24Z</time></trkpt>
<trkpt lat="43.840191029" lon="11.203288995"><ele>82</ele><time>2020-02-09T08:57:25Z</time></trkpt>
<trkpt lat="43.840211984" lon="11.203251025"><ele>82</ele><time>2020-02-09T08:57:26Z</time></trkpt>
<trkpt lat="43.840232017" lon="11.203212971"><ele>82</ele><time>2020-02-09T08:57:27Z</time></trkpt>
<trkpt lat="43.84025096" lon="11.203176007"><ele>82</ele><time>2020-02-09T08:57:28Z</time></trkpt>
<trkpt lat="43.840269987" lon="11.203138037"><ele>82</ele><time>2020-02-09T08:57:29Z</time></trkpt>
<trkpt lat="43.840287002" lon="11.203100989"><ele>82</ele><time>2020-02-09T08:57:30Z</time></trkpt>
<trkpt lat="43.840303011" lon="11.203064024"><ele>82</ele><time>2020-02-09T08:57:31Z</time></trkpt>
<trkpt lat="43.840318015" lon="11.203027982"><ele>82</ele><time>2020-02-09T08:57:32Z</time></trkpt>
<trkpt lat="43.840332013" lon="11.202992024"><ele>82</ele><time>2020-02-09T08:57:33Z</time></trkpt>
<trkpt lat="43.840345005" lon="11.202956988"><ele>82</ele><time>2020-02-09T08:57:34Z</time></trkpt>
<trkpt lat="43.840356991" lon="11.202922035"><ele>81</ele><time>2020-02-09T08:57:35Z</time></trkpt>
<trkpt lat="43.840368977" lon="11.202888004"><ele>81</ele><time>2020-02-09T08:57:36Z</time></trkpt>
<trkpt lat="43.840380963" lon="11.20285498"><ele>81</ele><time>2020-02-09T08:57:37Z</time></trkpt>
<trkpt lat="43.840394039" lon="11.202822961"><ele>81</ele><time>2020-02-09T08:57:38Z</time></trkpt>
<trkpt lat="43.840408036" lon="11.202792032"><ele>81</ele><time>2020-02-09T08:57:39Z</time></trkpt>
<trkpt lat="43.84042304" lon="11.202762024"><ele>81</ele><time>2020-02-09T08:57:40Z</time></trkpt>
<trkpt lat="43.840465033" lon="11.20266404"><ele>81</ele><time>2020-02-09T08:57:43Z</time></trkpt>
<trkpt lat="43.840466961" lon="11.202626992"><ele>81</ele><time>2020-02-09T08:57:44Z</time></trkpt>
<trkpt lat="43.840457993" lon="11.202592961"><ele>81</ele><time>2020-02-09T08:57:45Z</time></trkpt>
<trkpt lat="43.840386998" lon="11.202510986"><ele>81</ele><time>2020-02-09T08:57:48Z</time></trkpt>
<trkpt lat="43.840357997" lon="11.202486008"><ele>80</ele><time>2020-02-09T08:57:49Z</time></trkpt>
<trkpt lat="43.840330001" lon="11.202460025"><ele>80</ele><time>2020-02-09T08:57:50Z</time></trkpt>
<trkpt lat="43.840301" lon="11.202434963"><ele>80</ele><time>2020-02-09T08:57:51Z</time></trkpt>
<trkpt lat="43.840271998" lon="11.202408979"><ele>80</ele><time>2020-02-09T08:57:52Z</time></trkpt>
<trkpt lat="43.840242997" lon="11.202384001"><ele>80</ele><time>2020-02-09T08:57:53Z</time></trkpt>
<trkpt lat="43.840213995" lon="11.202358017"><ele>80</ele><time>2020-02-09T08:57:54Z</time></trkpt>
<trkpt lat="43.840186" lon="11.202332033"><ele>80</ele><time>2020-02-09T08:57:55Z</time></trkpt>
<trkpt lat="43.840156998" lon="11.202304959"><ele>80</ele><time>2020-02-09T08:57:56Z</time></trkpt>
<trkpt lat="43.840129003" lon="11.202278975"><ele>79</ele><time>2020-02-09T08:57:57Z</time></trkpt>
<trkpt lat="43.840101007" lon="11.202251986"><ele>79</ele><time>2020-02-09T08:57:58Z</time></trkpt>
<trkpt lat="43.840073012" lon="11.20222399"><ele>79</ele><time>2020-02-09T08:57:59Z</time></trkpt>
<trkpt lat="43.840046022" lon="11.202197"><ele>79</ele><time>2020-02-09T08:58:00Z</time></trkpt>
<trkpt lat="43.840019032" lon="11.202167999"><ele>79</ele><time>2020-02-09T08:58:01Z</time></trkpt>
<trkpt lat="43.839991959" lon="11.202140003"><ele>79</ele><time>2020-02-09T08:58:02Z</time></trkpt>
<trkpt lat="43.839965975" lon="11.202109996"><ele>79</ele><time>2020-02-09T08:58:03Z</time></trkpt>
<trkpt lat="43.839939991" lon="11.202079989"><ele>78</ele><time>2020-02-09T08:58:04Z</time></trkpt>
<trkpt lat="43.839914007" lon="11.202049982"><ele>78</ele><time>2020-02-09T08:58:05Z</time></trkpt>
<trkpt lat="43.839889029" lon="11.202018969"><ele>78</ele><time>2020-02-09T08:58:06Z</time></trkpt>
<trkpt lat="43.839863967" lon="11.20198804"><ele>78</ele><time>2020-02-09T08:58:07Z</time></trkpt>
<trkpt lat="43.839838989" lon="11.201957026"><ele>78</ele><time>2020-02-09T08:58:08Z</time></trkpt>
<trkpt lat="43.839814011" lon="11.201926013"><ele>78</ele><time>2020-02-09T08:58:09Z</time></trkpt>
<trkpt lat="43.839789033" lon="11.201895"><ele>78</ele><time>2020-02-09T08:58:10Z</time></trkpt>
<trkpt lat="43.839763971" lon="11.201863987"><ele>77</ele><time>2020-02-09T08:58:11Z</time></trkpt>
<trkpt lat="43.839686019" lon="11.20177296"><ele>77</ele><time>2020-02-09T08:58:14Z</time></trkpt>
<trkpt lat="43.83965903" lon="11.201743959"><ele>77</ele><time>2020-02-09T08:58:15Z</time></trkpt>
<trkpt lat="43.83963204" lon="11.201715041"><ele>77</ele><time>2020-02-09T08:58:16Z</time></trkpt>
<trkpt lat="43.839603039" lon="11.201687967"><ele>77</ele><time>2020-02-09T08:58:17Z</time></trkpt>
<trkpt lat="43.839574037" lon="11.201660978"><ele>77</ele><time>2020-02-09T08:58:18Z</time></trkpt>
<trkpt lat="43.83954403" lon="11.201634994"><ele>76</ele><time>2020-02-09T08:58:19Z</time></trkpt>
<trkpt lat="43.839513017" lon="11.201610016"><ele>76</ele><time>2020-02-09T08:58:20Z</time></trkpt>
<trkpt lat="43.839482004" lon="11.20158596"><ele>76</ele><time>2020-02-09T08:58:21Z</time></trkpt>
<trkpt lat="43.839450991" lon="11.201562993"><ele>76</ele><time>2020-02-09T08:58:22Z</time></trkpt>
<trkpt lat="43.83936801" lon="11.201493004"><ele>76</ele><time>2020-02-09T08:58:25Z</time></trkpt>
<trkpt lat="43.839344038" lon="11.201469032"><ele>76</ele><time>2020-02-09T08:58:26Z</time></trkpt>
<trkpt lat="43.839320987" lon="11.201442964"><ele>76</ele><time>2020-02-09T08:58:27Z</time></trkpt>
<trkpt lat="43.839298021" lon="11.201415975"><ele>76</ele><time>2020-02-09T08:58:28Z</time></trkpt>
<trkpt lat="43.839274971" lon="11.201387979"><ele>76</ele><time>2020-02-09T08:58:29Z</time></trkpt>
<trkpt lat="43.83925301" lon="11.201358978"><ele>75</ele><time>2020-02-09T08:58:30Z</time></trkpt>
<trkpt lat="43.839180004" lon="11.201264011"><ele>75</ele><time>2020-02-09T08:58:33Z</time></trkpt>
<trkpt lat="43.839153014" lon="11.201230986"><ele>75</ele><time>2020-02-09T08:58:34Z</time></trkpt>
<trkpt lat="43.839124013" lon="11.201197039"><ele>75</ele><time>2020-02-09T08:58:35Z</time></trkpt>
<trkpt lat="43.839093" lon="11.201164015"><ele>75</ele><time>2020-02-09T08:58:36Z</time></trkpt>
<trkpt lat="43.839062992" lon="11.20113099"><ele>75</ele><time>2020-02-09T08:58:37Z</time></trkpt>
<trkpt lat="43.839032985" lon="11.201098971"><ele>74</ele><time>2020-02-09T08:58:38Z</time></trkpt>
<trkpt lat="43.83900499" lon="11.201068964"><ele>74</ele><time>2020-02-09T08:58:39Z</time></trkpt>
<trkpt lat="43.838978" lon="11.201039962"><ele>74</ele><time>2020-02-09T08:58:40Z</time></trkpt>
<trkpt lat="43.83895101" lon="11.201011967"><ele>74</ele><time>2020-02-09T08:58:41Z</time></trkpt>
<trkpt lat="43.838925026" lon="11.200984977"><ele>74</ele><time>2020-02-09T08:58:42Z</time></trkpt>
<trkpt lat="43.838898037" lon="11.200958993"><ele>74</ele><time>2020-02-09T08:58:43Z</time></trkpt>
<trkpt lat="43.838816984" lon="11.200880036"><ele>73</ele><time>2020-02-09T08:58:46Z</time></trkpt>
<trkpt lat="43.838789994" lon="11.200853968"><ele>73</ele><time>2020-02-09T08:58:47Z</time></trkpt>
<trkpt lat="43.838763004" lon="11.200827984"><ele>73</ele><time>2020-02-09T08:58:48Z</time></trkpt>
<trkpt lat="43.838735009" lon="11.200800994"><ele>73</ele><time>2020-02-09T08:58:49Z</time></trkpt>
<trkpt lat="43.838707013" lon="11.200774005"><ele>73</ele><time>2020-02-09T08:58:50Z</time></trkpt>
<trkpt lat="43.838680023" lon="11.200746009"><ele>73</ele><time>2020-02-09T08:58:51Z</time></trkpt>
<trkpt lat="43.838652028" lon="11.200718014"><ele>73</ele><time>2020-02-09T08:58:52Z</time></trkpt>
<trkpt lat="43.838624032" lon="11.200690018"><ele>72</ele><time>2020-02-09T08:58:53Z</time></trkpt>
<trkpt lat="43.838596959" lon="11.200661017"><ele>72</ele><time>2020-02-09T08:58:54Z</time></trkpt>
<trkpt lat="43.838568963" lon="11.200631009"><ele>72</ele><time>2020-02-09T08:58:55Z</time></trkpt>
<trkpt lat="43.838540968" lon="11.200602008"><ele>72</ele><time>2020-02-09T08:58:56Z</time></trkpt>
<trkpt lat="43.838513978" lon="11.200572001"><ele>72</ele><time>2020-02-09T08:58:57Z</time></trkpt>
<trkpt lat="43.838485982" lon="11.200542999"><ele>72</ele><time>2020-02-09T08:58:58Z</time></trkpt>
<trkpt lat="43.838457987" lon="11.200512992"><ele>72</ele><time>2020-02-09T08:58:59Z</time></trkpt>
<trkpt lat="43.838429991" lon="11.200482985"><ele>71</ele><time>2020-02-09T08:59:00Z</time></trkpt>
<trkpt lat="43.838401996" lon="11.200453984"><ele>71</ele><time>2020-02-09T08:59:01Z</time></trkpt>
<trkpt lat="43.838375006" lon="11.200423976"><ele>71</ele><time>2020-02-09T08:59:02Z</time></trkpt>
<trkpt lat="43.83834701" lon="11.200394975"><ele>71</ele><time>2020-02-09T08:59:03Z</time></trkpt>
<trkpt lat="43.838319015" lon="11.200365974"><ele>71</ele><time>2020-02-09T08:59:04Z</time></trkpt>
<trkpt lat="43.838291019" lon="11.200337978"><ele>71</ele><time>2020-02-09T08:59:05Z</time></trkpt>
<trkpt lat="43.838262018" lon="11.200308977"><ele>71</ele><time>2020-02-09T08:59:06Z</time></trkpt>
<trkpt lat="43.838234022" lon="11.200281987"><ele>71</ele><time>2020-02-09T08:59:07Z</time></trkpt>
<trkpt lat="43.838206027" lon="11.200253991"><ele>71</ele><time>2020-02-09T08:59:08Z</time></trkpt>
<trkpt lat="43.838178031" lon="11.200227002"><ele>70</ele><time>2020-02-09T08:59:09Z</time></trkpt>
<trkpt lat="43.838150036" lon="11.200200012"><ele>70</ele><time>2020-02-09T08:59:10Z</time></trkpt>
<trkpt lat="43.838122962" lon="11.200173022"><ele>70</ele><time>2020-02-09T08:59:11Z</time></trkpt>
<trkpt lat="43.838094966" lon="11.200146032"><ele>70</ele><time>2020-02-09T08:59:12Z</time></trkpt>
<trkpt lat="43.838068983" lon="11.200118037"><ele>70</ele><time>2020-02-09T08:59:13Z</time></trkpt>
<trkpt lat="43.838041993" lon="11.200090041"><ele>70</ele><time>2020-02-09T08:59:14Z</time></trkpt>
<trkpt lat="43.838016009" lon="11.200061962"><ele>70</ele><time>2020-02-09T08:59:15Z</time></trkpt>
<trkpt lat="43.837991031" lon="11.200032961"><ele>70</ele><time>2020-02-09T08:59:16Z</time></trkpt>
<trkpt lat="43.837965969" lon="11.200003959"><ele>70</ele><time>2020-02-09T08:59:17Z</time></trkpt>
<trkpt lat="43.837940991" lon="11.199974036"><ele>70</ele><time>2020-02-09T08:59:18Z</time></trkpt>
<trkpt lat="43.837916013" lon="11.199944029"><ele>70</ele><time>2020-02-09T08:59:19Z</time></trkpt>
<trkpt lat="43.837890029" lon="11.199915027"><ele>70</ele><time>2020-02-09T08:59:20Z</time></trkpt>
<trkpt lat="43.837864967" lon="11.19988502"><ele>70</ele><time>2020-02-09T08:59:21Z</time></trkpt>
<trkpt lat="43.837837977" lon="11.199855013"><ele>70</ele><time>2020-02-09T08:59:22Z</time></trkpt>
<trkpt lat="43.837811993" lon="11.199826011"><ele>70</ele><time>2020-02-09T08:59:23Z</time></trkpt>
<trkpt lat="43.837783998" lon="11.19979701"><ele>70</ele><time>2020-02-09T08:59:24Z</time></trkpt>
<trkpt lat="43.837757008" lon="11.199768009"><ele>70</ele><time>2020-02-09T08:59:25Z</time></trkpt>
<trkpt lat="43.837730018" lon="11.199740013"><ele>70</ele><time>2020-02-09T08:59:26Z</time></trkpt>
<trkpt lat="43.837703029" lon="11.199712018"><ele>70</ele><time>2020-02-09T08:59:27Z</time></trkpt>
<trkpt lat="43.837676961" lon="11.199684022"><ele>70</ele><time>2020-02-09T08:59:28Z</time></trkpt>
<trkpt lat="43.837651983" lon="11.199657032"><ele>70</ele><time>2020-02-09T08:59:29Z</time></trkpt>
<trkpt lat="43.837629016" lon="11.199629959"><ele>70</ele><time>2020-02-09T08:59:30Z</time></trkpt>
<trkpt lat="43.837606972" lon="11.199603975"><ele>70</ele><time>2020-02-09T08:59:31Z</time></trkpt>
<trkpt lat="43.837586017" lon="11.199577991"><ele>70</ele><time>2020-02-09T08:59:32Z</time></trkpt>
<trkpt lat="43.837563973" lon="11.199552007"><ele>70</ele><time>2020-02-09T08:59:33Z</time></trkpt>
<trkpt lat="43.837541007" lon="11.199524011"><ele>70</ele><time>2020-02-09T08:59:34Z</time></trkpt>
<trkpt lat="43.837517034" lon="11.19949501"><ele>69</ele><time>2020-02-09T08:59:35Z</time></trkpt>
<trkpt lat="43.83749499" lon="11.199462991"><ele>69</ele><time>2020-02-09T08:59:36Z</time></trkpt>
<trkpt lat="43.837476969" lon="11.199427033"><ele>69</ele><time>2020-02-09T08:59:37Z</time></trkpt>
<trkpt lat="43.837465988" lon="11.199385962"><ele>69</ele><time>2020-02-09T08:59:38Z</time></trkpt>
<trkpt lat="43.837461965" lon="11.199342962"><ele>69</ele><time>2020-02-09T08:59:39Z</time></trkpt>
<trkpt lat="43.837463977" lon="11.199299963"><ele>69</ele><time>2020-02-09T08:59:40Z</time></trkpt>
<trkpt lat="43.837471018" lon="11.199258976"><ele>69</ele><time>2020-02-09T08:59:41Z</time></trkpt>
<trkpt lat="43.837483004" lon="11.199222011"><ele>69</ele><time>2020-02-09T08:59:42Z</time></trkpt>
<trkpt lat="43.837497002" lon="11.199187981"><ele>69</ele><time>2020-02-09T08:59:43Z</time></trkpt>
<trkpt lat="43.837515023" lon="11.199156968"><ele>69</ele><time>2020-02-09T08:59:44Z</time></trkpt>
<trkpt lat="43.837533966" lon="11.199126039"><ele>69</ele><time>2020-02-09T08:59:45Z</time></trkpt>
<trkpt lat="43.837555004" lon="11.199093014"><ele>69</ele><time>2020-02-09T08:59:46Z</time></trkpt>
<trkpt lat="43.837576965" lon="11.199059989"><ele>69</ele><time>2020-02-09T08:59:47Z</time></trkpt>
<trkpt lat="43.837596998" lon="11.199026965"><ele>69</ele><time>2020-02-09T08:59:48Z</time></trkpt>
<trkpt lat="43.837615019" lon="11.198993018"><ele>69</ele><time>2020-02-09T08:59:49Z</time></trkpt>
<trkpt lat="43.837630022" lon="11.198958987"><ele>69</ele><time>2020-02-09T08:59:50Z</time></trkpt>
<trkpt lat="43.837642008" lon="11.198924035"><ele>69</ele><time>2020-02-09T08:59:51Z</time></trkpt>
<trkpt lat="43.837651983" lon="11.198887993"><ele>69</ele><time>2020-02-09T08:59:52Z</time></trkpt>
<trkpt lat="43.837662041" lon="11.198849017"><ele>69</ele><time>2020-02-09T08:59:53Z</time></trkpt>
<trkpt lat="43.837673021" lon="11.198808029"><ele>69</ele><time>2020-02-09T08:59:54Z</time></trkpt>
<trkpt lat="43.837685008" lon="11.19876503"><ele>69</ele><time>2020-02-09T08:59:55Z</time></trkpt>
<trkpt lat="43.837700011" lon="11.198721025"><ele>69</ele><time>2020-02-09T08:59:56Z</time></trkpt>
<trkpt lat="43.837718032" lon="11.198675008"><ele>69</ele><time>2020-02-09T08:59:57Z</time></trkpt>
<trkpt lat="43.837738987" lon="11.198628992"><ele>69</ele><time>2020-02-09T08:59:58Z</time></trkpt>
<trkpt lat="43.837763965" lon="11.198583981"><ele>69</ele><time>2020-02-09T08:59:59Z</time></trkpt>
<trkpt lat="43.837791039" lon="11.198539976"><ele>69</ele><time>2020-02-09T09:00:00Z</time></trkpt>
<trkpt lat="43.837818028" lon="11.198497983"><ele>69</ele><time>2020-02-09T09:00:01Z</time></trkpt>
<trkpt lat="43.837846024" lon="11.198458001"><ele>69</ele><time>2020-02-09T09:00:02Z</time></trkpt>
<trkpt lat="43.837873014" lon="11.198420031"><ele>69</ele><time>2020-02-09T09:00:03Z</time></trkpt>
<trkpt lat="43.837900003" lon="11.198383989"><ele>69</ele><time>2020-02-09T09:00:04Z</time></trkpt>
<trkpt lat="43.837925987" lon="11.198349958"><ele>69</ele><time>2020-02-09T09:00:05Z</time></trkpt>
<trkpt lat="43.837951971" lon="11.198317017"><ele>69</ele><time>2020-02-09T09:00:06Z</time></trkpt>
<trkpt lat="43.837978039" lon="11.198283993"><ele>69</ele><time>2020-02-09T09:00:07Z</time></trkpt>
<trkpt lat="43.838048028" lon="11.198186008"><ele>69</ele><time>2020-02-09T09:00:10Z</time></trkpt>
<trkpt lat="43.838068983" lon="11.198151978"><ele>69</ele><time>2020-02-09T09:00:11Z</time></trkpt>
<trkpt lat="43.838090021" lon="11.198119037"><ele>69</ele><time>2020-02-09T09:00:12Z</time></trkpt>
<trkpt lat="43.83814903" lon="11.198019963"><ele>69</ele><time>2020-02-09T09:00:15Z</time></trkpt>
<trkpt lat="43.838167973" lon="11.197988028"><ele>69</ele><time>2020-02-09T09:00:16Z</time></trkpt>
<trkpt lat="43.838187" lon="11.19795802"><ele>69</ele><time>2020-02-09T09:00:17Z</time></trkpt>
<trkpt lat="43.838205021" lon="11.197928013"><ele>69</ele><time>2020-02-09T09:00:18Z</time></trkpt>
<trkpt lat="43.838223964" lon="11.197899012"><ele>69</ele><time>2020-02-09T09:00:19Z</time></trkpt>
<trkpt lat="43.838243997" lon="11.197870011"><ele>69</ele><time>2020-02-09T09:00:20Z</time></trkpt>
<trkpt lat="43.838263024" lon="11.197841009"><ele>70</ele><time>2020-02-09T09:00:21Z</time></trkpt>
<trkpt lat="43.838283978" lon="11.197811002"><ele>70</ele><time>2020-02-09T09:00:22Z</time></trkpt>
<trkpt lat="43.838305017" lon="11.197780995"><ele>70</ele><time>2020-02-09T09:00:23Z</time></trkpt>
<trkpt lat="43.838375006" lon="11.197677981"><ele>70</ele><time>2020-02-09T09:00:26Z</time></trkpt>
<trkpt lat="43.838398978" lon="11.197640011"><ele>70</ele><time>2020-02-09T09:00:27Z</time></trkpt>
<trkpt lat="43.838422028" lon="11.197601035"><ele>70</ele><time>2020-02-09T09:00:28Z</time></trkpt>
<trkpt lat="43.838442983" lon="11.197559964"><ele>70</ele><time>2020-02-09T09:00:29Z</time></trkpt>
<trkpt lat="43.838459998" lon="11.197517971"><ele>70</ele><time>2020-02-09T09:00:30Z</time></trkpt>
<trkpt lat="43.83847299" lon="11.197476983"><ele>70</ele><time>2020-02-09T09:00:31Z</time></trkpt>
<trkpt lat="43.838479025" lon="11.19743499"><ele>70</ele><time>2020-02-09T09:00:32Z</time></trkpt>
<trkpt lat="43.838478019" lon="11.197394002"><ele>70</ele><time>2020-02-09T09:00:33Z</time></trkpt>
<trkpt lat="43.838468967" lon="11.197354021"><ele>69</ele><time>2020-02-09T09:00:34Z</time></trkpt>
<trkpt lat="43.838453041" lon="11.197315967"><ele>69</ele><time>2020-02-09T09:00:35Z</time></trkpt>
<trkpt lat="43.838433009" lon="11.197281014"><ele>69</ele><time>2020-02-09T09:00:36Z</time></trkpt>
<trkpt lat="43.838409036" lon="11.197248995"><ele>69</ele><time>2020-02-09T09:00:37Z</time></trkpt>
<trkpt lat="43.838383975" lon="11.197222006"><ele>69</ele><time>2020-02-09T09:00:38Z</time></trkpt>
<trkpt lat="43.838357991" lon="11.197198033"><ele>69</ele><time>2020-02-09T09:00:39Z</time></trkpt>
<trkpt lat="43.838331001" lon="11.197173977"><ele>68</ele><time>2020-02-09T09:00:40Z</time></trkpt>
<trkpt lat="43.838303005" lon="11.197151011"><ele>68</ele><time>2020-02-09T09:00:41Z</time></trkpt>
<trkpt lat="43.838247014" lon="11.197102983"><ele>68</ele><time>2020-02-09T09:00:43Z</time></trkpt>
<trkpt lat="43.838218013" lon="11.19707901"><ele>68</ele><time>2020-02-09T09:00:44Z</time></trkpt>
<trkpt lat="43.838189011" lon="11.197054032"><ele>68</ele><time>2020-02-09T09:00:45Z</time></trkpt>
<trkpt lat="43.838159004" lon="11.197027965"><ele>67</ele><time>2020-02-09T09:00:46Z</time></trkpt>
<trkpt lat="43.838130003" lon="11.197001981"><ele>67</ele><time>2020-02-09T09:00:47Z</time></trkpt>
<trkpt lat="43.838099996" lon="11.196975997"><ele>67</ele><time>2020-02-09T09:00:48Z</time></trkpt>
<trkpt lat="43.838069988" lon="11.196950013"><ele>67</ele><time>2020-02-09T09:00:49Z</time></trkpt>
<trkpt lat="43.838039981" lon="11.196923023"><ele>67</ele><time>2020-02-09T09:00:50Z</time></trkpt>
<trkpt lat="43.83801098" lon="11.196896033"><ele>67</ele><time>2020-02-09T09:00:51Z</time></trkpt>
<trkpt lat="43.837980973" lon="11.196868038"><ele>66</ele><time>2020-02-09T09:00:52Z</time></trkpt>
<trkpt lat="43.837951971" lon="11.196840964"><ele>66</ele><time>2020-02-09T09:00:53Z</time></trkpt>
<trkpt lat="43.83792297" lon="11.196812969"><ele>66</ele><time>2020-02-09T09:00:54Z</time></trkpt>
<trkpt lat="43.837894974" lon="11.196784973"><ele>66</ele><time>2020-02-09T09:00:55Z</time></trkpt>
<trkpt lat="43.837866979" lon="11.196755972"><ele>66</ele><time>2020-02-09T09:00:56Z</time></trkpt>
<trkpt lat="43.837839989" lon="11.196727976"><ele>66</ele><time>2020-02-09T09:00:57Z</time></trkpt>
<trkpt lat="43.837812999" lon="11.196698975"><ele>66</ele><time>2020-02-09T09:00:58Z</time></trkpt>
<trkpt lat="43.83778601" lon="11.196669973"><ele>65</ele><time>2020-02-09T09:00:59Z</time></trkpt>
<trkpt lat="43.837760026" lon="11.196641978"><ele>65</ele><time>2020-02-09T09:01:00Z</time></trkpt>
<trkpt lat="43.837734042" lon="11.196612976"><ele>65</ele><time>2020-02-09T09:01:01Z</time></trkpt>
<trkpt lat="43.837707974" lon="11.196584981"><ele>65</ele><time>2020-02-09T09:01:02Z</time></trkpt>
<trkpt lat="43.83768199" lon="11.196556985"><ele>65</ele><time>2020-02-09T09:01:03Z</time></trkpt>
<trkpt lat="43.837603033" lon="11.196477022"><ele>65</ele><time>2020-02-09T09:01:06Z</time></trkpt>
<trkpt lat="43.837575959" lon="11.196451038"><ele>65</ele><time>2020-02-09T09:01:07Z</time></trkpt>
<trkpt lat="43.837547963" lon="11.19642497"><ele>65</ele><time>2020-02-09T09:01:08Z</time></trkpt>
<trkpt lat="43.837520974" lon="11.196399992"><ele>64</ele><time>2020-02-09T09:01:09Z</time></trkpt>
<trkpt lat="43.837493984" lon="11.196375014"><ele>64</ele><time>2020-02-09T09:01:10Z</time></trkpt>
<trkpt lat="43.837465988" lon="11.196350036"><ele>64</ele><time>2020-02-09T09:01:11Z</time></trkpt>
<trkpt lat="43.837438999" lon="11.196324974"><ele>64</ele><time>2020-02-09T09:01:12Z</time></trkpt>
<trkpt lat="43.837411003" lon="11.196301002"><ele>64</ele><time>2020-02-09T09:01:13Z</time></trkpt>
<trkpt lat="43.837383008" lon="11.196276024"><ele>64</ele><time>2020-02-09T09:01:14Z</time></trkpt>
<trkpt lat="43.837299021" lon="11.1962"><ele>64</ele><time>2020-02-09T09:01:17Z</time></trkpt>
<trkpt lat="43.837271025" lon="11.196174016"><ele>64</ele><time>2020-02-09T09:01:18Z</time></trkpt>
<trkpt lat="43.83724303" lon="11.196147026"><ele>64</ele><time>2020-02-09T09:01:19Z</time></trkpt>
<trkpt lat="43.837214028" lon="11.196120037"><ele>64</ele><time>2020-02-09T09:01:20Z</time></trkpt>
<trkpt lat="43.837185027" lon="11.196091035"><ele>64</ele><time>2020-02-09T09:01:21Z</time></trkpt>
<trkpt lat="43.837156026" lon="11.196062034"><ele>64</ele><time>2020-02-09T09:01:22Z</time></trkpt>
<trkpt lat="43.837126018" lon="11.196033033"><ele>64</ele><time>2020-02-09T09:01:23Z</time></trkpt>
<trkpt lat="43.837096011" lon="11.196003025"><ele>63</ele><time>2020-02-09T09:01:24Z</time></trkpt>
<trkpt lat="43.837066004" lon="11.195973018"><ele>63</ele><time>2020-02-09T09:01:25Z</time></trkpt>
<trkpt lat="43.837035997" lon="11.195945023"><ele>63</ele><time>2020-02-09T09:01:26Z</time></trkpt>
<trkpt lat="43.83700599" lon="11.195917027"><ele>63</ele><time>2020-02-09T09:01:27Z</time></trkpt>
<trkpt lat="43.836974977" lon="11.195890037"><ele>63</ele><time>2020-02-09T09:01:28Z</time></trkpt>
<trkpt lat="43.836943964" lon="11.19586397"><ele>63</ele><time>2020-02-09T09:01:29Z</time></trkpt>
<trkpt lat="43.836913034" lon="11.195838992"><ele>63</ele><time>2020-02-09T09:01:30Z</time></trkpt>
<trkpt lat="43.836884033" lon="11.195814013"><ele>63</ele><time>2020-02-09T09:01:31Z</time></trkpt>
<trkpt lat="43.836857965" lon="11.195789035"><ele>63</ele><time>2020-02-09T09:01:32Z</time></trkpt>
<trkpt lat="43.836833993" lon="11.195762968"><ele>63</ele><time>2020-02-09T09:01:33Z</time></trkpt>
<trkpt lat="43.83681396" lon="11.195735978"><ele>63</ele><time>2020-02-09T09:01:34Z</time></trkpt>
<trkpt lat="43.83679904" lon="11.195705971"><ele>63</ele><time>2020-02-09T09:01:35Z</time></trkpt>
<trkpt lat="43.836789988" lon="11.19567303"><ele>63</ele><time>2020-02-09T09:01:36Z</time></trkpt>
<trkpt lat="43.83679904" lon="11.195559036"><ele>62</ele><time>2020-02-09T09:01:39Z</time></trkpt>
<trkpt lat="43.836811027" lon="11.195517965"><ele>62</ele><time>2020-02-09T09:01:40Z</time></trkpt>
<trkpt lat="43.836827036" lon="11.195476977"><ele>62</ele><time>2020-02-09T09:01:41Z</time></trkpt>
<trkpt lat="43.836845979" lon="11.19543599"><ele>62</ele><time>2020-02-09T09:01:42Z</time></trkpt>
<trkpt lat="43.836868023" lon="11.195396008"><ele>62</ele><time>2020-02-09T09:01:43Z</time></trkpt>
<trkpt lat="43.83689099" lon="11.195358038"><ele>62</ele><time>2020-02-09T09:01:44Z</time></trkpt>
<trkpt lat="43.836914962" lon="11.195321996"><ele>62</ele><time>2020-02-09T09:01:45Z</time></trkpt>
<trkpt lat="43.836940024" lon="11.195286959"><ele>62</ele><time>2020-02-09T09:01:46Z</time></trkpt>
<trkpt lat="43.836966008" lon="11.195253013"><ele>62</ele><time>2020-02-09T09:01:47Z</time></trkpt>
<trkpt lat="43.836990986" lon="11.195219988"><ele>62</ele><time>2020-02-09T09:01:48Z</time></trkpt>
<trkpt lat="43.83701697" lon="11.195186963"><ele>62</ele><time>2020-02-09T09:01:49Z</time></trkpt>
<trkpt lat="43.837042032" lon="11.195154022"><ele>62</ele><time>2020-02-09T09:01:50Z</time></trkpt>
<trkpt lat="43.83706701" lon="11.195119992"><ele>62</ele><time>2020-02-09T09:01:51Z</time></trkpt>
<trkpt lat="43.837090982" lon="11.195085961"><ele>62</ele><time>2020-02-09T09:01:52Z</time></trkpt>
<trkpt lat="43.837113027" lon="11.195051009"><ele>62</ele><time>2020-02-09T09:01:53Z</time></trkpt>
<trkpt lat="43.837134987" lon="11.195014967"><ele>62</ele><time>2020-02-09T09:01:54Z</time></trkpt>
<trkpt lat="43.837157032" lon="11.194979008"><ele>62</ele><time>2020-02-09T09:01:55Z</time></trkpt>
<trkpt lat="43.837177986" lon="11.19494196"><ele>62</ele><time>2020-02-09T09:01:56Z</time></trkpt>
<trkpt lat="43.837199025" lon="11.194904996"><ele>62</ele><time>2020-02-09T09:01:57Z</time></trkpt>
<trkpt lat="43.837220985" lon="11.194868032"><ele>62</ele><time>2020-02-09T09:01:58Z</time></trkpt>
<trkpt lat="43.837242024" lon="11.194830984"><ele>62</ele><time>2020-02-09T09:01:59Z</time></trkpt>
<trkpt lat="43.837263985" lon="11.19479402"><ele>62</ele><time>2020-02-09T09:02:00Z</time></trkpt>
<trkpt lat="43.837287035" lon="11.194756972"><ele>62</ele><time>2020-02-09T09:02:01Z</time></trkpt>
<trkpt lat="43.837308995" lon="11.194720007"><ele>62</ele><time>2020-02-09T09:02:02Z</time></trkpt>
<trkpt lat="43.83733104" lon="11.194682959"><ele>62</ele><time>2020-02-09T09:02:03Z</time></trkpt>
<trkpt lat="43.837351995" lon="11.194645995"><ele>62</ele><time>2020-02-09T09:02:04Z</time></trkpt>
<trkpt lat="43.837372027" lon="11.194609031"><ele>62</ele><time>2020-02-09T09:02:05Z</time></trkpt>
<trkpt lat="43.837391976" lon="11.194570977"><ele>62</ele><time>2020-02-09T09:02:06Z</time></trkpt>
<trkpt lat="43.837408992" lon="11.194534013"><ele>62</ele><time>2020-02-09T09:02:07Z</time></trkpt>
<trkpt lat="43.837426007" lon="11.194496965"><ele>62</ele><time>2020-02-09T09:02:08Z</time></trkpt>
<trkpt lat="43.83744101" lon="11.194460001"><ele>62</ele><time>2020-02-09T09:02:09Z</time></trkpt>
<trkpt lat="43.837454002" lon="11.194423037"><ele>62</ele><time>2020-02-09T09:02:10Z</time></trkpt>
<trkpt lat="43.837466994" lon="11.194385989"><ele>62</ele><time>2020-02-09T09:02:11Z</time></trkpt>
<trkpt lat="43.837477975" lon="11.194349024"><ele>62</ele><time>2020-02-09T09:02:12Z</time></trkpt>
<trkpt lat="43.837508988" lon="11.194239976"><ele>62</ele><time>2020-02-09T09:02:15Z</time></trkpt>
<trkpt lat="43.837518962" lon="11.194204018"><ele>62</ele><time>2020-02-09T09:02:16Z</time></trkpt>
<trkpt lat="43.837530026" lon="11.194167975"><ele>62</ele><time>2020-02-09T09:02:17Z</time></trkpt>
<trkpt lat="43.837542012" lon="11.194132017"><ele>62</ele><time>2020-02-09T09:02:18Z</time></trkpt>
<trkpt lat="43.83755601" lon="11.194095975"><ele>62</ele><time>2020-02-09T09:02:19Z</time></trkpt>
<trkpt lat="43.83757202" lon="11.194059011"><ele>62</ele><time>2020-02-09T09:02:20Z</time></trkpt>
<trkpt lat="43.837591968" lon="11.194022968"><ele>62</ele><time>2020-02-09T09:02:21Z</time></trkpt>
<trkpt lat="43.837614013" lon="11.193986004"><ele>62</ele><time>2020-02-09T09:02:22Z</time></trkpt>
<trkpt lat="43.837639997" lon="11.19394904"><ele>62</ele><time>2020-02-09T09:02:23Z</time></trkpt>
<trkpt lat="43.837663969" lon="11.193918027"><ele>62</ele><time>2020-02-09T09:02:24Z</time></trkpt>
<trkpt lat="43.83768199" lon="11.193893971"><ele>62</ele><time>2020-02-09T09:02:25Z</time></trkpt>
<trkpt lat="43.837728007" lon="11.193807973"><ele>62</ele><time>2020-02-09T09:02:28Z</time></trkpt>
<trkpt lat="43.837745022" lon="11.193767991"><ele>62</ele><time>2020-02-09T09:02:29Z</time></trkpt>
<trkpt lat="43.837761031" lon="11.193725998"><ele>62</ele><time>2020-02-09T09:02:30Z</time></trkpt>
<trkpt lat="43.837777041" lon="11.193682998"><ele>61</ele><time>2020-02-09T09:02:31Z</time></trkpt>
<trkpt lat="43.837791961" lon="11.193637988"><ele>61</ele><time>2020-02-09T09:02:32Z</time></trkpt>
<trkpt lat="43.837806964" lon="11.193593983"><ele>61</ele><time>2020-02-09T09:02:33Z</time></trkpt>
<trkpt lat="43.837820962" lon="11.193548972"><ele>61</ele><time>2020-02-09T09:02:34Z</time></trkpt>
<trkpt lat="43.837835966" lon="11.193504967"><ele>61</ele><time>2020-02-09T09:02:35Z</time></trkpt>
<trkpt lat="43.837849963" lon="11.193461968"><ele>61</ele><time>2020-02-09T09:02:36Z</time></trkpt>
<trkpt lat="43.837864967" lon="11.193419974"><ele>61</ele><time>2020-02-09T09:02:37Z</time></trkpt>
<trkpt lat="43.837878965" lon="11.193379993"><ele>61</ele><time>2020-02-09T09:02:38Z</time></trkpt>
<trkpt lat="43.837894974" lon="11.193342023"><ele>61</ele><time>2020-02-09T09:02:39Z</time></trkpt>
<trkpt lat="43.837909978" lon="11.193304975"><ele>61</ele><time>2020-02-09T09:02:40Z</time></trkpt>
<trkpt lat="43.837925987" lon="11.193270022"><ele>61</ele><time>2020-02-09T09:02:41Z</time></trkpt>
<trkpt lat="43.837943003" lon="11.193235992"><ele>61</ele><time>2020-02-09T09:02:42Z</time></trkpt>
<trkpt lat="43.837961024" lon="11.193202967"><ele>61</ele><time>2020-02-09T09:02:43Z</time></trkpt>
<trkpt lat="43.837979967" lon="11.193172038"><ele>61</ele><time>2020-02-09T09:02:44Z</time></trkpt>
<trkpt lat="43.837998994" lon="11.193141025"><ele>61</ele><time>2020-02-09T09:02:45Z</time></trkpt>
<trkpt lat="43.838020032" lon="11.193110012"><ele>61</ele><time>2020-02-09T09:02:46Z</time></trkpt>
<trkpt lat="43.838041993" lon="11.193080004"><ele>61</ele><time>2020-02-09T09:02:47Z</time></trkpt>
<trkpt lat="43.838064959" lon="11.193051003"><ele>61</ele><time>2020-02-09T09:02:48Z</time></trkpt>
<trkpt lat="43.83808801" lon="11.193022002"><ele>61</ele><time>2020-02-09T09:02:49Z</time></trkpt>
<trkpt lat="43.838110976" lon="11.192995012"><ele>61</ele><time>2020-02-09T09:02:50Z</time></trkpt>
<trkpt lat="43.838135032" lon="11.192968022"><ele>61</ele><time>2020-02-09T09:02:51Z</time></trkpt>
<trkpt lat="43.838159004" lon="11.192942038"><ele>61</ele><time>2020-02-09T09:02:52Z</time></trkpt>
<trkpt lat="43.838182976" lon="11.192916976"><ele>61</ele><time>2020-02-09T09:02:53Z</time></trkpt>
<trkpt lat="43.838207033" lon="11.192891998"><ele>61</ele><time>2020-02-09T09:02:54Z</time></trkpt>
<trkpt lat="43.838231005" lon="11.192868026"><ele>60</ele><time>2020-02-09T09:02:55Z</time></trkpt>
<trkpt lat="43.838254977" lon="11.192842964"><ele>60</ele><time>2020-02-09T09:02:56Z</time></trkpt>
<trkpt lat="43.838279033" lon="11.192814969"><ele>60</ele><time>2020-02-09T09:02:57Z</time></trkpt>
<trkpt lat="43.838303005" lon="11.192784039"><ele>60</ele><time>2020-02-09T09:02:58Z</time></trkpt>
<trkpt lat="43.83832396" lon="11.19275202"><ele>60</ele><time>2020-02-09T09:02:59Z</time></trkpt>
<trkpt lat="43.838338964" lon="11.192718996"><ele>60</ele><time>2020-02-09T09:03:00Z</time></trkpt>
<trkpt lat="43.838341981" lon="11.192688989"><ele>60</ele><time>2020-02-09T09:03:01Z</time></trkpt>
<trkpt lat="43.838331001" lon="11.192660993"><ele>60</ele><time>2020-02-09T09:03:02Z</time></trkpt>
<trkpt lat="43.83830904" lon="11.192639032"><ele>60</ele><time>2020-02-09T09:03:03Z</time></trkpt>
<trkpt lat="43.838280039" lon="11.192622017"><ele>60</ele><time>2020-02-09T09:03:04Z</time></trkpt>
<trkpt lat="43.838247014" lon="11.192611037"><ele>60</ele><time>2020-02-09T09:03:05Z</time></trkpt>
<trkpt lat="43.838212984" lon="11.192607014"><ele>60</ele><time>2020-02-09T09:03:06Z</time></trkpt>
<trkpt lat="43.838179959" lon="11.192607014"><ele>60</ele><time>2020-02-09T09:03:07Z</time></trkpt>
<trkpt lat="43.838148024" lon="11.192608019"><ele>60</ele><time>2020-02-09T09:03:08Z</time></trkpt>
<trkpt lat="43.838116005" lon="11.192606008"><ele>60</ele><time>2020-02-09T09:03:09Z</time></trkpt>
<trkpt lat="43.838084992" lon="11.192597961"><ele>60</ele><time>2020-02-09T09:03:10Z</time></trkpt>
<trkpt lat="43.838055991" lon="11.192585975"><ele>60</ele><time>2020-02-09T09:03:11Z</time></trkpt>
<trkpt lat="43.838026989" lon="11.19256896"><ele>60</ele><time>2020-02-09T09:03:12Z</time></trkpt>
<trkpt lat="43.837998994" lon="11.192548005"><ele>60</ele><time>2020-02-09T09:03:13Z</time></trkpt>
<trkpt lat="43.837972004" lon="11.192525038"><ele>60</ele><time>2020-02-09T09:03:14Z</time></trkpt>
<trkpt lat="43.837945014" lon="11.192498971"><ele>60</ele><time>2020-02-09T09:03:15Z</time></trkpt>
<trkpt lat="43.83791903" lon="11.192472987"><ele>60</ele><time>2020-02-09T09:03:16Z</time></trkpt>
<trkpt lat="43.837892963" lon="11.192444991"><ele>60</ele><time>2020-02-09T09:03:17Z</time></trkpt>
<trkpt lat="43.837866979" lon="11.192418002"><ele>60</ele><time>2020-02-09T09:03:18Z</time></trkpt>
<trkpt lat="43.837840995" lon="11.192392018"><ele>60</ele><time>2020-02-09T09:03:19Z</time></trkpt>
<trkpt lat="43.837815011" lon="11.192365028"><ele>60</ele><time>2020-02-09T09:03:20Z</time></trkpt>
<trkpt lat="43.837789027" lon="11.19233896"><ele>60</ele><time>2020-02-09T09:03:21Z</time></trkpt>
<trkpt lat="43.837763965" lon="11.192312976"><ele>60</ele><time>2020-02-09T09:03:22Z</time></trkpt>
<trkpt lat="43.837737981" lon="11.192286992"><ele>60</ele><time>2020-02-09T09:03:23Z</time></trkpt>
<trkpt lat="43.837713003" lon="11.192262014"><ele>60</ele><time>2020-02-09T09:03:24Z</time></trkpt>
<trkpt lat="43.837687019" lon="11.19223603"><ele>60</ele><time>2020-02-09T09:03:25Z</time></trkpt>
<trkpt lat="43.837662041" lon="11.192210969"><ele>60</ele><time>2020-02-09T09:03:26Z</time></trkpt>
<trkpt lat="43.837635973" lon="11.192184985"><ele>60</ele><time>2020-02-09T09:03:27Z</time></trkpt>
<trkpt lat="43.837610995" lon="11.192160007"><ele>60</ele><time>2020-02-09T09:03:28Z</time></trkpt>
<trkpt lat="43.837533966" lon="11.192082977"><ele>60</ele><time>2020-02-09T09:03:31Z</time></trkpt>
<trkpt lat="43.837508988" lon="11.192057999"><ele>60</ele><time>2020-02-09T09:03:32Z</time></trkpt>
<trkpt lat="43.837432042" lon="11.191979963"><ele>59</ele><time>2020-02-09T09:03:35Z</time></trkpt>
<trkpt lat="43.837405974" lon="11.191953979"><ele>59</ele><time>2020-02-09T09:03:36Z</time></trkpt>
<trkpt lat="43.837378984" lon="11.19192699"><ele>59</ele><time>2020-02-09T09:03:37Z</time></trkpt>
<trkpt lat="43.837353" lon="11.191898994"><ele>59</ele><time>2020-02-09T09:03:38Z</time></trkpt>
<trkpt lat="43.837326011" lon="11.191870999"><ele>59</ele><time>2020-02-09T09:03:39Z</time></trkpt>
<trkpt lat="43.837299021" lon="11.191843003"><ele>59</ele><time>2020-02-09T09:03:40Z</time></trkpt>
<trkpt lat="43.837215034" lon="11.191751976"><ele>58</ele><time>2020-02-09T09:03:43Z</time></trkpt>
<trkpt lat="43.837187039" lon="11.191720963"><ele>58</ele><time>2020-02-09T09:03:44Z</time></trkpt>
<trkpt lat="43.837158959" lon="11.191691039"><ele>58</ele><time>2020-02-09T09:03:45Z</time></trkpt>
<trkpt lat="43.837130964" lon="11.191661032"><ele>58</ele><time>2020-02-09T09:03:46Z</time></trkpt>
<trkpt lat="43.837103974" lon="11.191632031"><ele>58</ele><time>2020-02-09T09:03:47Z</time></trkpt>
<trkpt lat="43.837076984" lon="11.191605041"><ele>58</ele><time>2020-02-09T09:03:48Z</time></trkpt>
<trkpt lat="43.837052006" lon="11.191578973"><ele>58</ele><time>2020-02-09T09:03:49Z</time></trkpt>
<trkpt lat="43.837027028" lon="11.191555001"><ele>57</ele><time>2020-02-09T09:03:50Z</time></trkpt>
<trkpt lat="43.837002972" lon="11.191532034"><ele>57</ele><time>2020-02-09T09:03:51Z</time></trkpt>
<trkpt lat="43.836979" lon="11.19150999"><ele>57</ele><time>2020-02-09T09:03:52Z</time></trkpt>
<trkpt lat="43.836910017" lon="11.191444024"><ele>57</ele><time>2020-02-09T09:03:55Z</time></trkpt>
<trkpt lat="43.836886967" lon="11.191420974"><ele>56</ele><time>2020-02-09T09:03:56Z</time></trkpt>
<trkpt lat="43.836862994" lon="11.191398008"><ele>56</ele><time>2020-02-09T09:03:57Z</time></trkpt>
<trkpt lat="43.836839022" lon="11.19137303"><ele>56</ele><time>2020-02-09T09:03:58Z</time></trkpt>
<trkpt lat="43.836814966" lon="11.191347968"><ele>56</ele><time>2020-02-09T09:03:59Z</time></trkpt>
<trkpt lat="43.836790994" lon="11.191320978"><ele>56</ele><time>2020-02-09T09:04:00Z</time></trkpt>
<trkpt lat="43.836767022" lon="11.191293988"><ele>56</ele><time>2020-02-09T09:04:01Z</time></trkpt>
<trkpt lat="43.83674196" lon="11.191266999"><ele>55</ele><time>2020-02-09T09:04:02Z</time></trkpt>
<trkpt lat="43.836716982" lon="11.191239003"><ele>55</ele><time>2020-02-09T09:04:03Z</time></trkpt>
<trkpt lat="43.836692004" lon="11.191211008"><ele>55</ele><time>2020-02-09T09:04:04Z</time></trkpt>
<trkpt lat="43.836667025" lon="11.191182006"><ele>55</ele><time>2020-02-09T09:04:05Z</time></trkpt>
<trkpt lat="43.836641964" lon="11.191154011"><ele>55</ele><time>2020-02-09T09:04:06Z</time></trkpt>
<trkpt lat="43.836616985" lon="11.191125009"><ele>54</ele><time>2020-02-09T09:04:07Z</time></trkpt>
<trkpt lat="43.836592007" lon="11.191096008"><ele>54</ele><time>2020-02-09T09:04:08Z</time></trkpt>
<trkpt lat="43.836566024" lon="11.191067006"><ele>54</ele><time>2020-02-09T09:04:09Z</time></trkpt>
<trkpt lat="43.836540962" lon="11.191039011"><ele>54</ele><time>2020-02-09T09:04:10Z</time></trkpt>
<trkpt lat="43.836514978" lon="11.191010009"><ele>54</ele><time>2020-02-09T09:04:11Z</time></trkpt>
<trkpt lat="43.836488994" lon="11.190981008"><ele>54</ele><time>2020-02-09T09:04:12Z</time></trkpt>
<trkpt lat="43.83646301" lon="11.190952007"><ele>54</ele><time>2020-02-09T09:04:13Z</time></trkpt>
<trkpt lat="43.836437026" lon="11.190924011"><ele>54</ele><time>2020-02-09T09:04:14Z</time></trkpt>
<trkpt lat="43.836410958" lon="11.190896016"><ele>54</ele><time>2020-02-09T09:04:15Z</time></trkpt>
<trkpt lat="43.836383969" lon="11.19086802"><ele>54</ele><time>2020-02-09T09:04:16Z</time></trkpt>
<trkpt lat="43.836357985" lon="11.190840025"><ele>53</ele><time>2020-02-09T09:04:17Z</time></trkpt>
<trkpt lat="43.836330995" lon="11.190813035"><ele>53</ele><time>2020-02-09T09:04:18Z</time></trkpt>
<trkpt lat="43.836304005" lon="11.190785961"><ele>53</ele><time>2020-02-09T09:04:19Z</time></trkpt>
<trkpt lat="43.836277016" lon="11.190759977"><ele>53</ele><time>2020-02-09T09:04:20Z</time></trkpt>
<trkpt lat="43.836250026" lon="11.190733993"><ele>53</ele><time>2020-02-09T09:04:21Z</time></trkpt>
<trkpt lat="43.836223036" lon="11.19070801"><ele>53</ele><time>2020-02-09T09:04:22Z</time></trkpt>
<trkpt lat="43.83619504" lon="11.190682026"><ele>53</ele><time>2020-02-09T09:04:23Z</time></trkpt>
<trkpt lat="43.836167967" lon="11.190656964"><ele>53</ele><time>2020-02-09T09:04:24Z</time></trkpt>
<trkpt lat="43.836139971" lon="11.190631986"><ele>53</ele><time>2020-02-09T09:04:25Z</time></trkpt>
<trkpt lat="43.836112982" lon="11.190607008"><ele>53</ele><time>2020-02-09T09:04:26Z</time></trkpt>
<trkpt lat="43.836084986" lon="11.19058203"><ele>53</ele><time>2020-02-09T09:04:27Z</time></trkpt>
<trkpt lat="43.836056991" lon="11.190555962"><ele>53</ele><time>2020-02-09T09:04:28Z</time></trkpt>
<trkpt lat="43.836030001" lon="11.190530984"><ele>53</ele><time>2020-02-09T09:04:29Z</time></trkpt>
<trkpt lat="43.836002005" lon="11.190506006"><ele>53</ele><time>2020-02-09T09:04:30Z</time></trkpt>
<trkpt lat="43.83597401" lon="11.190480022"><ele>53</ele><time>2020-02-09T09:04:31Z</time></trkpt>
<trkpt lat="43.835946014" lon="11.190454038"><ele>53</ele><time>2020-02-09T09:04:32Z</time></trkpt>
<trkpt lat="43.835918019" lon="11.190426964"><ele>53</ele><time>2020-02-09T09:04:33Z</time></trkpt>
<trkpt lat="43.835890023" lon="11.190399975"><ele>53</ele><time>2020-02-09T09:04:34Z</time></trkpt>
<trkpt lat="43.835862027" lon="11.190371979"><ele>53</ele><time>2020-02-09T09:04:35Z</time></trkpt>
<trkpt lat="43.835835038" lon="11.190343983"><ele>53</ele><time>2020-02-09T09:04:36Z</time></trkpt>
<trkpt lat="43.835806958" lon="11.190315988"><ele>53</ele><time>2020-02-09T09:04:37Z</time></trkpt>
<trkpt lat="43.835778963" lon="11.190285981"><ele>53</ele><time>2020-02-09T09:04:38Z</time></trkpt>
<trkpt lat="43.835751973" lon="11.190256979"><ele>53</ele><time>2020-02-09T09:04:39Z</time></trkpt>
<trkpt lat="43.835723978" lon="11.190226972"><ele>52</ele><time>2020-02-09T09:04:40Z</time></trkpt>
<trkpt lat="43.835695982" lon="11.190196965"><ele>52</ele><time>2020-02-09T09:04:41Z</time></trkpt>
<trkpt lat="43.835668992" lon="11.190166036"><ele>52</ele><time>2020-02-09T09:04:42Z</time></trkpt>
<trkpt lat="43.835642003" lon="11.190135023"><ele>52</ele><time>2020-02-09T09:04:43Z</time></trkpt>
<trkpt lat="43.835614007" lon="11.19010401"><ele>52</ele><time>2020-02-09T09:04:44Z</time></trkpt>
<trkpt lat="43.835587017" lon="11.190074002"><ele>52</ele><time>2020-02-09T09:04:45Z</time></trkpt>
<trkpt lat="43.835560028" lon="11.190042989"><ele>52</ele><time>2020-02-09T09:04:46Z</time></trkpt>
<trkpt lat="43.83553396" lon="11.190011976"><ele>52</ele><time>2020-02-09T09:04:47Z</time></trkpt>
<trkpt lat="43.83550697" lon="11.189980963"><ele>52</ele><time>2020-02-09T09:04:48Z</time></trkpt>
<trkpt lat="43.83547998" lon="11.189950034"><ele>52</ele><time>2020-02-09T09:04:49Z</time></trkpt>
<trkpt lat="43.835453996" lon="11.189919021"><ele>52</ele><time>2020-02-09T09:04:50Z</time></trkpt>
<trkpt lat="43.835428013" lon="11.189889014"><ele>51</ele><time>2020-02-09T09:04:51Z</time></trkpt>
<trkpt lat="43.835402029" lon="11.189859007"><ele>51</ele><time>2020-02-09T09:04:52Z</time></trkpt>
<trkpt lat="43.835376967" lon="11.189828999"><ele>51</ele><time>2020-02-09T09:04:53Z</time></trkpt>
<trkpt lat="43.835351989" lon="11.189801004"><ele>51</ele><time>2020-02-09T09:04:54Z</time></trkpt>
<trkpt lat="43.835328016" lon="11.189772002"><ele>51</ele><time>2020-02-09T09:04:55Z</time></trkpt>
<trkpt lat="43.835304966" lon="11.189745013"><ele>51</ele><time>2020-02-09T09:04:56Z</time></trkpt>
<trkpt lat="43.835283006" lon="11.189719029"><ele>51</ele><time>2020-02-09T09:04:57Z</time></trkpt>
<trkpt lat="43.835221985" lon="11.189647028"><ele>51</ele><time>2020-02-09T09:05:00Z</time></trkpt>
<trkpt lat="43.835200025" lon="11.18962599"><ele>51</ele><time>2020-02-09T09:05:01Z</time></trkpt>
<trkpt lat="43.835176975" lon="11.189603023"><ele>51</ele><time>2020-02-09T09:05:02Z</time></trkpt>
<trkpt lat="43.835153002" lon="11.189575028"><ele>51</ele><time>2020-02-09T09:05:03Z</time></trkpt>
<trkpt lat="43.83512903" lon="11.189539991"><ele>51</ele><time>2020-02-09T09:05:04Z</time></trkpt>
<trkpt lat="43.835102962" lon="11.189497998"><ele>51</ele><time>2020-02-09T09:05:05Z</time></trkpt>
<trkpt lat="43.835074967" lon="11.189450976"><ele>51</ele><time>2020-02-09T09:05:06Z</time></trkpt>
<trkpt lat="43.83504496" lon="11.189399008"><ele>50</ele><time>2020-02-09T09:05:07Z</time></trkpt>
<trkpt lat="43.835015958" lon="11.189349974"><ele>50</ele><time>2020-02-09T09:05:08Z</time></trkpt>
<trkpt lat="43.834950998" lon="11.189249977"><ele>50</ele><time>2020-02-09T09:05:11Z</time></trkpt>
<trkpt lat="43.834930966" lon="11.189221982"><ele>50</ele><time>2020-02-09T09:05:12Z</time></trkpt>
<trkpt lat="43.834912023" lon="11.189192981"><ele>50</ele><time>2020-02-09T09:05:13Z</time></trkpt>
<trkpt lat="43.83489199" lon="11.189163979"><ele>50</ele><time>2020-02-09T09:05:14Z</time></trkpt>
<trkpt lat="43.834871035" lon="11.189133972"><ele>50</ele><time>2020-02-09T09:05:15Z</time></trkpt>
<trkpt lat="43.834849996" lon="11.189103965"><ele>50</ele><time>2020-02-09T09:05:16Z</time></trkpt>
<trkpt lat="43.834828036" lon="11.189073035"><ele>50</ele><time>2020-02-09T09:05:17Z</time></trkpt>
<trkpt lat="43.834805992" lon="11.189042022"><ele>50</ele><time>2020-02-09T09:05:18Z</time></trkpt>
<trkpt lat="43.834784031" lon="11.189011009"><ele>50</ele><time>2020-02-09T09:05:19Z</time></trkpt>
<trkpt lat="43.834760981" lon="11.188979996"><ele>50</ele><time>2020-02-09T09:05:20Z</time></trkpt>
<trkpt lat="43.83473902" lon="11.188947977"><ele>51</ele><time>2020-02-09T09:05:21Z</time></trkpt>
<trkpt lat="43.83471597" lon="11.188916964"><ele>51</ele><time>2020-02-09T09:05:22Z</time></trkpt>
<trkpt lat="43.834694009" lon="11.188885029"><ele>51</ele><time>2020-02-09T09:05:23Z</time></trkpt>
<trkpt lat="43.834670959" lon="11.188853011"><ele>51</ele><time>2020-02-09T09:05:24Z</time></trkpt>
<trkpt lat="43.834648998" lon="11.188820992"><ele>51</ele><time>2020-02-09T09:05:25Z</time></trkpt>
<trkpt lat="43.834626032" lon="11.188788973"><ele>51</ele><time>2020-02-09T09:05:26Z</time></trkpt>
<trkpt lat="43.834603988" lon="11.188757038"><ele>51</ele><time>2020-02-09T09:05:27Z</time></trkpt>
<trkpt lat="43.834581021" lon="11.188725019"><ele>51</ele><time>2020-02-09T09:05:28Z</time></trkpt>
<trkpt lat="43.834557971" lon="11.188693"><ele>51</ele><time>2020-02-09T09:05:29Z</time></trkpt>
<trkpt lat="43.83453601" lon="11.188659975"><ele>50</ele><time>2020-02-09T09:05:30Z</time></trkpt>
<trkpt lat="43.834512038" lon="11.188627034"><ele>50</ele><time>2020-02-09T09:05:31Z</time></trkpt>
<trkpt lat="43.834488988" lon="11.18859401"><ele>50</ele><time>2020-02-09T09:05:32Z</time></trkpt>
<trkpt lat="43.834466022" lon="11.188560985"><ele>50</ele><time>2020-02-09T09:05:33Z</time></trkpt>
<trkpt lat="43.834441965" lon="11.188527038"><ele>50</ele><time>2020-02-09T09:05:34Z</time></trkpt>
<trkpt lat="43.834368037" lon="11.188425031"><ele>50</ele><time>2020-02-09T09:05:37Z</time></trkpt>
<trkpt lat="43.834342975" lon="11.188389994"><ele>50</ele><time>2020-02-09T09:05:38Z</time></trkpt>
<trkpt lat="43.834316991" lon="11.188354036"><ele>50</ele><time>2020-02-09T09:05:39Z</time></trkpt>
<trkpt lat="43.834292013" lon="11.188318999"><ele>50</ele><time>2020-02-09T09:05:40Z</time></trkpt>
<trkpt lat="43.834267035" lon="11.188283041"><ele>50</ele><time>2020-02-09T09:05:41Z</time></trkpt>
<trkpt lat="43.834241973" lon="11.188248005"><ele>50</ele><time>2020-02-09T09:05:42Z</time></trkpt>
<trkpt lat="43.834220013" lon="11.188211963"><ele>50</ele><time>2020-02-09T09:05:43Z</time></trkpt>
<trkpt lat="43.834198974" lon="11.18817701"><ele>50</ele><time>2020-02-09T09:05:44Z</time></trkpt>
<trkpt lat="43.834178019" lon="11.188140968"><ele>50</ele><time>2020-02-09T09:05:45Z</time></trkpt>
<trkpt lat="43.834158992" lon="11.188105009"><ele>50</ele><time>2020-02-09T09:05:46Z</time></trkpt>
<trkpt lat="43.834139965" lon="11.188067039"><ele>50</ele><time>2020-02-09T09:05:47Z</time></trkpt>
<trkpt lat="43.834121022" lon="11.18802798"><ele>50</ele><time>2020-02-09T09:05:48Z</time></trkpt>
<trkpt lat="43.834103001" lon="11.187989004"><ele>49</ele><time>2020-02-09T09:05:49Z</time></trkpt>
<trkpt lat="43.834085986" lon="11.187948016"><ele>49</ele><time>2020-02-09T09:05:50Z</time></trkpt>
<trkpt lat="43.834068971" lon="11.187907029"><ele>49</ele><time>2020-02-09T09:05:51Z</time></trkpt>
<trkpt lat="43.834052961" lon="11.187866041"><ele>49</ele><time>2020-02-09T09:05:52Z</time></trkpt>
<trkpt lat="43.834038042" lon="11.187823964"><ele>49</ele><time>2020-02-09T09:05:53Z</time></trkpt>
<trkpt lat="43.83402396" lon="11.187780965"><ele>49</ele><time>2020-02-09T09:05:54Z</time></trkpt>
<trkpt lat="43.834010968" lon="11.187737966"><ele>49</ele><time>2020-02-09T09:05:55Z</time></trkpt>
<trkpt lat="43.833999988" lon="11.187694967"><ele>49</ele><time>2020-02-09T09:05:56Z</time></trkpt>
<trkpt lat="43.833991019" lon="11.18765004"><ele>49</ele><time>2020-02-09T09:05:57Z</time></trkpt>
<trkpt lat="43.833983978" lon="11.187605029"><ele>48</ele><time>2020-02-09T09:05:58Z</time></trkpt>
<trkpt lat="43.833978027" lon="11.187559012"><ele>48</ele><time>2020-02-09T09:05:59Z</time></trkpt>
<trkpt lat="43.833970986" lon="11.187515007"><ele>48</ele><time>2020-02-09T09:06:00Z</time></trkpt>
<trkpt lat="43.833961012" lon="11.18747402"><ele>48</ele><time>2020-02-09T09:06:01Z</time></trkpt>
<trkpt lat="43.833947014" lon="11.187435966"><ele>48</ele><time>2020-02-09T09:06:02Z</time></trkpt>
<trkpt lat="43.833928993" lon="11.187403025"><ele>48</ele><time>2020-02-09T09:06:03Z</time></trkpt>
<trkpt lat="43.833907032" lon="11.187376035"><ele>48</ele><time>2020-02-09T09:06:04Z</time></trkpt>
<trkpt lat="43.83388197" lon="11.187354997"><ele>47</ele><time>2020-02-09T09:06:05Z</time></trkpt>
<trkpt lat="43.833852969" lon="11.187339993"><ele>47</ele><time>2020-02-09T09:06:06Z</time></trkpt>
<trkpt lat="43.83382204" lon="11.187329013"><ele>47</ele><time>2020-02-09T09:06:07Z</time></trkpt>
<trkpt lat="43.833790021" lon="11.18731996"><ele>47</ele><time>2020-02-09T09:06:08Z</time></trkpt>
<trkpt lat="43.833758002" lon="11.187309986"><ele>47</ele><time>2020-02-09T09:06:09Z</time></trkpt>
<trkpt lat="43.833726989" lon="11.187298"><ele>47</ele><time>2020-02-09T09:06:10Z</time></trkpt>
<trkpt lat="43.833695976" lon="11.18728199"><ele>47</ele><time>2020-02-09T09:06:11Z</time></trkpt>
<trkpt lat="43.833607966" lon="11.187218037"><ele>46</ele><time>2020-02-09T09:06:14Z</time></trkpt>
<trkpt lat="43.833579971" lon="11.187192975"><ele>46</ele><time>2020-02-09T09:06:15Z</time></trkpt>
<trkpt lat="43.833552981" lon="11.187164979"><ele>46</ele><time>2020-02-09T09:06:16Z</time></trkpt>
<trkpt lat="43.833525991" lon="11.187135978"><ele>46</ele><time>2020-02-09T09:06:17Z</time></trkpt>
<trkpt lat="43.833500007" lon="11.187104965"><ele>46</ele><time>2020-02-09T09:06:18Z</time></trkpt>
<trkpt lat="43.833474023" lon="11.187074035"><ele>46</ele><time>2020-02-09T09:06:19Z</time></trkpt>
<trkpt lat="43.833448961" lon="11.187041011"><ele>45</ele><time>2020-02-09T09:06:20Z</time></trkpt>
<trkpt lat="43.833422977" lon="11.187007986"><ele>45</ele><time>2020-02-09T09:06:21Z</time></trkpt>
<trkpt lat="43.833397999" lon="11.186974961"><ele>45</ele><time>2020-02-09T09:06:22Z</time></trkpt>
<trkpt lat="43.833374027" lon="11.186941015"><ele>45</ele><time>2020-02-09T09:06:23Z</time></trkpt>
<trkpt lat="43.833348965" lon="11.186906984"><ele>45</ele><time>2020-02-09T09:06:24Z</time></trkpt>
<trkpt lat="43.833324993" lon="11.186873959"><ele>45</ele><time>2020-02-09T09:06:25Z</time></trkpt>
<trkpt lat="43.833301021" lon="11.186841018"><ele>45</ele><time>2020-02-09T09:06:26Z</time></trkpt>
<trkpt lat="43.833275959" lon="11.186809"><ele>45</ele><time>2020-02-09T09:06:27Z</time></trkpt>
<trkpt lat="43.833251987" lon="11.186776981"><ele>45</ele><time>2020-02-09T09:06:28Z</time></trkpt>
<trkpt lat="43.833228014" lon="11.186744962"><ele>45</ele><time>2020-02-09T09:06:29Z</time></trkpt>
<trkpt lat="43.833203958" lon="11.186714033"><ele>45</ele><time>2020-02-09T09:06:30Z</time></trkpt>
<trkpt lat="43.833179986" lon="11.18668302"><ele>45</ele><time>2020-02-09T09:06:31Z</time></trkpt>
<trkpt lat="43.833156014" lon="11.186653012"><ele>45</ele><time>2020-02-09T09:06:32Z</time></trkpt>
<trkpt lat="43.833132042" lon="11.186623005"><ele>45</ele><time>2020-02-09T09:06:33Z</time></trkpt>
<trkpt lat="43.833107986" lon="11.186594004"><ele>45</ele><time>2020-02-09T09:06:34Z</time></trkpt>
<trkpt lat="43.833084013" lon="11.186565002"><ele>45</ele><time>2020-02-09T09:06:35Z</time></trkpt>
<trkpt lat="43.833059035" lon="11.186536001"><ele>45</ele><time>2020-02-09T09:06:36Z</time></trkpt>
<trkpt lat="43.833034979" lon="11.186508005"><ele>45</ele><time>2020-02-09T09:06:37Z</time></trkpt>
<trkpt lat="43.833010001" lon="11.18648001"><ele>45</ele><time>2020-02-09T09:06:38Z</time></trkpt>
<trkpt lat="43.832985023" lon="11.18645302"><ele>45</ele><time>2020-02-09T09:06:39Z</time></trkpt>
<trkpt lat="43.832960967" lon="11.18642603"><ele>45</ele><time>2020-02-09T09:06:40Z</time></trkpt>
<trkpt lat="43.832934983" lon="11.186399963"><ele>45</ele><time>2020-02-09T09:06:41Z</time></trkpt>
<trkpt lat="43.832910005" lon="11.186374985"><ele>45</ele><time>2020-02-09T09:06:42Z</time></trkpt>
<trkpt lat="43.832884021" lon="11.186350007"><ele>45</ele><time>2020-02-09T09:06:43Z</time></trkpt>
<trkpt lat="43.832858959" lon="11.186325029"><ele>45</ele><time>2020-02-09T09:06:44Z</time></trkpt>
<trkpt lat="43.832831969" lon="11.186300972"><ele>45</ele><time>2020-02-09T09:06:45Z</time></trkpt>
<trkpt lat="43.832805986" lon="11.186277"><ele>45</ele><time>2020-02-09T09:06:46Z</time></trkpt>
<trkpt lat="43.832778996" lon="11.186254034"><ele>45</ele><time>2020-02-09T09:06:47Z</time></trkpt>
<trkpt lat="43.832752006" lon="11.186231989"><ele>45</ele><time>2020-02-09T09:06:48Z</time></trkpt>
<trkpt lat="43.832725016" lon="11.186210029"><ele>45</ele><time>2020-02-09T09:06:49Z</time></trkpt>
<trkpt lat="43.832697021" lon="11.18618899"><ele>45</ele><time>2020-02-09T09:06:50Z</time></trkpt>
<trkpt lat="43.832668019" lon="11.186168035"><ele>45</ele><time>2020-02-09T09:06:51Z</time></trkpt>
<trkpt lat="43.832640024" lon="11.186148003"><ele>45</ele><time>2020-02-09T09:06:52Z</time></trkpt>
<trkpt lat="43.832611023" lon="11.186128976"><ele>44</ele><time>2020-02-09T09:06:53Z</time></trkpt>
<trkpt lat="43.832581015" lon="11.186110033"><ele>44</ele><time>2020-02-09T09:06:54Z</time></trkpt>
<trkpt lat="43.832551008" lon="11.186091006"><ele>44</ele><time>2020-02-09T09:06:55Z</time></trkpt></trkseg></trk><wpt lat="43.832551008" lon="11.186091006"><name>Finish km:12.815, Lat:43.8326, Lon:11.1861</name><sym>Finish</sym><ele>44</ele></wpt><wpt lat="43.836000999" lon="11.194788991"><name>km:1, Lat:43.836, Lon:11.1948</name><ele>62</ele></wpt><wpt lat="43.841774035" lon="11.202505035"><name>km:2, Lat:43.8418, Lon:11.2025</name><ele>81</ele></wpt><wpt lat="43.846265981" lon="11.206581993"><name>km:3, Lat:43.8463, Lon:11.2066</name><ele>123</ele></wpt><wpt lat="43.850758011" lon="11.214738004"><name>km:4, Lat:43.8508, Lon:11.2147</name><ele>153</ele></wpt><wpt lat="43.842245014" lon="11.214644965"><name>km:5, Lat:43.8422, Lon:11.2146</name><ele>137</ele></wpt><wpt lat="43.839359963" lon="11.220977996"><name>km:6, Lat:43.8394, Lon:11.221</name><ele>172</ele></wpt><wpt lat="43.836242985" lon="11.218142984"><name>km:7, Lat:43.8362, Lon:11.2181</name><ele>114</ele></wpt><wpt lat="43.829314001" lon="11.219505966"><name>km:8, Lat:43.8293, Lon:11.2195</name><ele>87</ele></wpt><wpt lat="43.833390037" lon="11.214946965"><name>km:9, Lat:43.8334, Lon:11.2149</name><ele>90</ele></wpt><wpt lat="43.838921003" lon="11.207257994"><name>km:10, Lat:43.8389, Lon:11.2073</name><ele>85</ele></wpt><wpt lat="43.839032985" lon="11.201098971"><name>km:11, Lat:43.839, Lon:11.2011</name><ele>74</ele></wpt><wpt lat="43.838148024" lon="11.192608019"><name>km:12, Lat:43.8381, Lon:11.1926</name><ele>60</ele></wpt></gpx>
